<?xml version='1.0' encoding='UTF-8'?>
<gpx version="1.1" creator="https://www.komoot.de" xmlns="http://www.topografix.com/GPX/1/1" xmlns:xsi="http://www.w3.org/2001/XMLSchema-instance" xsi:schemaLocation="http://www.topografix.com/GPX/1/1 http://www.topografix.com/GPX/1/1/gpx.xsd">
  <metadata>
    <name>CICLOVIA_2021_01_15</name>
    <author>
      <link href="https://www.komoot.de">
        <text>komoot</text>
        <type>text/html</type>
      </link>
    </author>
  </metadata>
  <trk>
    <name>CICLOVIA_2021_01_15</name>
    <trkseg>
      <trkpt lat="43.638780" lon="12.713710">
        <ele>184.349177</ele>
        <time>2020-02-24T17:46:12.921Z</time>
      </trkpt>
      <trkpt lat="43.638634" lon="12.713571">
        <ele>184.349177</ele>
        <time>2020-02-24T17:46:16.570Z</time>
      </trkpt>
      <trkpt lat="43.638587" lon="12.713539">
        <ele>184.349177</ele>
        <time>2020-02-24T17:46:17.423Z</time>
      </trkpt>
      <trkpt lat="43.637029" lon="12.712762">
        <ele>183.835339</ele>
        <time>2020-02-24T17:46:49.981Z</time>
      </trkpt>
      <trkpt lat="43.636799" lon="12.712559">
        <ele>183.693221</ele>
        <time>2020-02-24T17:46:55.617Z</time>
      </trkpt>
      <trkpt lat="43.636604" lon="12.712226">
        <ele>183.531786</ele>
        <time>2020-02-24T17:47:02.072Z</time>
      </trkpt>
      <trkpt lat="43.636467" lon="12.711840">
        <ele>183.455712</ele>
        <time>2020-02-24T17:47:08.799Z</time>
      </trkpt>
      <trkpt lat="43.636218" lon="12.710218">
        <ele>184.085893</ele>
        <time>2020-02-24T17:47:38.762Z</time>
      </trkpt>
      <trkpt lat="43.636261" lon="12.709532">
        <ele>184.347594</ele>
        <time>2020-02-24T17:47:51.310Z</time>
      </trkpt>
      <trkpt lat="43.636412" lon="12.709028">
        <ele>184.593178</ele>
        <time>2020-02-24T17:48:00.817Z</time>
      </trkpt>
      <trkpt lat="43.636521" lon="12.708729">
        <ele>184.745036</ele>
        <time>2020-02-24T17:48:07.334Z</time>
      </trkpt>
      <trkpt lat="43.636702" lon="12.708287">
        <ele>184.975391</ele>
        <time>2020-02-24T17:48:16.657Z</time>
      </trkpt>
      <trkpt lat="43.636983" lon="12.707653">
        <ele>185.312607</ele>
        <time>2020-02-24T17:48:30.087Z</time>
      </trkpt>
      <trkpt lat="43.637007" lon="12.707598">
        <ele>185.341738</ele>
        <time>2020-02-24T17:48:31.275Z</time>
      </trkpt>
      <trkpt lat="43.637478" lon="12.706667">
        <ele>185.242136</ele>
        <time>2020-02-24T17:48:50.387Z</time>
      </trkpt>
      <trkpt lat="43.638120" lon="12.705158">
        <ele>184.639885</ele>
        <time>2020-02-24T17:49:16.148Z</time>
      </trkpt>
      <trkpt lat="43.638687" lon="12.703473">
        <ele>182.245242</ele>
        <time>2020-02-24T17:49:39.906Z</time>
      </trkpt>
      <trkpt lat="43.638743" lon="12.703249">
        <ele>181.939845</ele>
        <time>2020-02-24T17:49:42.808Z</time>
      </trkpt>
      <trkpt lat="43.638727" lon="12.702925">
        <ele>181.537316</ele>
        <time>2020-02-24T17:49:47.108Z</time>
      </trkpt>
      <trkpt lat="43.638658" lon="12.702703">
        <ele>181.407462</ele>
        <time>2020-02-24T17:49:50.025Z</time>
      </trkpt>
      <trkpt lat="43.638424" lon="12.702180">
        <ele>181.076990</ele>
        <time>2020-02-24T17:49:58.284Z</time>
      </trkpt>
      <trkpt lat="43.638111" lon="12.701549">
        <ele>180.665835</ele>
        <time>2020-02-24T17:50:08.889Z</time>
      </trkpt>
      <trkpt lat="43.637150" lon="12.699725">
        <ele>180.926901</ele>
        <time>2020-02-24T17:50:49.355Z</time>
      </trkpt>
      <trkpt lat="43.636932" lon="12.699355">
        <ele>181.167865</ele>
        <time>2020-02-24T17:50:58.367Z</time>
      </trkpt>
      <trkpt lat="43.636533" lon="12.698800">
        <ele>181.560478</ele>
        <time>2020-02-24T17:51:13.013Z</time>
      </trkpt>
      <trkpt lat="43.636394" lon="12.698609">
        <ele>181.693698</ele>
        <time>2020-02-24T17:51:17.942Z</time>
      </trkpt>
      <trkpt lat="43.636354" lon="12.698554">
        <ele>181.732048</ele>
        <time>2020-02-24T17:51:19.440Z</time>
      </trkpt>
      <trkpt lat="43.636021" lon="12.697772">
        <ele>182.178300</ele>
        <time>2020-02-24T17:51:36.068Z</time>
      </trkpt>
      <trkpt lat="43.635942" lon="12.697300">
        <ele>182.416574</ele>
        <time>2020-02-24T17:51:44.332Z</time>
      </trkpt>
      <trkpt lat="43.635929" lon="12.697028">
        <ele>182.550646</ele>
        <time>2020-02-24T17:51:49.218Z</time>
      </trkpt>
      <trkpt lat="43.635941" lon="12.696692">
        <ele>182.702680</ele>
        <time>2020-02-24T17:51:55.043Z</time>
      </trkpt>
      <trkpt lat="43.635987" lon="12.696255">
        <ele>182.806088</ele>
        <time>2020-02-24T17:52:02.916Z</time>
      </trkpt>
      <trkpt lat="43.636222" lon="12.694837">
        <ele>183.146734</ele>
        <time>2020-02-24T17:52:27.982Z</time>
      </trkpt>
      <trkpt lat="43.636252" lon="12.694650">
        <ele>183.191586</ele>
        <time>2020-02-24T17:52:31.031Z</time>
      </trkpt>
      <trkpt lat="43.636297" lon="12.694275">
        <ele>183.278376</ele>
        <time>2020-02-24T17:52:37.226Z</time>
      </trkpt>
      <trkpt lat="43.636365" lon="12.693499">
        <ele>183.411576</ele>
        <time>2020-02-24T17:52:50.004Z</time>
      </trkpt>
      <trkpt lat="43.636392" lon="12.693050">
        <ele>183.488351</ele>
        <time>2020-02-24T17:52:57.344Z</time>
      </trkpt>
      <trkpt lat="43.636375" lon="12.692607">
        <ele>183.563946</ele>
        <time>2020-02-24T17:53:04.611Z</time>
      </trkpt>
      <trkpt lat="43.636336" lon="12.692275">
        <ele>183.621261</ele>
        <time>2020-02-24T17:53:10.391Z</time>
      </trkpt>
      <trkpt lat="43.636010" lon="12.690472">
        <ele>184.488713</ele>
        <time>2020-02-24T17:53:44.230Z</time>
      </trkpt>
      <trkpt lat="43.635972" lon="12.690176">
        <ele>184.656524</ele>
        <time>2020-02-24T17:53:50.042Z</time>
      </trkpt>
      <trkpt lat="43.635925" lon="12.689953">
        <ele>184.786176</ele>
        <time>2020-02-24T17:53:54.353Z</time>
      </trkpt>
      <trkpt lat="43.635863" lon="12.689799">
        <ele>184.884547</ele>
        <time>2020-02-24T17:53:57.673Z</time>
      </trkpt>
      <trkpt lat="43.635273" lon="12.688673">
        <ele>185.501829</ele>
        <time>2020-02-24T17:54:23.137Z</time>
      </trkpt>
      <trkpt lat="43.634930" lon="12.688020">
        <ele>185.828416</ele>
        <time>2020-02-24T17:54:37.049Z</time>
      </trkpt>
      <trkpt lat="43.634607" lon="12.687469">
        <ele>186.119278</ele>
        <time>2020-02-24T17:54:49.378Z</time>
      </trkpt>
      <trkpt lat="43.634312" lon="12.686897">
        <ele>186.445267</ele>
        <time>2020-02-24T17:55:01.419Z</time>
      </trkpt>
      <trkpt lat="43.634091" lon="12.686465">
        <ele>186.690802</ele>
        <time>2020-02-24T17:55:10.702Z</time>
      </trkpt>
      <trkpt lat="43.633980" lon="12.686283">
        <ele>186.801266</ele>
        <time>2020-02-24T17:55:15.089Z</time>
      </trkpt>
      <trkpt lat="43.633580" lon="12.685651">
        <ele>187.190936</ele>
        <time>2020-02-24T17:55:30.472Z</time>
      </trkpt>
      <trkpt lat="43.633326" lon="12.685107">
        <ele>187.710583</ele>
        <time>2020-02-24T17:55:42.895Z</time>
      </trkpt>
      <trkpt lat="43.633194" lon="12.684954">
        <ele>187.918389</ele>
        <time>2020-02-24T17:55:47.389Z</time>
      </trkpt>
      <trkpt lat="43.632670" lon="12.684602">
        <ele>188.621116</ele>
        <time>2020-02-24T17:56:03.293Z</time>
      </trkpt>
      <trkpt lat="43.632316" lon="12.684439">
        <ele>189.071156</ele>
        <time>2020-02-24T17:56:13.463Z</time>
      </trkpt>
      <trkpt lat="43.630885" lon="12.683923">
        <ele>190.832953</ele>
        <time>2020-02-24T17:56:54.804Z</time>
      </trkpt>
      <trkpt lat="43.630675" lon="12.683815">
        <ele>191.099103</ele>
        <time>2020-02-24T17:57:00.495Z</time>
      </trkpt>
      <trkpt lat="43.630424" lon="12.683669">
        <ele>191.422577</ele>
        <time>2020-02-24T17:57:07.394Z</time>
      </trkpt>
      <trkpt lat="43.630064" lon="12.683415">
        <ele>191.730833</ele>
        <time>2020-02-24T17:57:17.585Z</time>
      </trkpt>
      <trkpt lat="43.629410" lon="12.682934">
        <ele>192.184159</ele>
        <time>2020-02-24T17:57:36.354Z</time>
      </trkpt>
      <trkpt lat="43.629202" lon="12.682781">
        <ele>192.328341</ele>
        <time>2020-02-24T17:57:42.140Z</time>
      </trkpt>
      <trkpt lat="43.629014" lon="12.682645">
        <ele>192.458186</ele>
        <time>2020-02-24T17:57:47.075Z</time>
      </trkpt>
      <trkpt lat="43.628020" lon="12.681926">
        <ele>192.798897</ele>
        <time>2020-02-24T17:58:13.771Z</time>
      </trkpt>
      <trkpt lat="43.627610" lon="12.681629">
        <ele>192.884652</ele>
        <time>2020-02-24T17:58:24.774Z</time>
      </trkpt>
      <trkpt lat="43.627162" lon="12.681294">
        <ele>192.979015</ele>
        <time>2020-02-24T17:58:35.883Z</time>
      </trkpt>
      <trkpt lat="43.626589" lon="12.680863">
        <ele>192.740704</ele>
        <time>2020-02-24T17:58:49.465Z</time>
      </trkpt>
      <trkpt lat="43.625852" lon="12.680313">
        <ele>192.423337</ele>
        <time>2020-02-24T17:59:06.499Z</time>
      </trkpt>
      <trkpt lat="43.625606" lon="12.680117">
        <ele>192.315744</ele>
        <time>2020-02-24T17:59:12.406Z</time>
      </trkpt>
      <trkpt lat="43.625399" lon="12.679922">
        <ele>192.361987</ele>
        <time>2020-02-24T17:59:17.770Z</time>
      </trkpt>
      <trkpt lat="43.625131" lon="12.679655">
        <ele>192.458676</ele>
        <time>2020-02-24T17:59:25.068Z</time>
      </trkpt>
      <trkpt lat="43.624662" lon="12.679089">
        <ele>192.640907</ele>
        <time>2020-02-24T17:59:39.589Z</time>
      </trkpt>
      <trkpt lat="43.624345" lon="12.678657">
        <ele>192.771207</ele>
        <time>2020-02-24T17:59:50.587Z</time>
      </trkpt>
      <trkpt lat="43.623215" lon="12.677111">
        <ele>194.248149</ele>
        <time>2020-02-24T18:00:32.242Z</time>
      </trkpt>
      <trkpt lat="43.623179" lon="12.676989">
        <ele>194.344944</ele>
        <time>2020-02-24T18:00:34.783Z</time>
      </trkpt>
      <trkpt lat="43.623160" lon="12.676871">
        <ele>194.433758</ele>
        <time>2020-02-24T18:00:37.146Z</time>
      </trkpt>
      <trkpt lat="43.623162" lon="12.676839">
        <ele>194.457356</ele>
        <time>2020-02-24T18:00:37.758Z</time>
      </trkpt>
      <trkpt lat="43.623212" lon="12.676690">
        <ele>194.578018</ele>
        <time>2020-02-24T18:00:40.940Z</time>
      </trkpt>
      <trkpt lat="43.623267" lon="12.676485">
        <ele>194.781792</ele>
        <time>2020-02-24T18:00:45.201Z</time>
      </trkpt>
      <trkpt lat="43.623368" lon="12.676173">
        <ele>195.158376</ele>
        <time>2020-02-24T18:00:51.912Z</time>
      </trkpt>
      <trkpt lat="43.622121" lon="12.674476">
        <ele>197.992371</ele>
        <time>2020-02-24T18:01:42.107Z</time>
      </trkpt>
      <trkpt lat="43.622059" lon="12.674406">
        <ele>198.162019</ele>
        <time>2020-02-24T18:01:44.584Z</time>
      </trkpt>
      <trkpt lat="43.621936" lon="12.674210">
        <ele>198.559854</ele>
        <time>2020-02-24T18:01:50.164Z</time>
      </trkpt>
      <trkpt lat="43.621695" lon="12.673770">
        <ele>199.406084</ele>
        <time>2020-02-24T18:02:02.526Z</time>
      </trkpt>
      <trkpt lat="43.621272" lon="12.673054">
        <ele>200.823501</ele>
        <time>2020-02-24T18:02:23.879Z</time>
      </trkpt>
      <trkpt lat="43.621220" lon="12.672936">
        <ele>201.035375</ele>
        <time>2020-02-24T18:02:27.172Z</time>
      </trkpt>
      <trkpt lat="43.621199" lon="12.672846">
        <ele>201.180404</ele>
        <time>2020-02-24T18:02:29.507Z</time>
      </trkpt>
      <trkpt lat="43.621196" lon="12.672752">
        <ele>201.294386</ele>
        <time>2020-02-24T18:02:31.907Z</time>
      </trkpt>
      <trkpt lat="43.621033" lon="12.672761">
        <ele>201.555460</ele>
        <time>2020-02-24T18:02:37.041Z</time>
      </trkpt>
      <trkpt lat="43.620871" lon="12.672698">
        <ele>201.824803</ele>
        <time>2020-02-24T18:02:42.407Z</time>
      </trkpt>
      <trkpt lat="43.620756" lon="12.672661">
        <ele>202.013775</ele>
        <time>2020-02-24T18:02:46.128Z</time>
      </trkpt>
      <trkpt lat="43.620559" lon="12.672614">
        <ele>202.333722</ele>
        <time>2020-02-24T18:02:52.318Z</time>
      </trkpt>
      <trkpt lat="43.619591" lon="12.672325">
        <ele>203.918681</ele>
        <time>2020-02-24T18:03:20.923Z</time>
      </trkpt>
      <trkpt lat="43.619510" lon="12.672296">
        <ele>204.052596</ele>
        <time>2020-02-24T18:03:23.053Z</time>
      </trkpt>
      <trkpt lat="43.619379" lon="12.672230">
        <ele>204.057501</ele>
        <time>2020-02-24T18:03:26.619Z</time>
      </trkpt>
      <trkpt lat="43.619279" lon="12.672180">
        <ele>204.038635</ele>
        <time>2020-02-24T18:03:29.323Z</time>
      </trkpt>
      <trkpt lat="43.619239" lon="12.672160">
        <ele>204.031088</ele>
        <time>2020-02-24T18:03:30.371Z</time>
      </trkpt>
      <trkpt lat="43.618832" lon="12.671958">
        <ele>203.954366</ele>
        <time>2020-02-24T18:03:40.690Z</time>
      </trkpt>
      <trkpt lat="43.618197" lon="12.671627">
        <ele>203.833961</ele>
        <time>2020-02-24T18:03:54.993Z</time>
      </trkpt>
      <trkpt lat="43.617870" lon="12.671454">
        <ele>203.771841</ele>
        <time>2020-02-24T18:04:02.199Z</time>
      </trkpt>
      <trkpt lat="43.617703" lon="12.671354">
        <ele>203.655108</ele>
        <time>2020-02-24T18:04:06.406Z</time>
      </trkpt>
      <trkpt lat="43.617489" lon="12.671273">
        <ele>203.454745</ele>
        <time>2020-02-24T18:04:10.483Z</time>
      </trkpt>
      <trkpt lat="43.617228" lon="12.671214">
        <ele>203.215931</ele>
        <time>2020-02-24T18:04:15.717Z</time>
      </trkpt>
      <trkpt lat="43.616884" lon="12.671151">
        <ele>202.902585</ele>
        <time>2020-02-24T18:04:22.314Z</time>
      </trkpt>
      <trkpt lat="43.616767" lon="12.671129">
        <ele>202.795961</ele>
        <time>2020-02-24T18:04:24.398Z</time>
      </trkpt>
      <trkpt lat="43.616784" lon="12.671078">
        <ele>202.759256</ele>
        <time>2020-02-24T18:04:25.486Z</time>
      </trkpt>
      <trkpt lat="43.616790" lon="12.671028">
        <ele>202.726124</ele>
        <time>2020-02-24T18:04:26.410Z</time>
      </trkpt>
      <trkpt lat="43.616835" lon="12.670631">
        <ele>202.463429</ele>
        <time>2020-02-24T18:04:32.088Z</time>
      </trkpt>
      <trkpt lat="43.616940" lon="12.670655">
        <ele>202.367326</ele>
        <time>2020-02-24T18:04:34.761Z</time>
      </trkpt>
      <trkpt lat="43.616884" lon="12.671151">
        <ele>202.058575</ele>
        <time>2020-02-24T18:04:42.346Z</time>
      </trkpt>
      <trkpt lat="43.616767" lon="12.671129">
        <ele>201.973322</ele>
        <time>2020-02-24T18:04:44.476Z</time>
      </trkpt>
      <trkpt lat="43.616725" lon="12.671460">
        <ele>201.797668</ele>
        <time>2020-02-24T18:04:51.577Z</time>
      </trkpt>
      <trkpt lat="43.616704" lon="12.671600">
        <ele>201.722935</ele>
        <time>2020-02-24T18:04:54.115Z</time>
      </trkpt>
      <trkpt lat="43.616677" lon="12.671716">
        <ele>201.659245</ele>
        <time>2020-02-24T18:04:56.276Z</time>
      </trkpt>
      <trkpt lat="43.616571" lon="12.672168">
        <ele>201.410894</ele>
        <time>2020-02-24T18:05:05.635Z</time>
      </trkpt>
      <trkpt lat="43.616641" lon="12.672136">
        <ele>201.357658</ele>
        <time>2020-02-24T18:05:07.454Z</time>
      </trkpt>
      <trkpt lat="43.617003" lon="12.672174">
        <ele>201.095541</ele>
        <time>2020-02-24T18:05:14.392Z</time>
      </trkpt>
      <trkpt lat="43.617352" lon="12.672309">
        <ele>200.841306</ele>
        <time>2020-02-24T18:05:21.437Z</time>
      </trkpt>
      <trkpt lat="43.617294" lon="12.672595">
        <ele>201.010730</ele>
        <time>2020-02-24T18:05:25.816Z</time>
      </trkpt>
      <trkpt lat="43.617288" lon="12.672743">
        <ele>201.095286</ele>
        <time>2020-02-24T18:05:28.574Z</time>
      </trkpt>
      <trkpt lat="43.617250" lon="12.672743">
        <ele>201.125228</ele>
        <time>2020-02-24T18:05:31.200Z</time>
      </trkpt>
      <trkpt lat="43.617249" lon="12.672817">
        <ele>201.167447</ele>
        <time>2020-02-24T18:05:34.950Z</time>
      </trkpt>
      <trkpt lat="43.616553" lon="12.672809">
        <ele>201.715865</ele>
        <time>2020-02-24T18:05:52.717Z</time>
      </trkpt>
      <trkpt lat="43.616494" lon="12.672807">
        <ele>201.762367</ele>
        <time>2020-02-24T18:05:54.220Z</time>
      </trkpt>
      <trkpt lat="43.616371" lon="12.672803">
        <ele>201.859310</ele>
        <time>2020-02-24T18:05:57.441Z</time>
      </trkpt>
      <trkpt lat="43.616293" lon="12.672790">
        <ele>201.921214</ele>
        <time>2020-02-24T18:05:59.889Z</time>
      </trkpt>
      <trkpt lat="43.615987" lon="12.672699">
        <ele>202.167845</ele>
        <time>2020-02-24T18:06:08.570Z</time>
      </trkpt>
      <trkpt lat="43.615836" lon="12.672643">
        <ele>202.362503</ele>
        <time>2020-02-24T18:06:13.287Z</time>
      </trkpt>
      <trkpt lat="43.615777" lon="12.672634">
        <ele>202.501084</ele>
        <time>2020-02-24T18:06:14.989Z</time>
      </trkpt>
      <trkpt lat="43.615292" lon="12.672597">
        <ele>203.635109</ele>
        <time>2020-02-24T18:06:29.930Z</time>
      </trkpt>
      <trkpt lat="43.615134" lon="12.672593">
        <ele>204.004043</ele>
        <time>2020-02-24T18:06:35.362Z</time>
      </trkpt>
      <trkpt lat="43.614904" lon="12.672581">
        <ele>204.541393</ele>
        <time>2020-02-24T18:06:42.770Z</time>
      </trkpt>
      <trkpt lat="43.614802" lon="12.672566">
        <ele>204.780872</ele>
        <time>2020-02-24T18:06:46.461Z</time>
      </trkpt>
      <trkpt lat="43.614623" lon="12.672515">
        <ele>205.207570</ele>
        <time>2020-02-24T18:06:52.517Z</time>
      </trkpt>
      <trkpt lat="43.614149" lon="12.672321">
        <ele>206.361750</ele>
        <time>2020-02-24T18:07:08.717Z</time>
      </trkpt>
      <trkpt lat="43.613952" lon="12.672241">
        <ele>206.645349</ele>
        <time>2020-02-24T18:07:15.182Z</time>
      </trkpt>
      <trkpt lat="43.613692" lon="12.672142">
        <ele>206.956717</ele>
        <time>2020-02-24T18:07:23.246Z</time>
      </trkpt>
      <trkpt lat="43.613532" lon="12.672091">
        <ele>207.146293</ele>
        <time>2020-02-24T18:07:27.876Z</time>
      </trkpt>
      <trkpt lat="43.613341" lon="12.672053">
        <ele>207.369079</ele>
        <time>2020-02-24T18:07:33.299Z</time>
      </trkpt>
      <trkpt lat="43.613139" lon="12.672073">
        <ele>207.602888</ele>
        <time>2020-02-24T18:07:38.617Z</time>
      </trkpt>
      <trkpt lat="43.612733" lon="12.672239">
        <ele>208.091723</ele>
        <time>2020-02-24T18:07:49.156Z</time>
      </trkpt>
      <trkpt lat="43.612596" lon="12.672304">
        <ele>208.258962</ele>
        <time>2020-02-24T18:07:52.702Z</time>
      </trkpt>
      <trkpt lat="43.611504" lon="12.672820">
        <ele>208.417652</ele>
        <time>2020-02-24T18:08:18.308Z</time>
      </trkpt>
      <trkpt lat="43.610912" lon="12.673102">
        <ele>208.340863</ele>
        <time>2020-02-24T18:08:31.456Z</time>
      </trkpt>
      <trkpt lat="43.610682" lon="12.673211">
        <ele>208.311046</ele>
        <time>2020-02-24T18:08:36.472Z</time>
      </trkpt>
      <trkpt lat="43.609428" lon="12.673763">
        <ele>208.043383</ele>
        <time>2020-02-24T18:09:04.271Z</time>
      </trkpt>
      <trkpt lat="43.609024" lon="12.673941">
        <ele>207.956876</ele>
        <time>2020-02-24T18:09:13.682Z</time>
      </trkpt>
      <trkpt lat="43.608935" lon="12.673980">
        <ele>207.948332</ele>
        <time>2020-02-24T18:09:15.896Z</time>
      </trkpt>
      <trkpt lat="43.608652" lon="12.674105">
        <ele>208.013809</ele>
        <time>2020-02-24T18:09:22.606Z</time>
      </trkpt>
      <trkpt lat="43.608537" lon="12.674155">
        <ele>208.040378</ele>
        <time>2020-02-24T18:09:25.443Z</time>
      </trkpt>
      <trkpt lat="43.608137" lon="12.674304">
        <ele>208.131676</ele>
        <time>2020-02-24T18:09:34.976Z</time>
      </trkpt>
      <trkpt lat="43.606887" lon="12.674709">
        <ele>208.649515</ele>
        <time>2020-02-24T18:10:04.900Z</time>
      </trkpt>
      <trkpt lat="43.605848" lon="12.675055">
        <ele>209.619057</ele>
        <time>2020-02-24T18:10:32.388Z</time>
      </trkpt>
      <trkpt lat="43.605622" lon="12.675133">
        <ele>209.830378</ele>
        <time>2020-02-24T18:10:38.948Z</time>
      </trkpt>
      <trkpt lat="43.604952" lon="12.675365">
        <ele>210.948762</ele>
        <time>2020-02-24T18:10:58.545Z</time>
      </trkpt>
      <trkpt lat="43.604883" lon="12.675325">
        <ele>211.085325</ele>
        <time>2020-02-24T18:11:01.035Z</time>
      </trkpt>
      <trkpt lat="43.604814" lon="12.675201">
        <ele>211.291976</ele>
        <time>2020-02-24T18:11:04.180Z</time>
      </trkpt>
      <trkpt lat="43.604798" lon="12.674975">
        <ele>211.592045</ele>
        <time>2020-02-24T18:11:08.944Z</time>
      </trkpt>
      <trkpt lat="43.604683" lon="12.674988">
        <ele>211.802610</ele>
        <time>2020-02-24T18:11:12.617Z</time>
      </trkpt>
      <trkpt lat="43.604552" lon="12.675003">
        <ele>212.042493</ele>
        <time>2020-02-24T18:11:16.455Z</time>
      </trkpt>
      <trkpt lat="43.604047" lon="12.675058">
        <ele>212.966929</ele>
        <time>2020-02-24T18:11:31.731Z</time>
      </trkpt>
      <trkpt lat="43.603753" lon="12.675090">
        <ele>213.429194</ele>
        <time>2020-02-24T18:11:40.805Z</time>
      </trkpt>
      <trkpt lat="43.603690" lon="12.675097">
        <ele>213.509770</ele>
        <time>2020-02-24T18:11:42.692Z</time>
      </trkpt>
      <trkpt lat="43.603448" lon="12.675123">
        <ele>213.819219</ele>
        <time>2020-02-24T18:11:50.843Z</time>
      </trkpt>
      <trkpt lat="43.602968" lon="12.675073">
        <ele>214.432891</ele>
        <time>2020-02-24T18:12:04.217Z</time>
      </trkpt>
      <trkpt lat="43.602430" lon="12.674933">
        <ele>215.130838</ele>
        <time>2020-02-24T18:12:18.163Z</time>
      </trkpt>
      <trkpt lat="43.602111" lon="12.674937">
        <ele>215.537536</ele>
        <time>2020-02-24T18:12:25.821Z</time>
      </trkpt>
      <trkpt lat="43.602004" lon="12.674967">
        <ele>215.565180</ele>
        <time>2020-02-24T18:12:28.984Z</time>
      </trkpt>
      <trkpt lat="43.601885" lon="12.675001">
        <ele>215.587654</ele>
        <time>2020-02-24T18:12:31.733Z</time>
      </trkpt>
      <trkpt lat="43.601594" lon="12.675116">
        <ele>215.643634</ele>
        <time>2020-02-24T18:12:38.727Z</time>
      </trkpt>
      <trkpt lat="43.600675" lon="12.675513">
        <ele>215.821721</ele>
        <time>2020-02-24T18:12:59.907Z</time>
      </trkpt>
      <trkpt lat="43.599793" lon="12.675553">
        <ele>216.526666</ele>
        <time>2020-02-24T18:13:20.051Z</time>
      </trkpt>
      <trkpt lat="43.599142" lon="12.675500">
        <ele>217.263501</ele>
        <time>2020-02-24T18:13:37.494Z</time>
      </trkpt>
      <trkpt lat="43.598595" lon="12.675438">
        <ele>217.883628</ele>
        <time>2020-02-24T18:13:53.706Z</time>
      </trkpt>
      <trkpt lat="43.596392" lon="12.675484">
        <ele>222.781443</ele>
        <time>2020-02-24T18:15:04.256Z</time>
      </trkpt>
      <trkpt lat="43.595892" lon="12.675438">
        <ele>223.654479</ele>
        <time>2020-02-24T18:15:19.132Z</time>
      </trkpt>
      <trkpt lat="43.595454" lon="12.675316">
        <ele>224.432938</ele>
        <time>2020-02-24T18:15:31.975Z</time>
      </trkpt>
      <trkpt lat="43.594937" lon="12.675172">
        <ele>225.308807</ele>
        <time>2020-02-24T18:15:46.466Z</time>
      </trkpt>
      <trkpt lat="43.594907" lon="12.675165">
        <ele>225.338839</ele>
        <time>2020-02-24T18:15:47.232Z</time>
      </trkpt>
      <trkpt lat="43.594543" lon="12.675086">
        <ele>225.702548</ele>
        <time>2020-02-24T18:15:57.073Z</time>
      </trkpt>
      <trkpt lat="43.594109" lon="12.675022">
        <ele>226.133378</ele>
        <time>2020-02-24T18:16:08.577Z</time>
      </trkpt>
      <trkpt lat="43.593526" lon="12.674965">
        <ele>226.710286</ele>
        <time>2020-02-24T18:16:23.398Z</time>
      </trkpt>
      <trkpt lat="43.592045" lon="12.674836">
        <ele>227.687012</ele>
        <time>2020-02-24T18:17:00.951Z</time>
      </trkpt>
      <trkpt lat="43.590044" lon="12.674445">
        <ele>228.014532</ele>
        <time>2020-02-24T18:17:47.892Z</time>
      </trkpt>
      <trkpt lat="43.587827" lon="12.673732">
        <ele>226.563106</ele>
        <time>2020-02-24T18:18:32.880Z</time>
      </trkpt>
      <trkpt lat="43.587058" lon="12.673520">
        <ele>226.331466</ele>
        <time>2020-02-24T18:18:47.779Z</time>
      </trkpt>
      <trkpt lat="43.585788" lon="12.673139">
        <ele>226.635483</ele>
        <time>2020-02-24T18:19:17.810Z</time>
      </trkpt>
      <trkpt lat="43.585344" lon="12.673010">
        <ele>227.396821</ele>
        <time>2020-02-24T18:19:31.254Z</time>
      </trkpt>
      <trkpt lat="43.584908" lon="12.672871">
        <ele>228.147669</ele>
        <time>2020-02-24T18:19:45.266Z</time>
      </trkpt>
      <trkpt lat="43.584737" lon="12.672768">
        <ele>228.460724</ele>
        <time>2020-02-24T18:19:50.758Z</time>
      </trkpt>
      <trkpt lat="43.584499" lon="12.672552">
        <ele>228.938648</ele>
        <time>2020-02-24T18:20:00.087Z</time>
      </trkpt>
      <trkpt lat="43.584404" lon="12.672480">
        <ele>229.113743</ele>
        <time>2020-02-24T18:20:03.280Z</time>
      </trkpt>
      <trkpt lat="43.584275" lon="12.672381">
        <ele>229.329169</ele>
        <time>2020-02-24T18:20:08.340Z</time>
      </trkpt>
      <trkpt lat="43.583865" lon="12.671897">
        <ele>230.116557</ele>
        <time>2020-02-24T18:20:24.444Z</time>
      </trkpt>
      <trkpt lat="43.583630" lon="12.671705">
        <ele>230.515130</ele>
        <time>2020-02-24T18:20:32.404Z</time>
      </trkpt>
      <trkpt lat="43.582984" lon="12.671237">
        <ele>231.579974</ele>
        <time>2020-02-24T18:20:51.193Z</time>
      </trkpt>
      <trkpt lat="43.582185" lon="12.670754">
        <ele>232.190606</ele>
        <time>2020-02-24T18:21:12.324Z</time>
      </trkpt>
      <trkpt lat="43.581997" lon="12.670597">
        <ele>232.328026</ele>
        <time>2020-02-24T18:21:17.501Z</time>
      </trkpt>
      <trkpt lat="43.581801" lon="12.670436">
        <ele>232.470670</ele>
        <time>2020-02-24T18:21:23.259Z</time>
      </trkpt>
      <trkpt lat="43.581254" lon="12.670060">
        <ele>232.861035</ele>
        <time>2020-02-24T18:21:38.581Z</time>
      </trkpt>
      <trkpt lat="43.580966" lon="12.669897">
        <ele>233.102568</ele>
        <time>2020-02-24T18:21:46.530Z</time>
      </trkpt>
      <trkpt lat="43.580166" lon="12.669452">
        <ele>233.771848</ele>
        <time>2020-02-24T18:22:08.872Z</time>
      </trkpt>
      <trkpt lat="43.578861" lon="12.668738">
        <ele>234.757969</ele>
        <time>2020-02-24T18:22:43.343Z</time>
      </trkpt>
      <trkpt lat="43.578356" lon="12.668374">
        <ele>235.129513</ele>
        <time>2020-02-24T18:22:57.553Z</time>
      </trkpt>
      <trkpt lat="43.578086" lon="12.668081">
        <ele>235.353499</ele>
        <time>2020-02-24T18:23:06.202Z</time>
      </trkpt>
      <trkpt lat="43.577981" lon="12.667860">
        <ele>235.479723</ele>
        <time>2020-02-24T18:23:10.899Z</time>
      </trkpt>
      <trkpt lat="43.577895" lon="12.667733">
        <ele>235.563086</ele>
        <time>2020-02-24T18:23:14.349Z</time>
      </trkpt>
      <trkpt lat="43.577801" lon="12.667654">
        <ele>235.635932</ele>
        <time>2020-02-24T18:23:17.048Z</time>
      </trkpt>
      <trkpt lat="43.576527" lon="12.666882">
        <ele>236.556906</ele>
        <time>2020-02-24T18:23:52.058Z</time>
      </trkpt>
      <trkpt lat="43.574978" lon="12.665921">
        <ele>236.904235</ele>
        <time>2020-02-24T18:24:30.785Z</time>
      </trkpt>
      <trkpt lat="43.574721" lon="12.665719">
        <ele>237.056058</ele>
        <time>2020-02-24T18:24:37.166Z</time>
      </trkpt>
      <trkpt lat="43.574420" lon="12.665351">
        <ele>237.366008</ele>
        <time>2020-02-24T18:24:46.756Z</time>
      </trkpt>
      <trkpt lat="43.574267" lon="12.664970">
        <ele>237.609279</ele>
        <time>2020-02-24T18:24:54.638Z</time>
      </trkpt>
      <trkpt lat="43.574143" lon="12.664408">
        <ele>237.937365</ele>
        <time>2020-02-24T18:25:05.421Z</time>
      </trkpt>
      <trkpt lat="43.573995" lon="12.664036">
        <ele>238.174375</ele>
        <time>2020-02-24T18:25:13.554Z</time>
      </trkpt>
      <trkpt lat="43.573897" lon="12.663915">
        <ele>238.275730</ele>
        <time>2020-02-24T18:25:16.921Z</time>
      </trkpt>
      <trkpt lat="43.573792" lon="12.663823">
        <ele>238.453304</ele>
        <time>2020-02-24T18:25:20.642Z</time>
      </trkpt>
      <trkpt lat="43.572369" lon="12.663239">
        <ele>241.298117</ele>
        <time>2020-02-24T18:26:05.836Z</time>
      </trkpt>
      <trkpt lat="43.572246" lon="12.663143">
        <ele>241.568889</ele>
        <time>2020-02-24T18:26:10.237Z</time>
      </trkpt>
      <trkpt lat="43.572201" lon="12.663108">
        <ele>241.667869</ele>
        <time>2020-02-24T18:26:11.933Z</time>
      </trkpt>
      <trkpt lat="43.571812" lon="12.662736">
        <ele>242.569531</ele>
        <time>2020-02-24T18:26:26.070Z</time>
      </trkpt>
      <trkpt lat="43.571519" lon="12.662456">
        <ele>243.248063</ele>
        <time>2020-02-24T18:26:36.826Z</time>
      </trkpt>
      <trkpt lat="43.571045" lon="12.662131">
        <ele>244.255776</ele>
        <time>2020-02-24T18:26:52.783Z</time>
      </trkpt>
      <trkpt lat="43.568946" lon="12.661043">
        <ele>248.231062</ele>
        <time>2020-02-24T18:27:57.605Z</time>
      </trkpt>
      <trkpt lat="43.568128" lon="12.660487">
        <ele>250.048525</ele>
        <time>2020-02-24T18:28:25.720Z</time>
      </trkpt>
      <trkpt lat="43.567882" lon="12.660283">
        <ele>250.624483</ele>
        <time>2020-02-24T18:28:34.999Z</time>
      </trkpt>
      <trkpt lat="43.567616" lon="12.659881">
        <ele>251.416114</ele>
        <time>2020-02-24T18:28:47.122Z</time>
      </trkpt>
      <trkpt lat="43.567499" lon="12.659481">
        <ele>251.944255</ele>
        <time>2020-02-24T18:28:56.131Z</time>
      </trkpt>
      <trkpt lat="43.567464" lon="12.659121">
        <ele>252.045714</ele>
        <time>2020-02-24T18:29:02.993Z</time>
      </trkpt>
      <trkpt lat="43.567434" lon="12.658973">
        <ele>252.088643</ele>
        <time>2020-02-24T18:29:06.482Z</time>
      </trkpt>
      <trkpt lat="43.567362" lon="12.658853">
        <ele>252.132163</ele>
        <time>2020-02-24T18:29:09.670Z</time>
      </trkpt>
      <trkpt lat="43.567122" lon="12.658681">
        <ele>252.236417</ele>
        <time>2020-02-24T18:29:16.256Z</time>
      </trkpt>
      <trkpt lat="43.567014" lon="12.658610">
        <ele>252.282534</ele>
        <time>2020-02-24T18:29:19.401Z</time>
      </trkpt>
      <trkpt lat="43.566919" lon="12.658556">
        <ele>252.322143</ele>
        <time>2020-02-24T18:29:21.296Z</time>
      </trkpt>
      <trkpt lat="43.566635" lon="12.658531">
        <ele>252.431851</ele>
        <time>2020-02-24T18:29:28.164Z</time>
      </trkpt>
      <trkpt lat="43.565883" lon="12.658909">
        <ele>252.203734</ele>
        <time>2020-02-24T18:29:44.158Z</time>
      </trkpt>
      <trkpt lat="43.565432" lon="12.658872">
        <ele>251.637817</ele>
        <time>2020-02-24T18:29:52.414Z</time>
      </trkpt>
      <trkpt lat="43.564998" lon="12.658665">
        <ele>251.062642</ele>
        <time>2020-02-24T18:30:00.884Z</time>
      </trkpt>
      <trkpt lat="43.564977" lon="12.658533">
        <ele>250.939982</ele>
        <time>2020-02-24T18:30:02.743Z</time>
      </trkpt>
      <trkpt lat="43.564898" lon="12.658336">
        <ele>250.735624</ele>
        <time>2020-02-24T18:30:05.724Z</time>
      </trkpt>
      <trkpt lat="43.564775" lon="12.658261">
        <ele>250.567187</ele>
        <time>2020-02-24T18:30:08.217Z</time>
      </trkpt>
      <trkpt lat="43.564655" lon="12.658271">
        <ele>250.416602</ele>
        <time>2020-02-24T18:30:10.504Z</time>
      </trkpt>
      <trkpt lat="43.564541" lon="12.658259">
        <ele>250.185542</ele>
        <time>2020-02-24T18:30:12.589Z</time>
      </trkpt>
      <trkpt lat="43.564275" lon="12.658119">
        <ele>249.471862</ele>
        <time>2020-02-24T18:30:17.817Z</time>
      </trkpt>
      <trkpt lat="43.564070" lon="12.657766">
        <ele>248.650111</ele>
        <time>2020-02-24T18:30:23.642Z</time>
      </trkpt>
      <trkpt lat="43.563991" lon="12.657539">
        <ele>248.192671</ele>
        <time>2020-02-24T18:30:26.836Z</time>
      </trkpt>
      <trkpt lat="43.563881" lon="12.657197">
        <ele>247.512973</ele>
        <time>2020-02-24T18:30:31.313Z</time>
      </trkpt>
      <trkpt lat="43.563797" lon="12.657020">
        <ele>247.128630</ele>
        <time>2020-02-24T18:30:33.908Z</time>
      </trkpt>
      <trkpt lat="43.563583" lon="12.656853">
        <ele>246.512325</ele>
        <time>2020-02-24T18:30:37.913Z</time>
      </trkpt>
      <trkpt lat="43.563495" lon="12.656866">
        <ele>246.290459</ele>
        <time>2020-02-24T18:30:39.347Z</time>
      </trkpt>
      <trkpt lat="43.563338" lon="12.656874">
        <ele>245.896608</ele>
        <time>2020-02-24T18:30:41.845Z</time>
      </trkpt>
      <trkpt lat="43.563240" lon="12.656845">
        <ele>245.587566</ele>
        <time>2020-02-24T18:30:43.457Z</time>
      </trkpt>
      <trkpt lat="43.563170" lon="12.656780">
        <ele>245.316952</ele>
        <time>2020-02-24T18:30:44.819Z</time>
      </trkpt>
      <trkpt lat="43.563093" lon="12.656759">
        <ele>245.065202</ele>
        <time>2020-02-24T18:30:46.057Z</time>
      </trkpt>
      <trkpt lat="43.562953" lon="12.656696">
        <ele>244.592890</ele>
        <time>2020-02-24T18:30:48.342Z</time>
      </trkpt>
      <trkpt lat="43.562867" lon="12.656668">
        <ele>244.309477</ele>
        <time>2020-02-24T18:30:49.781Z</time>
      </trkpt>
      <trkpt lat="43.562757" lon="12.656655">
        <ele>243.955367</ele>
        <time>2020-02-24T18:30:51.502Z</time>
      </trkpt>
      <trkpt lat="43.562564" lon="12.656667">
        <ele>243.335702</ele>
        <time>2020-02-24T18:30:54.541Z</time>
      </trkpt>
      <trkpt lat="43.562410" lon="12.656605">
        <ele>242.821165</ele>
        <time>2020-02-24T18:30:57.122Z</time>
      </trkpt>
      <trkpt lat="43.561544" lon="12.655810">
        <ele>239.916922</ele>
        <time>2020-02-24T18:31:14.236Z</time>
      </trkpt>
      <trkpt lat="43.561387" lon="12.655584">
        <ele>239.714747</ele>
        <time>2020-02-24T18:31:18.234Z</time>
      </trkpt>
      <trkpt lat="43.560768" lon="12.654555">
        <ele>238.851123</ele>
        <time>2020-02-24T18:31:38.446Z</time>
      </trkpt>
      <trkpt lat="43.560631" lon="12.654407">
        <ele>238.696075</ele>
        <time>2020-02-24T18:31:42.154Z</time>
      </trkpt>
      <trkpt lat="43.560677" lon="12.654221">
        <ele>238.569158</ele>
        <time>2020-02-24T18:31:45.811Z</time>
      </trkpt>
      <trkpt lat="43.560489" lon="12.654119">
        <ele>238.505643</ele>
        <time>2020-02-24T18:31:50.409Z</time>
      </trkpt>
      <trkpt lat="43.559497" lon="12.654112">
        <ele>238.752719</ele>
        <time>2020-02-24T18:32:14.373Z</time>
      </trkpt>
      <trkpt lat="43.558909" lon="12.654048">
        <ele>238.899624</ele>
        <time>2020-02-24T18:32:28.830Z</time>
      </trkpt>
      <trkpt lat="43.558799" lon="12.654051">
        <ele>238.927027</ele>
        <time>2020-02-24T18:32:31.388Z</time>
      </trkpt>
      <trkpt lat="43.558748" lon="12.654102">
        <ele>238.973754</ele>
        <time>2020-02-24T18:32:32.777Z</time>
      </trkpt>
      <trkpt lat="43.558248" lon="12.653997">
        <ele>239.368626</ele>
        <time>2020-02-24T18:32:44.973Z</time>
      </trkpt>
      <trkpt lat="43.557797" lon="12.653884">
        <ele>239.726504</ele>
        <time>2020-02-24T18:32:56.379Z</time>
      </trkpt>
      <trkpt lat="43.556964" lon="12.653361">
        <ele>240.467652</ele>
        <time>2020-02-24T18:33:21.286Z</time>
      </trkpt>
      <trkpt lat="43.556684" lon="12.653137">
        <ele>240.782319</ele>
        <time>2020-02-24T18:33:29.933Z</time>
      </trkpt>
      <trkpt lat="43.556342" lon="12.652708">
        <ele>241.231676</ele>
        <time>2020-02-24T18:33:42.119Z</time>
      </trkpt>
      <trkpt lat="43.556000" lon="12.652416">
        <ele>241.622684</ele>
        <time>2020-02-24T18:33:52.571Z</time>
      </trkpt>
      <trkpt lat="43.555552" lon="12.652305">
        <ele>242.065211</ele>
        <time>2020-02-24T18:34:04.194Z</time>
      </trkpt>
      <trkpt lat="43.554233" lon="12.652425">
        <ele>242.723287</ele>
        <time>2020-02-24T18:34:36.521Z</time>
      </trkpt>
      <trkpt lat="43.553437" lon="12.652382">
        <ele>243.042221</ele>
        <time>2020-02-24T18:34:55.169Z</time>
      </trkpt>
      <trkpt lat="43.552865" lon="12.652228">
        <ele>243.188858</ele>
        <time>2020-02-24T18:35:07.893Z</time>
      </trkpt>
      <trkpt lat="43.552404" lon="12.651987">
        <ele>243.312897</ele>
        <time>2020-02-24T18:35:18.852Z</time>
      </trkpt>
      <trkpt lat="43.551675" lon="12.651570">
        <ele>244.540132</ele>
        <time>2020-02-24T18:35:38.079Z</time>
      </trkpt>
      <trkpt lat="43.551472" lon="12.651480">
        <ele>245.187076</ele>
        <time>2020-02-24T18:35:43.598Z</time>
      </trkpt>
      <trkpt lat="43.550570" lon="12.651056">
        <ele>248.078327</ele>
        <time>2020-02-24T18:36:15.658Z</time>
      </trkpt>
      <trkpt lat="43.550250" lon="12.650892">
        <ele>249.551141</ele>
        <time>2020-02-24T18:36:31.813Z</time>
      </trkpt>
      <trkpt lat="43.550241" lon="12.650887">
        <ele>249.634570</ele>
        <time>2020-02-24T18:36:32.558Z</time>
      </trkpt>
      <trkpt lat="43.549849" lon="12.650658">
        <ele>253.295083</ele>
        <time>2020-02-24T18:36:56.293Z</time>
      </trkpt>
      <trkpt lat="43.549762" lon="12.650530">
        <ele>254.388734</ele>
        <time>2020-02-24T18:37:03.778Z</time>
      </trkpt>
      <trkpt lat="43.549755" lon="12.650502">
        <ele>254.573330</ele>
        <time>2020-02-24T18:37:05.181Z</time>
      </trkpt>
      <trkpt lat="43.549698" lon="12.650465">
        <ele>255.115010</ele>
        <time>2020-02-24T18:37:08.540Z</time>
      </trkpt>
      <trkpt lat="43.549678" lon="12.650476">
        <ele>255.300151</ele>
        <time>2020-02-24T18:37:09.925Z</time>
      </trkpt>
      <trkpt lat="43.549594" lon="12.650406">
        <ele>256.143996</ele>
        <time>2020-02-24T18:37:15.999Z</time>
      </trkpt>
      <trkpt lat="43.549059" lon="12.650063">
        <ele>261.216892</ele>
        <time>2020-02-24T18:37:51.405Z</time>
      </trkpt>
      <trkpt lat="43.548922" lon="12.649982">
        <ele>262.498569</ele>
        <time>2020-02-24T18:38:00.675Z</time>
      </trkpt>
      <trkpt lat="43.548613" lon="12.649758">
        <ele>265.336377</ele>
        <time>2020-02-24T18:38:21.997Z</time>
      </trkpt>
      <trkpt lat="43.548337" lon="12.649558">
        <ele>267.638031</ele>
        <time>2020-02-24T18:38:41.249Z</time>
      </trkpt>
      <trkpt lat="43.548105" lon="12.649408">
        <ele>269.529629</ele>
        <time>2020-02-24T18:38:56.982Z</time>
      </trkpt>
      <trkpt lat="43.547853" lon="12.649245">
        <ele>271.584453</ele>
        <time>2020-02-24T18:39:12.450Z</time>
      </trkpt>
      <trkpt lat="43.547673" lon="12.649128">
        <ele>273.053486</ele>
        <time>2020-02-24T18:39:23.405Z</time>
      </trkpt>
      <trkpt lat="43.547626" lon="12.649098">
        <ele>273.435822</ele>
        <time>2020-02-24T18:39:25.991Z</time>
      </trkpt>
      <trkpt lat="43.546825" lon="12.648576">
        <ele>278.754732</ele>
        <time>2020-02-24T18:40:02.433Z</time>
      </trkpt>
      <trkpt lat="43.546825" lon="12.648576">
        <ele>278.754732</ele>
        <time>2020-02-24T18:40:02.580Z</time>
      </trkpt>
      <trkpt lat="43.546952" lon="12.648199">
        <ele>279.825332</ele>
        <time>2020-02-24T18:40:13.072Z</time>
      </trkpt>
      <trkpt lat="43.547074" lon="12.647835">
        <ele>280.858085</ele>
        <time>2020-02-24T18:40:23.366Z</time>
      </trkpt>
      <trkpt lat="43.546887" lon="12.647708">
        <ele>281.598626</ele>
        <time>2020-02-24T18:40:30.544Z</time>
      </trkpt>
      <trkpt lat="43.546597" lon="12.647509">
        <ele>282.749398</ele>
        <time>2020-02-24T18:40:41.303Z</time>
      </trkpt>
      <trkpt lat="43.546389" lon="12.647367">
        <ele>283.573943</ele>
        <time>2020-02-24T18:40:50.368Z</time>
      </trkpt>
      <trkpt lat="43.546245" lon="12.647270">
        <ele>284.214222</ele>
        <time>2020-02-24T18:40:56.297Z</time>
      </trkpt>
      <trkpt lat="43.546102" lon="12.647170">
        <ele>285.092075</ele>
        <time>2020-02-24T18:41:03.206Z</time>
      </trkpt>
      <trkpt lat="43.545838" lon="12.646990">
        <ele>286.704529</ele>
        <time>2020-02-24T18:41:13.510Z</time>
      </trkpt>
      <trkpt lat="43.545970" lon="12.646663">
        <ele>288.190037</ele>
        <time>2020-02-24T18:41:23.917Z</time>
      </trkpt>
      <trkpt lat="43.546008" lon="12.646568">
        <ele>288.620681</ele>
        <time>2020-02-24T18:41:26.783Z</time>
      </trkpt>
      <trkpt lat="43.546025" lon="12.646477">
        <ele>288.993648</ele>
        <time>2020-02-24T18:41:31.495Z</time>
      </trkpt>
      <trkpt lat="43.546020" lon="12.646376">
        <ele>289.395436</ele>
        <time>2020-02-24T18:41:35.263Z</time>
      </trkpt>
      <trkpt lat="43.545996" lon="12.646306">
        <ele>289.702768</ele>
        <time>2020-02-24T18:41:37.913Z</time>
      </trkpt>
      <trkpt lat="43.545948" lon="12.646234">
        <ele>290.091016</ele>
        <time>2020-02-24T18:41:40.684Z</time>
      </trkpt>
      <trkpt lat="43.545998" lon="12.646166">
        <ele>290.475453</ele>
        <time>2020-02-24T18:41:42.986Z</time>
      </trkpt>
      <trkpt lat="43.546025" lon="12.646046">
        <ele>290.974133</ele>
        <time>2020-02-24T18:41:49.285Z</time>
      </trkpt>
      <trkpt lat="43.545929" lon="12.645257">
        <ele>294.128565</ele>
        <time>2020-02-24T18:42:18.457Z</time>
      </trkpt>
      <trkpt lat="43.545759" lon="12.644716">
        <ele>296.300039</ele>
        <time>2020-02-24T18:42:39.905Z</time>
      </trkpt>
      <trkpt lat="43.545661" lon="12.644521">
        <ele>297.173884</ele>
        <time>2020-02-24T18:42:50.256Z</time>
      </trkpt>
      <trkpt lat="43.545248" lon="12.643854">
        <ele>300.404459</ele>
        <time>2020-02-24T18:43:17.429Z</time>
      </trkpt>
      <trkpt lat="43.544818" lon="12.643159">
        <ele>302.936440</ele>
        <time>2020-02-24T18:43:38.362Z</time>
      </trkpt>
      <trkpt lat="43.544437" lon="12.642544">
        <ele>302.693125</ele>
        <time>2020-02-24T18:43:55.054Z</time>
      </trkpt>
      <trkpt lat="43.544001" lon="12.641875">
        <ele>302.422551</ele>
        <time>2020-02-24T18:44:07.085Z</time>
      </trkpt>
      <trkpt lat="43.543804" lon="12.641578">
        <ele>302.301472</ele>
        <time>2020-02-24T18:44:11.863Z</time>
      </trkpt>
      <trkpt lat="43.543488" lon="12.641085">
        <ele>302.044411</ele>
        <time>2020-02-24T18:44:19.709Z</time>
      </trkpt>
      <trkpt lat="43.543290" lon="12.640826">
        <ele>301.886420</ele>
        <time>2020-02-24T18:44:24.185Z</time>
      </trkpt>
      <trkpt lat="43.543097" lon="12.640589">
        <ele>301.736808</ele>
        <time>2020-02-24T18:44:28.995Z</time>
      </trkpt>
      <trkpt lat="43.542884" lon="12.640368">
        <ele>301.582486</ele>
        <time>2020-02-24T18:44:34.550Z</time>
      </trkpt>
      <trkpt lat="43.542807" lon="12.640303">
        <ele>301.530216</ele>
        <time>2020-02-24T18:44:36.893Z</time>
      </trkpt>
      <trkpt lat="43.542662" lon="12.640180">
        <ele>301.431654</ele>
        <time>2020-02-24T18:44:41.220Z</time>
      </trkpt>
      <trkpt lat="43.542521" lon="12.640083">
        <ele>301.340422</ele>
        <time>2020-02-24T18:44:45.776Z</time>
      </trkpt>
      <trkpt lat="43.542172" lon="12.639848">
        <ele>302.138432</ele>
        <time>2020-02-24T18:44:56.575Z</time>
      </trkpt>
      <trkpt lat="43.542026" lon="12.639747">
        <ele>303.051382</ele>
        <time>2020-02-24T18:45:00.839Z</time>
      </trkpt>
      <trkpt lat="43.540421" lon="12.638645">
        <ele>313.394654</ele>
        <time>2020-02-24T18:46:29.570Z</time>
      </trkpt>
      <trkpt lat="43.539898" lon="12.638333">
        <ele>317.147355</ele>
        <time>2020-02-24T18:47:01.844Z</time>
      </trkpt>
      <trkpt lat="43.539195" lon="12.638170">
        <ele>321.842196</ele>
        <time>2020-02-24T18:47:36.742Z</time>
      </trkpt>
      <trkpt lat="43.539031" lon="12.638096">
        <ele>322.978596</ele>
        <time>2020-02-24T18:47:43.718Z</time>
      </trkpt>
      <trkpt lat="43.538818" lon="12.637877">
        <ele>323.230975</ele>
        <time>2020-02-24T18:47:53.910Z</time>
      </trkpt>
      <trkpt lat="43.538616" lon="12.637373">
        <ele>323.434754</ele>
        <time>2020-02-24T18:48:06.322Z</time>
      </trkpt>
      <trkpt lat="43.538597" lon="12.637014">
        <ele>323.562122</ele>
        <time>2020-02-24T18:48:12.207Z</time>
      </trkpt>
      <trkpt lat="43.538643" lon="12.636698">
        <ele>323.676169</ele>
        <time>2020-02-24T18:48:16.969Z</time>
      </trkpt>
      <trkpt lat="43.539178" lon="12.635680">
        <ele>323.396058</ele>
        <time>2020-02-24T18:48:32.886Z</time>
      </trkpt>
      <trkpt lat="43.539709" lon="12.634296">
        <ele>320.906861</ele>
        <time>2020-02-24T18:48:52.143Z</time>
      </trkpt>
      <trkpt lat="43.540163" lon="12.633423">
        <ele>319.737790</ele>
        <time>2020-02-24T18:49:06.128Z</time>
      </trkpt>
      <trkpt lat="43.540544" lon="12.632045">
        <ele>318.886788</ele>
        <time>2020-02-24T18:49:28.115Z</time>
      </trkpt>
      <trkpt lat="43.541411" lon="12.630612">
        <ele>317.316091</ele>
        <time>2020-02-24T18:49:56.741Z</time>
      </trkpt>
      <trkpt lat="43.542180" lon="12.628689">
        <ele>312.930237</ele>
        <time>2020-02-24T18:50:23.792Z</time>
      </trkpt>
      <trkpt lat="43.542533" lon="12.628237">
        <ele>310.907107</ele>
        <time>2020-02-24T18:50:31.015Z</time>
      </trkpt>
      <trkpt lat="43.543216" lon="12.627810">
        <ele>307.652990</ele>
        <time>2020-02-24T18:50:42.061Z</time>
      </trkpt>
      <trkpt lat="43.543454" lon="12.627755">
        <ele>306.532486</ele>
        <time>2020-02-24T18:50:45.623Z</time>
      </trkpt>
      <trkpt lat="43.544131" lon="12.627854">
        <ele>303.371354</ele>
        <time>2020-02-24T18:50:55.747Z</time>
      </trkpt>
      <trkpt lat="43.544317" lon="12.627770">
        <ele>302.462602</ele>
        <time>2020-02-24T18:50:58.779Z</time>
      </trkpt>
      <trkpt lat="43.545163" lon="12.626751">
        <ele>298.992812</ele>
        <time>2020-02-24T18:51:17.723Z</time>
      </trkpt>
      <trkpt lat="43.546386" lon="12.625854">
        <ele>296.458635</ele>
        <time>2020-02-24T18:51:42.978Z</time>
      </trkpt>
      <trkpt lat="43.547113" lon="12.625582">
        <ele>295.843659</ele>
        <time>2020-02-24T18:51:56.207Z</time>
      </trkpt>
      <trkpt lat="43.548293" lon="12.625292">
        <ele>297.821904</ele>
        <time>2020-02-24T18:52:23.825Z</time>
      </trkpt>
      <trkpt lat="43.548752" lon="12.625185">
        <ele>300.740519</ele>
        <time>2020-02-24T18:52:41.952Z</time>
      </trkpt>
      <trkpt lat="43.549021" lon="12.625113">
        <ele>302.458531</ele>
        <time>2020-02-24T18:52:57.003Z</time>
      </trkpt>
      <trkpt lat="43.549171" lon="12.625057">
        <ele>303.432818</ele>
        <time>2020-02-24T18:53:08.240Z</time>
      </trkpt>
      <trkpt lat="43.549386" lon="12.624866">
        <ele>305.036077</ele>
        <time>2020-02-24T18:53:22.529Z</time>
      </trkpt>
      <trkpt lat="43.549546" lon="12.624588">
        <ele>306.773490</ele>
        <time>2020-02-24T18:53:40.617Z</time>
      </trkpt>
      <trkpt lat="43.549627" lon="12.624317">
        <ele>309.100624</ele>
        <time>2020-02-24T18:53:56.417Z</time>
      </trkpt>
      <trkpt lat="43.549646" lon="12.623999">
        <ele>311.633676</ele>
        <time>2020-02-24T18:54:11.074Z</time>
      </trkpt>
      <trkpt lat="43.549624" lon="12.623830">
        <ele>312.996776</ele>
        <time>2020-02-24T18:54:22.298Z</time>
      </trkpt>
      <trkpt lat="43.549564" lon="12.623615">
        <ele>314.825738</ele>
        <time>2020-02-24T18:54:33.766Z</time>
      </trkpt>
      <trkpt lat="43.548891" lon="12.621991">
        <ele>327.002988</ele>
        <time>2020-02-24T18:56:02.988Z</time>
      </trkpt>
      <trkpt lat="43.548615" lon="12.621624">
        <ele>327.987653</ele>
        <time>2020-02-24T18:56:18.145Z</time>
      </trkpt>
      <trkpt lat="43.548023" lon="12.621106">
        <ele>329.788427</ele>
        <time>2020-02-24T18:56:36.529Z</time>
      </trkpt>
      <trkpt lat="43.547823" lon="12.620721">
        <ele>330.670347</ele>
        <time>2020-02-24T18:56:42.839Z</time>
      </trkpt>
      <trkpt lat="43.547734" lon="12.619938">
        <ele>327.344529</ele>
        <time>2020-02-24T18:56:51.415Z</time>
      </trkpt>
      <trkpt lat="43.547739" lon="12.619268">
        <ele>324.128111</ele>
        <time>2020-02-24T18:56:58.410Z</time>
      </trkpt>
      <trkpt lat="43.547805" lon="12.618752">
        <ele>321.612847</ele>
        <time>2020-02-24T18:57:03.692Z</time>
      </trkpt>
      <trkpt lat="43.547942" lon="12.618302">
        <ele>319.269859</ele>
        <time>2020-02-24T18:57:08.713Z</time>
      </trkpt>
      <trkpt lat="43.547949" lon="12.618288">
        <ele>319.188214</ele>
        <time>2020-02-24T18:57:08.882Z</time>
      </trkpt>
      <trkpt lat="43.548013" lon="12.618164">
        <ele>318.479150</ele>
        <time>2020-02-24T18:57:10.402Z</time>
      </trkpt>
      <trkpt lat="43.548221" lon="12.617924">
        <ele>316.772959</ele>
        <time>2020-02-24T18:57:14.222Z</time>
      </trkpt>
      <trkpt lat="43.548908" lon="12.617456">
        <ele>311.951871</ele>
        <time>2020-02-24T18:57:25.049Z</time>
      </trkpt>
      <trkpt lat="43.549090" lon="12.617220">
        <ele>310.380259</ele>
        <time>2020-02-24T18:57:28.924Z</time>
      </trkpt>
      <trkpt lat="43.549297" lon="12.616780">
        <ele>307.987914</ele>
        <time>2020-02-24T18:57:34.647Z</time>
      </trkpt>
      <trkpt lat="43.549640" lon="12.616010">
        <ele>307.134159</ele>
        <time>2020-02-24T18:57:46.493Z</time>
      </trkpt>
      <trkpt lat="43.549822" lon="12.615598">
        <ele>306.873178</ele>
        <time>2020-02-24T18:57:53.397Z</time>
      </trkpt>
      <trkpt lat="43.549875" lon="12.615457">
        <ele>306.787265</ele>
        <time>2020-02-24T18:57:56.107Z</time>
      </trkpt>
      <trkpt lat="43.549964" lon="12.615118">
        <ele>306.592241</ele>
        <time>2020-02-24T18:58:01.576Z</time>
      </trkpt>
      <trkpt lat="43.549962" lon="12.614773">
        <ele>306.405625</ele>
        <time>2020-02-24T18:58:07.778Z</time>
      </trkpt>
      <trkpt lat="43.549605" lon="12.612431">
        <ele>308.627346</ele>
        <time>2020-02-24T18:58:57.748Z</time>
      </trkpt>
      <trkpt lat="43.549419" lon="12.611906">
        <ele>309.346496</ele>
        <time>2020-02-24T18:59:10.225Z</time>
      </trkpt>
      <trkpt lat="43.548525" lon="12.610027">
        <ele>312.504851</ele>
        <time>2020-02-24T18:59:59.400Z</time>
      </trkpt>
      <trkpt lat="43.548382" lon="12.609632">
        <ele>313.313998</ele>
        <time>2020-02-24T19:00:09.183Z</time>
      </trkpt>
      <trkpt lat="43.548275" lon="12.609061">
        <ele>314.434234</ele>
        <time>2020-02-24T19:00:22.144Z</time>
      </trkpt>
      <trkpt lat="43.548245" lon="12.608750">
        <ele>315.030166</ele>
        <time>2020-02-24T19:00:29.036Z</time>
      </trkpt>
      <trkpt lat="43.548277" lon="12.608262">
        <ele>315.960874</ele>
        <time>2020-02-24T19:00:39.635Z</time>
      </trkpt>
      <trkpt lat="43.548595" lon="12.606606">
        <ele>321.920069</ele>
        <time>2020-02-24T19:01:27.508Z</time>
      </trkpt>
      <trkpt lat="43.548572" lon="12.606502">
        <ele>322.418739</ele>
        <time>2020-02-24T19:01:30.293Z</time>
      </trkpt>
      <trkpt lat="43.548437" lon="12.606330">
        <ele>323.581467</ele>
        <time>2020-02-24T19:01:39.859Z</time>
      </trkpt>
      <trkpt lat="43.548294" lon="12.606176">
        <ele>324.729318</ele>
        <time>2020-02-24T19:01:46.693Z</time>
      </trkpt>
      <trkpt lat="43.548389" lon="12.605999">
        <ele>325.739413</ele>
        <time>2020-02-24T19:01:56.223Z</time>
      </trkpt>
      <trkpt lat="43.549184" lon="12.605107">
        <ele>333.977384</ele>
        <time>2020-02-24T19:02:59.175Z</time>
      </trkpt>
      <trkpt lat="43.549390" lon="12.604668">
        <ele>337.564329</ele>
        <time>2020-02-24T19:03:23.427Z</time>
      </trkpt>
      <trkpt lat="43.549454" lon="12.604400">
        <ele>339.499667</ele>
        <time>2020-02-24T19:03:36.302Z</time>
      </trkpt>
      <trkpt lat="43.549501" lon="12.604290">
        <ele>340.375466</ele>
        <time>2020-02-24T19:03:42.324Z</time>
      </trkpt>
      <trkpt lat="43.550177" lon="12.603054">
        <ele>349.577816</ele>
        <time>2020-02-24T19:04:45.663Z</time>
      </trkpt>
      <trkpt lat="43.550574" lon="12.602599">
        <ele>353.153113</ele>
        <time>2020-02-24T19:05:11.787Z</time>
      </trkpt>
      <trkpt lat="43.551412" lon="12.602213">
        <ele>359.022887</ele>
        <time>2020-02-24T19:05:50.608Z</time>
      </trkpt>
      <trkpt lat="43.551824" lon="12.601857">
        <ele>361.629875</ele>
        <time>2020-02-24T19:06:12.679Z</time>
      </trkpt>
      <trkpt lat="43.552232" lon="12.601871">
        <ele>363.818585</ele>
        <time>2020-02-24T19:06:30.803Z</time>
      </trkpt>
      <trkpt lat="43.552686" lon="12.601357">
        <ele>366.968012</ele>
        <time>2020-02-24T19:06:56.307Z</time>
      </trkpt>
      <trkpt lat="43.552862" lon="12.601238">
        <ele>367.965825</ele>
        <time>2020-02-24T19:07:04.613Z</time>
      </trkpt>
      <trkpt lat="43.553959" lon="12.600725">
        <ele>372.592944</ele>
        <time>2020-02-24T19:07:50.631Z</time>
      </trkpt>
      <trkpt lat="43.554385" lon="12.600352">
        <ele>374.608431</ele>
        <time>2020-02-24T19:08:07.738Z</time>
      </trkpt>
      <trkpt lat="43.554649" lon="12.599834">
        <ele>376.518703</ele>
        <time>2020-02-24T19:08:23.189Z</time>
      </trkpt>
      <trkpt lat="43.555672" lon="12.599187">
        <ele>381.253239</ele>
        <time>2020-02-24T19:09:05.191Z</time>
      </trkpt>
      <trkpt lat="43.557175" lon="12.597030">
        <ele>394.280772</ele>
        <time>2020-02-24T19:10:49.869Z</time>
      </trkpt>
      <trkpt lat="43.557390" lon="12.596975">
        <ele>395.245595</ele>
        <time>2020-02-24T19:11:01.878Z</time>
      </trkpt>
      <trkpt lat="43.557812" lon="12.597160">
        <ele>397.199321</ele>
        <time>2020-02-24T19:11:22.647Z</time>
      </trkpt>
      <trkpt lat="43.558161" lon="12.597201">
        <ele>398.744807</ele>
        <time>2020-02-24T19:11:35.994Z</time>
      </trkpt>
      <trkpt lat="43.558492" lon="12.597060">
        <ele>400.273306</ele>
        <time>2020-02-24T19:11:47.884Z</time>
      </trkpt>
      <trkpt lat="43.558759" lon="12.596863">
        <ele>401.609237</ele>
        <time>2020-02-24T19:11:56.573Z</time>
      </trkpt>
      <trkpt lat="43.558840" lon="12.596766">
        <ele>402.030668</ele>
        <time>2020-02-24T19:12:02.057Z</time>
      </trkpt>
      <trkpt lat="43.558930" lon="12.596582">
        <ele>402.444346</ele>
        <time>2020-02-24T19:12:06.576Z</time>
      </trkpt>
      <trkpt lat="43.558943" lon="12.596494">
        <ele>402.611706</ele>
        <time>2020-02-24T19:12:07.503Z</time>
      </trkpt>
      <trkpt lat="43.558895" lon="12.596336">
        <ele>402.930962</ele>
        <time>2020-02-24T19:12:13.275Z</time>
      </trkpt>
      <trkpt lat="43.558746" lon="12.596252">
        <ele>403.344859</ele>
        <time>2020-02-24T19:12:17.554Z</time>
      </trkpt>
      <trkpt lat="43.558324" lon="12.596464">
        <ele>404.499710</ele>
        <time>2020-02-24T19:12:27.486Z</time>
      </trkpt>
      <trkpt lat="43.558224" lon="12.596464">
        <ele>404.756860</ele>
        <time>2020-02-24T19:12:32.203Z</time>
      </trkpt>
      <trkpt lat="43.558121" lon="12.596373">
        <ele>405.071361</ele>
        <time>2020-02-24T19:12:36.111Z</time>
      </trkpt>
      <trkpt lat="43.558057" lon="12.596144">
        <ele>405.528740</ele>
        <time>2020-02-24T19:12:40.086Z</time>
      </trkpt>
      <trkpt lat="43.558140" lon="12.595857">
        <ele>406.104583</ele>
        <time>2020-02-24T19:12:48.691Z</time>
      </trkpt>
      <trkpt lat="43.558482" lon="12.595187">
        <ele>410.476917</ele>
        <time>2020-02-24T19:13:13.268Z</time>
      </trkpt>
      <trkpt lat="43.558667" lon="12.593660">
        <ele>421.192739</ele>
        <time>2020-02-24T19:14:25.320Z</time>
      </trkpt>
      <trkpt lat="43.558921" lon="12.593032">
        <ele>427.110134</ele>
        <time>2020-02-24T19:15:05.995Z</time>
      </trkpt>
      <trkpt lat="43.559044" lon="12.592437">
        <ele>433.063749</ele>
        <time>2020-02-24T19:15:41.673Z</time>
      </trkpt>
      <trkpt lat="43.559262" lon="12.592012">
        <ele>438.073976</ele>
        <time>2020-02-24T19:16:11.207Z</time>
      </trkpt>
      <trkpt lat="43.559239" lon="12.591324">
        <ele>444.701074</ele>
        <time>2020-02-24T19:16:49.214Z</time>
      </trkpt>
      <trkpt lat="43.559395" lon="12.590813">
        <ele>449.497910</ele>
        <time>2020-02-24T19:17:18.012Z</time>
      </trkpt>
      <trkpt lat="43.559306" lon="12.590236">
        <ele>453.895623</ele>
        <time>2020-02-24T19:17:47.154Z</time>
      </trkpt>
      <trkpt lat="43.559405" lon="12.589877">
        <ele>456.759084</ele>
        <time>2020-02-24T19:18:05.293Z</time>
      </trkpt>
      <trkpt lat="43.559442" lon="12.589155">
        <ele>462.154802</ele>
        <time>2020-02-24T19:18:37.294Z</time>
      </trkpt>
      <trkpt lat="43.559691" lon="12.588629">
        <ele>466.555000</ele>
        <time>2020-02-24T19:19:03.329Z</time>
      </trkpt>
      <trkpt lat="43.559970" lon="12.587852">
        <ele>470.363984</ele>
        <time>2020-02-24T19:19:36.066Z</time>
      </trkpt>
      <trkpt lat="43.560148" lon="12.587706">
        <ele>471.619130</ele>
        <time>2020-02-24T19:19:45.778Z</time>
      </trkpt>
      <trkpt lat="43.560262" lon="12.587385">
        <ele>473.189335</ele>
        <time>2020-02-24T19:19:57.263Z</time>
      </trkpt>
      <trkpt lat="43.560243" lon="12.587307">
        <ele>473.550786</ele>
        <time>2020-02-24T19:19:59.857Z</time>
      </trkpt>
      <trkpt lat="43.560186" lon="12.587280">
        <ele>473.916079</ele>
        <time>2020-02-24T19:20:02.450Z</time>
      </trkpt>
      <trkpt lat="43.560045" lon="12.587428">
        <ele>474.989892</ele>
        <time>2020-02-24T19:20:09.699Z</time>
      </trkpt>
      <trkpt lat="43.559933" lon="12.587438">
        <ele>475.670198</ele>
        <time>2020-02-24T19:20:14.216Z</time>
      </trkpt>
      <trkpt lat="43.559862" lon="12.586736">
        <ele>477.702075</ele>
        <time>2020-02-24T19:20:33.612Z</time>
      </trkpt>
      <trkpt lat="43.559809" lon="12.586624">
        <ele>477.922899</ele>
        <time>2020-02-24T19:20:36.936Z</time>
      </trkpt>
      <trkpt lat="43.559613" lon="12.586603">
        <ele>478.370749</ele>
        <time>2020-02-24T19:20:43.756Z</time>
      </trkpt>
      <trkpt lat="43.559504" lon="12.586790">
        <ele>478.766930</ele>
        <time>2020-02-24T19:20:49.294Z</time>
      </trkpt>
      <trkpt lat="43.559417" lon="12.587758">
        <ele>480.377190</ele>
        <time>2020-02-24T19:21:08.971Z</time>
      </trkpt>
      <trkpt lat="43.559331" lon="12.587969">
        <ele>480.776835</ele>
        <time>2020-02-24T19:21:13.536Z</time>
      </trkpt>
      <trkpt lat="43.559027" lon="12.588413">
        <ele>482.016162</ele>
        <time>2020-02-24T19:21:25.556Z</time>
      </trkpt>
      <trkpt lat="43.558908" lon="12.588467">
        <ele>482.405008</ele>
        <time>2020-02-24T19:21:29.214Z</time>
      </trkpt>
      <trkpt lat="43.558858" lon="12.588359">
        <ele>482.693291</ele>
        <time>2020-02-24T19:21:32.089Z</time>
      </trkpt>
      <trkpt lat="43.558885" lon="12.588270">
        <ele>482.910325</ele>
        <time>2020-02-24T19:21:34.251Z</time>
      </trkpt>
      <trkpt lat="43.559066" lon="12.588032">
        <ele>483.686390</ele>
        <time>2020-02-24T19:21:42.404Z</time>
      </trkpt>
      <trkpt lat="43.559169" lon="12.587724">
        <ele>484.449424</ele>
        <time>2020-02-24T19:21:50.908Z</time>
      </trkpt>
      <trkpt lat="43.559139" lon="12.587377">
        <ele>485.235507</ele>
        <time>2020-02-24T19:22:00.332Z</time>
      </trkpt>
      <trkpt lat="43.559005" lon="12.587324">
        <ele>485.668202</ele>
        <time>2020-02-24T19:22:05.670Z</time>
      </trkpt>
      <trkpt lat="43.558143" lon="12.587561">
        <ele>491.261180</ele>
        <time>2020-02-24T19:22:42.728Z</time>
      </trkpt>
      <trkpt lat="43.557928" lon="12.587361">
        <ele>493.450771</ele>
        <time>2020-02-24T19:22:55.117Z</time>
      </trkpt>
      <trkpt lat="43.557804" lon="12.587120">
        <ele>495.259521</ele>
        <time>2020-02-24T19:23:07.024Z</time>
      </trkpt>
      <trkpt lat="43.557785" lon="12.586808">
        <ele>497.175568</ele>
        <time>2020-02-24T19:23:20.885Z</time>
      </trkpt>
      <trkpt lat="43.558064" lon="12.585346">
        <ele>508.150357</ele>
        <time>2020-02-24T19:24:39.545Z</time>
      </trkpt>
      <trkpt lat="43.558058" lon="12.584952">
        <ele>511.483884</ele>
        <time>2020-02-24T19:25:00.590Z</time>
      </trkpt>
      <trkpt lat="43.558057" lon="12.584538">
        <ele>514.985871</ele>
        <time>2020-02-24T19:25:21.735Z</time>
      </trkpt>
      <trkpt lat="43.558099" lon="12.584295">
        <ele>517.099028</ele>
        <time>2020-02-24T19:25:32.427Z</time>
      </trkpt>
      <trkpt lat="43.558203" lon="12.584047">
        <ele>519.522747</ele>
        <time>2020-02-24T19:25:48.194Z</time>
      </trkpt>
      <trkpt lat="43.558271" lon="12.583943">
        <ele>520.707620</ele>
        <time>2020-02-24T19:25:53.646Z</time>
      </trkpt>
      <trkpt lat="43.558815" lon="12.583606">
        <ele>526.136118</ele>
        <time>2020-02-24T19:26:34.652Z</time>
      </trkpt>
      <trkpt lat="43.559608" lon="12.583642">
        <ele>532.412500</ele>
        <time>2020-02-24T19:27:16.921Z</time>
      </trkpt>
      <trkpt lat="43.560045" lon="12.583136">
        <ele>536.925064</ele>
        <time>2020-02-24T19:27:42.771Z</time>
      </trkpt>
      <trkpt lat="43.560100" lon="12.583012">
        <ele>537.582926</ele>
        <time>2020-02-24T19:27:47.650Z</time>
      </trkpt>
      <trkpt lat="43.560203" lon="12.582344">
        <ele>540.381016</ele>
        <time>2020-02-24T19:28:07.940Z</time>
      </trkpt>
      <trkpt lat="43.560464" lon="12.582040">
        <ele>542.312021</ele>
        <time>2020-02-24T19:28:22.230Z</time>
      </trkpt>
      <trkpt lat="43.560673" lon="12.581949">
        <ele>543.551087</ele>
        <time>2020-02-24T19:28:33.346Z</time>
      </trkpt>
      <trkpt lat="43.560809" lon="12.581882">
        <ele>544.367533</ele>
        <time>2020-02-24T19:28:38.794Z</time>
      </trkpt>
      <trkpt lat="43.561229" lon="12.581597">
        <ele>547.013680</ele>
        <time>2020-02-24T19:29:01.623Z</time>
      </trkpt>
      <trkpt lat="43.561684" lon="12.581804">
        <ele>549.711772</ele>
        <time>2020-02-24T19:29:23.951Z</time>
      </trkpt>
      <trkpt lat="43.561766" lon="12.581822">
        <ele>550.179153</ele>
        <time>2020-02-24T19:29:26.255Z</time>
      </trkpt>
      <trkpt lat="43.561848" lon="12.581798">
        <ele>550.650997</ele>
        <time>2020-02-24T19:29:31.518Z</time>
      </trkpt>
      <trkpt lat="43.561978" lon="12.581589">
        <ele>551.774492</ele>
        <time>2020-02-24T19:29:40.663Z</time>
      </trkpt>
      <trkpt lat="43.562012" lon="12.581400">
        <ele>552.568812</ele>
        <time>2020-02-24T19:29:46.463Z</time>
      </trkpt>
      <trkpt lat="43.561993" lon="12.580960">
        <ele>554.366726</ele>
        <time>2020-02-24T19:29:59.018Z</time>
      </trkpt>
      <trkpt lat="43.561951" lon="12.580836">
        <ele>554.925041</ele>
        <time>2020-02-24T19:30:04.198Z</time>
      </trkpt>
      <trkpt lat="43.561569" lon="12.580220">
        <ele>558.109233</ele>
        <time>2020-02-24T19:30:29.709Z</time>
      </trkpt>
      <trkpt lat="43.561157" lon="12.579809">
        <ele>560.528549</ele>
        <time>2020-02-24T19:30:54.564Z</time>
      </trkpt>
      <trkpt lat="43.561090" lon="12.579602">
        <ele>561.310364</ele>
        <time>2020-02-24T19:31:01.851Z</time>
      </trkpt>
      <trkpt lat="43.561143" lon="12.579437">
        <ele>561.932764</ele>
        <time>2020-02-24T19:31:07.285Z</time>
      </trkpt>
      <trkpt lat="43.561293" lon="12.579276">
        <ele>562.837100</ele>
        <time>2020-02-24T19:31:14.788Z</time>
      </trkpt>
      <trkpt lat="43.561658" lon="12.578626">
        <ele>565.672872</ele>
        <time>2020-02-24T19:31:36.707Z</time>
      </trkpt>
      <trkpt lat="43.561765" lon="12.577894">
        <ele>567.119767</ele>
        <time>2020-02-24T19:31:55.837Z</time>
      </trkpt>
      <trkpt lat="43.561737" lon="12.577490">
        <ele>567.817991</ele>
        <time>2020-02-24T19:32:05.961Z</time>
      </trkpt>
      <trkpt lat="43.561688" lon="12.577334">
        <ele>568.110507</ele>
        <time>2020-02-24T19:32:10.381Z</time>
      </trkpt>
      <trkpt lat="43.561333" lon="12.576757">
        <ele>569.412743</ele>
        <time>2020-02-24T19:32:27.960Z</time>
      </trkpt>
      <trkpt lat="43.561283" lon="12.576580">
        <ele>569.739582</ele>
        <time>2020-02-24T19:32:31.961Z</time>
      </trkpt>
      <trkpt lat="43.561272" lon="12.576401">
        <ele>570.048646</ele>
        <time>2020-02-24T19:32:35.208Z</time>
      </trkpt>
      <trkpt lat="43.561420" lon="12.575499">
        <ele>570.765512</ele>
        <time>2020-02-24T19:32:49.883Z</time>
      </trkpt>
      <trkpt lat="43.561361" lon="12.575087">
        <ele>571.027942</ele>
        <time>2020-02-24T19:32:57.154Z</time>
      </trkpt>
      <trkpt lat="43.561307" lon="12.574928">
        <ele>571.137669</ele>
        <time>2020-02-24T19:33:00.546Z</time>
      </trkpt>
      <trkpt lat="43.561103" lon="12.574622">
        <ele>571.397495</ele>
        <time>2020-02-24T19:33:09.274Z</time>
      </trkpt>
      <trkpt lat="43.560570" lon="12.574033">
        <ele>571.731793</ele>
        <time>2020-02-24T19:33:28.481Z</time>
      </trkpt>
      <trkpt lat="43.560430" lon="12.573766">
        <ele>571.626517</ele>
        <time>2020-02-24T19:33:34.095Z</time>
      </trkpt>
      <trkpt lat="43.560177" lon="12.573038">
        <ele>571.368605</ele>
        <time>2020-02-24T19:33:46.602Z</time>
      </trkpt>
      <trkpt lat="43.559872" lon="12.572856">
        <ele>571.222124</ele>
        <time>2020-02-24T19:33:53.249Z</time>
      </trkpt>
      <trkpt lat="43.559150" lon="12.573045">
        <ele>569.428822</ele>
        <time>2020-02-24T19:34:06.890Z</time>
      </trkpt>
      <trkpt lat="43.559001" lon="12.573041">
        <ele>568.602114</ele>
        <time>2020-02-24T19:34:09.254Z</time>
      </trkpt>
      <trkpt lat="43.558919" lon="12.572952">
        <ele>568.023392</ele>
        <time>2020-02-24T19:34:10.885Z</time>
      </trkpt>
      <trkpt lat="43.559030" lon="12.572795">
        <ele>567.141644</ele>
        <time>2020-02-24T19:34:13.311Z</time>
      </trkpt>
      <trkpt lat="43.560031" lon="12.572290">
        <ele>561.229328</ele>
        <time>2020-02-24T19:34:28.350Z</time>
      </trkpt>
      <trkpt lat="43.560999" lon="12.572662">
        <ele>555.695057</ele>
        <time>2020-02-24T19:34:42.753Z</time>
      </trkpt>
      <trkpt lat="43.561635" lon="12.572245">
        <ele>551.817877</ele>
        <time>2020-02-24T19:34:53.502Z</time>
      </trkpt>
      <trkpt lat="43.562075" lon="12.572192">
        <ele>551.092680</ele>
        <time>2020-02-24T19:35:00.906Z</time>
      </trkpt>
      <trkpt lat="43.562760" lon="12.571600">
        <ele>550.964041</ele>
        <time>2020-02-24T19:35:18.573Z</time>
      </trkpt>
      <trkpt lat="43.562993" lon="12.571610">
        <ele>550.926939</ele>
        <time>2020-02-24T19:35:24.518Z</time>
      </trkpt>
      <trkpt lat="43.563114" lon="12.571694">
        <ele>550.905381</ele>
        <time>2020-02-24T19:35:28.207Z</time>
      </trkpt>
      <trkpt lat="43.563947" lon="12.572693">
        <ele>554.571792</ele>
        <time>2020-02-24T19:36:03.717Z</time>
      </trkpt>
      <trkpt lat="43.564125" lon="12.572805">
        <ele>555.479076</ele>
        <time>2020-02-24T19:36:11.441Z</time>
      </trkpt>
      <trkpt lat="43.564258" lon="12.572765">
        <ele>556.110382</ele>
        <time>2020-02-24T19:36:17.095Z</time>
      </trkpt>
      <trkpt lat="43.564886" lon="12.572334">
        <ele>559.504779</ele>
        <time>2020-02-24T19:36:51.860Z</time>
      </trkpt>
      <trkpt lat="43.565255" lon="12.572195">
        <ele>562.808258</ele>
        <time>2020-02-24T19:37:13.991Z</time>
      </trkpt>
      <trkpt lat="43.565404" lon="12.572062">
        <ele>564.340812</ele>
        <time>2020-02-24T19:37:24.153Z</time>
      </trkpt>
      <trkpt lat="43.566180" lon="12.571009">
        <ele>573.739712</ele>
        <time>2020-02-24T19:38:28.031Z</time>
      </trkpt>
      <trkpt lat="43.566272" lon="12.570824">
        <ele>575.162178</ele>
        <time>2020-02-24T19:38:37.791Z</time>
      </trkpt>
      <trkpt lat="43.566432" lon="12.570201">
        <ele>579.482977</ele>
        <time>2020-02-24T19:39:04.366Z</time>
      </trkpt>
      <trkpt lat="43.566405" lon="12.569909">
        <ele>581.407258</ele>
        <time>2020-02-24T19:39:16.502Z</time>
      </trkpt>
      <trkpt lat="43.565936" lon="12.568783">
        <ele>589.897422</ele>
        <time>2020-02-24T19:40:13.750Z</time>
      </trkpt>
      <trkpt lat="43.565784" lon="12.568602">
        <ele>591.408625</ele>
        <time>2020-02-24T19:40:25.315Z</time>
      </trkpt>
      <trkpt lat="43.565589" lon="12.568555">
        <ele>592.478721</ele>
        <time>2020-02-24T19:40:36.211Z</time>
      </trkpt>
      <trkpt lat="43.565332" lon="12.568625">
        <ele>593.894822</ele>
        <time>2020-02-24T19:40:49.494Z</time>
      </trkpt>
      <trkpt lat="43.565172" lon="12.568633">
        <ele>594.760325</ele>
        <time>2020-02-24T19:40:59.713Z</time>
      </trkpt>
      <trkpt lat="43.564776" lon="12.568611">
        <ele>596.902774</ele>
        <time>2020-02-24T19:41:18.341Z</time>
      </trkpt>
      <trkpt lat="43.564641" lon="12.568527">
        <ele>597.703308</ele>
        <time>2020-02-24T19:41:23.411Z</time>
      </trkpt>
      <trkpt lat="43.564571" lon="12.568323">
        <ele>598.587460</ele>
        <time>2020-02-24T19:41:31.706Z</time>
      </trkpt>
      <trkpt lat="43.564502" lon="12.567676">
        <ele>600.185423</ele>
        <time>2020-02-24T19:41:46.723Z</time>
      </trkpt>
      <trkpt lat="43.564481" lon="12.566444">
        <ele>595.025759</ele>
        <time>2020-02-24T19:42:00.781Z</time>
      </trkpt>
      <trkpt lat="43.564607" lon="12.565550">
        <ele>591.212543</ele>
        <time>2020-02-24T19:42:09.878Z</time>
      </trkpt>
      <trkpt lat="43.564829" lon="12.564922">
        <ele>586.475772</ele>
        <time>2020-02-24T19:42:16.639Z</time>
      </trkpt>
      <trkpt lat="43.564913" lon="12.564249">
        <ele>581.031590</ele>
        <time>2020-02-24T19:42:23.221Z</time>
      </trkpt>
      <trkpt lat="43.564907" lon="12.564035">
        <ele>579.324303</ele>
        <time>2020-02-24T19:42:25.288Z</time>
      </trkpt>
      <trkpt lat="43.564768" lon="12.563552">
        <ele>575.181242</ele>
        <time>2020-02-24T19:42:30.339Z</time>
      </trkpt>
      <trkpt lat="43.564722" lon="12.563144">
        <ele>571.889515</ele>
        <time>2020-02-24T19:42:34.403Z</time>
      </trkpt>
      <trkpt lat="43.564630" lon="12.563079">
        <ele>570.752397</ele>
        <time>2020-02-24T19:42:35.825Z</time>
      </trkpt>
      <trkpt lat="43.564115" lon="12.563086">
        <ele>565.688285</ele>
        <time>2020-02-24T19:42:43.030Z</time>
      </trkpt>
      <trkpt lat="43.563216" lon="12.562655">
        <ele>556.381965</ele>
        <time>2020-02-24T19:42:55.894Z</time>
      </trkpt>
      <trkpt lat="43.562715" lon="12.562838">
        <ele>551.395404</ele>
        <time>2020-02-24T19:43:03.014Z</time>
      </trkpt>
      <trkpt lat="43.562659" lon="12.562811">
        <ele>550.844804</ele>
        <time>2020-02-24T19:43:03.921Z</time>
      </trkpt>
      <trkpt lat="43.562568" lon="12.562656">
        <ele>549.503055</ele>
        <time>2020-02-24T19:43:05.807Z</time>
      </trkpt>
      <trkpt lat="43.562528" lon="12.562532">
        <ele>548.590132</ele>
        <time>2020-02-24T19:43:07.274Z</time>
      </trkpt>
      <trkpt lat="43.562465" lon="12.562182">
        <ele>546.164515</ele>
        <time>2020-02-24T19:43:10.796Z</time>
      </trkpt>
      <trkpt lat="43.562428" lon="12.561915">
        <ele>544.336147</ele>
        <time>2020-02-24T19:43:13.659Z</time>
      </trkpt>
      <trkpt lat="43.562482" lon="12.561479">
        <ele>541.361113</ele>
        <time>2020-02-24T19:43:18.032Z</time>
      </trkpt>
      <trkpt lat="43.562661" lon="12.561143">
        <ele>538.556175</ele>
        <time>2020-02-24T19:43:22.156Z</time>
      </trkpt>
      <trkpt lat="43.563221" lon="12.560761">
        <ele>534.627668</ele>
        <time>2020-02-24T19:43:30.714Z</time>
      </trkpt>
      <trkpt lat="43.563362" lon="12.560722">
        <ele>534.014069</ele>
        <time>2020-02-24T19:43:32.810Z</time>
      </trkpt>
      <trkpt lat="43.563982" lon="12.560904">
        <ele>531.309399</ele>
        <time>2020-02-24T19:43:42.755Z</time>
      </trkpt>
      <trkpt lat="43.565106" lon="12.560851">
        <ele>529.670227</ele>
        <time>2020-02-24T19:44:05.053Z</time>
      </trkpt>
      <trkpt lat="43.565336" lon="12.560891">
        <ele>530.218222</ele>
        <time>2020-02-24T19:44:11.308Z</time>
      </trkpt>
      <trkpt lat="43.565574" lon="12.560984">
        <ele>530.802945</ele>
        <time>2020-02-24T19:44:18.536Z</time>
      </trkpt>
      <trkpt lat="43.565775" lon="12.561239">
        <ele>531.448338</ele>
        <time>2020-02-24T19:44:27.249Z</time>
      </trkpt>
      <trkpt lat="43.565894" lon="12.561280">
        <ele>531.738275</ele>
        <time>2020-02-24T19:44:31.585Z</time>
      </trkpt>
      <trkpt lat="43.566924" lon="12.560689">
        <ele>537.496146</ele>
        <time>2020-02-24T19:45:24.099Z</time>
      </trkpt>
      <trkpt lat="43.567222" lon="12.560620">
        <ele>539.621809</ele>
        <time>2020-02-24T19:45:41.583Z</time>
      </trkpt>
      <trkpt lat="43.567500" lon="12.560754">
        <ele>541.693319</ele>
        <time>2020-02-24T19:45:57.937Z</time>
      </trkpt>
      <trkpt lat="43.567693" lon="12.560584">
        <ele>543.303980</ele>
        <time>2020-02-24T19:46:09.095Z</time>
      </trkpt>
      <trkpt lat="43.567747" lon="12.560540">
        <ele>543.745122</ele>
        <time>2020-02-24T19:46:12.789Z</time>
      </trkpt>
      <trkpt lat="43.567833" lon="12.560469">
        <ele>544.450092</ele>
        <time>2020-02-24T19:46:18.770Z</time>
      </trkpt>
      <trkpt lat="43.568173" lon="12.560147">
        <ele>546.722294</ele>
        <time>2020-02-24T19:46:38.581Z</time>
      </trkpt>
      <trkpt lat="43.568401" lon="12.559783">
        <ele>548.364377</ele>
        <time>2020-02-24T19:46:54.721Z</time>
      </trkpt>
      <trkpt lat="43.568444" lon="12.559714">
        <ele>548.674975</ele>
        <time>2020-02-24T19:46:57.235Z</time>
      </trkpt>
      <trkpt lat="43.568823" lon="12.558900">
        <ele>551.977058</ele>
        <time>2020-02-24T19:47:27.576Z</time>
      </trkpt>
      <trkpt lat="43.569181" lon="12.558491">
        <ele>553.939404</ele>
        <time>2020-02-24T19:47:41.129Z</time>
      </trkpt>
      <trkpt lat="43.569396" lon="12.558384">
        <ele>554.022227</ele>
        <time>2020-02-24T19:47:49.066Z</time>
      </trkpt>
      <trkpt lat="43.569598" lon="12.558328">
        <ele>554.096891</ele>
        <time>2020-02-24T19:47:52.610Z</time>
      </trkpt>
      <trkpt lat="43.569701" lon="12.558248">
        <ele>554.139721</ele>
        <time>2020-02-24T19:47:57.289Z</time>
      </trkpt>
      <trkpt lat="43.569814" lon="12.557994">
        <ele>554.217981</ele>
        <time>2020-02-24T19:48:01.026Z</time>
      </trkpt>
      <trkpt lat="43.569859" lon="12.557475">
        <ele>554.355222</ele>
        <time>2020-02-24T19:48:09.004Z</time>
      </trkpt>
      <trkpt lat="43.570097" lon="12.556855">
        <ele>554.539446</ele>
        <time>2020-02-24T19:48:21.856Z</time>
      </trkpt>
      <trkpt lat="43.570140" lon="12.556362">
        <ele>554.095970</ele>
        <time>2020-02-24T19:48:29.460Z</time>
      </trkpt>
      <trkpt lat="43.570212" lon="12.556083">
        <ele>553.716076</ele>
        <time>2020-02-24T19:48:33.839Z</time>
      </trkpt>
      <trkpt lat="43.571038" lon="12.554962">
        <ele>551.665239</ele>
        <time>2020-02-24T19:48:53.775Z</time>
      </trkpt>
      <trkpt lat="43.571192" lon="12.554613">
        <ele>550.900286</ele>
        <time>2020-02-24T19:48:58.632Z</time>
      </trkpt>
      <trkpt lat="43.571260" lon="12.554054">
        <ele>549.464245</ele>
        <time>2020-02-24T19:49:05.412Z</time>
      </trkpt>
      <trkpt lat="43.571302" lon="12.553859">
        <ele>548.948848</ele>
        <time>2020-02-24T19:49:08.395Z</time>
      </trkpt>
      <trkpt lat="43.571356" lon="12.553670">
        <ele>548.434133</ele>
        <time>2020-02-24T19:49:10.555Z</time>
      </trkpt>
      <trkpt lat="43.571475" lon="12.553372">
        <ele>547.572076</ele>
        <time>2020-02-24T19:49:14.786Z</time>
      </trkpt>
      <trkpt lat="43.571735" lon="12.552957">
        <ele>546.182112</ele>
        <time>2020-02-24T19:49:20.979Z</time>
      </trkpt>
      <trkpt lat="43.571764" lon="12.552441">
        <ele>544.816152</ele>
        <time>2020-02-24T19:49:26.838Z</time>
      </trkpt>
      <trkpt lat="43.571991" lon="12.551960">
        <ele>543.011971</ele>
        <time>2020-02-24T19:49:33.199Z</time>
      </trkpt>
      <trkpt lat="43.572015" lon="12.551819">
        <ele>542.556754</ele>
        <time>2020-02-24T19:49:34.839Z</time>
      </trkpt>
      <trkpt lat="43.571924" lon="12.551149">
        <ele>540.414313</ele>
        <time>2020-02-24T19:49:42.111Z</time>
      </trkpt>
      <trkpt lat="43.571901" lon="12.550592">
        <ele>538.660863</ele>
        <time>2020-02-24T19:49:48.542Z</time>
      </trkpt>
      <trkpt lat="43.571926" lon="12.550396">
        <ele>538.035376</ele>
        <time>2020-02-24T19:49:51.956Z</time>
      </trkpt>
      <trkpt lat="43.572143" lon="12.549905">
        <ele>536.784274</ele>
        <time>2020-02-24T19:49:58.519Z</time>
      </trkpt>
      <trkpt lat="43.572420" lon="12.549358">
        <ele>535.779460</ele>
        <time>2020-02-24T19:50:06.128Z</time>
      </trkpt>
      <trkpt lat="43.572443" lon="12.549248">
        <ele>535.607082</ele>
        <time>2020-02-24T19:50:08.263Z</time>
      </trkpt>
      <trkpt lat="43.572445" lon="12.549069">
        <ele>535.337543</ele>
        <time>2020-02-24T19:50:11.272Z</time>
      </trkpt>
      <trkpt lat="43.572404" lon="12.548873">
        <ele>535.030387</ele>
        <time>2020-02-24T19:50:13.446Z</time>
      </trkpt>
      <trkpt lat="43.572335" lon="12.548705">
        <ele>534.739624</ele>
        <time>2020-02-24T19:50:18.304Z</time>
      </trkpt>
      <trkpt lat="43.572272" lon="12.548607">
        <ele>534.542362</ele>
        <time>2020-02-24T19:50:19.754Z</time>
      </trkpt>
      <trkpt lat="43.572128" lon="12.548079">
        <ele>533.692930</ele>
        <time>2020-02-24T19:50:27.111Z</time>
      </trkpt>
      <trkpt lat="43.572023" lon="12.547954">
        <ele>533.411959</ele>
        <time>2020-02-24T19:50:29.738Z</time>
      </trkpt>
      <trkpt lat="43.571903" lon="12.547639">
        <ele>532.901214</ele>
        <time>2020-02-24T19:50:35.513Z</time>
      </trkpt>
      <trkpt lat="43.571870" lon="12.546969">
        <ele>531.937463</ele>
        <time>2020-02-24T19:50:51.453Z</time>
      </trkpt>
      <trkpt lat="43.571821" lon="12.546877">
        <ele>531.773595</ele>
        <time>2020-02-24T19:50:52.750Z</time>
      </trkpt>
      <trkpt lat="43.571617" lon="12.546795">
        <ele>531.352721</ele>
        <time>2020-02-24T19:50:56.961Z</time>
      </trkpt>
      <trkpt lat="43.571526" lon="12.546821">
        <ele>531.168646</ele>
        <time>2020-02-24T19:50:58.240Z</time>
      </trkpt>
      <trkpt lat="43.571240" lon="12.547293">
        <ele>530.285591</ele>
        <time>2020-02-24T19:51:05.213Z</time>
      </trkpt>
      <trkpt lat="43.571130" lon="12.547315">
        <ele>530.065426</ele>
        <time>2020-02-24T19:51:06.897Z</time>
      </trkpt>
      <trkpt lat="43.571077" lon="12.547268">
        <ele>529.796854</ele>
        <time>2020-02-24T19:51:10.246Z</time>
      </trkpt>
      <trkpt lat="43.571058" lon="12.547151">
        <ele>529.173136</ele>
        <time>2020-02-24T19:51:11.413Z</time>
      </trkpt>
      <trkpt lat="43.571116" lon="12.546456">
        <ele>525.533941</ele>
        <time>2020-02-24T19:51:18.688Z</time>
      </trkpt>
      <trkpt lat="43.571402" lon="12.545963">
        <ele>522.248646</ele>
        <time>2020-02-24T19:51:25.197Z</time>
      </trkpt>
      <trkpt lat="43.571673" lon="12.545836">
        <ele>520.193844</ele>
        <time>2020-02-24T19:51:29.078Z</time>
      </trkpt>
      <trkpt lat="43.571966" lon="12.545891">
        <ele>518.070818</ele>
        <time>2020-02-24T19:51:33.202Z</time>
      </trkpt>
      <trkpt lat="43.572375" lon="12.545737">
        <ele>516.820539</ele>
        <time>2020-02-24T19:51:39.133Z</time>
      </trkpt>
      <trkpt lat="43.572781" lon="12.545184">
        <ele>516.300091</ele>
        <time>2020-02-24T19:51:48.067Z</time>
      </trkpt>
      <trkpt lat="43.573319" lon="12.544642">
        <ele>515.692358</ele>
        <time>2020-02-24T19:52:06.670Z</time>
      </trkpt>
      <trkpt lat="43.573345" lon="12.544539">
        <ele>515.620255</ele>
        <time>2020-02-24T19:52:09.825Z</time>
      </trkpt>
      <trkpt lat="43.573159" lon="12.543896">
        <ele>517.386507</ele>
        <time>2020-02-24T19:52:34.516Z</time>
      </trkpt>
      <trkpt lat="43.573112" lon="12.543847">
        <ele>517.762773</ele>
        <time>2020-02-24T19:52:37.846Z</time>
      </trkpt>
      <trkpt lat="43.572532" lon="12.543945">
        <ele>521.495563</ele>
        <time>2020-02-24T19:53:13.889Z</time>
      </trkpt>
      <trkpt lat="43.572399" lon="12.543883">
        <ele>522.392337</ele>
        <time>2020-02-24T19:53:22.784Z</time>
      </trkpt>
      <trkpt lat="43.572148" lon="12.543640">
        <ele>524.350870</ele>
        <time>2020-02-24T19:53:42.194Z</time>
      </trkpt>
      <trkpt lat="43.571671" lon="12.543373">
        <ele>526.271342</ele>
        <time>2020-02-24T19:53:58.566Z</time>
      </trkpt>
      <trkpt lat="43.571453" lon="12.542969">
        <ele>524.102219</ele>
        <time>2020-02-24T19:54:04.962Z</time>
      </trkpt>
      <trkpt lat="43.571299" lon="12.542242">
        <ele>520.840647</ele>
        <time>2020-02-24T19:54:13.367Z</time>
      </trkpt>
      <trkpt lat="43.571303" lon="12.542016">
        <ele>519.867183</ele>
        <time>2020-02-24T19:54:15.534Z</time>
      </trkpt>
      <trkpt lat="43.571318" lon="12.541874">
        <ele>519.249255</ele>
        <time>2020-02-24T19:54:17.072Z</time>
      </trkpt>
      <trkpt lat="43.571384" lon="12.541789">
        <ele>518.712750</ele>
        <time>2020-02-24T19:54:18.364Z</time>
      </trkpt>
      <trkpt lat="43.571455" lon="12.541753">
        <ele>518.263197</ele>
        <time>2020-02-24T19:54:19.399Z</time>
      </trkpt>
      <trkpt lat="43.571520" lon="12.541768">
        <ele>517.871516</ele>
        <time>2020-02-24T19:54:20.231Z</time>
      </trkpt>
      <trkpt lat="43.571688" lon="12.542259">
        <ele>515.211113</ele>
        <time>2020-02-24T19:54:25.473Z</time>
      </trkpt>
      <trkpt lat="43.571795" lon="12.542347">
        <ele>514.133551</ele>
        <time>2020-02-24T19:54:27.166Z</time>
      </trkpt>
      <trkpt lat="43.572287" lon="12.542209">
        <ele>509.790117</ele>
        <time>2020-02-24T19:54:33.748Z</time>
      </trkpt>
      <trkpt lat="43.572508" lon="12.542260">
        <ele>507.851643</ele>
        <time>2020-02-24T19:54:36.673Z</time>
      </trkpt>
      <trkpt lat="43.572792" lon="12.542428">
        <ele>505.178536</ele>
        <time>2020-02-24T19:54:40.874Z</time>
      </trkpt>
      <trkpt lat="43.573170" lon="12.542345">
        <ele>501.867227</ele>
        <time>2020-02-24T19:54:47.159Z</time>
      </trkpt>
      <trkpt lat="43.573493" lon="12.542481">
        <ele>501.888534</ele>
        <time>2020-02-24T19:54:54.246Z</time>
      </trkpt>
      <trkpt lat="43.573868" lon="12.542381">
        <ele>504.191298</ele>
        <time>2020-02-24T19:55:06.446Z</time>
      </trkpt>
      <trkpt lat="43.574733" lon="12.542288">
        <ele>509.422364</ele>
        <time>2020-02-24T19:55:51.355Z</time>
      </trkpt>
      <trkpt lat="43.575590" lon="12.541667">
        <ele>518.655204</ele>
        <time>2020-02-24T19:57:02.075Z</time>
      </trkpt>
      <trkpt lat="43.576280" lon="12.540767">
        <ele>529.586479</ele>
        <time>2020-02-24T19:58:09.100Z</time>
      </trkpt>
      <trkpt lat="43.576529" lon="12.540527">
        <ele>532.832087</ele>
        <time>2020-02-24T19:58:28.177Z</time>
      </trkpt>
      <trkpt lat="43.576676" lon="12.540245">
        <ele>534.871275</ele>
        <time>2020-02-24T19:58:42.922Z</time>
      </trkpt>
      <trkpt lat="43.576916" lon="12.539428">
        <ele>540.045971</ele>
        <time>2020-02-24T19:59:19.533Z</time>
      </trkpt>
      <trkpt lat="43.577078" lon="12.539112">
        <ele>542.318192</ele>
        <time>2020-02-24T19:59:35.184Z</time>
      </trkpt>
      <trkpt lat="43.577229" lon="12.538984">
        <ele>543.753884</ele>
        <time>2020-02-24T19:59:43.749Z</time>
      </trkpt>
      <trkpt lat="43.577611" lon="12.539013">
        <ele>546.829283</ele>
        <time>2020-02-24T20:00:01.928Z</time>
      </trkpt>
      <trkpt lat="43.577674" lon="12.538961">
        <ele>547.106459</ele>
        <time>2020-02-24T20:00:03.947Z</time>
      </trkpt>
      <trkpt lat="43.577688" lon="12.538857">
        <ele>547.395822</ele>
        <time>2020-02-24T20:00:09.027Z</time>
      </trkpt>
      <trkpt lat="43.577718" lon="12.538680">
        <ele>547.893084</ele>
        <time>2020-02-24T20:00:14.029Z</time>
      </trkpt>
      <trkpt lat="43.577774" lon="12.538454">
        <ele>548.546474</ele>
        <time>2020-02-24T20:00:21.163Z</time>
      </trkpt>
      <trkpt lat="43.578003" lon="12.537650">
        <ele>550.909705</ele>
        <time>2020-02-24T20:00:46.864Z</time>
      </trkpt>
      <trkpt lat="43.578076" lon="12.537271">
        <ele>551.982479</ele>
        <time>2020-02-24T20:00:57.229Z</time>
      </trkpt>
      <trkpt lat="43.578090" lon="12.536606">
        <ele>553.289352</ele>
        <time>2020-02-24T20:01:13.986Z</time>
      </trkpt>
      <trkpt lat="43.578250" lon="12.535833">
        <ele>549.917759</ele>
        <time>2020-02-24T20:01:24.124Z</time>
      </trkpt>
      <trkpt lat="43.578237" lon="12.535722">
        <ele>549.446196</ele>
        <time>2020-02-24T20:01:25.439Z</time>
      </trkpt>
      <trkpt lat="43.578049" lon="12.535430">
        <ele>547.807842</ele>
        <time>2020-02-24T20:01:29.438Z</time>
      </trkpt>
      <trkpt lat="43.578033" lon="12.534875">
        <ele>545.478396</ele>
        <time>2020-02-24T20:01:35.059Z</time>
      </trkpt>
      <trkpt lat="43.577876" lon="12.534287">
        <ele>542.550784</ele>
        <time>2020-02-24T20:01:41.263Z</time>
      </trkpt>
      <trkpt lat="43.577748" lon="12.534022">
        <ele>540.028014</ele>
        <time>2020-02-24T20:01:44.246Z</time>
      </trkpt>
      <trkpt lat="43.577743" lon="12.533804">
        <ele>538.300430</ele>
        <time>2020-02-24T20:01:46.451Z</time>
      </trkpt>
      <trkpt lat="43.578098" lon="12.532608">
        <ele>528.062930</ele>
        <time>2020-02-24T20:01:58.874Z</time>
      </trkpt>
      <trkpt lat="43.578131" lon="12.532348">
        <ele>525.972184</ele>
        <time>2020-02-24T20:02:01.588Z</time>
      </trkpt>
      <trkpt lat="43.578118" lon="12.532253">
        <ele>525.206412</ele>
        <time>2020-02-24T20:02:02.479Z</time>
      </trkpt>
      <trkpt lat="43.578084" lon="12.532169">
        <ele>524.444266</ele>
        <time>2020-02-24T20:02:03.656Z</time>
      </trkpt>
      <trkpt lat="43.577797" lon="12.531431">
        <ele>519.938381</ele>
        <time>2020-02-24T20:02:12.633Z</time>
      </trkpt>
      <trkpt lat="43.577761" lon="12.530374">
        <ele>514.680428</ele>
        <time>2020-02-24T20:02:23.578Z</time>
      </trkpt>
      <trkpt lat="43.577467" lon="12.530162">
        <ele>512.405316</ele>
        <time>2020-02-24T20:02:29.319Z</time>
      </trkpt>
      <trkpt lat="43.577379" lon="12.530006">
        <ele>511.422875</ele>
        <time>2020-02-24T20:02:31.832Z</time>
      </trkpt>
      <trkpt lat="43.577261" lon="12.529579">
        <ele>507.603544</ele>
        <time>2020-02-24T20:02:36.384Z</time>
      </trkpt>
      <trkpt lat="43.577213" lon="12.529288">
        <ele>504.990859</ele>
        <time>2020-02-24T20:02:39.427Z</time>
      </trkpt>
      <trkpt lat="43.577129" lon="12.528549">
        <ele>498.442317</ele>
        <time>2020-02-24T20:02:46.593Z</time>
      </trkpt>
      <trkpt lat="43.577157" lon="12.528472">
        <ele>497.688087</ele>
        <time>2020-02-24T20:02:47.433Z</time>
      </trkpt>
      <trkpt lat="43.577223" lon="12.528451">
        <ele>496.869625</ele>
        <time>2020-02-24T20:02:48.340Z</time>
      </trkpt>
      <trkpt lat="43.577279" lon="12.528513">
        <ele>496.002143</ele>
        <time>2020-02-24T20:02:49.324Z</time>
      </trkpt>
      <trkpt lat="43.577375" lon="12.529045">
        <ele>491.202586</ele>
        <time>2020-02-24T20:02:54.497Z</time>
      </trkpt>
      <trkpt lat="43.577400" lon="12.529054">
        <ele>490.890380</ele>
        <time>2020-02-24T20:02:54.819Z</time>
      </trkpt>
      <trkpt lat="43.577429" lon="12.529043">
        <ele>490.526953</ele>
        <time>2020-02-24T20:02:55.224Z</time>
      </trkpt>
      <trkpt lat="43.577498" lon="12.528516">
        <ele>484.701578</ele>
        <time>2020-02-24T20:03:00.220Z</time>
      </trkpt>
      <trkpt lat="43.577672" lon="12.528138">
        <ele>479.546330</ele>
        <time>2020-02-24T20:03:04.426Z</time>
      </trkpt>
      <trkpt lat="43.578395" lon="12.527523">
        <ele>466.052184</ele>
        <time>2020-02-24T20:03:15.364Z</time>
      </trkpt>
      <trkpt lat="43.578668" lon="12.527102">
        <ele>459.733600</ele>
        <time>2020-02-24T20:03:20.741Z</time>
      </trkpt>
      <trkpt lat="43.578918" lon="12.526856">
        <ele>455.539237</ele>
        <time>2020-02-24T20:03:24.769Z</time>
      </trkpt>
      <trkpt lat="43.579454" lon="12.526771">
        <ele>448.168385</ele>
        <time>2020-02-24T20:03:31.831Z</time>
      </trkpt>
      <trkpt lat="43.580156" lon="12.526473">
        <ele>438.134622</ele>
        <time>2020-02-24T20:03:41.455Z</time>
      </trkpt>
      <trkpt lat="43.581665" lon="12.525551">
        <ele>417.546484</ele>
        <time>2020-02-24T20:04:03.229Z</time>
      </trkpt>
      <trkpt lat="43.581937" lon="12.525576">
        <ele>414.174136</ele>
        <time>2020-02-24T20:04:06.877Z</time>
      </trkpt>
      <trkpt lat="43.582162" lon="12.525813">
        <ele>411.757087</ele>
        <time>2020-02-24T20:04:10.702Z</time>
      </trkpt>
      <trkpt lat="43.582337" lon="12.525844">
        <ele>410.275810</ele>
        <time>2020-02-24T20:04:13.120Z</time>
      </trkpt>
      <trkpt lat="43.583285" lon="12.525491">
        <ele>402.032333</ele>
        <time>2020-02-24T20:04:26.896Z</time>
      </trkpt>
      <trkpt lat="43.583419" lon="12.525272">
        <ele>400.288919</ele>
        <time>2020-02-24T20:04:29.910Z</time>
      </trkpt>
      <trkpt lat="43.583430" lon="12.525116">
        <ele>399.335715</ele>
        <time>2020-02-24T20:04:31.549Z</time>
      </trkpt>
      <trkpt lat="43.583406" lon="12.524913">
        <ele>398.125667</ele>
        <time>2020-02-24T20:04:33.743Z</time>
      </trkpt>
      <trkpt lat="43.583316" lon="12.524496">
        <ele>395.604975</ele>
        <time>2020-02-24T20:04:38.325Z</time>
      </trkpt>
      <trkpt lat="43.583094" lon="12.524031">
        <ele>392.378698</ele>
        <time>2020-02-24T20:04:44.196Z</time>
      </trkpt>
      <trkpt lat="43.582893" lon="12.523913">
        <ele>390.631890</ele>
        <time>2020-02-24T20:04:47.354Z</time>
      </trkpt>
      <trkpt lat="43.582468" lon="12.523816">
        <ele>387.186823</ele>
        <time>2020-02-24T20:04:53.252Z</time>
      </trkpt>
      <trkpt lat="43.582267" lon="12.523608">
        <ele>385.177831</ele>
        <time>2020-02-24T20:04:56.718Z</time>
      </trkpt>
      <trkpt lat="43.582223" lon="12.523262">
        <ele>382.566154</ele>
        <time>2020-02-24T20:05:00.173Z</time>
      </trkpt>
      <trkpt lat="43.582397" lon="12.522238">
        <ele>373.996537</ele>
        <time>2020-02-24T20:05:10.343Z</time>
      </trkpt>
      <trkpt lat="43.582446" lon="12.522124">
        <ele>372.916507</ele>
        <time>2020-02-24T20:05:11.575Z</time>
      </trkpt>
      <trkpt lat="43.582497" lon="12.522072">
        <ele>372.203380</ele>
        <time>2020-02-24T20:05:12.404Z</time>
      </trkpt>
      <trkpt lat="43.582617" lon="12.522007">
        <ele>370.753484</ele>
        <time>2020-02-24T20:05:14.179Z</time>
      </trkpt>
      <trkpt lat="43.583272" lon="12.521854">
        <ele>363.838067</ele>
        <time>2020-02-24T20:05:23.065Z</time>
      </trkpt>
      <trkpt lat="43.583441" lon="12.521856">
        <ele>362.945220</ele>
        <time>2020-02-24T20:05:25.402Z</time>
      </trkpt>
      <trkpt lat="43.583533" lon="12.521876">
        <ele>362.453201</ele>
        <time>2020-02-24T20:05:26.648Z</time>
      </trkpt>
      <trkpt lat="43.583705" lon="12.521942">
        <ele>361.510089</ele>
        <time>2020-02-24T20:05:29.229Z</time>
      </trkpt>
      <trkpt lat="43.583805" lon="12.521931">
        <ele>360.980122</ele>
        <time>2020-02-24T20:05:30.601Z</time>
      </trkpt>
      <trkpt lat="43.583878" lon="12.521890">
        <ele>360.563774</ele>
        <time>2020-02-24T20:05:31.666Z</time>
      </trkpt>
      <trkpt lat="43.583930" lon="12.521813">
        <ele>360.160919</ele>
        <time>2020-02-24T20:05:32.743Z</time>
      </trkpt>
      <trkpt lat="43.583930" lon="12.521566">
        <ele>359.215707</ele>
        <time>2020-02-24T20:05:35.550Z</time>
      </trkpt>
      <trkpt lat="43.583954" lon="12.521142">
        <ele>357.588211</ele>
        <time>2020-02-24T20:05:40.648Z</time>
      </trkpt>
      <trkpt lat="43.583991" lon="12.520476">
        <ele>355.032100</ele>
        <time>2020-02-24T20:05:49.640Z</time>
      </trkpt>
      <trkpt lat="43.584047" lon="12.520097">
        <ele>354.858923</ele>
        <time>2020-02-24T20:05:55.336Z</time>
      </trkpt>
      <trkpt lat="43.584435" lon="12.518859">
        <ele>354.980474</ele>
        <time>2020-02-24T20:06:22.356Z</time>
      </trkpt>
      <trkpt lat="43.584944" lon="12.517445">
        <ele>354.200110</ele>
        <time>2020-02-24T20:06:45.461Z</time>
      </trkpt>
      <trkpt lat="43.584965" lon="12.517323">
        <ele>354.062795</ele>
        <time>2020-02-24T20:06:47.050Z</time>
      </trkpt>
      <trkpt lat="43.584982" lon="12.517139">
        <ele>353.859675</ele>
        <time>2020-02-24T20:06:49.465Z</time>
      </trkpt>
      <trkpt lat="43.584984" lon="12.516935">
        <ele>353.636267</ele>
        <time>2020-02-24T20:06:52.255Z</time>
      </trkpt>
      <trkpt lat="43.584986" lon="12.516475">
        <ele>353.132540</ele>
        <time>2020-02-24T20:06:58.209Z</time>
      </trkpt>
      <trkpt lat="43.584979" lon="12.515936">
        <ele>352.542219</ele>
        <time>2020-02-24T20:07:05.097Z</time>
      </trkpt>
      <trkpt lat="43.584985" lon="12.515645">
        <ele>352.167966</ele>
        <time>2020-02-24T20:07:08.646Z</time>
      </trkpt>
      <trkpt lat="43.585042" lon="12.515207">
        <ele>351.435104</ele>
        <time>2020-02-24T20:07:14.076Z</time>
      </trkpt>
      <trkpt lat="43.585154" lon="12.514798">
        <ele>350.715025</ele>
        <time>2020-02-24T20:07:19.430Z</time>
      </trkpt>
      <trkpt lat="43.585339" lon="12.514413">
        <ele>349.954171</ele>
        <time>2020-02-24T20:07:25.085Z</time>
      </trkpt>
      <trkpt lat="43.585593" lon="12.514079">
        <ele>349.156662</ele>
        <time>2020-02-24T20:07:31.016Z</time>
      </trkpt>
      <trkpt lat="43.585701" lon="12.513973">
        <ele>348.855394</ele>
        <time>2020-02-24T20:07:33.448Z</time>
      </trkpt>
      <trkpt lat="43.585802" lon="12.513877">
        <ele>348.576608</ele>
        <time>2020-02-24T20:07:35.679Z</time>
      </trkpt>
      <trkpt lat="43.586058" lon="12.513619">
        <ele>347.898368</ele>
        <time>2020-02-24T20:07:41.913Z</time>
      </trkpt>
      <trkpt lat="43.586495" lon="12.513176">
        <ele>346.800261</ele>
        <time>2020-02-24T20:07:51.297Z</time>
      </trkpt>
      <trkpt lat="43.586652" lon="12.513018">
        <ele>346.406748</ele>
        <time>2020-02-24T20:07:54.644Z</time>
      </trkpt>
      <trkpt lat="43.586814" lon="12.512864">
        <ele>346.008365</ele>
        <time>2020-02-24T20:07:57.917Z</time>
      </trkpt>
      <trkpt lat="43.586814" lon="12.512864">
        <ele>346.008365</ele>
        <time>2020-02-24T20:07:57.999Z</time>
      </trkpt>
      <trkpt lat="43.586716" lon="12.512879">
        <ele>345.808655</ele>
        <time>2020-02-24T20:07:59.854Z</time>
      </trkpt>
      <trkpt lat="43.586629" lon="12.512879">
        <ele>345.632442</ele>
        <time>2020-02-24T20:08:01.305Z</time>
      </trkpt>
      <trkpt lat="43.586544" lon="12.512853">
        <ele>345.456104</ele>
        <time>2020-02-24T20:08:02.862Z</time>
      </trkpt>
      <trkpt lat="43.586401" lon="12.512792">
        <ele>345.152955</ele>
        <time>2020-02-24T20:08:05.847Z</time>
      </trkpt>
      <trkpt lat="43.586509" lon="12.512917">
        <ele>344.867505</ele>
        <time>2020-02-24T20:08:08.180Z</time>
      </trkpt>
      <trkpt lat="43.586567" lon="12.512968">
        <ele>344.728226</ele>
        <time>2020-02-24T20:08:09.395Z</time>
      </trkpt>
      <trkpt lat="43.586652" lon="12.513018">
        <ele>344.544155</ele>
        <time>2020-02-24T20:08:11.150Z</time>
      </trkpt>
      <trkpt lat="43.586814" lon="12.512864">
        <ele>344.166104</ele>
        <time>2020-02-24T20:08:14.675Z</time>
      </trkpt>
      <trkpt lat="43.586946" lon="12.512732">
        <ele>343.852827</ele>
        <time>2020-02-24T20:08:17.772Z</time>
      </trkpt>
      <trkpt lat="43.587107" lon="12.512570">
        <ele>343.469905</ele>
        <time>2020-02-24T20:08:21.358Z</time>
      </trkpt>
      <trkpt lat="43.588164" lon="12.511518">
        <ele>341.032669</ele>
        <time>2020-02-24T20:08:44.276Z</time>
      </trkpt>
      <trkpt lat="43.588306" lon="12.511376">
        <ele>340.822537</ele>
        <time>2020-02-24T20:08:47.173Z</time>
      </trkpt>
      <trkpt lat="43.588743" lon="12.510922">
        <ele>340.167096</ele>
        <time>2020-02-24T20:08:57.216Z</time>
      </trkpt>
      <trkpt lat="43.588873" lon="12.510751">
        <ele>339.951905</ele>
        <time>2020-02-24T20:09:00.423Z</time>
      </trkpt>
      <trkpt lat="43.588985" lon="12.510542">
        <ele>339.726226</ele>
        <time>2020-02-24T20:09:04.480Z</time>
      </trkpt>
      <trkpt lat="43.589061" lon="12.510363">
        <ele>339.546117</ele>
        <time>2020-02-24T20:09:07.166Z</time>
      </trkpt>
      <trkpt lat="43.589316" lon="12.509786">
        <ele>339.026673</ele>
        <time>2020-02-24T20:09:17.421Z</time>
      </trkpt>
      <trkpt lat="43.589343" lon="12.509713">
        <ele>339.120072</ele>
        <time>2020-02-24T20:09:18.892Z</time>
      </trkpt>
      <trkpt lat="43.589351" lon="12.509627">
        <ele>339.218872</ele>
        <time>2020-02-24T20:09:20.135Z</time>
      </trkpt>
      <trkpt lat="43.589348" lon="12.509570">
        <ele>339.283993</ele>
        <time>2020-02-24T20:09:20.913Z</time>
      </trkpt>
      <trkpt lat="43.589333" lon="12.509517">
        <ele>339.348832</ele>
        <time>2020-02-24T20:09:21.732Z</time>
      </trkpt>
      <trkpt lat="43.589333" lon="12.509517">
        <ele>339.348832</ele>
        <time>2020-02-24T20:09:21.782Z</time>
      </trkpt>
      <trkpt lat="43.589282" lon="12.509438">
        <ele>339.469417</ele>
        <time>2020-02-24T20:09:23.616Z</time>
      </trkpt>
      <trkpt lat="43.589209" lon="12.509374">
        <ele>339.605459</ele>
        <time>2020-02-24T20:09:26.034Z</time>
      </trkpt>
      <trkpt lat="43.589105" lon="12.509304">
        <ele>339.787479</ele>
        <time>2020-02-24T20:09:28.706Z</time>
      </trkpt>
      <trkpt lat="43.589049" lon="12.509150">
        <ele>339.983832</ele>
        <time>2020-02-24T20:09:31.364Z</time>
      </trkpt>
      <trkpt lat="43.588962" lon="12.509028">
        <ele>340.178919</ele>
        <time>2020-02-24T20:09:35.056Z</time>
      </trkpt>
      <trkpt lat="43.588553" lon="12.508441">
        <ele>341.107042</ele>
        <time>2020-02-24T20:09:52.383Z</time>
      </trkpt>
      <trkpt lat="43.588404" lon="12.508285">
        <ele>341.401228</ele>
        <time>2020-02-24T20:09:59.276Z</time>
      </trkpt>
      <trkpt lat="43.588053" lon="12.508069">
        <ele>342.005721</ele>
        <time>2020-02-24T20:10:13.544Z</time>
      </trkpt>
      <trkpt lat="43.587881" lon="12.507913">
        <ele>342.329354</ele>
        <time>2020-02-24T20:10:21.211Z</time>
      </trkpt>
      <trkpt lat="43.587782" lon="12.507667">
        <ele>342.649910</ele>
        <time>2020-02-24T20:10:27.765Z</time>
      </trkpt>
      <trkpt lat="43.587780" lon="12.507387">
        <ele>342.968863</ele>
        <time>2020-02-24T20:10:34.345Z</time>
      </trkpt>
      <trkpt lat="43.587788" lon="12.507077">
        <ele>343.322197</ele>
        <time>2020-02-24T20:10:40.273Z</time>
      </trkpt>
      <trkpt lat="43.587777" lon="12.506894">
        <ele>343.531362</ele>
        <time>2020-02-24T20:10:44.355Z</time>
      </trkpt>
      <trkpt lat="43.587057" lon="12.506831">
        <ele>344.639781</ele>
        <time>2020-02-24T20:11:01.382Z</time>
      </trkpt>
      <trkpt lat="43.587042" lon="12.506892">
        <ele>344.613568</ele>
        <time>2020-02-24T20:11:02.160Z</time>
      </trkpt>
      <trkpt lat="43.586908" lon="12.506987">
        <ele>344.528943</ele>
        <time>2020-02-24T20:11:05.854Z</time>
      </trkpt>
      <trkpt lat="43.586826" lon="12.507093">
        <ele>344.465835</ele>
        <time>2020-02-24T20:11:08.245Z</time>
      </trkpt>
      <trkpt lat="43.586734" lon="12.507184">
        <ele>344.402254</ele>
        <time>2020-02-24T20:11:10.555Z</time>
      </trkpt>
      <trkpt lat="43.586612" lon="12.507314">
        <ele>344.315676</ele>
        <time>2020-02-24T20:11:13.834Z</time>
      </trkpt>
      <trkpt lat="43.586337" lon="12.507533">
        <ele>344.137324</ele>
        <time>2020-02-24T20:11:20.413Z</time>
      </trkpt>
      <trkpt lat="43.586291" lon="12.507654">
        <ele>344.081717</ele>
        <time>2020-02-24T20:11:22.101Z</time>
      </trkpt>
      <trkpt lat="43.586157" lon="12.507580">
        <ele>344.000638</ele>
        <time>2020-02-24T20:11:24.667Z</time>
      </trkpt>
      <trkpt lat="43.586157" lon="12.507580">
        <ele>344.000638</ele>
        <time>2020-02-24T20:11:24.672Z</time>
      </trkpt>
      <trkpt lat="43.585915" lon="12.507428">
        <ele>343.851277</ele>
        <time>2020-02-24T20:11:29.966Z</time>
      </trkpt>
      <trkpt lat="43.585642" lon="12.507122">
        <ele>343.653724</ele>
        <time>2020-02-24T20:11:36.511Z</time>
      </trkpt>
      <trkpt lat="43.585575" lon="12.506989">
        <ele>343.714391</ele>
        <time>2020-02-24T20:11:38.927Z</time>
      </trkpt>
      <trkpt lat="43.585500" lon="12.506831">
        <ele>343.838571</ele>
        <time>2020-02-24T20:11:42.425Z</time>
      </trkpt>
      <trkpt lat="43.585479" lon="12.506772">
        <ele>343.881786</ele>
        <time>2020-02-24T20:11:43.302Z</time>
      </trkpt>
      <trkpt lat="43.585450" lon="12.506691">
        <ele>343.941182</ele>
        <time>2020-02-24T20:11:44.765Z</time>
      </trkpt>
      <trkpt lat="43.585410" lon="12.506554">
        <ele>344.038283</ele>
        <time>2020-02-24T20:11:47.308Z</time>
      </trkpt>
      <trkpt lat="43.585390" lon="12.506424">
        <ele>344.125648</ele>
        <time>2020-02-24T20:11:50.369Z</time>
      </trkpt>
      <trkpt lat="43.585374" lon="12.506078">
        <ele>344.353561</ele>
        <time>2020-02-24T20:11:56.313Z</time>
      </trkpt>
      <trkpt lat="43.585412" lon="12.505760">
        <ele>344.565431</ele>
        <time>2020-02-24T20:12:03.144Z</time>
      </trkpt>
      <trkpt lat="43.585612" lon="12.505116">
        <ele>345.026048</ele>
        <time>2020-02-24T20:12:17.533Z</time>
      </trkpt>
      <trkpt lat="43.585677" lon="12.504738">
        <ele>345.289137</ele>
        <time>2020-02-24T20:12:25.965Z</time>
      </trkpt>
      <trkpt lat="43.586165" lon="12.500108">
        <ele>349.925218</ele>
        <time>2020-02-24T20:14:00.695Z</time>
      </trkpt>
      <trkpt lat="43.586157" lon="12.499814">
        <ele>350.201196</ele>
        <time>2020-02-24T20:14:06.104Z</time>
      </trkpt>
      <trkpt lat="43.585966" lon="12.499260">
        <ele>350.854199</ele>
        <time>2020-02-24T20:14:17.306Z</time>
      </trkpt>
      <trkpt lat="43.585675" lon="12.498967">
        <ele>351.383412</ele>
        <time>2020-02-24T20:14:26.250Z</time>
      </trkpt>
      <trkpt lat="43.584587" lon="12.498540">
        <ele>353.322393</ele>
        <time>2020-02-24T20:14:59.363Z</time>
      </trkpt>
      <trkpt lat="43.584210" lon="12.498445">
        <ele>354.565471</ele>
        <time>2020-02-24T20:15:12.403Z</time>
      </trkpt>
      <trkpt lat="43.583727" lon="12.498381">
        <ele>356.139375</ele>
        <time>2020-02-24T20:15:29.844Z</time>
      </trkpt>
      <trkpt lat="43.583511" lon="12.498362">
        <ele>356.841434</ele>
        <time>2020-02-24T20:15:38.177Z</time>
      </trkpt>
      <trkpt lat="43.581717" lon="12.498327">
        <ele>362.193157</ele>
        <time>2020-02-24T20:16:45.724Z</time>
      </trkpt>
      <trkpt lat="43.580422" lon="12.497919">
        <ele>363.618483</ele>
        <time>2020-02-24T20:17:19.805Z</time>
      </trkpt>
      <trkpt lat="43.580144" lon="12.497778">
        <ele>363.546891</ele>
        <time>2020-02-24T20:17:25.418Z</time>
      </trkpt>
      <trkpt lat="43.579801" lon="12.497404">
        <ele>363.441232</ele>
        <time>2020-02-24T20:17:33.312Z</time>
      </trkpt>
      <trkpt lat="43.579577" lon="12.496850">
        <ele>363.418444</ele>
        <time>2020-02-24T20:17:42.449Z</time>
      </trkpt>
      <trkpt lat="43.579537" lon="12.496402">
        <ele>363.519411</ele>
        <time>2020-02-24T20:17:48.906Z</time>
      </trkpt>
      <trkpt lat="43.579667" lon="12.495787">
        <ele>363.662710</ele>
        <time>2020-02-24T20:17:58.936Z</time>
      </trkpt>
      <trkpt lat="43.579692" lon="12.495722">
        <ele>363.679171</ele>
        <time>2020-02-24T20:17:59.767Z</time>
      </trkpt>
      <trkpt lat="43.579835" lon="12.495401">
        <ele>363.763462</ele>
        <time>2020-02-24T20:18:08.384Z</time>
      </trkpt>
      <trkpt lat="43.580147" lon="12.494758">
        <ele>364.011131</ele>
        <time>2020-02-24T20:18:23.396Z</time>
      </trkpt>
      <trkpt lat="43.580405" lon="12.494474">
        <ele>364.731132</ele>
        <time>2020-02-24T20:18:32.938Z</time>
      </trkpt>
      <trkpt lat="43.580616" lon="12.494358">
        <ele>365.226685</ele>
        <time>2020-02-24T20:18:40.118Z</time>
      </trkpt>
      <trkpt lat="43.580799" lon="12.494277">
        <ele>365.646000</ele>
        <time>2020-02-24T20:18:46.368Z</time>
      </trkpt>
      <trkpt lat="43.581092" lon="12.494174">
        <ele>366.305707</ele>
        <time>2020-02-24T20:18:56.847Z</time>
      </trkpt>
      <trkpt lat="43.581229" lon="12.494109">
        <ele>366.621794</ele>
        <time>2020-02-24T20:19:01.071Z</time>
      </trkpt>
      <trkpt lat="43.581415" lon="12.494011">
        <ele>367.056187</ele>
        <time>2020-02-24T20:19:07.713Z</time>
      </trkpt>
      <trkpt lat="43.581503" lon="12.493959">
        <ele>367.265047</ele>
        <time>2020-02-24T20:19:10.296Z</time>
      </trkpt>
      <trkpt lat="43.581639" lon="12.493875">
        <ele>367.590137</ele>
        <time>2020-02-24T20:19:14.924Z</time>
      </trkpt>
      <trkpt lat="43.581976" lon="12.493555">
        <ele>368.357582</ele>
        <time>2020-02-24T20:19:27.849Z</time>
      </trkpt>
      <trkpt lat="43.582656" lon="12.492558">
        <ele>370.095050</ele>
        <time>2020-02-24T20:19:56.107Z</time>
      </trkpt>
      <trkpt lat="43.582868" lon="12.491975">
        <ele>370.922722</ele>
        <time>2020-02-24T20:20:09.665Z</time>
      </trkpt>
      <trkpt lat="43.582948" lon="12.491397">
        <ele>371.654064</ele>
        <time>2020-02-24T20:20:22.048Z</time>
      </trkpt>
      <trkpt lat="43.582957" lon="12.491111">
        <ele>372.008996</ele>
        <time>2020-02-24T20:20:28.723Z</time>
      </trkpt>
      <trkpt lat="43.582977" lon="12.490720">
        <ele>372.494985</ele>
        <time>2020-02-24T20:20:36.762Z</time>
      </trkpt>
      <trkpt lat="43.583095" lon="12.488295">
        <ele>376.386429</ele>
        <time>2020-02-24T20:21:27.978Z</time>
      </trkpt>
      <trkpt lat="43.583071" lon="12.487668">
        <ele>377.642675</ele>
        <time>2020-02-24T20:21:44.515Z</time>
      </trkpt>
      <trkpt lat="43.582872" lon="12.487125">
        <ele>378.860236</ele>
        <time>2020-02-24T20:22:00.646Z</time>
      </trkpt>
      <trkpt lat="43.582808" lon="12.487033">
        <ele>379.163232</ele>
        <time>2020-02-24T20:22:03.720Z</time>
      </trkpt>
      <trkpt lat="43.582734" lon="12.486930">
        <ele>379.652582</ele>
        <time>2020-02-24T20:22:08.632Z</time>
      </trkpt>
      <trkpt lat="43.582566" lon="12.486783">
        <ele>380.578823</ele>
        <time>2020-02-24T20:22:15.547Z</time>
      </trkpt>
      <trkpt lat="43.582461" lon="12.486715">
        <ele>381.118909</ele>
        <time>2020-02-24T20:22:20.090Z</time>
      </trkpt>
      <trkpt lat="43.582388" lon="12.486672">
        <ele>381.488502</ele>
        <time>2020-02-24T20:22:23.933Z</time>
      </trkpt>
      <trkpt lat="43.582286" lon="12.486632">
        <ele>381.982280</ele>
        <time>2020-02-24T20:22:27.345Z</time>
      </trkpt>
      <trkpt lat="43.582179" lon="12.486613">
        <ele>382.484654</ele>
        <time>2020-02-24T20:22:31.069Z</time>
      </trkpt>
      <trkpt lat="43.582043" lon="12.486604">
        <ele>383.118695</ele>
        <time>2020-02-24T20:22:37.587Z</time>
      </trkpt>
      <trkpt lat="43.581320" lon="12.486846">
        <ele>386.583056</ele>
        <time>2020-02-24T20:23:08.431Z</time>
      </trkpt>
      <trkpt lat="43.580995" lon="12.486885">
        <ele>388.176111</ele>
        <time>2020-02-24T20:23:23.231Z</time>
      </trkpt>
      <trkpt lat="43.580687" lon="12.486806">
        <ele>389.793349</ele>
        <time>2020-02-24T20:23:37.472Z</time>
      </trkpt>
      <trkpt lat="43.579872" lon="12.486447">
        <ele>394.209727</ele>
        <time>2020-02-24T20:24:13.916Z</time>
      </trkpt>
      <trkpt lat="43.579407" lon="12.486138">
        <ele>396.811852</ele>
        <time>2020-02-24T20:24:35.943Z</time>
      </trkpt>
      <trkpt lat="43.578840" lon="12.485620">
        <ele>399.017635</ele>
        <time>2020-02-24T20:25:04.384Z</time>
      </trkpt>
      <trkpt lat="43.578017" lon="12.484475">
        <ele>402.350719</ele>
        <time>2020-02-24T20:25:43.108Z</time>
      </trkpt>
      <trkpt lat="43.577677" lon="12.483689">
        <ele>400.806378</ele>
        <time>2020-02-24T20:25:56.208Z</time>
      </trkpt>
      <trkpt lat="43.577639" lon="12.483480">
        <ele>400.442868</ele>
        <time>2020-02-24T20:25:58.957Z</time>
      </trkpt>
      <trkpt lat="43.577657" lon="12.483262">
        <ele>400.072729</ele>
        <time>2020-02-24T20:26:01.493Z</time>
      </trkpt>
      <trkpt lat="43.577763" lon="12.483011">
        <ele>399.582608</ele>
        <time>2020-02-24T20:26:04.851Z</time>
      </trkpt>
      <trkpt lat="43.577889" lon="12.482886">
        <ele>399.221284</ele>
        <time>2020-02-24T20:26:07.190Z</time>
      </trkpt>
      <trkpt lat="43.578434" lon="12.482821">
        <ele>397.714846</ele>
        <time>2020-02-24T20:26:15.374Z</time>
      </trkpt>
      <trkpt lat="43.578589" lon="12.482727">
        <ele>397.094809</ele>
        <time>2020-02-24T20:26:17.843Z</time>
      </trkpt>
      <trkpt lat="43.578776" lon="12.482481">
        <ele>396.148754</ele>
        <time>2020-02-24T20:26:21.768Z</time>
      </trkpt>
      <trkpt lat="43.578865" lon="12.482189">
        <ele>395.308263</ele>
        <time>2020-02-24T20:26:25.245Z</time>
      </trkpt>
      <trkpt lat="43.578878" lon="12.481961">
        <ele>394.701480</ele>
        <time>2020-02-24T20:26:27.786Z</time>
      </trkpt>
      <trkpt lat="43.578754" lon="12.481077">
        <ele>392.312552</ele>
        <time>2020-02-24T20:26:38.763Z</time>
      </trkpt>
      <trkpt lat="43.578769" lon="12.480936">
        <ele>391.934448</ele>
        <time>2020-02-24T20:26:40.680Z</time>
      </trkpt>
      <trkpt lat="43.578787" lon="12.480840">
        <ele>391.771770</ele>
        <time>2020-02-24T20:26:42.180Z</time>
      </trkpt>
      <trkpt lat="43.578813" lon="12.480745">
        <ele>391.787485</ele>
        <time>2020-02-24T20:26:43.516Z</time>
      </trkpt>
      <trkpt lat="43.578877" lon="12.480558">
        <ele>391.819491</ele>
        <time>2020-02-24T20:26:46.285Z</time>
      </trkpt>
      <trkpt lat="43.578947" lon="12.480358">
        <ele>391.853864</ele>
        <time>2020-02-24T20:26:50.008Z</time>
      </trkpt>
      <trkpt lat="43.578990" lon="12.480191">
        <ele>391.881291</ele>
        <time>2020-02-24T20:26:52.580Z</time>
      </trkpt>
      <trkpt lat="43.579016" lon="12.480055">
        <ele>391.903058</ele>
        <time>2020-02-24T20:26:54.810Z</time>
      </trkpt>
      <trkpt lat="43.579032" lon="12.479900">
        <ele>391.927286</ele>
        <time>2020-02-24T20:26:58.161Z</time>
      </trkpt>
      <trkpt lat="43.579039" lon="12.479757">
        <ele>391.949466</ele>
        <time>2020-02-24T20:27:00.660Z</time>
      </trkpt>
      <trkpt lat="43.579035" lon="12.479586">
        <ele>391.975942</ele>
        <time>2020-02-24T20:27:03.698Z</time>
      </trkpt>
      <trkpt lat="43.579032" lon="12.479480">
        <ele>391.992358</ele>
        <time>2020-02-24T20:27:06.381Z</time>
      </trkpt>
      <trkpt lat="43.578989" lon="12.479184">
        <ele>392.039077</ele>
        <time>2020-02-24T20:27:12.095Z</time>
      </trkpt>
      <trkpt lat="43.578784" lon="12.478468">
        <ele>392.107877</ele>
        <time>2020-02-24T20:27:27.016Z</time>
      </trkpt>
      <trkpt lat="43.578774" lon="12.478201">
        <ele>391.880806</ele>
        <time>2020-02-24T20:27:31.690Z</time>
      </trkpt>
      <trkpt lat="43.578813" lon="12.477915">
        <ele>391.633635</ele>
        <time>2020-02-24T20:27:36.904Z</time>
      </trkpt>
      <trkpt lat="43.579052" lon="12.477272">
        <ele>391.019835</ele>
        <time>2020-02-24T20:27:47.261Z</time>
      </trkpt>
      <trkpt lat="43.579078" lon="12.477153">
        <ele>390.914270</ele>
        <time>2020-02-24T20:27:48.685Z</time>
      </trkpt>
      <trkpt lat="43.579246" lon="12.476880">
        <ele>390.610042</ele>
        <time>2020-02-24T20:27:53.626Z</time>
      </trkpt>
      <trkpt lat="43.579309" lon="12.476746">
        <ele>390.474367</ele>
        <time>2020-02-24T20:27:55.583Z</time>
      </trkpt>
      <trkpt lat="43.579369" lon="12.476378">
        <ele>390.154002</ele>
        <time>2020-02-24T20:28:00.439Z</time>
      </trkpt>
      <trkpt lat="43.579267" lon="12.475933">
        <ele>389.705465</ele>
        <time>2020-02-24T20:28:06.443Z</time>
      </trkpt>
      <trkpt lat="43.579213" lon="12.475796">
        <ele>389.548700</ele>
        <time>2020-02-24T20:28:08.362Z</time>
      </trkpt>
      <trkpt lat="43.579081" lon="12.475574">
        <ele>389.260025</ele>
        <time>2020-02-24T20:28:12.089Z</time>
      </trkpt>
      <trkpt lat="43.578838" lon="12.475264">
        <ele>388.800937</ele>
        <time>2020-02-24T20:28:18.137Z</time>
      </trkpt>
      <trkpt lat="43.578588" lon="12.475124">
        <ele>388.426610</ele>
        <time>2020-02-24T20:28:23.562Z</time>
      </trkpt>
      <trkpt lat="43.578465" lon="12.475050">
        <ele>388.240446</ele>
        <time>2020-02-24T20:28:25.954Z</time>
      </trkpt>
      <trkpt lat="43.578357" lon="12.474800">
        <ele>387.947875</ele>
        <time>2020-02-24T20:28:30.302Z</time>
      </trkpt>
      <trkpt lat="43.578060" lon="12.474111">
        <ele>388.973246</ele>
        <time>2020-02-24T20:28:42.930Z</time>
      </trkpt>
      <trkpt lat="43.578020" lon="12.473979">
        <ele>389.481095</ele>
        <time>2020-02-24T20:28:46.726Z</time>
      </trkpt>
      <trkpt lat="43.577894" lon="12.473276">
        <ele>392.051510</ele>
        <time>2020-02-24T20:29:06.090Z</time>
      </trkpt>
      <trkpt lat="43.577896" lon="12.472793">
        <ele>393.765868</ele>
        <time>2020-02-24T20:29:22.940Z</time>
      </trkpt>
      <trkpt lat="43.577923" lon="12.472519">
        <ele>394.747342</ele>
        <time>2020-02-24T20:29:33.655Z</time>
      </trkpt>
      <trkpt lat="43.578049" lon="12.471733">
        <ele>398.851042</ele>
        <time>2020-02-24T20:30:06.904Z</time>
      </trkpt>
      <trkpt lat="43.578273" lon="12.470425">
        <ele>408.393223</ele>
        <time>2020-02-24T20:31:09.907Z</time>
      </trkpt>
      <trkpt lat="43.578666" lon="12.469488">
        <ele>414.846368</ele>
        <time>2020-02-24T20:31:59.751Z</time>
      </trkpt>
      <trkpt lat="43.578681" lon="12.469249">
        <ele>415.546403</ele>
        <time>2020-02-24T20:32:09.872Z</time>
      </trkpt>
      <trkpt lat="43.578612" lon="12.468963">
        <ele>416.426041</ele>
        <time>2020-02-24T20:32:22.351Z</time>
      </trkpt>
      <trkpt lat="43.577158" lon="12.467034">
        <ele>418.722315</ele>
        <time>2020-02-24T20:33:15.610Z</time>
      </trkpt>
      <trkpt lat="43.577032" lon="12.466748">
        <ele>417.984063</ele>
        <time>2020-02-24T20:33:19.159Z</time>
      </trkpt>
      <trkpt lat="43.576988" lon="12.466575">
        <ele>417.579681</ele>
        <time>2020-02-24T20:33:21.106Z</time>
      </trkpt>
      <trkpt lat="43.576957" lon="12.466343">
        <ele>417.059375</ele>
        <time>2020-02-24T20:33:23.551Z</time>
      </trkpt>
      <trkpt lat="43.576950" lon="12.466125">
        <ele>416.578103</ele>
        <time>2020-02-24T20:33:25.874Z</time>
      </trkpt>
      <trkpt lat="43.576948" lon="12.465855">
        <ele>415.982587</ele>
        <time>2020-02-24T20:33:28.677Z</time>
      </trkpt>
      <trkpt lat="43.576960" lon="12.465694">
        <ele>415.623083</ele>
        <time>2020-02-24T20:33:30.363Z</time>
      </trkpt>
      <trkpt lat="43.577025" lon="12.465365">
        <ele>414.856166</ele>
        <time>2020-02-24T20:33:33.906Z</time>
      </trkpt>
      <trkpt lat="43.577225" lon="12.464927">
        <ele>413.691800</ele>
        <time>2020-02-24T20:33:39.251Z</time>
      </trkpt>
      <trkpt lat="43.578832" lon="12.463164">
        <ele>410.922462</ele>
        <time>2020-02-24T20:34:20.124Z</time>
      </trkpt>
      <trkpt lat="43.579136" lon="12.462656">
        <ele>411.312773</ele>
        <time>2020-02-24T20:34:35.043Z</time>
      </trkpt>
      <trkpt lat="43.579273" lon="12.462063">
        <ele>411.787971</ele>
        <time>2020-02-24T20:34:49.579Z</time>
      </trkpt>
      <trkpt lat="43.579273" lon="12.461122">
        <ele>413.850472</ele>
        <time>2020-02-24T20:35:12.958Z</time>
      </trkpt>
      <trkpt lat="43.579337" lon="12.460530">
        <ele>415.162397</ele>
        <time>2020-02-24T20:35:29.552Z</time>
      </trkpt>
      <trkpt lat="43.579592" lon="12.459602">
        <ele>417.142234</ele>
        <time>2020-02-24T20:35:54.586Z</time>
      </trkpt>
      <trkpt lat="43.579890" lon="12.458595">
        <ele>417.689081</ele>
        <time>2020-02-24T20:36:16.647Z</time>
      </trkpt>
      <trkpt lat="43.580268" lon="12.457327">
        <ele>418.336642</ele>
        <time>2020-02-24T20:36:37.523Z</time>
      </trkpt>
      <trkpt lat="43.580350" lon="12.457052">
        <ele>418.350974</ele>
        <time>2020-02-24T20:36:41.703Z</time>
      </trkpt>
      <trkpt lat="43.580514" lon="12.456287">
        <ele>418.389423</ele>
        <time>2020-02-24T20:36:52.927Z</time>
      </trkpt>
      <trkpt lat="43.580546" lon="12.455889">
        <ele>418.408722</ele>
        <time>2020-02-24T20:36:58.917Z</time>
      </trkpt>
      <trkpt lat="43.580617" lon="12.454902">
        <ele>418.651254</ele>
        <time>2020-02-24T20:37:17.438Z</time>
      </trkpt>
      <trkpt lat="43.580652" lon="12.454414">
        <ele>419.665437</ele>
        <time>2020-02-24T20:37:28.763Z</time>
      </trkpt>
      <trkpt lat="43.580672" lon="12.454069">
        <ele>420.381224</ele>
        <time>2020-02-24T20:37:37.229Z</time>
      </trkpt>
      <trkpt lat="43.580689" lon="12.453772">
        <ele>420.997373</ele>
        <time>2020-02-24T20:37:45.046Z</time>
      </trkpt>
      <trkpt lat="43.580601" lon="12.453123">
        <ele>422.362902</ele>
        <time>2020-02-24T20:38:02.700Z</time>
      </trkpt>
      <trkpt lat="43.580484" lon="12.452838">
        <ele>423.040389</ele>
        <time>2020-02-24T20:38:11.355Z</time>
      </trkpt>
      <trkpt lat="43.580170" lon="12.452386">
        <ele>424.332221</ele>
        <time>2020-02-24T20:38:27.028Z</time>
      </trkpt>
      <trkpt lat="43.580014" lon="12.451990">
        <ele>425.260311</ele>
        <time>2020-02-24T20:38:38.403Z</time>
      </trkpt>
      <trkpt lat="43.579978" lon="12.451420">
        <ele>426.438348</ele>
        <time>2020-02-24T20:38:51.650Z</time>
      </trkpt>
      <trkpt lat="43.580102" lon="12.450661">
        <ele>428.040315</ele>
        <time>2020-02-24T20:39:11.072Z</time>
      </trkpt>
      <trkpt lat="43.580085" lon="12.450353">
        <ele>428.676299</ele>
        <time>2020-02-24T20:39:18.039Z</time>
      </trkpt>
      <trkpt lat="43.580049" lon="12.450152">
        <ele>429.053722</ele>
        <time>2020-02-24T20:39:23.566Z</time>
      </trkpt>
      <trkpt lat="43.579990" lon="12.449967">
        <ele>429.419499</ele>
        <time>2020-02-24T20:39:27.933Z</time>
      </trkpt>
      <trkpt lat="43.579855" lon="12.449722">
        <ele>429.976525</ele>
        <time>2020-02-24T20:39:35.306Z</time>
      </trkpt>
      <trkpt lat="43.579715" lon="12.449514">
        <ele>430.490309</ele>
        <time>2020-02-24T20:39:41.029Z</time>
      </trkpt>
      <trkpt lat="43.579629" lon="12.449387">
        <ele>430.804899</ele>
        <time>2020-02-24T20:39:45.339Z</time>
      </trkpt>
      <trkpt lat="43.579498" lon="12.449196">
        <ele>431.280865</ele>
        <time>2020-02-24T20:39:50.955Z</time>
      </trkpt>
      <trkpt lat="43.579392" lon="12.449038">
        <ele>431.670557</ele>
        <time>2020-02-24T20:39:56.663Z</time>
      </trkpt>
      <trkpt lat="43.578938" lon="12.448369">
        <ele>433.355032</ele>
        <time>2020-02-24T20:40:17.667Z</time>
      </trkpt>
      <trkpt lat="43.578822" lon="12.448194">
        <ele>433.864344</ele>
        <time>2020-02-24T20:40:22.987Z</time>
      </trkpt>
      <trkpt lat="43.578669" lon="12.447965">
        <ele>434.533234</ele>
        <time>2020-02-24T20:40:31.041Z</time>
      </trkpt>
      <trkpt lat="43.578536" lon="12.447744">
        <ele>435.150137</ele>
        <time>2020-02-24T20:40:38.241Z</time>
      </trkpt>
      <trkpt lat="43.578468" lon="12.447595">
        <ele>435.528257</ele>
        <time>2020-02-24T20:40:43.008Z</time>
      </trkpt>
      <trkpt lat="43.578136" lon="12.446551">
        <ele>437.976379</ele>
        <time>2020-02-24T20:41:10.488Z</time>
      </trkpt>
      <trkpt lat="43.578035" lon="12.446364">
        <ele>438.477214</ele>
        <time>2020-02-24T20:41:16.981Z</time>
      </trkpt>
      <trkpt lat="43.577785" lon="12.446072">
        <ele>439.436141</ele>
        <time>2020-02-24T20:41:28.570Z</time>
      </trkpt>
      <trkpt lat="43.577185" lon="12.445428">
        <ele>441.660300</ele>
        <time>2020-02-24T20:41:56.735Z</time>
      </trkpt>
      <trkpt lat="43.576960" lon="12.445067">
        <ele>442.669880</ele>
        <time>2020-02-24T20:42:08.114Z</time>
      </trkpt>
      <trkpt lat="43.576958" lon="12.445061">
        <ele>442.683882</ele>
        <time>2020-02-24T20:42:08.594Z</time>
      </trkpt>
      <trkpt lat="43.576720" lon="12.444349">
        <ele>444.213682</ele>
        <time>2020-02-24T20:42:24.283Z</time>
      </trkpt>
      <trkpt lat="43.576637" lon="12.444202">
        <ele>444.515207</ele>
        <time>2020-02-24T20:42:28.910Z</time>
      </trkpt>
      <trkpt lat="43.576484" lon="12.444023">
        <ele>444.963105</ele>
        <time>2020-02-24T20:42:34.145Z</time>
      </trkpt>
      <trkpt lat="43.576097" lon="12.443795">
        <ele>445.902785</ele>
        <time>2020-02-24T20:42:46.993Z</time>
      </trkpt>
      <trkpt lat="43.575388" lon="12.443558">
        <ele>447.531898</ele>
        <time>2020-02-24T20:43:10.135Z</time>
      </trkpt>
      <trkpt lat="43.574889" lon="12.443347">
        <ele>449.368263</ele>
        <time>2020-02-24T20:43:27.292Z</time>
      </trkpt>
      <trkpt lat="43.572751" lon="12.441933">
        <ele>458.899257</ele>
        <time>2020-02-24T20:45:01.824Z</time>
      </trkpt>
      <trkpt lat="43.571701" lon="12.440907">
        <ele>463.383019</ele>
        <time>2020-02-24T20:45:51.147Z</time>
      </trkpt>
      <trkpt lat="43.570950" lon="12.440325">
        <ele>465.310356</ele>
        <time>2020-02-24T20:46:18.655Z</time>
      </trkpt>
      <trkpt lat="43.570583" lon="12.439856">
        <ele>466.331817</ele>
        <time>2020-02-24T20:46:31.890Z</time>
      </trkpt>
      <trkpt lat="43.570314" lon="12.439301">
        <ele>465.368863</ele>
        <time>2020-02-24T20:46:41.568Z</time>
      </trkpt>
      <trkpt lat="43.570066" lon="12.438682">
        <ele>464.348798</ele>
        <time>2020-02-24T20:46:50.291Z</time>
      </trkpt>
      <trkpt lat="43.569841" lon="12.438056">
        <ele>463.341046</ele>
        <time>2020-02-24T20:46:58.627Z</time>
      </trkpt>
      <trkpt lat="43.569632" lon="12.437466">
        <ele>462.505340</ele>
        <time>2020-02-24T20:47:06.345Z</time>
      </trkpt>
      <trkpt lat="43.569484" lon="12.436986">
        <ele>461.960570</ele>
        <time>2020-02-24T20:47:12.500Z</time>
      </trkpt>
      <trkpt lat="43.569349" lon="12.436444">
        <ele>461.362042</ele>
        <time>2020-02-24T20:47:19.482Z</time>
      </trkpt>
      <trkpt lat="43.569242" lon="12.436078">
        <ele>460.949882</ele>
        <time>2020-02-24T20:47:24.490Z</time>
      </trkpt>
      <trkpt lat="43.569088" lon="12.435686">
        <ele>460.484207</ele>
        <time>2020-02-24T20:47:31.402Z</time>
      </trkpt>
      <trkpt lat="43.568849" lon="12.435397">
        <ele>460.804887</ele>
        <time>2020-02-24T20:47:40.053Z</time>
      </trkpt>
      <trkpt lat="43.568640" lon="12.435244">
        <ele>461.946442</ele>
        <time>2020-02-24T20:47:49.277Z</time>
      </trkpt>
      <trkpt lat="43.568572" lon="12.435194">
        <ele>462.318218</ele>
        <time>2020-02-24T20:47:51.800Z</time>
      </trkpt>
      <trkpt lat="43.568485" lon="12.435138">
        <ele>462.781424</ele>
        <time>2020-02-24T20:47:56.701Z</time>
      </trkpt>
      <trkpt lat="43.568097" lon="12.434884">
        <ele>464.853545</ele>
        <time>2020-02-24T20:48:15.434Z</time>
      </trkpt>
      <trkpt lat="43.567885" lon="12.434745">
        <ele>465.986061</ele>
        <time>2020-02-24T20:48:26.492Z</time>
      </trkpt>
      <trkpt lat="43.567799" lon="12.434776">
        <ele>466.414952</ele>
        <time>2020-02-24T20:48:32.688Z</time>
      </trkpt>
      <trkpt lat="43.567205" lon="12.434667">
        <ele>469.054140</ele>
        <time>2020-02-24T20:49:01.350Z</time>
      </trkpt>
      <trkpt lat="43.566771" lon="12.434107">
        <ele>470.208170</ele>
        <time>2020-02-24T20:49:24.789Z</time>
      </trkpt>
      <trkpt lat="43.566679" lon="12.434075">
        <ele>470.392456</ele>
        <time>2020-02-24T20:49:29.271Z</time>
      </trkpt>
      <trkpt lat="43.566556" lon="12.433883">
        <ele>470.753146</ele>
        <time>2020-02-24T20:49:35.798Z</time>
      </trkpt>
      <trkpt lat="43.566552" lon="12.433817">
        <ele>470.846358</ele>
        <time>2020-02-24T20:49:36.697Z</time>
      </trkpt>
      <trkpt lat="43.566585" lon="12.433742">
        <ele>470.969850</ele>
        <time>2020-02-24T20:49:38.776Z</time>
      </trkpt>
      <trkpt lat="43.566391" lon="12.433487">
        <ele>471.490227</ele>
        <time>2020-02-24T20:49:44.484Z</time>
      </trkpt>
      <trkpt lat="43.566166" lon="12.433162">
        <ele>472.122854</ele>
        <time>2020-02-24T20:49:50.924Z</time>
      </trkpt>
      <trkpt lat="43.565878" lon="12.432721">
        <ele>471.613439</ele>
        <time>2020-02-24T20:49:58.168Z</time>
      </trkpt>
      <trkpt lat="43.564895" lon="12.431215">
        <ele>467.857505</ele>
        <time>2020-02-24T20:50:22.005Z</time>
      </trkpt>
      <trkpt lat="43.564765" lon="12.430866">
        <ele>467.777700</ele>
        <time>2020-02-24T20:50:27.795Z</time>
      </trkpt>
      <trkpt lat="43.564682" lon="12.430352">
        <ele>467.777069</ele>
        <time>2020-02-24T20:50:35.976Z</time>
      </trkpt>
      <trkpt lat="43.564546" lon="12.429957">
        <ele>467.776545</ele>
        <time>2020-02-24T20:50:43.479Z</time>
      </trkpt>
      <trkpt lat="43.564010" lon="12.429013">
        <ele>467.786542</ele>
        <time>2020-02-24T20:51:06.222Z</time>
      </trkpt>
      <trkpt lat="43.563721" lon="12.428735">
        <ele>467.967949</ele>
        <time>2020-02-24T20:51:15.094Z</time>
      </trkpt>
      <trkpt lat="43.563194" lon="12.428477">
        <ele>468.255901</ele>
        <time>2020-02-24T20:51:28.726Z</time>
      </trkpt>
      <trkpt lat="43.561507" lon="12.427997">
        <ele>469.231850</ele>
        <time>2020-02-24T20:52:09.302Z</time>
      </trkpt>
      <trkpt lat="43.561156" lon="12.427897">
        <ele>469.453591</ele>
        <time>2020-02-24T20:52:18.038Z</time>
      </trkpt>
      <trkpt lat="43.560506" lon="12.427656">
        <ele>469.962075</ele>
        <time>2020-02-24T20:52:35.324Z</time>
      </trkpt>
      <trkpt lat="43.560172" lon="12.427382">
        <ele>470.598934</ele>
        <time>2020-02-24T20:52:45.978Z</time>
      </trkpt>
      <trkpt lat="43.559787" lon="12.426914">
        <ele>471.439863</ele>
        <time>2020-02-24T20:53:00.792Z</time>
      </trkpt>
      <trkpt lat="43.559642" lon="12.426622">
        <ele>471.860294</ele>
        <time>2020-02-24T20:53:08.343Z</time>
      </trkpt>
      <trkpt lat="43.559504" lon="12.426031">
        <ele>472.597783</ele>
        <time>2020-02-24T20:53:22.073Z</time>
      </trkpt>
      <trkpt lat="43.559223" lon="12.424328">
        <ele>474.822098</ele>
        <time>2020-02-24T20:54:01.542Z</time>
      </trkpt>
      <trkpt lat="43.559183" lon="12.424029">
        <ele>475.211561</ele>
        <time>2020-02-24T20:54:07.930Z</time>
      </trkpt>
      <trkpt lat="43.559169" lon="12.423786">
        <ele>475.523804</ele>
        <time>2020-02-24T20:54:12.796Z</time>
      </trkpt>
      <trkpt lat="43.559194" lon="12.423310">
        <ele>476.214825</ele>
        <time>2020-02-24T20:54:21.528Z</time>
      </trkpt>
      <trkpt lat="43.559264" lon="12.422493">
        <ele>477.702334</ele>
        <time>2020-02-24T20:54:35.576Z</time>
      </trkpt>
      <trkpt lat="43.559265" lon="12.422161">
        <ele>478.302630</ele>
        <time>2020-02-24T20:54:42.651Z</time>
      </trkpt>
      <trkpt lat="43.559217" lon="12.421733">
        <ele>479.085710</ele>
        <time>2020-02-24T20:54:53.415Z</time>
      </trkpt>
      <trkpt lat="43.559153" lon="12.421123">
        <ele>480.200154</ele>
        <time>2020-02-24T20:55:11.152Z</time>
      </trkpt>
      <trkpt lat="43.559097" lon="12.420495">
        <ele>482.188911</ele>
        <time>2020-02-24T20:55:31.290Z</time>
      </trkpt>
      <trkpt lat="43.559054" lon="12.420046">
        <ele>483.763818</ele>
        <time>2020-02-24T20:55:45.909Z</time>
      </trkpt>
      <trkpt lat="43.559041" lon="12.419893">
        <ele>484.299498</ele>
        <time>2020-02-24T20:55:51.866Z</time>
      </trkpt>
      <trkpt lat="43.559021" lon="12.419628">
        <ele>485.225981</ele>
        <time>2020-02-24T20:55:59.195Z</time>
      </trkpt>
      <trkpt lat="43.558860" lon="12.419634">
        <ele>485.998833</ele>
        <time>2020-02-24T20:56:07.798Z</time>
      </trkpt>
      <trkpt lat="43.558843" lon="12.419188">
        <ele>487.551882</ele>
        <time>2020-02-24T20:56:20.461Z</time>
      </trkpt>
      <trkpt lat="43.558754" lon="12.418872">
        <ele>488.730806</ele>
        <time>2020-02-24T20:56:29.373Z</time>
      </trkpt>
      <trkpt lat="43.558703" lon="12.418793">
        <ele>489.061328</ele>
        <time>2020-02-24T20:56:33.369Z</time>
      </trkpt>
      <trkpt lat="43.558631" lon="12.418942">
        <ele>489.080228</ele>
        <time>2020-02-24T20:56:38.629Z</time>
      </trkpt>
      <trkpt lat="43.558521" lon="12.418862">
        <ele>489.098337</ele>
        <time>2020-02-24T20:56:42.803Z</time>
      </trkpt>
      <trkpt lat="43.558402" lon="12.418847">
        <ele>489.115740</ele>
        <time>2020-02-24T20:56:47.822Z</time>
      </trkpt>
      <trkpt lat="43.558257" lon="12.418843">
        <ele>489.136861</ele>
        <time>2020-02-24T20:56:52.191Z</time>
      </trkpt>
      <trkpt lat="43.558044" lon="12.419280">
        <ele>489.192443</ele>
        <time>2020-02-24T20:57:01.775Z</time>
      </trkpt>
      <trkpt lat="43.557955" lon="12.419443">
        <ele>489.213982</ele>
        <time>2020-02-24T20:57:04.671Z</time>
      </trkpt>
      <trkpt lat="43.557872" lon="12.419570">
        <ele>489.232031</ele>
        <time>2020-02-24T20:57:06.930Z</time>
      </trkpt>
      <trkpt lat="43.557872" lon="12.419570">
        <ele>489.232031</ele>
        <time>2020-02-24T20:57:06.968Z</time>
      </trkpt>
      <trkpt lat="43.557746" lon="12.419439">
        <ele>489.255006</ele>
        <time>2020-02-24T20:57:09.900Z</time>
      </trkpt>
      <trkpt lat="43.557374" lon="12.419145">
        <ele>489.317439</ele>
        <time>2020-02-24T20:57:17.736Z</time>
      </trkpt>
      <trkpt lat="43.557295" lon="12.419150">
        <ele>489.201070</ele>
        <time>2020-02-24T20:57:19.006Z</time>
      </trkpt>
      <trkpt lat="43.557165" lon="12.419110">
        <ele>488.858480</ele>
        <time>2020-02-24T20:57:21.421Z</time>
      </trkpt>
      <trkpt lat="43.556684" lon="12.418752">
        <ele>487.452788</ele>
        <time>2020-02-24T20:57:30.557Z</time>
      </trkpt>
      <trkpt lat="43.556478" lon="12.418648">
        <ele>486.888578</ele>
        <time>2020-02-24T20:57:34.474Z</time>
      </trkpt>
      <trkpt lat="43.556142" lon="12.418641">
        <ele>486.024240</ele>
        <time>2020-02-24T20:57:40.682Z</time>
      </trkpt>
      <trkpt lat="43.555939" lon="12.418708">
        <ele>485.487368</ele>
        <time>2020-02-24T20:57:44.358Z</time>
      </trkpt>
      <trkpt lat="43.555227" lon="12.419123">
        <ele>483.886324</ele>
        <time>2020-02-24T20:57:58.533Z</time>
      </trkpt>
      <trkpt lat="43.555165" lon="12.419172">
        <ele>483.761992</ele>
        <time>2020-02-24T20:57:59.952Z</time>
      </trkpt>
      <trkpt lat="43.555121" lon="12.419231">
        <ele>483.655228</ele>
        <time>2020-02-24T20:58:00.989Z</time>
      </trkpt>
      <trkpt lat="43.555076" lon="12.419242">
        <ele>483.575703</ele>
        <time>2020-02-24T20:58:01.732Z</time>
      </trkpt>
      <trkpt lat="43.554724" lon="12.419332">
        <ele>482.952746</ele>
        <time>2020-02-24T20:58:08.032Z</time>
      </trkpt>
      <trkpt lat="43.554946" lon="12.419413">
        <ele>482.553158</ele>
        <time>2020-02-24T20:58:12.405Z</time>
      </trkpt>
      <trkpt lat="43.555119" lon="12.419518">
        <ele>482.224278</ele>
        <time>2020-02-24T20:58:15.694Z</time>
      </trkpt>
      <trkpt lat="43.555167" lon="12.419579">
        <ele>482.110725</ele>
        <time>2020-02-24T20:58:17.170Z</time>
      </trkpt>
      <trkpt lat="43.555377" lon="12.419765">
        <ele>481.676491</ele>
        <time>2020-02-24T20:58:21.874Z</time>
      </trkpt>
      <trkpt lat="43.555975" lon="12.420294">
        <ele>482.771342</ele>
        <time>2020-02-24T20:58:34.967Z</time>
      </trkpt>
      <trkpt lat="43.556636" lon="12.420837">
        <ele>484.205193</ele>
        <time>2020-02-24T20:59:00.458Z</time>
      </trkpt>
      <trkpt lat="43.556743" lon="12.420891">
        <ele>484.417552</ele>
        <time>2020-02-24T20:59:04.986Z</time>
      </trkpt>
      <trkpt lat="43.557176" lon="12.421043">
        <ele>486.206442</ele>
        <time>2020-02-24T20:59:23.876Z</time>
      </trkpt>
      <trkpt lat="43.557229" lon="12.421061">
        <ele>486.601193</ele>
        <time>2020-02-24T20:59:26.030Z</time>
      </trkpt>
      <trkpt lat="43.557200" lon="12.421252">
        <ele>487.623988</ele>
        <time>2020-02-24T20:59:33.004Z</time>
      </trkpt>
      <trkpt lat="43.557153" lon="12.421551">
        <ele>489.227535</ele>
        <time>2020-02-24T20:59:43.409Z</time>
      </trkpt>
      <trkpt lat="43.557130" lon="12.421879">
        <ele>490.954664</ele>
        <time>2020-02-24T20:59:56.034Z</time>
      </trkpt>
      <trkpt lat="43.557229" lon="12.423544">
        <ele>499.856037</ele>
        <time>2020-02-24T21:01:03.991Z</time>
      </trkpt>
      <trkpt lat="43.557369" lon="12.424086">
        <ele>503.117825</ele>
        <time>2020-02-24T21:01:27.321Z</time>
      </trkpt>
      <trkpt lat="43.557360" lon="12.424200">
        <ele>503.767882</ele>
        <time>2020-02-24T21:01:32.676Z</time>
      </trkpt>
      <trkpt lat="43.557249" lon="12.424180">
        <ele>504.643532</ele>
        <time>2020-02-24T21:01:37.989Z</time>
      </trkpt>
      <trkpt lat="43.556856" lon="12.423265">
        <ele>510.673007</ele>
        <time>2020-02-24T21:02:17.607Z</time>
      </trkpt>
      <trkpt lat="43.556759" lon="12.422866">
        <ele>513.047221</ele>
        <time>2020-02-24T21:02:33.467Z</time>
      </trkpt>
      <trkpt lat="43.556669" lon="12.422810">
        <ele>513.811132</ele>
        <time>2020-02-24T21:02:37.730Z</time>
      </trkpt>
      <trkpt lat="43.556622" lon="12.422846">
        <ele>514.227070</ele>
        <time>2020-02-24T21:02:40.497Z</time>
      </trkpt>
      <trkpt lat="43.556608" lon="12.422923">
        <ele>514.672223</ele>
        <time>2020-02-24T21:02:44.882Z</time>
      </trkpt>
      <trkpt lat="43.556911" lon="12.424374">
        <ele>523.139611</ele>
        <time>2020-02-24T21:03:42.494Z</time>
      </trkpt>
      <trkpt lat="43.556893" lon="12.424504">
        <ele>523.881757</ele>
        <time>2020-02-24T21:03:47.426Z</time>
      </trkpt>
      <trkpt lat="43.556816" lon="12.424543">
        <ele>524.516422</ele>
        <time>2020-02-24T21:03:51.617Z</time>
      </trkpt>
      <trkpt lat="43.556750" lon="12.424477">
        <ele>525.147106</ele>
        <time>2020-02-24T21:03:55.867Z</time>
      </trkpt>
      <trkpt lat="43.556637" lon="12.424147">
        <ele>527.411176</ele>
        <time>2020-02-24T21:04:11.986Z</time>
      </trkpt>
      <trkpt lat="43.556476" lon="12.423932">
        <ele>529.439244</ele>
        <time>2020-02-24T21:04:24.059Z</time>
      </trkpt>
      <trkpt lat="43.556366" lon="12.423536">
        <ele>532.221257</ele>
        <time>2020-02-24T21:04:40.950Z</time>
      </trkpt>
      <trkpt lat="43.556228" lon="12.423321">
        <ele>534.105294</ele>
        <time>2020-02-24T21:04:52.946Z</time>
      </trkpt>
      <trkpt lat="43.555260" lon="12.423147">
        <ele>543.065864</ele>
        <time>2020-02-24T21:05:52.142Z</time>
      </trkpt>
      <trkpt lat="43.555045" lon="12.422876">
        <ele>546.140335</ele>
        <time>2020-02-24T21:06:10.612Z</time>
      </trkpt>
      <trkpt lat="43.554959" lon="12.422906">
        <ele>547.076888</ele>
        <time>2020-02-24T21:06:16.404Z</time>
      </trkpt>
      <trkpt lat="43.554948" lon="12.423091">
        <ele>548.497175</ele>
        <time>2020-02-24T21:06:25.061Z</time>
      </trkpt>
      <trkpt lat="43.555494" lon="12.424466">
        <ele>560.493771</ele>
        <time>2020-02-24T21:07:39.443Z</time>
      </trkpt>
      <trkpt lat="43.555643" lon="12.425105">
        <ele>565.335257</ele>
        <time>2020-02-24T21:08:11.944Z</time>
      </trkpt>
      <trkpt lat="43.555623" lon="12.425266">
        <ele>566.502262</ele>
        <time>2020-02-24T21:08:19.743Z</time>
      </trkpt>
      <trkpt lat="43.555520" lon="12.425299">
        <ele>567.544665</ele>
        <time>2020-02-24T21:08:26.899Z</time>
      </trkpt>
      <trkpt lat="43.555279" lon="12.425103">
        <ele>570.302439</ele>
        <time>2020-02-24T21:08:44.540Z</time>
      </trkpt>
      <trkpt lat="43.554646" lon="12.424354">
        <ele>578.522836</ele>
        <time>2020-02-24T21:09:33.911Z</time>
      </trkpt>
      <trkpt lat="43.554416" lon="12.424243">
        <ele>580.428635</ele>
        <time>2020-02-24T21:09:47.009Z</time>
      </trkpt>
      <trkpt lat="43.554367" lon="12.424276">
        <ele>580.833360</ele>
        <time>2020-02-24T21:09:50.017Z</time>
      </trkpt>
      <trkpt lat="43.554339" lon="12.424400">
        <ele>581.532038</ele>
        <time>2020-02-24T21:09:55.272Z</time>
      </trkpt>
      <trkpt lat="43.554365" lon="12.424474">
        <ele>581.974431</ele>
        <time>2020-02-24T21:09:58.439Z</time>
      </trkpt>
      <trkpt lat="43.554526" lon="12.424550">
        <ele>583.237493</ele>
        <time>2020-02-24T21:10:07.518Z</time>
      </trkpt>
      <trkpt lat="43.554679" lon="12.424730">
        <ele>584.729929</ele>
        <time>2020-02-24T21:10:19.066Z</time>
      </trkpt>
      <trkpt lat="43.555083" lon="12.425851">
        <ele>591.464700</ele>
        <time>2020-02-24T21:11:05.031Z</time>
      </trkpt>
      <trkpt lat="43.555292" lon="12.426120">
        <ele>592.893588</ele>
        <time>2020-02-24T21:11:17.993Z</time>
      </trkpt>
      <trkpt lat="43.555439" lon="12.426319">
        <ele>593.619643</ele>
        <time>2020-02-24T21:11:27.658Z</time>
      </trkpt>
      <trkpt lat="43.555489" lon="12.426496">
        <ele>594.105042</ele>
        <time>2020-02-24T21:11:32.844Z</time>
      </trkpt>
      <trkpt lat="43.555312" lon="12.427079">
        <ele>595.720113</ele>
        <time>2020-02-24T21:11:50.845Z</time>
      </trkpt>
      <trkpt lat="43.555334" lon="12.427345">
        <ele>596.404188</ele>
        <time>2020-02-24T21:11:57.868Z</time>
      </trkpt>
      <trkpt lat="43.555523" lon="12.427631">
        <ele>597.393154</ele>
        <time>2020-02-24T21:12:07.227Z</time>
      </trkpt>
      <trkpt lat="43.555905" lon="12.427733">
        <ele>598.647373</ele>
        <time>2020-02-24T21:12:17.680Z</time>
      </trkpt>
      <trkpt lat="43.555990" lon="12.427859">
        <ele>598.756633</ele>
        <time>2020-02-24T21:12:20.089Z</time>
      </trkpt>
      <trkpt lat="43.556073" lon="12.428600">
        <ele>599.232535</ele>
        <time>2020-02-24T21:12:30.334Z</time>
      </trkpt>
      <trkpt lat="43.556458" lon="12.429988">
        <ele>600.175830</ele>
        <time>2020-02-24T21:12:58.427Z</time>
      </trkpt>
      <trkpt lat="43.556452" lon="12.430031">
        <ele>600.330800</ele>
        <time>2020-02-24T21:12:58.834Z</time>
      </trkpt>
      <trkpt lat="43.556422" lon="12.430078">
        <ele>600.625510</ele>
        <time>2020-02-24T21:13:00.252Z</time>
      </trkpt>
      <trkpt lat="43.556383" lon="12.430088">
        <ele>600.883072</ele>
        <time>2020-02-24T21:13:01.756Z</time>
      </trkpt>
      <trkpt lat="43.556343" lon="12.430078">
        <ele>601.147021</ele>
        <time>2020-02-24T21:13:03.016Z</time>
      </trkpt>
      <trkpt lat="43.556277" lon="12.430028">
        <ele>601.635897</ele>
        <time>2020-02-24T21:13:10.003Z</time>
      </trkpt>
      <trkpt lat="43.555835" lon="12.429699">
        <ele>604.896732</ele>
        <time>2020-02-24T21:13:30.931Z</time>
      </trkpt>
      <trkpt lat="43.554537" lon="12.429224">
        <ele>613.178841</ele>
        <time>2020-02-24T21:14:47.323Z</time>
      </trkpt>
      <trkpt lat="43.554368" lon="12.429223">
        <ele>614.002602</ele>
        <time>2020-02-24T21:14:56.651Z</time>
      </trkpt>
      <trkpt lat="43.554168" lon="12.429435">
        <ele>615.231903</ele>
        <time>2020-02-24T21:15:09.588Z</time>
      </trkpt>
      <trkpt lat="43.554152" lon="12.429640">
        <ele>615.960255</ele>
        <time>2020-02-24T21:15:16.647Z</time>
      </trkpt>
      <trkpt lat="43.554608" lon="12.431041">
        <ele>620.718414</ele>
        <time>2020-02-24T21:15:53.166Z</time>
      </trkpt>
      <trkpt lat="43.554597" lon="12.431292">
        <ele>620.822872</ele>
        <time>2020-02-24T21:15:57.170Z</time>
      </trkpt>
      <trkpt lat="43.554440" lon="12.431301">
        <ele>620.912943</ele>
        <time>2020-02-24T21:16:00.992Z</time>
      </trkpt>
      <trkpt lat="43.553926" lon="12.430941">
        <ele>621.243351</ele>
        <time>2020-02-24T21:16:14.201Z</time>
      </trkpt>
      <trkpt lat="43.553753" lon="12.430911">
        <ele>621.343296</ele>
        <time>2020-02-24T21:16:18.400Z</time>
      </trkpt>
      <trkpt lat="43.553189" lon="12.430988">
        <ele>621.666607</ele>
        <time>2020-02-24T21:16:30.718Z</time>
      </trkpt>
      <trkpt lat="43.553062" lon="12.431046">
        <ele>621.727727</ele>
        <time>2020-02-24T21:16:33.746Z</time>
      </trkpt>
      <trkpt lat="43.552868" lon="12.431389">
        <ele>621.871796</ele>
        <time>2020-02-24T21:16:40.798Z</time>
      </trkpt>
      <trkpt lat="43.552767" lon="12.431478">
        <ele>621.926550</ele>
        <time>2020-02-24T21:16:43.631Z</time>
      </trkpt>
      <trkpt lat="43.552084" lon="12.431565">
        <ele>622.239932</ele>
        <time>2020-02-24T21:17:01.102Z</time>
      </trkpt>
      <trkpt lat="43.551810" lon="12.431739">
        <ele>622.377742</ele>
        <time>2020-02-24T21:17:08.864Z</time>
      </trkpt>
      <trkpt lat="43.551765" lon="12.431798">
        <ele>622.406104</ele>
        <time>2020-02-24T21:17:10.405Z</time>
      </trkpt>
      <trkpt lat="43.551712" lon="12.431903">
        <ele>622.448474</ele>
        <time>2020-02-24T21:17:12.797Z</time>
      </trkpt>
      <trkpt lat="43.551400" lon="12.432516">
        <ele>623.262978</ele>
        <time>2020-02-24T21:17:25.337Z</time>
      </trkpt>
      <trkpt lat="43.551147" lon="12.432853">
        <ele>623.848487</ele>
        <time>2020-02-24T21:17:33.191Z</time>
      </trkpt>
      <trkpt lat="43.551048" lon="12.433106">
        <ele>624.195443</ele>
        <time>2020-02-24T21:17:38.082Z</time>
      </trkpt>
      <trkpt lat="43.551051" lon="12.434154">
        <ele>625.460097</ele>
        <time>2020-02-24T21:18:02.218Z</time>
      </trkpt>
      <trkpt lat="43.551010" lon="12.434584">
        <ele>628.330290</ele>
        <time>2020-02-24T21:18:16.093Z</time>
      </trkpt>
      <trkpt lat="43.550983" lon="12.434696">
        <ele>629.132745</ele>
        <time>2020-02-24T21:18:20.636Z</time>
      </trkpt>
      <trkpt lat="43.550915" lon="12.434920">
        <ele>630.783814</ele>
        <time>2020-02-24T21:18:28.804Z</time>
      </trkpt>
      <trkpt lat="43.550819" lon="12.435295">
        <ele>633.487645</ele>
        <time>2020-02-24T21:18:43.939Z</time>
      </trkpt>
      <trkpt lat="43.550846" lon="12.435502">
        <ele>634.917558</ele>
        <time>2020-02-24T21:18:51.626Z</time>
      </trkpt>
      <trkpt lat="43.550900" lon="12.435610">
        <ele>635.809579</ele>
        <time>2020-02-24T21:18:57.467Z</time>
      </trkpt>
      <trkpt lat="43.551303" lon="12.436315">
        <ele>641.913945</ele>
        <time>2020-02-24T21:19:49.124Z</time>
      </trkpt>
      <trkpt lat="43.551944" lon="12.437064">
        <ele>654.609262</ele>
        <time>2020-02-24T21:20:58.386Z</time>
      </trkpt>
      <trkpt lat="43.551983" lon="12.437177">
        <ele>656.010623</ele>
        <time>2020-02-24T21:21:07.899Z</time>
      </trkpt>
      <trkpt lat="43.551995" lon="12.437315">
        <ele>657.566845</ele>
        <time>2020-02-24T21:21:18.454Z</time>
      </trkpt>
      <trkpt lat="43.551884" lon="12.438659">
        <ele>672.319236</ele>
        <time>2020-02-24T21:22:38.972Z</time>
      </trkpt>
      <trkpt lat="43.551965" lon="12.439424">
        <ele>679.654001</ele>
        <time>2020-02-24T21:23:25.931Z</time>
      </trkpt>
      <trkpt lat="43.551877" lon="12.439768">
        <ele>683.114939</ele>
        <time>2020-02-24T21:23:43.509Z</time>
      </trkpt>
      <trkpt lat="43.551528" lon="12.440684">
        <ele>692.932938</ele>
        <time>2020-02-24T21:24:36.455Z</time>
      </trkpt>
      <trkpt lat="43.551570" lon="12.441001">
        <ele>695.213167</ele>
        <time>2020-02-24T21:24:53.965Z</time>
      </trkpt>
      <trkpt lat="43.551818" lon="12.441430">
        <ele>698.667342</ele>
        <time>2020-02-24T21:25:19.330Z</time>
      </trkpt>
      <trkpt lat="43.551854" lon="12.441781">
        <ele>700.898744</ele>
        <time>2020-02-24T21:25:35.780Z</time>
      </trkpt>
      <trkpt lat="43.552007" lon="12.441982">
        <ele>702.733550</ele>
        <time>2020-02-24T21:25:45.476Z</time>
      </trkpt>
      <trkpt lat="43.552091" lon="12.442026">
        <ele>703.513902</ele>
        <time>2020-02-24T21:25:53.392Z</time>
      </trkpt>
      <trkpt lat="43.552466" lon="12.442167">
        <ele>706.889585</ele>
        <time>2020-02-24T21:26:13.163Z</time>
      </trkpt>
      <trkpt lat="43.552559" lon="12.442263">
        <ele>707.898321</ele>
        <time>2020-02-24T21:26:17.254Z</time>
      </trkpt>
      <trkpt lat="43.552598" lon="12.442450">
        <ele>709.123155</ele>
        <time>2020-02-24T21:26:23.134Z</time>
      </trkpt>
      <trkpt lat="43.552585" lon="12.442992">
        <ele>709.674702</ele>
        <time>2020-02-24T21:26:40.553Z</time>
      </trkpt>
      <trkpt lat="43.552521" lon="12.443275">
        <ele>709.889434</ele>
        <time>2020-02-24T21:26:47.441Z</time>
      </trkpt>
      <trkpt lat="43.552397" lon="12.443685">
        <ele>710.211228</ele>
        <time>2020-02-24T21:26:57.954Z</time>
      </trkpt>
      <trkpt lat="43.552291" lon="12.444037">
        <ele>710.487325</ele>
        <time>2020-02-24T21:27:03.213Z</time>
      </trkpt>
      <trkpt lat="43.552303" lon="12.444306">
        <ele>710.682538</ele>
        <time>2020-02-24T21:27:06.850Z</time>
      </trkpt>
      <trkpt lat="43.552489" lon="12.445221">
        <ele>710.664944</ele>
        <time>2020-02-24T21:27:18.413Z</time>
      </trkpt>
      <trkpt lat="43.552413" lon="12.445480">
        <ele>710.339576</ele>
        <time>2020-02-24T21:27:21.547Z</time>
      </trkpt>
      <trkpt lat="43.552198" lon="12.445629">
        <ele>709.953019</ele>
        <time>2020-02-24T21:27:25.363Z</time>
      </trkpt>
      <trkpt lat="43.552124" lon="12.445768">
        <ele>709.752188</ele>
        <time>2020-02-24T21:27:27.367Z</time>
      </trkpt>
      <trkpt lat="43.552140" lon="12.445918">
        <ele>709.575642</ele>
        <time>2020-02-24T21:27:29.142Z</time>
      </trkpt>
      <trkpt lat="43.552281" lon="12.446195">
        <ele>709.181489</ele>
        <time>2020-02-24T21:27:33.284Z</time>
      </trkpt>
      <trkpt lat="43.552291" lon="12.446368">
        <ele>708.979403</ele>
        <time>2020-02-24T21:27:35.461Z</time>
      </trkpt>
      <trkpt lat="43.552281" lon="12.446985">
        <ele>708.260772</ele>
        <time>2020-02-24T21:27:46.864Z</time>
      </trkpt>
      <trkpt lat="43.552279" lon="12.447131">
        <ele>708.678231</ele>
        <time>2020-02-24T21:27:49.942Z</time>
      </trkpt>
      <trkpt lat="43.552309" lon="12.447313">
        <ele>709.528560</ele>
        <time>2020-02-24T21:27:55.739Z</time>
      </trkpt>
      <trkpt lat="43.552342" lon="12.447403">
        <ele>709.988069</ele>
        <time>2020-02-24T21:27:57.072Z</time>
      </trkpt>
      <trkpt lat="43.552388" lon="12.447494">
        <ele>710.493526</ele>
        <time>2020-02-24T21:28:00.228Z</time>
      </trkpt>
      <trkpt lat="43.552442" lon="12.447581">
        <ele>711.015369</ele>
        <time>2020-02-24T21:28:03.000Z</time>
      </trkpt>
      <trkpt lat="43.552691" lon="12.447846">
        <ele>712.992099</ele>
        <time>2020-02-24T21:28:15.864Z</time>
      </trkpt>
      <trkpt lat="43.552967" lon="12.448113">
        <ele>715.110979</ele>
        <time>2020-02-24T21:28:31.769Z</time>
      </trkpt>
      <trkpt lat="43.553029" lon="12.448183">
        <ele>715.614558</ele>
        <time>2020-02-24T21:28:35.828Z</time>
      </trkpt>
      <trkpt lat="43.553088" lon="12.448269">
        <ele>716.154050</ele>
        <time>2020-02-24T21:28:41.941Z</time>
      </trkpt>
      <trkpt lat="43.553448" lon="12.448857">
        <ele>719.736813</ele>
        <time>2020-02-24T21:29:16.272Z</time>
      </trkpt>
      <trkpt lat="43.553501" lon="12.449130">
        <ele>721.704423</ele>
        <time>2020-02-24T21:29:31.769Z</time>
      </trkpt>
      <trkpt lat="43.553305" lon="12.450967">
        <ele>734.631306</ele>
        <time>2020-02-24T21:30:55.300Z</time>
      </trkpt>
      <trkpt lat="43.553216" lon="12.451314">
        <ele>737.028776</ele>
        <time>2020-02-24T21:31:09.647Z</time>
      </trkpt>
      <trkpt lat="43.553059" lon="12.451524">
        <ele>738.260167</ele>
        <time>2020-02-24T21:31:20.917Z</time>
      </trkpt>
      <trkpt lat="43.552614" lon="12.451866">
        <ele>741.128716</ele>
        <time>2020-02-24T21:31:45.367Z</time>
      </trkpt>
      <trkpt lat="43.552331" lon="12.452589">
        <ele>744.482456</ele>
        <time>2020-02-24T21:32:11.245Z</time>
      </trkpt>
      <trkpt lat="43.551731" lon="12.452946">
        <ele>747.333296</ele>
        <time>2020-02-24T21:32:35.530Z</time>
      </trkpt>
      <trkpt lat="43.551475" lon="12.453423">
        <ele>748.134221</ele>
        <time>2020-02-24T21:32:48.947Z</time>
      </trkpt>
      <trkpt lat="43.551268" lon="12.453681">
        <ele>748.653588</ele>
        <time>2020-02-24T21:32:57.434Z</time>
      </trkpt>
      <trkpt lat="43.551103" lon="12.453748">
        <ele>748.973823</ele>
        <time>2020-02-24T21:33:01.783Z</time>
      </trkpt>
      <trkpt lat="43.550988" lon="12.453712">
        <ele>749.193378</ele>
        <time>2020-02-24T21:33:05.837Z</time>
      </trkpt>
      <trkpt lat="43.550769" lon="12.453622">
        <ele>749.618828</ele>
        <time>2020-02-24T21:33:11.013Z</time>
      </trkpt>
      <trkpt lat="43.550495" lon="12.453583">
        <ele>750.131686</ele>
        <time>2020-02-24T21:33:18.282Z</time>
      </trkpt>
      <trkpt lat="43.550297" lon="12.453637">
        <ele>750.363090</ele>
        <time>2020-02-24T21:33:23.576Z</time>
      </trkpt>
      <trkpt lat="43.550139" lon="12.453755">
        <ele>750.491843</ele>
        <time>2020-02-24T21:33:27.303Z</time>
      </trkpt>
      <trkpt lat="43.549986" lon="12.454007">
        <ele>750.662590</ele>
        <time>2020-02-24T21:33:32.852Z</time>
      </trkpt>
      <trkpt lat="43.549904" lon="12.454167">
        <ele>750.764373</ele>
        <time>2020-02-24T21:33:35.629Z</time>
      </trkpt>
      <trkpt lat="43.549865" lon="12.454246">
        <ele>750.814020</ele>
        <time>2020-02-24T21:33:36.990Z</time>
      </trkpt>
      <trkpt lat="43.549626" lon="12.454500">
        <ele>751.030218</ele>
        <time>2020-02-24T21:33:43.645Z</time>
      </trkpt>
      <trkpt lat="43.548453" lon="12.455136">
        <ele>753.388723</ele>
        <time>2020-02-24T21:34:19.408Z</time>
      </trkpt>
      <trkpt lat="43.548123" lon="12.455324">
        <ele>754.646365</ele>
        <time>2020-02-24T21:34:32.109Z</time>
      </trkpt>
      <trkpt lat="43.547906" lon="12.455596">
        <ele>755.679111</ele>
        <time>2020-02-24T21:34:43.321Z</time>
      </trkpt>
      <trkpt lat="43.547597" lon="12.456123">
        <ele>757.409766</ele>
        <time>2020-02-24T21:35:03.375Z</time>
      </trkpt>
      <trkpt lat="43.547179" lon="12.457006">
        <ele>761.452144</ele>
        <time>2020-02-24T21:35:38.033Z</time>
      </trkpt>
      <trkpt lat="43.546629" lon="12.457763">
        <ele>765.863943</ele>
        <time>2020-02-24T21:36:14.604Z</time>
      </trkpt>
      <trkpt lat="43.546359" lon="12.457979">
        <ele>767.636346</ele>
        <time>2020-02-24T21:36:28.611Z</time>
      </trkpt>
      <trkpt lat="43.545820" lon="12.458072">
        <ele>770.295647</ele>
        <time>2020-02-24T21:36:51.307Z</time>
      </trkpt>
      <trkpt lat="43.545473" lon="12.458293">
        <ele>772.112171</ele>
        <time>2020-02-24T21:37:06.649Z</time>
      </trkpt>
      <trkpt lat="43.545345" lon="12.458505">
        <ele>773.062719</ele>
        <time>2020-02-24T21:37:14.673Z</time>
      </trkpt>
      <trkpt lat="43.545125" lon="12.459288">
        <ele>775.955792</ele>
        <time>2020-02-24T21:37:39.531Z</time>
      </trkpt>
      <trkpt lat="43.544911" lon="12.459777">
        <ele>778.068503</ele>
        <time>2020-02-24T21:37:56.046Z</time>
      </trkpt>
      <trkpt lat="43.543740" lon="12.460948">
        <ele>785.730658</ele>
        <time>2020-02-24T21:38:56.199Z</time>
      </trkpt>
      <trkpt lat="43.543563" lon="12.461239">
        <ele>787.766946</ele>
        <time>2020-02-24T21:39:10.939Z</time>
      </trkpt>
      <trkpt lat="43.543147" lon="12.462157">
        <ele>794.325672</ele>
        <time>2020-02-24T21:39:57.323Z</time>
      </trkpt>
      <trkpt lat="43.542875" lon="12.462768">
        <ele>798.669545</ele>
        <time>2020-02-24T21:40:26.587Z</time>
      </trkpt>
      <trkpt lat="43.542747" lon="12.462960">
        <ele>800.249864</ele>
        <time>2020-02-24T21:40:37.782Z</time>
      </trkpt>
      <trkpt lat="43.542590" lon="12.463052">
        <ele>801.578704</ele>
        <time>2020-02-24T21:40:47.028Z</time>
      </trkpt>
      <trkpt lat="43.542451" lon="12.463062">
        <ele>802.493646</ele>
        <time>2020-02-24T21:40:56.015Z</time>
      </trkpt>
      <trkpt lat="43.542044" lon="12.463093">
        <ele>805.173087</ele>
        <time>2020-02-24T21:41:18.059Z</time>
      </trkpt>
      <trkpt lat="43.541859" lon="12.463176">
        <ele>806.451855</ele>
        <time>2020-02-24T21:41:28.144Z</time>
      </trkpt>
      <trkpt lat="43.541107" lon="12.463995">
        <ele>812.749800</ele>
        <time>2020-02-24T21:42:11.361Z</time>
      </trkpt>
      <trkpt lat="43.540031" lon="12.465486">
        <ele>818.890886</ele>
        <time>2020-02-24T21:43:07.814Z</time>
      </trkpt>
      <trkpt lat="43.539312" lon="12.466192">
        <ele>822.891268</ele>
        <time>2020-02-24T21:43:40.885Z</time>
      </trkpt>
      <trkpt lat="43.539215" lon="12.466378">
        <ele>823.698884</ele>
        <time>2020-02-24T21:43:47.170Z</time>
      </trkpt>
      <trkpt lat="43.538885" lon="12.467607">
        <ele>828.318349</ele>
        <time>2020-02-24T21:44:28.017Z</time>
      </trkpt>
      <trkpt lat="43.538179" lon="12.468142">
        <ele>834.375185</ele>
        <time>2020-02-24T21:45:07.873Z</time>
      </trkpt>
      <trkpt lat="43.538116" lon="12.468235">
        <ele>835.111265</ele>
        <time>2020-02-24T21:45:12.352Z</time>
      </trkpt>
      <trkpt lat="43.537787" lon="12.468764">
        <ele>839.141970</ele>
        <time>2020-02-24T21:45:40.018Z</time>
      </trkpt>
      <trkpt lat="43.537300" lon="12.469463">
        <ele>844.763647</ele>
        <time>2020-02-24T21:46:23.765Z</time>
      </trkpt>
      <trkpt lat="43.536773" lon="12.469963">
        <ele>849.917508</ele>
        <time>2020-02-24T21:47:04.373Z</time>
      </trkpt>
      <trkpt lat="43.536595" lon="12.470022">
        <ele>851.392609</ele>
        <time>2020-02-24T21:47:14.206Z</time>
      </trkpt>
      <trkpt lat="43.536433" lon="12.470116">
        <ele>852.808745</ele>
        <time>2020-02-24T21:47:23.864Z</time>
      </trkpt>
      <trkpt lat="43.536054" lon="12.470341">
        <ele>856.133439</ele>
        <time>2020-02-24T21:47:44.192Z</time>
      </trkpt>
      <trkpt lat="43.535928" lon="12.470479">
        <ele>857.429818</ele>
        <time>2020-02-24T21:47:50.916Z</time>
      </trkpt>
      <trkpt lat="43.535737" lon="12.470897">
        <ele>858.149689</ele>
        <time>2020-02-24T21:48:05.788Z</time>
      </trkpt>
      <trkpt lat="43.535605" lon="12.471033">
        <ele>858.362728</ele>
        <time>2020-02-24T21:48:12.595Z</time>
      </trkpt>
      <trkpt lat="43.534911" lon="12.471232">
        <ele>859.279297</ele>
        <time>2020-02-24T21:48:33.078Z</time>
      </trkpt>
      <trkpt lat="43.534140" lon="12.471031">
        <ele>859.751373</ele>
        <time>2020-02-24T21:48:46.516Z</time>
      </trkpt>
      <trkpt lat="43.533716" lon="12.470759">
        <ele>858.945454</ele>
        <time>2020-02-24T21:48:54.189Z</time>
      </trkpt>
      <trkpt lat="43.533486" lon="12.470809">
        <ele>858.544160</ele>
        <time>2020-02-24T21:48:58.089Z</time>
      </trkpt>
      <trkpt lat="43.532819" lon="12.471382">
        <ele>857.189877</ele>
        <time>2020-02-24T21:49:12.108Z</time>
      </trkpt>
      <trkpt lat="43.532147" lon="12.472384">
        <ele>858.253893</ele>
        <time>2020-02-24T21:49:37.822Z</time>
      </trkpt>
      <trkpt lat="43.531615" lon="12.473451">
        <ele>859.669756</ele>
        <time>2020-02-24T21:50:09.799Z</time>
      </trkpt>
      <trkpt lat="43.531382" lon="12.473755">
        <ele>859.571210</ele>
        <time>2020-02-24T21:50:19.166Z</time>
      </trkpt>
      <trkpt lat="43.530877" lon="12.474010">
        <ele>859.397471</ele>
        <time>2020-02-24T21:50:31.822Z</time>
      </trkpt>
      <trkpt lat="43.530074" lon="12.474034">
        <ele>859.137985</ele>
        <time>2020-02-24T21:50:47.155Z</time>
      </trkpt>
      <trkpt lat="43.529961" lon="12.474060">
        <ele>859.100973</ele>
        <time>2020-02-24T21:50:48.946Z</time>
      </trkpt>
      <trkpt lat="43.529837" lon="12.474115">
        <ele>858.779576</ele>
        <time>2020-02-24T21:50:51.112Z</time>
      </trkpt>
      <trkpt lat="43.529601" lon="12.474302">
        <ele>857.968272</ele>
        <time>2020-02-24T21:50:55.623Z</time>
      </trkpt>
      <trkpt lat="43.529183" lon="12.474454">
        <ele>856.679699</ele>
        <time>2020-02-24T21:51:02.515Z</time>
      </trkpt>
      <trkpt lat="43.529053" lon="12.474571">
        <ele>856.216986</ele>
        <time>2020-02-24T21:51:05.106Z</time>
      </trkpt>
      <trkpt lat="43.528832" lon="12.475208">
        <ele>854.690804</ele>
        <time>2020-02-24T21:51:13.070Z</time>
      </trkpt>
      <trkpt lat="43.528051" lon="12.476072">
        <ele>853.341467</ele>
        <time>2020-02-24T21:51:30.886Z</time>
      </trkpt>
      <trkpt lat="43.527585" lon="12.476846">
        <ele>852.922813</ele>
        <time>2020-02-24T21:51:46.367Z</time>
      </trkpt>
      <trkpt lat="43.527227" lon="12.477649">
        <ele>852.988384</ele>
        <time>2020-02-24T21:52:05.340Z</time>
      </trkpt>
      <trkpt lat="43.526817" lon="12.479502">
        <ele>854.372799</ele>
        <time>2020-02-24T21:52:45.070Z</time>
      </trkpt>
      <trkpt lat="43.526823" lon="12.479647">
        <ele>854.453386</ele>
        <time>2020-02-24T21:52:49.017Z</time>
      </trkpt>
      <trkpt lat="43.526850" lon="12.479726">
        <ele>854.217623</ele>
        <time>2020-02-24T21:52:50.643Z</time>
      </trkpt>
      <trkpt lat="43.526900" lon="12.479788">
        <ele>853.967290</ele>
        <time>2020-02-24T21:52:51.627Z</time>
      </trkpt>
      <trkpt lat="43.527555" lon="12.480254">
        <ele>851.223293</ele>
        <time>2020-02-24T21:53:04.161Z</time>
      </trkpt>
      <trkpt lat="43.527795" lon="12.480364">
        <ele>850.281691</ele>
        <time>2020-02-24T21:53:08.324Z</time>
      </trkpt>
      <trkpt lat="43.528307" lon="12.480325">
        <ele>848.372532</ele>
        <time>2020-02-24T21:53:15.700Z</time>
      </trkpt>
      <trkpt lat="43.529749" lon="12.479366">
        <ele>837.651112</ele>
        <time>2020-02-24T21:53:38.465Z</time>
      </trkpt>
      <trkpt lat="43.530570" lon="12.478920">
        <ele>832.107515</ele>
        <time>2020-02-24T21:53:51.207Z</time>
      </trkpt>
      <trkpt lat="43.530970" lon="12.478517">
        <ele>829.248043</ele>
        <time>2020-02-24T21:53:58.533Z</time>
      </trkpt>
      <trkpt lat="43.531136" lon="12.478440">
        <ele>828.237042</ele>
        <time>2020-02-24T21:54:01.199Z</time>
      </trkpt>
      <trkpt lat="43.531293" lon="12.478331">
        <ele>827.222397</ele>
        <time>2020-02-24T21:54:03.822Z</time>
      </trkpt>
      <trkpt lat="43.531681" lon="12.478037">
        <ele>824.683719</ele>
        <time>2020-02-24T21:54:10.507Z</time>
      </trkpt>
      <trkpt lat="43.531890" lon="12.477950">
        <ele>823.677936</ele>
        <time>2020-02-24T21:54:13.778Z</time>
      </trkpt>
      <trkpt lat="43.532565" lon="12.478217">
        <ele>820.442777</ele>
        <time>2020-02-24T21:54:24.254Z</time>
      </trkpt>
      <trkpt lat="43.533352" lon="12.478113">
        <ele>816.800365</ele>
        <time>2020-02-24T21:54:36.706Z</time>
      </trkpt>
      <trkpt lat="43.534016" lon="12.478163">
        <ele>814.195165</ele>
        <time>2020-02-24T21:54:47.130Z</time>
      </trkpt>
      <trkpt lat="43.534390" lon="12.478472">
        <ele>812.524342</ele>
        <time>2020-02-24T21:54:54.075Z</time>
      </trkpt>
      <trkpt lat="43.534856" lon="12.478586">
        <ele>810.710505</ele>
        <time>2020-02-24T21:55:01.734Z</time>
      </trkpt>
      <trkpt lat="43.534926" lon="12.478622">
        <ele>810.424188</ele>
        <time>2020-02-24T21:55:02.867Z</time>
      </trkpt>
      <trkpt lat="43.535040" lon="12.478729">
        <ele>809.895725</ele>
        <time>2020-02-24T21:55:05.004Z</time>
      </trkpt>
      <trkpt lat="43.535170" lon="12.478888">
        <ele>809.158484</ele>
        <time>2020-02-24T21:55:07.838Z</time>
      </trkpt>
      <trkpt lat="43.535291" lon="12.479308">
        <ele>807.639595</ele>
        <time>2020-02-24T21:55:12.941Z</time>
      </trkpt>
      <trkpt lat="43.535385" lon="12.479901">
        <ele>805.599587</ele>
        <time>2020-02-24T21:55:19.603Z</time>
      </trkpt>
      <trkpt lat="43.535453" lon="12.480335">
        <ele>804.107349</ele>
        <time>2020-02-24T21:55:24.474Z</time>
      </trkpt>
      <trkpt lat="43.535431" lon="12.480640">
        <ele>803.077262</ele>
        <time>2020-02-24T21:55:27.780Z</time>
      </trkpt>
      <trkpt lat="43.535355" lon="12.480828">
        <ele>802.353848</ele>
        <time>2020-02-24T21:55:30.184Z</time>
      </trkpt>
      <trkpt lat="43.535046" lon="12.481208">
        <ele>800.847647</ele>
        <time>2020-02-24T21:55:36.488Z</time>
      </trkpt>
      <trkpt lat="43.534931" lon="12.481448">
        <ele>800.381452</ele>
        <time>2020-02-24T21:55:39.686Z</time>
      </trkpt>
      <trkpt lat="43.534608" lon="12.482609">
        <ele>798.366269</ele>
        <time>2020-02-24T21:55:54.486Z</time>
      </trkpt>
      <trkpt lat="43.534598" lon="12.482765">
        <ele>798.112484</ele>
        <time>2020-02-24T21:55:56.650Z</time>
      </trkpt>
      <trkpt lat="43.534679" lon="12.482898">
        <ele>797.830998</ele>
        <time>2020-02-24T21:55:59.476Z</time>
      </trkpt>
      <trkpt lat="43.534848" lon="12.482916">
        <ele>797.452106</ele>
        <time>2020-02-24T21:56:03.456Z</time>
      </trkpt>
      <trkpt lat="43.535537" lon="12.482797">
        <ele>798.898142</ele>
        <time>2020-02-24T21:56:25.143Z</time>
      </trkpt>
      <trkpt lat="43.535961" lon="12.482884">
        <ele>800.130209</ele>
        <time>2020-02-24T21:56:40.582Z</time>
      </trkpt>
      <trkpt lat="43.536318" lon="12.482698">
        <ele>801.227047</ele>
        <time>2020-02-24T21:56:55.238Z</time>
      </trkpt>
      <trkpt lat="43.536693" lon="12.482666">
        <ele>802.306930</ele>
        <time>2020-02-24T21:57:09.678Z</time>
      </trkpt>
      <trkpt lat="43.537280" lon="12.482268">
        <ele>803.184288</ele>
        <time>2020-02-24T21:57:32.719Z</time>
      </trkpt>
      <trkpt lat="43.537676" lon="12.482126">
        <ele>803.707310</ele>
        <time>2020-02-24T21:57:44.781Z</time>
      </trkpt>
      <trkpt lat="43.538108" lon="12.482216">
        <ele>804.265788</ele>
        <time>2020-02-24T21:57:54.288Z</time>
      </trkpt>
      <trkpt lat="43.538757" lon="12.482879">
        <ele>803.659002</ele>
        <time>2020-02-24T21:58:09.101Z</time>
      </trkpt>
      <trkpt lat="43.538884" lon="12.482940">
        <ele>803.374745</ele>
        <time>2020-02-24T21:58:11.512Z</time>
      </trkpt>
      <trkpt lat="43.539268" lon="12.482750">
        <ele>802.512419</ele>
        <time>2020-02-24T21:58:18.701Z</time>
      </trkpt>
      <trkpt lat="43.539770" lon="12.482688">
        <ele>801.447056</ele>
        <time>2020-02-24T21:58:27.395Z</time>
      </trkpt>
      <trkpt lat="43.539779" lon="12.482686">
        <ele>801.427786</ele>
        <time>2020-02-24T21:58:27.516Z</time>
      </trkpt>
      <trkpt lat="43.540067" lon="12.482764">
        <ele>800.737172</ele>
        <time>2020-02-24T21:58:32.394Z</time>
      </trkpt>
      <trkpt lat="43.540505" lon="12.483005">
        <ele>798.755683</ele>
        <time>2020-02-24T21:58:39.951Z</time>
      </trkpt>
      <trkpt lat="43.541205" lon="12.483078">
        <ele>795.805866</ele>
        <time>2020-02-24T21:58:50.901Z</time>
      </trkpt>
      <trkpt lat="43.541820" lon="12.483398">
        <ele>792.889126</ele>
        <time>2020-02-24T21:59:00.840Z</time>
      </trkpt>
      <trkpt lat="43.542080" lon="12.483814">
        <ele>790.279830</ele>
        <time>2020-02-24T21:59:06.697Z</time>
      </trkpt>
      <trkpt lat="43.542462" lon="12.484180">
        <ele>787.231902</ele>
        <time>2020-02-24T21:59:13.534Z</time>
      </trkpt>
      <trkpt lat="43.542841" lon="12.485142">
        <ele>782.030736</ele>
        <time>2020-02-24T21:59:24.740Z</time>
      </trkpt>
      <trkpt lat="43.543069" lon="12.485330">
        <ele>780.291847</ele>
        <time>2020-02-24T21:59:28.578Z</time>
      </trkpt>
      <trkpt lat="43.543430" lon="12.485456">
        <ele>777.855124</ele>
        <time>2020-02-24T21:59:33.891Z</time>
      </trkpt>
      <trkpt lat="43.543471" lon="12.485481">
        <ele>777.561793</ele>
        <time>2020-02-24T21:59:34.580Z</time>
      </trkpt>
      <trkpt lat="43.543513" lon="12.485526">
        <ele>777.213806</ele>
        <time>2020-02-24T21:59:35.259Z</time>
      </trkpt>
      <trkpt lat="43.543538" lon="12.485684">
        <ele>776.446726</ele>
        <time>2020-02-24T21:59:37.012Z</time>
      </trkpt>
      <trkpt lat="43.543385" lon="12.486481">
        <ele>772.536025</ele>
        <time>2020-02-24T21:59:45.614Z</time>
      </trkpt>
      <trkpt lat="43.543436" lon="12.487228">
        <ele>769.282631</ele>
        <time>2020-02-24T21:59:53.774Z</time>
      </trkpt>
      <trkpt lat="43.543422" lon="12.487720">
        <ele>767.854599</ele>
        <time>2020-02-24T21:59:59.267Z</time>
      </trkpt>
      <trkpt lat="43.543217" lon="12.488455">
        <ele>765.570532</ele>
        <time>2020-02-24T22:00:08.885Z</time>
      </trkpt>
      <trkpt lat="43.543238" lon="12.488596">
        <ele>765.153049</ele>
        <time>2020-02-24T22:00:10.730Z</time>
      </trkpt>
      <trkpt lat="43.543546" lon="12.488960">
        <ele>763.530326</ele>
        <time>2020-02-24T22:00:17.371Z</time>
      </trkpt>
      <trkpt lat="43.543725" lon="12.489320">
        <ele>762.104630</ele>
        <time>2020-02-24T22:00:22.152Z</time>
      </trkpt>
      <trkpt lat="43.543752" lon="12.489381">
        <ele>761.787989</ele>
        <time>2020-02-24T22:00:22.921Z</time>
      </trkpt>
      <trkpt lat="43.543798" lon="12.489495">
        <ele>761.209970</ele>
        <time>2020-02-24T22:00:24.254Z</time>
      </trkpt>
      <trkpt lat="43.543887" lon="12.489737">
        <ele>760.007772</ele>
        <time>2020-02-24T22:00:27.317Z</time>
      </trkpt>
      <trkpt lat="43.543985" lon="12.490003">
        <ele>758.685869</ele>
        <time>2020-02-24T22:00:30.423Z</time>
      </trkpt>
      <trkpt lat="43.544002" lon="12.490121">
        <ele>758.152886</ele>
        <time>2020-02-24T22:00:31.815Z</time>
      </trkpt>
      <trkpt lat="43.544027" lon="12.490237">
        <ele>757.616755</ele>
        <time>2020-02-24T22:00:33.201Z</time>
      </trkpt>
      <trkpt lat="43.544056" lon="12.490322">
        <ele>757.200565</ele>
        <time>2020-02-24T22:00:34.179Z</time>
      </trkpt>
      <trkpt lat="43.543959" lon="12.490420">
        <ele>756.465745</ele>
        <time>2020-02-24T22:00:35.860Z</time>
      </trkpt>
      <trkpt lat="43.543836" lon="12.490557">
        <ele>755.499565</ele>
        <time>2020-02-24T22:00:38.332Z</time>
      </trkpt>
      <trkpt lat="43.543702" lon="12.490710">
        <ele>754.436469</ele>
        <time>2020-02-24T22:00:40.746Z</time>
      </trkpt>
      <trkpt lat="43.543496" lon="12.491046">
        <ele>752.486871</ele>
        <time>2020-02-24T22:00:45.325Z</time>
      </trkpt>
      <trkpt lat="43.542887" lon="12.492973">
        <ele>743.427009</ele>
        <time>2020-02-24T22:01:07.040Z</time>
      </trkpt>
      <trkpt lat="43.542848" lon="12.493258">
        <ele>742.180835</ele>
        <time>2020-02-24T22:01:10.609Z</time>
      </trkpt>
      <trkpt lat="43.542968" lon="12.493986">
        <ele>739.966844</ele>
        <time>2020-02-24T22:01:19.648Z</time>
      </trkpt>
      <trkpt lat="43.542964" lon="12.494126">
        <ele>739.673388</ele>
        <time>2020-02-24T22:01:22.632Z</time>
      </trkpt>
      <trkpt lat="43.542712" lon="12.494658">
        <ele>738.342294</ele>
        <time>2020-02-24T22:01:31.086Z</time>
      </trkpt>
      <trkpt lat="43.542670" lon="12.494751">
        <ele>738.112793</ele>
        <time>2020-02-24T22:01:32.591Z</time>
      </trkpt>
      <trkpt lat="43.542636" lon="12.494849">
        <ele>737.885232</ele>
        <time>2020-02-24T22:01:34.128Z</time>
      </trkpt>
      <trkpt lat="43.542605" lon="12.495001">
        <ele>737.554506</ele>
        <time>2020-02-24T22:01:37.937Z</time>
      </trkpt>
      <trkpt lat="43.542566" lon="12.495460">
        <ele>736.586548</ele>
        <time>2020-02-24T22:01:43.155Z</time>
      </trkpt>
      <trkpt lat="43.542512" lon="12.495615">
        <ele>736.226349</ele>
        <time>2020-02-24T22:01:45.215Z</time>
      </trkpt>
      <trkpt lat="43.542314" lon="12.495784">
        <ele>735.239297</ele>
        <time>2020-02-24T22:01:48.616Z</time>
      </trkpt>
      <trkpt lat="43.541700" lon="12.496071">
        <ele>729.716083</ele>
        <time>2020-02-24T22:01:57.973Z</time>
      </trkpt>
      <trkpt lat="43.541548" lon="12.496263">
        <ele>727.960239</ele>
        <time>2020-02-24T22:02:01.092Z</time>
      </trkpt>
      <trkpt lat="43.541334" lon="12.496219">
        <ele>726.116883</ele>
        <time>2020-02-24T22:02:04.130Z</time>
      </trkpt>
      <trkpt lat="43.540769" lon="12.496460">
        <ele>721.078400</ele>
        <time>2020-02-24T22:02:12.525Z</time>
      </trkpt>
      <trkpt lat="43.540450" lon="12.496848">
        <ele>716.310909</ele>
        <time>2020-02-24T22:02:18.363Z</time>
      </trkpt>
      <trkpt lat="43.540330" lon="12.497167">
        <ele>713.226291</ele>
        <time>2020-02-24T22:02:21.964Z</time>
      </trkpt>
      <trkpt lat="43.540222" lon="12.497978">
        <ele>706.149155</ele>
        <time>2020-02-24T22:02:30.209Z</time>
      </trkpt>
      <trkpt lat="43.540235" lon="12.498135">
        <ele>704.792892</ele>
        <time>2020-02-24T22:02:31.834Z</time>
      </trkpt>
      <trkpt lat="43.540256" lon="12.498248">
        <ele>703.791669</ele>
        <time>2020-02-24T22:02:32.994Z</time>
      </trkpt>
      <trkpt lat="43.540249" lon="12.498464">
        <ele>701.935931</ele>
        <time>2020-02-24T22:02:35.262Z</time>
      </trkpt>
      <trkpt lat="43.540232" lon="12.498685">
        <ele>700.028481</ele>
        <time>2020-02-24T22:02:37.553Z</time>
      </trkpt>
      <trkpt lat="43.540204" lon="12.499039">
        <ele>697.799198</ele>
        <time>2020-02-24T22:02:41.337Z</time>
      </trkpt>
      <trkpt lat="43.540161" lon="12.499086">
        <ele>697.402731</ele>
        <time>2020-02-24T22:02:42.111Z</time>
      </trkpt>
      <trkpt lat="43.540075" lon="12.499219">
        <ele>696.469082</ele>
        <time>2020-02-24T22:02:43.937Z</time>
      </trkpt>
      <trkpt lat="43.540060" lon="12.499347">
        <ele>695.789835</ele>
        <time>2020-02-24T22:02:45.465Z</time>
      </trkpt>
      <trkpt lat="43.539486" lon="12.500748">
        <ele>687.359366</ele>
        <time>2020-02-24T22:03:04.526Z</time>
      </trkpt>
      <trkpt lat="43.538975" lon="12.501996">
        <ele>681.284505</ele>
        <time>2020-02-24T22:03:22.219Z</time>
      </trkpt>
      <trkpt lat="43.538677" lon="12.502680">
        <ele>678.063626</ele>
        <time>2020-02-24T22:03:31.987Z</time>
      </trkpt>
      <trkpt lat="43.538617" lon="12.502621">
        <ele>677.653381</ele>
        <time>2020-02-24T22:03:33.030Z</time>
      </trkpt>
      <trkpt lat="43.538484" lon="12.502627">
        <ele>676.912484</ele>
        <time>2020-02-24T22:03:34.998Z</time>
      </trkpt>
      <trkpt lat="43.538429" lon="12.502685">
        <ele>676.527035</ele>
        <time>2020-02-24T22:03:36.026Z</time>
      </trkpt>
      <trkpt lat="43.538369" lon="12.502944">
        <ele>675.466293</ele>
        <time>2020-02-24T22:03:38.921Z</time>
      </trkpt>
      <trkpt lat="43.538459" lon="12.503355">
        <ele>673.830840</ele>
        <time>2020-02-24T22:03:43.522Z</time>
      </trkpt>
      <trkpt lat="43.538712" lon="12.503844">
        <ele>671.542381</ele>
        <time>2020-02-24T22:03:49.992Z</time>
      </trkpt>
      <trkpt lat="43.538696" lon="12.503996">
        <ele>670.957313</ele>
        <time>2020-02-24T22:03:51.682Z</time>
      </trkpt>
      <trkpt lat="43.538621" lon="12.504113">
        <ele>670.362381</ele>
        <time>2020-02-24T22:03:53.405Z</time>
      </trkpt>
      <trkpt lat="43.538492" lon="12.504114">
        <ele>669.684514</ele>
        <time>2020-02-24T22:03:55.308Z</time>
      </trkpt>
      <trkpt lat="43.538381" lon="12.504009">
        <ele>668.977280</ele>
        <time>2020-02-24T22:03:57.367Z</time>
      </trkpt>
      <trkpt lat="43.538075" lon="12.503246">
        <ele>665.812240</ele>
        <time>2020-02-24T22:04:07.077Z</time>
      </trkpt>
      <trkpt lat="43.538030" lon="12.502865">
        <ele>664.577822</ele>
        <time>2020-02-24T22:04:11.413Z</time>
      </trkpt>
      <trkpt lat="43.538838" lon="12.500896">
        <ele>656.743060</ele>
        <time>2020-02-24T22:04:36.958Z</time>
      </trkpt>
      <trkpt lat="43.538922" lon="12.499790">
        <ele>651.612454</ele>
        <time>2020-02-24T22:04:48.758Z</time>
      </trkpt>
      <trkpt lat="43.539157" lon="12.499065">
        <ele>647.948421</ele>
        <time>2020-02-24T22:04:56.968Z</time>
      </trkpt>
      <trkpt lat="43.539126" lon="12.498859">
        <ele>646.863189</ele>
        <time>2020-02-24T22:04:59.124Z</time>
      </trkpt>
      <trkpt lat="43.539074" lon="12.498796">
        <ele>646.236860</ele>
        <time>2020-02-24T22:05:00.098Z</time>
      </trkpt>
      <trkpt lat="43.538950" lon="12.498776">
        <ele>645.107010</ele>
        <time>2020-02-24T22:05:01.834Z</time>
      </trkpt>
      <trkpt lat="43.538854" lon="12.498856">
        <ele>644.091987</ele>
        <time>2020-02-24T22:05:03.411Z</time>
      </trkpt>
      <trkpt lat="43.537290" lon="12.502522">
        <ele>615.179917</ele>
        <time>2020-02-24T22:05:45.745Z</time>
      </trkpt>
      <trkpt lat="43.537072" lon="12.503474">
        <ele>607.653156</ele>
        <time>2020-02-24T22:05:55.538Z</time>
      </trkpt>
      <trkpt lat="43.537004" lon="12.503598">
        <ele>606.456548</ele>
        <time>2020-02-24T22:05:57.059Z</time>
      </trkpt>
      <trkpt lat="43.536468" lon="12.504073">
        <ele>599.693126</ele>
        <time>2020-02-24T22:06:05.606Z</time>
      </trkpt>
      <trkpt lat="43.536015" lon="12.504949">
        <ele>592.037192</ele>
        <time>2020-02-24T22:06:16.147Z</time>
      </trkpt>
      <trkpt lat="43.535979" lon="12.505199">
        <ele>590.473850</ele>
        <time>2020-02-24T22:06:18.685Z</time>
      </trkpt>
      <trkpt lat="43.536032" lon="12.506019">
        <ele>585.424402</ele>
        <time>2020-02-24T22:06:27.018Z</time>
      </trkpt>
      <trkpt lat="43.535932" lon="12.506362">
        <ele>583.156843</ele>
        <time>2020-02-24T22:06:30.789Z</time>
      </trkpt>
      <trkpt lat="43.535847" lon="12.506441">
        <ele>582.289674</ele>
        <time>2020-02-24T22:06:32.236Z</time>
      </trkpt>
      <trkpt lat="43.535715" lon="12.506387">
        <ele>581.124779</ele>
        <time>2020-02-24T22:06:34.172Z</time>
      </trkpt>
      <trkpt lat="43.535624" lon="12.506230">
        <ele>579.891857</ele>
        <time>2020-02-24T22:06:36.273Z</time>
      </trkpt>
      <trkpt lat="43.535613" lon="12.506120">
        <ele>579.231175</ele>
        <time>2020-02-24T22:06:37.429Z</time>
      </trkpt>
      <trkpt lat="43.535775" lon="12.505620">
        <ele>576.952906</ele>
        <time>2020-02-24T22:06:43.232Z</time>
      </trkpt>
      <trkpt lat="43.535769" lon="12.504569">
        <ele>572.580647</ele>
        <time>2020-02-24T22:06:54.655Z</time>
      </trkpt>
      <trkpt lat="43.536027" lon="12.503751">
        <ele>568.863278</ele>
        <time>2020-02-24T22:07:04.431Z</time>
      </trkpt>
      <trkpt lat="43.536005" lon="12.503556">
        <ele>567.979103</ele>
        <time>2020-02-24T22:07:06.527Z</time>
      </trkpt>
      <trkpt lat="43.535954" lon="12.503487">
        <ele>567.537612</ele>
        <time>2020-02-24T22:07:07.580Z</time>
      </trkpt>
      <trkpt lat="43.535825" lon="12.503438">
        <ele>566.710690</ele>
        <time>2020-02-24T22:07:09.537Z</time>
      </trkpt>
      <trkpt lat="43.535714" lon="12.503501">
        <ele>565.968885</ele>
        <time>2020-02-24T22:07:11.271Z</time>
      </trkpt>
      <trkpt lat="43.535499" lon="12.504344">
        <ele>561.965051</ele>
        <time>2020-02-24T22:07:20.788Z</time>
      </trkpt>
      <trkpt lat="43.535435" lon="12.505398">
        <ele>557.207283</ele>
        <time>2020-02-24T22:07:31.891Z</time>
      </trkpt>
      <trkpt lat="43.535377" lon="12.505736">
        <ele>555.602787</ele>
        <time>2020-02-24T22:07:35.540Z</time>
      </trkpt>
      <trkpt lat="43.535177" lon="12.506472">
        <ele>551.971915</ele>
        <time>2020-02-24T22:07:43.755Z</time>
      </trkpt>
      <trkpt lat="43.534905" lon="12.506975">
        <ele>549.073142</ele>
        <time>2020-02-24T22:07:50.349Z</time>
      </trkpt>
      <trkpt lat="43.534897" lon="12.507247">
        <ele>547.815625</ele>
        <time>2020-02-24T22:07:53.249Z</time>
      </trkpt>
      <trkpt lat="43.534955" lon="12.507620">
        <ele>546.186583</ele>
        <time>2020-02-24T22:07:57.358Z</time>
      </trkpt>
      <trkpt lat="43.534889" lon="12.507966">
        <ele>545.216228</ele>
        <time>2020-02-24T22:08:01.217Z</time>
      </trkpt>
      <trkpt lat="43.534807" lon="12.508103">
        <ele>544.734383</ele>
        <time>2020-02-24T22:08:03.166Z</time>
      </trkpt>
      <trkpt lat="43.534689" lon="12.508122">
        <ele>544.289928</ele>
        <time>2020-02-24T22:08:04.935Z</time>
      </trkpt>
      <trkpt lat="43.534523" lon="12.507930">
        <ele>543.479462</ele>
        <time>2020-02-24T22:08:08.276Z</time>
      </trkpt>
      <trkpt lat="43.534485" lon="12.507554">
        <ele>542.449814</ele>
        <time>2020-02-24T22:08:12.571Z</time>
      </trkpt>
      <trkpt lat="43.534680" lon="12.507144">
        <ele>541.119868</ele>
        <time>2020-02-24T22:08:18.472Z</time>
      </trkpt>
      <trkpt lat="43.534626" lon="12.506980">
        <ele>540.631340</ele>
        <time>2020-02-24T22:08:20.962Z</time>
      </trkpt>
      <trkpt lat="43.534531" lon="12.506924">
        <ele>540.244836</ele>
        <time>2020-02-24T22:08:22.797Z</time>
      </trkpt>
      <trkpt lat="43.534427" lon="12.506971">
        <ele>539.835405</ele>
        <time>2020-02-24T22:08:25.531Z</time>
      </trkpt>
      <trkpt lat="43.534356" lon="12.507100">
        <ele>539.534275</ele>
        <time>2020-02-24T22:08:27.690Z</time>
      </trkpt>
      <trkpt lat="43.534225" lon="12.507856">
        <ele>538.587219</ele>
        <time>2020-02-24T22:08:37.846Z</time>
      </trkpt>
      <trkpt lat="43.534041" lon="12.508020">
        <ele>538.219041</ele>
        <time>2020-02-24T22:08:41.723Z</time>
      </trkpt>
      <trkpt lat="43.533976" lon="12.508023">
        <ele>538.109738</ele>
        <time>2020-02-24T22:08:42.778Z</time>
      </trkpt>
      <trkpt lat="43.533682" lon="12.507981">
        <ele>537.612987</ele>
        <time>2020-02-24T22:08:48.340Z</time>
      </trkpt>
      <trkpt lat="43.533587" lon="12.507993">
        <ele>537.452659</ele>
        <time>2020-02-24T22:08:49.993Z</time>
      </trkpt>
      <trkpt lat="43.533547" lon="12.508020">
        <ele>537.377815</ele>
        <time>2020-02-24T22:08:51.184Z</time>
      </trkpt>
      <trkpt lat="43.533508" lon="12.508069">
        <ele>537.289156</ele>
        <time>2020-02-24T22:08:52.354Z</time>
      </trkpt>
      <trkpt lat="43.533478" lon="12.508135">
        <ele>537.194242</ele>
        <time>2020-02-24T22:08:53.563Z</time>
      </trkpt>
      <trkpt lat="43.533427" lon="12.508322">
        <ele>536.950809</ele>
        <time>2020-02-24T22:08:55.835Z</time>
      </trkpt>
      <trkpt lat="43.533021" lon="12.509420">
        <ele>534.809461</ele>
        <time>2020-02-24T22:09:12.186Z</time>
      </trkpt>
      <trkpt lat="43.532873" lon="12.509695">
        <ele>534.165035</ele>
        <time>2020-02-24T22:09:16.298Z</time>
      </trkpt>
      <trkpt lat="43.532339" lon="12.510255">
        <ele>532.424039</ele>
        <time>2020-02-24T22:09:27.052Z</time>
      </trkpt>
      <trkpt lat="43.531842" lon="12.510988">
        <ele>530.055478</ele>
        <time>2020-02-24T22:09:39.136Z</time>
      </trkpt>
      <trkpt lat="43.531275" lon="12.511318">
        <ele>527.918309</ele>
        <time>2020-02-24T22:09:49.362Z</time>
      </trkpt>
      <trkpt lat="43.530905" lon="12.511726">
        <ele>526.273240</ele>
        <time>2020-02-24T22:09:57.165Z</time>
      </trkpt>
      <trkpt lat="43.530072" lon="12.514046">
        <ele>515.870083</ele>
        <time>2020-02-24T22:10:24.872Z</time>
      </trkpt>
      <trkpt lat="43.530062" lon="12.514211">
        <ele>515.186385</ele>
        <time>2020-02-24T22:10:26.540Z</time>
      </trkpt>
      <trkpt lat="43.530067" lon="12.514316">
        <ele>514.759505</ele>
        <time>2020-02-24T22:10:27.669Z</time>
      </trkpt>
      <trkpt lat="43.530107" lon="12.514622">
        <ele>513.498114</ele>
        <time>2020-02-24T22:10:30.966Z</time>
      </trkpt>
      <trkpt lat="43.530110" lon="12.514741">
        <ele>513.015065</ele>
        <time>2020-02-24T22:10:32.200Z</time>
      </trkpt>
      <trkpt lat="43.530043" lon="12.515092">
        <ele>511.542609</ele>
        <time>2020-02-24T22:10:36.081Z</time>
      </trkpt>
      <trkpt lat="43.529619" lon="12.516086">
        <ele>506.864001</ele>
        <time>2020-02-24T22:10:48.350Z</time>
      </trkpt>
      <trkpt lat="43.529398" lon="12.516352">
        <ele>505.269597</ele>
        <time>2020-02-24T22:10:52.874Z</time>
      </trkpt>
      <trkpt lat="43.527606" lon="12.517981">
        <ele>499.699218</ele>
        <time>2020-02-24T22:11:28.717Z</time>
      </trkpt>
      <trkpt lat="43.527422" lon="12.518307">
        <ele>499.528852</ele>
        <time>2020-02-24T22:11:34.222Z</time>
      </trkpt>
      <trkpt lat="43.527314" lon="12.518750">
        <ele>499.336118</ele>
        <time>2020-02-24T22:11:41.041Z</time>
      </trkpt>
      <trkpt lat="43.527159" lon="12.519134">
        <ele>499.154880</ele>
        <time>2020-02-24T22:11:48.274Z</time>
      </trkpt>
      <trkpt lat="43.526955" lon="12.519474">
        <ele>498.972889</ele>
        <time>2020-02-24T22:11:56.465Z</time>
      </trkpt>
      <trkpt lat="43.526457" lon="12.520117">
        <ele>499.971911</ele>
        <time>2020-02-24T22:12:16.593Z</time>
      </trkpt>
      <trkpt lat="43.526413" lon="12.520426">
        <ele>500.443820</ele>
        <time>2020-02-24T22:12:24.042Z</time>
      </trkpt>
      <trkpt lat="43.526497" lon="12.521513">
        <ele>502.082011</ele>
        <time>2020-02-24T22:12:50.896Z</time>
      </trkpt>
      <trkpt lat="43.526446" lon="12.521772">
        <ele>502.484204</ele>
        <time>2020-02-24T22:12:57.025Z</time>
      </trkpt>
      <trkpt lat="43.526348" lon="12.521975">
        <ele>502.429206</ele>
        <time>2020-02-24T22:13:02.418Z</time>
      </trkpt>
      <trkpt lat="43.526127" lon="12.522197">
        <ele>502.035944</ele>
        <time>2020-02-24T22:13:09.499Z</time>
      </trkpt>
      <trkpt lat="43.525331" lon="12.522529">
        <ele>500.839776</ele>
        <time>2020-02-24T22:13:25.135Z</time>
      </trkpt>
      <trkpt lat="43.525082" lon="12.522708">
        <ele>500.435883</ele>
        <time>2020-02-24T22:13:29.676Z</time>
      </trkpt>
      <trkpt lat="43.524161" lon="12.524284">
        <ele>494.968614</ele>
        <time>2020-02-24T22:13:52.104Z</time>
      </trkpt>
      <trkpt lat="43.523577" lon="12.525129">
        <ele>491.831743</ele>
        <time>2020-02-24T22:14:05.140Z</time>
      </trkpt>
      <trkpt lat="43.522785" lon="12.528639">
        <ele>488.008005</ele>
        <time>2020-02-24T22:14:54.457Z</time>
      </trkpt>
      <trkpt lat="43.522413" lon="12.529371">
        <ele>487.659379</ele>
        <time>2020-02-24T22:15:10.326Z</time>
      </trkpt>
      <trkpt lat="43.522077" lon="12.530702">
        <ele>489.080279</ele>
        <time>2020-02-24T22:15:38.233Z</time>
      </trkpt>
      <trkpt lat="43.521843" lon="12.531100">
        <ele>489.642414</ele>
        <time>2020-02-24T22:15:49.184Z</time>
      </trkpt>
      <trkpt lat="43.521772" lon="12.531320">
        <ele>489.906598</ele>
        <time>2020-02-24T22:15:54.597Z</time>
      </trkpt>
      <trkpt lat="43.521760" lon="12.531592">
        <ele>490.205557</ele>
        <time>2020-02-24T22:16:00.773Z</time>
      </trkpt>
      <trkpt lat="43.521927" lon="12.532215">
        <ele>491.158161</ele>
        <time>2020-02-24T22:16:15.522Z</time>
      </trkpt>
      <trkpt lat="43.521904" lon="12.532400">
        <ele>491.442712</ele>
        <time>2020-02-24T22:16:19.679Z</time>
      </trkpt>
      <trkpt lat="43.521846" lon="12.532527">
        <ele>491.670248</ele>
        <time>2020-02-24T22:16:22.925Z</time>
      </trkpt>
      <trkpt lat="43.521507" lon="12.532602">
        <ele>492.388059</ele>
        <time>2020-02-24T22:16:33.119Z</time>
      </trkpt>
      <trkpt lat="43.521338" lon="12.532754">
        <ele>492.809890</ele>
        <time>2020-02-24T22:16:39.145Z</time>
      </trkpt>
      <trkpt lat="43.520825" lon="12.534242">
        <ele>495.353540</ele>
        <time>2020-02-24T22:17:16.588Z</time>
      </trkpt>
      <trkpt lat="43.520847" lon="12.535172">
        <ele>496.818093</ele>
        <time>2020-02-24T22:17:37.918Z</time>
      </trkpt>
      <trkpt lat="43.520852" lon="12.535431">
        <ele>497.225891</ele>
        <time>2020-02-24T22:17:44.111Z</time>
      </trkpt>
      <trkpt lat="43.520841" lon="12.535722">
        <ele>497.684533</ele>
        <time>2020-02-24T22:17:50.312Z</time>
      </trkpt>
      <trkpt lat="43.520702" lon="12.536389">
        <ele>498.567224</ele>
        <time>2020-02-24T22:18:05.446Z</time>
      </trkpt>
      <trkpt lat="43.520681" lon="12.536485">
        <ele>498.681770</ele>
        <time>2020-02-24T22:18:07.099Z</time>
      </trkpt>
      <trkpt lat="43.520688" lon="12.536536">
        <ele>498.741063</ele>
        <time>2020-02-24T22:18:07.745Z</time>
      </trkpt>
      <trkpt lat="43.520749" lon="12.536616">
        <ele>498.873677</ele>
        <time>2020-02-24T22:18:11.241Z</time>
      </trkpt>
      <trkpt lat="43.521036" lon="12.536748">
        <ele>499.350289</ele>
        <time>2020-02-24T22:18:19.659Z</time>
      </trkpt>
      <trkpt lat="43.521198" lon="12.536901">
        <ele>499.659608</ele>
        <time>2020-02-24T22:18:26.448Z</time>
      </trkpt>
      <trkpt lat="43.521242" lon="12.537015">
        <ele>499.807133</ele>
        <time>2020-02-24T22:18:28.813Z</time>
      </trkpt>
      <trkpt lat="43.521253" lon="12.537311">
        <ele>500.145706</ele>
        <time>2020-02-24T22:18:35.016Z</time>
      </trkpt>
      <trkpt lat="43.521069" lon="12.538008">
        <ele>500.743850</ele>
        <time>2020-02-24T22:18:48.592Z</time>
      </trkpt>
      <trkpt lat="43.520714" lon="12.538604">
        <ele>500.132482</ele>
        <time>2020-02-24T22:19:02.624Z</time>
      </trkpt>
      <trkpt lat="43.520585" lon="12.538961">
        <ele>499.816316</ele>
        <time>2020-02-24T22:19:08.439Z</time>
      </trkpt>
      <trkpt lat="43.520556" lon="12.539948">
        <ele>499.033324</ele>
        <time>2020-02-24T22:19:21.325Z</time>
      </trkpt>
      <trkpt lat="43.520453" lon="12.540239">
        <ele>498.199790</ele>
        <time>2020-02-24T22:19:25.144Z</time>
      </trkpt>
      <trkpt lat="43.520252" lon="12.540333">
        <ele>496.670106</ele>
        <time>2020-02-24T22:19:28.468Z</time>
      </trkpt>
      <trkpt lat="43.520144" lon="12.540304">
        <ele>495.877108</ele>
        <time>2020-02-24T22:19:30.136Z</time>
      </trkpt>
      <trkpt lat="43.520030" lon="12.540274">
        <ele>495.040658</ele>
        <time>2020-02-24T22:19:31.878Z</time>
      </trkpt>
      <trkpt lat="43.519854" lon="12.539990">
        <ele>493.088224</ele>
        <time>2020-02-24T22:19:35.743Z</time>
      </trkpt>
      <trkpt lat="43.519671" lon="12.539457">
        <ele>490.006178</ele>
        <time>2020-02-24T22:19:41.628Z</time>
      </trkpt>
      <trkpt lat="43.519484" lon="12.539311">
        <ele>488.457420</ele>
        <time>2020-02-24T22:19:44.662Z</time>
      </trkpt>
      <trkpt lat="43.518982" lon="12.539388">
        <ele>484.572269</ele>
        <time>2020-02-24T22:19:51.497Z</time>
      </trkpt>
      <trkpt lat="43.518854" lon="12.539621">
        <ele>482.704389</ele>
        <time>2020-02-24T22:19:54.485Z</time>
      </trkpt>
      <trkpt lat="43.518812" lon="12.539867">
        <ele>481.089465</ele>
        <time>2020-02-24T22:19:56.935Z</time>
      </trkpt>
      <trkpt lat="43.518752" lon="12.540249">
        <ele>478.591875</ele>
        <time>2020-02-24T22:20:00.865Z</time>
      </trkpt>
      <trkpt lat="43.518481" lon="12.541070">
        <ele>472.827712</ele>
        <time>2020-02-24T22:20:09.843Z</time>
      </trkpt>
      <trkpt lat="43.517862" lon="12.542269">
        <ele>466.459232</ele>
        <time>2020-02-24T22:20:25.342Z</time>
      </trkpt>
      <trkpt lat="43.517749" lon="12.542456">
        <ele>465.614654</ele>
        <time>2020-02-24T22:20:27.935Z</time>
      </trkpt>
      <trkpt lat="43.517643" lon="12.542633">
        <ele>464.818164</ele>
        <time>2020-02-24T22:20:30.983Z</time>
      </trkpt>
      <trkpt lat="43.517565" lon="12.542796">
        <ele>464.140562</ele>
        <time>2020-02-24T22:20:33.117Z</time>
      </trkpt>
      <trkpt lat="43.517540" lon="12.543162">
        <ele>462.865028</ele>
        <time>2020-02-24T22:20:37.643Z</time>
      </trkpt>
      <trkpt lat="43.517946" lon="12.544433">
        <ele>459.599825</ele>
        <time>2020-02-24T22:20:54.535Z</time>
      </trkpt>
      <trkpt lat="43.517939" lon="12.544726">
        <ele>459.045459</ele>
        <time>2020-02-24T22:20:58.606Z</time>
      </trkpt>
      <trkpt lat="43.517820" lon="12.544884">
        <ele>458.614685</ele>
        <time>2020-02-24T22:21:01.713Z</time>
      </trkpt>
      <trkpt lat="43.517726" lon="12.544911">
        <ele>458.364299</ele>
        <time>2020-02-24T22:21:03.371Z</time>
      </trkpt>
      <trkpt lat="43.516940" lon="12.544911">
        <ele>455.944974</ele>
        <time>2020-02-24T22:21:16.353Z</time>
      </trkpt>
      <trkpt lat="43.516760" lon="12.545011">
        <ele>455.028604</ele>
        <time>2020-02-24T22:21:19.455Z</time>
      </trkpt>
      <trkpt lat="43.515951" lon="12.546693">
        <ele>448.037066</ele>
        <time>2020-02-24T22:21:41.563Z</time>
      </trkpt>
      <trkpt lat="43.515717" lon="12.546854">
        <ele>446.185002</ele>
        <time>2020-02-24T22:21:45.340Z</time>
      </trkpt>
      <trkpt lat="43.515593" lon="12.546844">
        <ele>445.305311</ele>
        <time>2020-02-24T22:21:47.186Z</time>
      </trkpt>
      <trkpt lat="43.515481" lon="12.546772">
        <ele>444.430145</ele>
        <time>2020-02-24T22:21:49.072Z</time>
      </trkpt>
      <trkpt lat="43.515392" lon="12.546641">
        <ele>443.508211</ele>
        <time>2020-02-24T22:21:50.845Z</time>
      </trkpt>
      <trkpt lat="43.515197" lon="12.545855">
        <ele>439.241675</ele>
        <time>2020-02-24T22:21:59.574Z</time>
      </trkpt>
      <trkpt lat="43.515104" lon="12.545763">
        <ele>438.431074</ele>
        <time>2020-02-24T22:22:01.114Z</time>
      </trkpt>
      <trkpt lat="43.514996" lon="12.545763">
        <ele>437.666198</ele>
        <time>2020-02-24T22:22:02.706Z</time>
      </trkpt>
      <trkpt lat="43.514861" lon="12.545953">
        <ele>436.300048</ele>
        <time>2020-02-24T22:22:05.417Z</time>
      </trkpt>
      <trkpt lat="43.514672" lon="12.546614">
        <ele>431.652326</ele>
        <time>2020-02-24T22:22:12.572Z</time>
      </trkpt>
      <trkpt lat="43.513202" lon="12.547737">
        <ele>416.012126</ele>
        <time>2020-02-24T22:22:35.404Z</time>
      </trkpt>
      <trkpt lat="43.513019" lon="12.548025">
        <ele>413.726458</ele>
        <time>2020-02-24T22:22:39.379Z</time>
      </trkpt>
      <trkpt lat="43.513002" lon="12.548144">
        <ele>413.002468</ele>
        <time>2020-02-24T22:22:40.516Z</time>
      </trkpt>
      <trkpt lat="43.513001" lon="12.548264">
        <ele>412.286111</ele>
        <time>2020-02-24T22:22:41.754Z</time>
      </trkpt>
      <trkpt lat="43.513040" lon="12.549137">
        <ele>407.065086</ele>
        <time>2020-02-24T22:22:50.654Z</time>
      </trkpt>
      <trkpt lat="43.513256" lon="12.549703">
        <ele>403.410045</ele>
        <time>2020-02-24T22:22:57.299Z</time>
      </trkpt>
      <trkpt lat="43.513661" lon="12.550534">
        <ele>400.257654</ele>
        <time>2020-02-24T22:23:08.234Z</time>
      </trkpt>
      <trkpt lat="43.513731" lon="12.550674">
        <ele>399.722245</ele>
        <time>2020-02-24T22:23:10.358Z</time>
      </trkpt>
      <trkpt lat="43.513802" lon="12.550820">
        <ele>399.168773</ele>
        <time>2020-02-24T22:23:12.357Z</time>
      </trkpt>
      <trkpt lat="43.513920" lon="12.551102">
        <ele>398.143687</ele>
        <time>2020-02-24T22:23:16.258Z</time>
      </trkpt>
      <trkpt lat="43.513952" lon="12.551267">
        <ele>397.605923</ele>
        <time>2020-02-24T22:23:18.213Z</time>
      </trkpt>
      <trkpt lat="43.513959" lon="12.551399">
        <ele>397.189207</ele>
        <time>2020-02-24T22:23:19.726Z</time>
      </trkpt>
      <trkpt lat="43.513941" lon="12.551547">
        <ele>396.716716</ele>
        <time>2020-02-24T22:23:21.668Z</time>
      </trkpt>
      <trkpt lat="43.513893" lon="12.551703">
        <ele>396.183164</ele>
        <time>2020-02-24T22:23:23.579Z</time>
      </trkpt>
      <trkpt lat="43.513913" lon="12.551741">
        <ele>396.035331</ele>
        <time>2020-02-24T22:23:24.179Z</time>
      </trkpt>
      <trkpt lat="43.513954" lon="12.551794">
        <ele>395.791340</ele>
        <time>2020-02-24T22:23:25.114Z</time>
      </trkpt>
      <trkpt lat="43.514007" lon="12.551831">
        <ele>395.649503</ele>
        <time>2020-02-24T22:23:26.144Z</time>
      </trkpt>
      <trkpt lat="43.514095" lon="12.551932">
        <ele>395.383785</ele>
        <time>2020-02-24T22:23:28.246Z</time>
      </trkpt>
      <trkpt lat="43.514205" lon="12.552210">
        <ele>394.850783</ele>
        <time>2020-02-24T22:23:32.095Z</time>
      </trkpt>
      <trkpt lat="43.514617" lon="12.553397">
        <ele>392.635978</ele>
        <time>2020-02-24T22:23:48.889Z</time>
      </trkpt>
      <trkpt lat="43.514820" lon="12.554590">
        <ele>392.235267</ele>
        <time>2020-02-24T22:24:07.365Z</time>
      </trkpt>
      <trkpt lat="43.514818" lon="12.554657">
        <ele>392.303612</ele>
        <time>2020-02-24T22:24:08.459Z</time>
      </trkpt>
      <trkpt lat="43.514817" lon="12.554694">
        <ele>392.341349</ele>
        <time>2020-02-24T22:24:09.019Z</time>
      </trkpt>
      <trkpt lat="43.514775" lon="12.554677">
        <ele>392.402868</ele>
        <time>2020-02-24T22:24:09.915Z</time>
      </trkpt>
      <trkpt lat="43.514546" lon="12.554645">
        <ele>392.726360</ele>
        <time>2020-02-24T22:24:15.069Z</time>
      </trkpt>
      <trkpt lat="43.514391" lon="12.554600">
        <ele>392.948977</ele>
        <time>2020-02-24T22:24:18.709Z</time>
      </trkpt>
      <trkpt lat="43.514222" lon="12.554509">
        <ele>393.203962</ele>
        <time>2020-02-24T22:24:23.794Z</time>
      </trkpt>
      <trkpt lat="43.513116" lon="12.553490">
        <ele>398.119518</ele>
        <time>2020-02-24T22:25:14.706Z</time>
      </trkpt>
      <trkpt lat="43.513022" lon="12.553403">
        <ele>398.795871</ele>
        <time>2020-02-24T22:25:20.858Z</time>
      </trkpt>
      <trkpt lat="43.512972" lon="12.553501">
        <ele>399.315017</ele>
        <time>2020-02-24T22:25:25.072Z</time>
      </trkpt>
      <trkpt lat="43.512794" lon="12.553867">
        <ele>401.224320</ele>
        <time>2020-02-24T22:25:40.933Z</time>
      </trkpt>
      <trkpt lat="43.512727" lon="12.553966">
        <ele>401.811008</ele>
        <time>2020-02-24T22:25:46.163Z</time>
      </trkpt>
      <trkpt lat="43.512648" lon="12.553994">
        <ele>402.298315</ele>
        <time>2020-02-24T22:25:49.762Z</time>
      </trkpt>
      <trkpt lat="43.512577" lon="12.553966">
        <ele>402.739493</ele>
        <time>2020-02-24T22:25:53.800Z</time>
      </trkpt>
      <trkpt lat="43.512405" lon="12.553558">
        <ele>404.784184</ele>
        <time>2020-02-24T22:26:11.024Z</time>
      </trkpt>
      <trkpt lat="43.512335" lon="12.553415">
        <ele>405.396654</ele>
        <time>2020-02-24T22:26:18.057Z</time>
      </trkpt>
      <trkpt lat="43.512283" lon="12.553323">
        <ele>405.796998</ele>
        <time>2020-02-24T22:26:22.819Z</time>
      </trkpt>
      <trkpt lat="43.512230" lon="12.553282">
        <ele>406.084609</ele>
        <time>2020-02-24T22:26:25.530Z</time>
      </trkpt>
      <trkpt lat="43.512141" lon="12.553248">
        <ele>406.521685</ele>
        <time>2020-02-24T22:26:30.352Z</time>
      </trkpt>
      <trkpt lat="43.512105" lon="12.553259">
        <ele>406.696195</ele>
        <time>2020-02-24T22:26:33.139Z</time>
      </trkpt>
      <trkpt lat="43.512040" lon="12.553307">
        <ele>407.045158</ele>
        <time>2020-02-24T22:26:36.839Z</time>
      </trkpt>
      <trkpt lat="43.512005" lon="12.553375">
        <ele>407.331360</ele>
        <time>2020-02-24T22:26:40.745Z</time>
      </trkpt>
      <trkpt lat="43.512005" lon="12.553375">
        <ele>407.331360</ele>
        <time>2020-02-24T22:26:40.754Z</time>
      </trkpt>
      <trkpt lat="43.512005" lon="12.553375">
        <ele>407.331360</ele>
        <time>2020-02-24T22:26:40.841Z</time>
      </trkpt>
      <trkpt lat="43.512097" lon="12.553595">
        <ele>408.203002</ele>
        <time>2020-02-24T22:26:48.907Z</time>
      </trkpt>
      <trkpt lat="43.512177" lon="12.553819">
        <ele>409.060003</ele>
        <time>2020-02-24T22:26:58.280Z</time>
      </trkpt>
      <trkpt lat="43.512375" lon="12.554304">
        <ele>410.970285</ele>
        <time>2020-02-24T22:27:13.874Z</time>
      </trkpt>
      <trkpt lat="43.512391" lon="12.554729">
        <ele>412.430963</ele>
        <time>2020-02-24T22:27:24.456Z</time>
      </trkpt>
      <trkpt lat="43.512324" lon="12.555213">
        <ele>413.064377</ele>
        <time>2020-02-24T22:27:34.001Z</time>
      </trkpt>
      <trkpt lat="43.512232" lon="12.555820">
        <ele>412.099445</ele>
        <time>2020-02-24T22:27:42.269Z</time>
      </trkpt>
      <trkpt lat="43.512213" lon="12.556521">
        <ele>411.007888</ele>
        <time>2020-02-24T22:27:50.824Z</time>
      </trkpt>
      <trkpt lat="43.512377" lon="12.557194">
        <ele>409.903125</ele>
        <time>2020-02-24T22:27:58.945Z</time>
      </trkpt>
      <trkpt lat="43.512526" lon="12.557755">
        <ele>409.273050</ele>
        <time>2020-02-24T22:28:05.556Z</time>
      </trkpt>
      <trkpt lat="43.512614" lon="12.558199">
        <ele>408.938825</ele>
        <time>2020-02-24T22:28:11.146Z</time>
      </trkpt>
      <trkpt lat="43.512613" lon="12.558417">
        <ele>408.780526</ele>
        <time>2020-02-24T22:28:14.043Z</time>
      </trkpt>
      <trkpt lat="43.512584" lon="12.558571">
        <ele>408.664994</ele>
        <time>2020-02-24T22:28:16.119Z</time>
      </trkpt>
      <trkpt lat="43.512542" lon="12.558730">
        <ele>408.542119</ele>
        <time>2020-02-24T22:28:19.022Z</time>
      </trkpt>
      <trkpt lat="43.512274" lon="12.559507">
        <ele>407.917355</ele>
        <time>2020-02-24T22:28:34.146Z</time>
      </trkpt>
      <trkpt lat="43.511891" lon="12.560604">
        <ele>408.038821</ele>
        <time>2020-02-24T22:29:01.429Z</time>
      </trkpt>
      <trkpt lat="43.511830" lon="12.561085">
        <ele>408.192873</ele>
        <time>2020-02-24T22:29:12.532Z</time>
      </trkpt>
      <trkpt lat="43.511976" lon="12.561662">
        <ele>408.385671</ele>
        <time>2020-02-24T22:29:22.687Z</time>
      </trkpt>
      <trkpt lat="43.512207" lon="12.562098">
        <ele>408.031780</ele>
        <time>2020-02-24T22:29:29.488Z</time>
      </trkpt>
      <trkpt lat="43.512453" lon="12.562435">
        <ele>406.171212</ele>
        <time>2020-02-24T22:29:34.865Z</time>
      </trkpt>
      <trkpt lat="43.512914" lon="12.562735">
        <ele>403.436113</ele>
        <time>2020-02-24T22:29:42.481Z</time>
      </trkpt>
      <trkpt lat="43.513014" lon="12.562826">
        <ele>402.793258</ele>
        <time>2020-02-24T22:29:44.082Z</time>
      </trkpt>
      <trkpt lat="43.513073" lon="12.562923">
        <ele>402.300641</ele>
        <time>2020-02-24T22:29:45.557Z</time>
      </trkpt>
      <trkpt lat="43.513115" lon="12.563030">
        <ele>401.827218</ele>
        <time>2020-02-24T22:29:46.928Z</time>
      </trkpt>
      <trkpt lat="43.513155" lon="12.563231">
        <ele>401.016191</ele>
        <time>2020-02-24T22:29:48.993Z</time>
      </trkpt>
      <trkpt lat="43.513244" lon="12.563749">
        <ele>398.944800</ele>
        <time>2020-02-24T22:29:54.469Z</time>
      </trkpt>
      <trkpt lat="43.513348" lon="12.563961">
        <ele>398.098371</ele>
        <time>2020-02-24T22:29:57.301Z</time>
      </trkpt>
      <trkpt lat="43.514309" lon="12.565417">
        <ele>391.686314</ele>
        <time>2020-02-24T22:30:18.854Z</time>
      </trkpt>
      <trkpt lat="43.514407" lon="12.565603">
        <ele>390.937526</ele>
        <time>2020-02-24T22:30:22.064Z</time>
      </trkpt>
      <trkpt lat="43.514443" lon="12.565787">
        <ele>390.962525</ele>
        <time>2020-02-24T22:30:25.207Z</time>
      </trkpt>
      <trkpt lat="43.514445" lon="12.565882">
        <ele>391.076836</ele>
        <time>2020-02-24T22:30:26.281Z</time>
      </trkpt>
      <trkpt lat="43.514432" lon="12.565994">
        <ele>391.213261</ele>
        <time>2020-02-24T22:30:28.120Z</time>
      </trkpt>
      <trkpt lat="43.514096" lon="12.566112">
        <ele>391.788316</ele>
        <time>2020-02-24T22:30:36.413Z</time>
      </trkpt>
      <trkpt lat="43.513390" lon="12.566455">
        <ele>393.029791</ele>
        <time>2020-02-24T22:31:00.036Z</time>
      </trkpt>
      <trkpt lat="43.513279" lon="12.566703">
        <ele>393.380319</ele>
        <time>2020-02-24T22:31:08.354Z</time>
      </trkpt>
      <trkpt lat="43.513312" lon="12.567403">
        <ele>394.926879</ele>
        <time>2020-02-24T22:31:28.963Z</time>
      </trkpt>
      <trkpt lat="43.513011" lon="12.567989">
        <ele>397.131955</ele>
        <time>2020-02-24T22:31:49.356Z</time>
      </trkpt>
      <trkpt lat="43.512816" lon="12.568225">
        <ele>398.230554</ele>
        <time>2020-02-24T22:31:59.673Z</time>
      </trkpt>
      <trkpt lat="43.512510" lon="12.568352">
        <ele>399.583645</ele>
        <time>2020-02-24T22:32:12.577Z</time>
      </trkpt>
      <trkpt lat="43.512279" lon="12.568797">
        <ele>401.264118</ele>
        <time>2020-02-24T22:32:28.531Z</time>
      </trkpt>
      <trkpt lat="43.512019" lon="12.568825">
        <ele>402.632448</ele>
        <time>2020-02-24T22:32:38.233Z</time>
      </trkpt>
      <trkpt lat="43.512043" lon="12.569014">
        <ele>403.380264</ele>
        <time>2020-02-24T22:32:43.429Z</time>
      </trkpt>
      <trkpt lat="43.512136" lon="12.569098">
        <ele>403.977728</ele>
        <time>2020-02-24T22:32:47.289Z</time>
      </trkpt>
      <trkpt lat="43.512249" lon="12.569091">
        <ele>404.585605</ele>
        <time>2020-02-24T22:32:50.948Z</time>
      </trkpt>
      <trkpt lat="43.512781" lon="12.568698">
        <ele>407.829026</ele>
        <time>2020-02-24T22:33:17.220Z</time>
      </trkpt>
      <trkpt lat="43.513132" lon="12.568632">
        <ele>409.732766</ele>
        <time>2020-02-24T22:33:33.676Z</time>
      </trkpt>
      <trkpt lat="43.513515" lon="12.568232">
        <ele>413.360278</ele>
        <time>2020-02-24T22:33:57.036Z</time>
      </trkpt>
      <trkpt lat="43.513587" lon="12.568222">
        <ele>414.071485</ele>
        <time>2020-02-24T22:34:00.442Z</time>
      </trkpt>
      <trkpt lat="43.513597" lon="12.568254">
        <ele>414.319839</ele>
        <time>2020-02-24T22:34:01.766Z</time>
      </trkpt>
      <trkpt lat="43.513591" lon="12.568290">
        <ele>414.583117</ele>
        <time>2020-02-24T22:34:04.829Z</time>
      </trkpt>
      <trkpt lat="43.512777" lon="12.569307">
        <ele>425.378735</ele>
        <time>2020-02-24T22:35:13.561Z</time>
      </trkpt>
      <trkpt lat="43.512402" lon="12.570152">
        <ele>432.685404</ele>
        <time>2020-02-24T22:36:04.859Z</time>
      </trkpt>
      <trkpt lat="43.512189" lon="12.570820">
        <ele>438.231043</ele>
        <time>2020-02-24T22:36:41.613Z</time>
      </trkpt>
      <trkpt lat="43.511538" lon="12.571926">
        <ele>448.871105</ele>
        <time>2020-02-24T22:37:43.358Z</time>
      </trkpt>
      <trkpt lat="43.511385" lon="12.571976">
        <ele>450.312192</ele>
        <time>2020-02-24T22:37:50.857Z</time>
      </trkpt>
      <trkpt lat="43.511269" lon="12.571774">
        <ele>452.024786</ele>
        <time>2020-02-24T22:38:02.666Z</time>
      </trkpt>
      <trkpt lat="43.511035" lon="12.570463">
        <ele>460.998784</ele>
        <time>2020-02-24T22:38:56.460Z</time>
      </trkpt>
      <trkpt lat="43.510931" lon="12.570503">
        <ele>461.988329</ele>
        <time>2020-02-24T22:39:05.197Z</time>
      </trkpt>
      <trkpt lat="43.510881" lon="12.570737">
        <ele>463.609791</ele>
        <time>2020-02-24T22:39:14.711Z</time>
      </trkpt>
      <trkpt lat="43.510887" lon="12.570805">
        <ele>464.065741</ele>
        <time>2020-02-24T22:39:15.783Z</time>
      </trkpt>
      <trkpt lat="43.510915" lon="12.570900">
        <ele>464.989984</ele>
        <time>2020-02-24T22:39:24.194Z</time>
      </trkpt>
      <trkpt lat="43.510941" lon="12.571169">
        <ele>467.435917</ele>
        <time>2020-02-24T22:39:35.479Z</time>
      </trkpt>
      <trkpt lat="43.510752" lon="12.573006">
        <ele>484.158598</ele>
        <time>2020-02-24T22:41:16.116Z</time>
      </trkpt>
      <trkpt lat="43.510768" lon="12.573315">
        <ele>486.919619</ele>
        <time>2020-02-24T22:41:33.428Z</time>
      </trkpt>
      <trkpt lat="43.510843" lon="12.573490">
        <ele>488.645160</ele>
        <time>2020-02-24T22:41:44.596Z</time>
      </trkpt>
      <trkpt lat="43.511089" lon="12.573619">
        <ele>491.725742</ele>
        <time>2020-02-24T22:42:04.501Z</time>
      </trkpt>
      <trkpt lat="43.511274" lon="12.573631">
        <ele>493.893525</ele>
        <time>2020-02-24T22:42:17.596Z</time>
      </trkpt>
      <trkpt lat="43.511537" lon="12.573494">
        <ele>497.184238</ele>
        <time>2020-02-24T22:42:37.711Z</time>
      </trkpt>
      <trkpt lat="43.512074" lon="12.573057">
        <ele>504.482737</ele>
        <time>2020-02-24T22:43:19.548Z</time>
      </trkpt>
      <trkpt lat="43.512279" lon="12.572972">
        <ele>506.988358</ele>
        <time>2020-02-24T22:43:32.798Z</time>
      </trkpt>
      <trkpt lat="43.512312" lon="12.573057">
        <ele>507.710738</ele>
        <time>2020-02-24T22:43:37.643Z</time>
      </trkpt>
      <trkpt lat="43.512065" lon="12.573208">
        <ele>509.974490</ele>
        <time>2020-02-24T22:43:53.498Z</time>
      </trkpt>
      <trkpt lat="43.511818" lon="12.573505">
        <ele>512.720312</ele>
        <time>2020-02-24T22:44:12.991Z</time>
      </trkpt>
      <trkpt lat="43.511687" lon="12.573745">
        <ele>514.545515</ele>
        <time>2020-02-24T22:44:25.763Z</time>
      </trkpt>
      <trkpt lat="43.511497" lon="12.574302">
        <ele>518.285722</ele>
        <time>2020-02-24T22:44:49.794Z</time>
      </trkpt>
      <trkpt lat="43.511358" lon="12.574448">
        <ele>519.749735</ele>
        <time>2020-02-24T22:44:59.394Z</time>
      </trkpt>
      <trkpt lat="43.511164" lon="12.574500">
        <ele>521.405580</ele>
        <time>2020-02-24T22:45:08.875Z</time>
      </trkpt>
      <trkpt lat="43.510792" lon="12.574485">
        <ele>524.260676</ele>
        <time>2020-02-24T22:45:27.038Z</time>
      </trkpt>
      <trkpt lat="43.510426" lon="12.574388">
        <ele>526.969564</ele>
        <time>2020-02-24T22:45:44.703Z</time>
      </trkpt>
      <trkpt lat="43.510144" lon="12.574181">
        <ele>529.291576</ele>
        <time>2020-02-24T22:45:59.521Z</time>
      </trkpt>
      <trkpt lat="43.510041" lon="12.574231">
        <ele>530.085251</ele>
        <time>2020-02-24T22:46:05.028Z</time>
      </trkpt>
      <trkpt lat="43.509650" lon="12.574854">
        <ele>534.428232</ele>
        <time>2020-02-24T22:46:37.571Z</time>
      </trkpt>
      <trkpt lat="43.509658" lon="12.574931">
        <ele>534.838272</ele>
        <time>2020-02-24T22:46:40.310Z</time>
      </trkpt>
      <trkpt lat="43.509772" lon="12.574881">
        <ele>535.726753</ele>
        <time>2020-02-24T22:46:49.842Z</time>
      </trkpt>
      <trkpt lat="43.509989" lon="12.574603">
        <ele>538.305315</ele>
        <time>2020-02-24T22:47:02.665Z</time>
      </trkpt>
      <trkpt lat="43.510069" lon="12.574574">
        <ele>539.025396</ele>
        <time>2020-02-24T22:47:10.176Z</time>
      </trkpt>
      <trkpt lat="43.510154" lon="12.574619">
        <ele>539.818006</ele>
        <time>2020-02-24T22:47:13.762Z</time>
      </trkpt>
      <trkpt lat="43.510359" lon="12.574923">
        <ele>542.438758</ele>
        <time>2020-02-24T22:47:31.551Z</time>
      </trkpt>
      <trkpt lat="43.510601" lon="12.575082">
        <ele>544.772359</ele>
        <time>2020-02-24T22:47:43.290Z</time>
      </trkpt>
      <trkpt lat="43.510604" lon="12.575098">
        <ele>544.876695</ele>
        <time>2020-02-24T22:47:45.082Z</time>
      </trkpt>
      <trkpt lat="43.510597" lon="12.575117">
        <ele>545.011240</ele>
        <time>2020-02-24T22:47:45.309Z</time>
      </trkpt>
      <trkpt lat="43.510502" lon="12.575160">
        <ele>545.881653</ele>
        <time>2020-02-24T22:47:49.049Z</time>
      </trkpt>
      <trkpt lat="43.509974" lon="12.575154">
        <ele>550.478152</ele>
        <time>2020-02-24T22:48:18.859Z</time>
      </trkpt>
      <trkpt lat="43.509932" lon="12.575268">
        <ele>551.286096</ele>
        <time>2020-02-24T22:48:26.960Z</time>
      </trkpt>
      <trkpt lat="43.510064" lon="12.575398">
        <ele>552.756383</ele>
        <time>2020-02-24T22:48:36.651Z</time>
      </trkpt>
      <trkpt lat="43.510120" lon="12.575426">
        <ele>553.296303</ele>
        <time>2020-02-24T22:48:40.186Z</time>
      </trkpt>
      <trkpt lat="43.510268" lon="12.575425">
        <ele>554.637775</ele>
        <time>2020-02-24T22:48:50.912Z</time>
      </trkpt>
      <trkpt lat="43.510375" lon="12.575443">
        <ele>555.614802</ele>
        <time>2020-02-24T22:48:55.520Z</time>
      </trkpt>
      <trkpt lat="43.510369" lon="12.575541">
        <ele>556.261305</ele>
        <time>2020-02-24T22:49:02.152Z</time>
      </trkpt>
      <trkpt lat="43.509894" lon="12.575949">
        <ele>561.333711</ele>
        <time>2020-02-24T22:49:34.057Z</time>
      </trkpt>
      <trkpt lat="43.509880" lon="12.576007">
        <ele>561.735544</ele>
        <time>2020-02-24T22:49:35.615Z</time>
      </trkpt>
      <trkpt lat="43.509885" lon="12.576063">
        <ele>562.106447</ele>
        <time>2020-02-24T22:49:37.583Z</time>
      </trkpt>
      <trkpt lat="43.509923" lon="12.576118">
        <ele>562.605795</ele>
        <time>2020-02-24T22:49:43.630Z</time>
      </trkpt>
      <trkpt lat="43.510077" lon="12.576149">
        <ele>564.016431</ele>
        <time>2020-02-24T22:49:51.171Z</time>
      </trkpt>
      <trkpt lat="43.510708" lon="12.575969">
        <ele>568.584309</ele>
        <time>2020-02-24T22:50:27.098Z</time>
      </trkpt>
      <trkpt lat="43.511448" lon="12.575877">
        <ele>571.568073</ele>
        <time>2020-02-24T22:51:03.469Z</time>
      </trkpt>
      <trkpt lat="43.511491" lon="12.575919">
        <ele>571.779689</ele>
        <time>2020-02-24T22:51:04.359Z</time>
      </trkpt>
      <trkpt lat="43.511469" lon="12.575991">
        <ele>572.007235</ele>
        <time>2020-02-24T22:51:05.370Z</time>
      </trkpt>
      <trkpt lat="43.511460" lon="12.576020">
        <ele>572.099103</ele>
        <time>2020-02-24T22:51:06.176Z</time>
      </trkpt>
      <trkpt lat="43.511032" lon="12.576405">
        <ele>574.151288</ele>
        <time>2020-02-24T22:51:19.569Z</time>
      </trkpt>
      <trkpt lat="43.510515" lon="12.577190">
        <ele>574.825661</ele>
        <time>2020-02-24T22:51:35.058Z</time>
      </trkpt>
      <trkpt lat="43.510455" lon="12.577337">
        <ele>574.831822</ele>
        <time>2020-02-24T22:51:36.895Z</time>
      </trkpt>
      <trkpt lat="43.510418" lon="12.577492">
        <ele>574.837782</ele>
        <time>2020-02-24T22:51:39.672Z</time>
      </trkpt>
      <trkpt lat="43.510341" lon="12.578454">
        <ele>574.873130</ele>
        <time>2020-02-24T22:51:53.496Z</time>
      </trkpt>
      <trkpt lat="43.509904" lon="12.581414">
        <ele>581.185120</ele>
        <time>2020-02-24T22:53:13.140Z</time>
      </trkpt>
      <trkpt lat="43.509716" lon="12.582488">
        <ele>583.281434</ele>
        <time>2020-02-24T22:53:44.720Z</time>
      </trkpt>
      <trkpt lat="43.509591" lon="12.582849">
        <ele>584.040456</ele>
        <time>2020-02-24T22:53:53.685Z</time>
      </trkpt>
      <trkpt lat="43.509531" lon="12.582953">
        <ele>584.292604</ele>
        <time>2020-02-24T22:53:57.552Z</time>
      </trkpt>
      <trkpt lat="43.509460" lon="12.583077">
        <ele>584.592367</ele>
        <time>2020-02-24T22:54:00.458Z</time>
      </trkpt>
      <trkpt lat="43.509169" lon="12.583526">
        <ele>585.243848</ele>
        <time>2020-02-24T22:54:12.148Z</time>
      </trkpt>
      <trkpt lat="43.508785" lon="12.583807">
        <ele>583.878302</ele>
        <time>2020-02-24T22:54:20.108Z</time>
      </trkpt>
      <trkpt lat="43.508295" lon="12.584329">
        <ele>581.933252</ele>
        <time>2020-02-24T22:54:30.020Z</time>
      </trkpt>
      <trkpt lat="43.507977" lon="12.584470">
        <ele>580.883991</ele>
        <time>2020-02-24T22:54:35.036Z</time>
      </trkpt>
      <trkpt lat="43.507708" lon="12.584666">
        <ele>579.928296</ele>
        <time>2020-02-24T22:54:39.565Z</time>
      </trkpt>
      <trkpt lat="43.507591" lon="12.584722">
        <ele>579.576568</ele>
        <time>2020-02-24T22:54:41.387Z</time>
      </trkpt>
      <trkpt lat="43.507477" lon="12.584727">
        <ele>579.259708</ele>
        <time>2020-02-24T22:54:43.014Z</time>
      </trkpt>
      <trkpt lat="43.507039" lon="12.584716">
        <ele>578.042710</ele>
        <time>2020-02-24T22:54:49.810Z</time>
      </trkpt>
      <trkpt lat="43.506753" lon="12.584788">
        <ele>577.235045</ele>
        <time>2020-02-24T22:54:54.240Z</time>
      </trkpt>
      <trkpt lat="43.506505" lon="12.584974">
        <ele>576.450746</ele>
        <time>2020-02-24T22:54:58.811Z</time>
      </trkpt>
      <trkpt lat="43.506343" lon="12.585233">
        <ele>575.761625</ele>
        <time>2020-02-24T22:55:02.937Z</time>
      </trkpt>
      <trkpt lat="43.505742" lon="12.587509">
        <ele>579.987903</ele>
        <time>2020-02-24T22:55:59.185Z</time>
      </trkpt>
      <trkpt lat="43.505636" lon="12.587697">
        <ele>580.604834</ele>
        <time>2020-02-24T22:56:07.894Z</time>
      </trkpt>
      <trkpt lat="43.505088" lon="12.588271">
        <ele>585.091202</ele>
        <time>2020-02-24T22:56:46.479Z</time>
      </trkpt>
      <trkpt lat="43.505022" lon="12.588436">
        <ele>586.137766</ele>
        <time>2020-02-24T22:56:56.217Z</time>
      </trkpt>
      <trkpt lat="43.505081" lon="12.588943">
        <ele>588.989752</ele>
        <time>2020-02-24T22:57:17.386Z</time>
      </trkpt>
      <trkpt lat="43.505178" lon="12.589184">
        <ele>590.520593</ele>
        <time>2020-02-24T22:57:26.936Z</time>
      </trkpt>
      <trkpt lat="43.505316" lon="12.589293">
        <ele>591.738477</ele>
        <time>2020-02-24T22:57:37.491Z</time>
      </trkpt>
      <trkpt lat="43.505523" lon="12.589326">
        <ele>593.334169</ele>
        <time>2020-02-24T22:57:46.478Z</time>
      </trkpt>
      <trkpt lat="43.505533" lon="12.589382">
        <ele>593.654488</ele>
        <time>2020-02-24T22:57:51.291Z</time>
      </trkpt>
      <trkpt lat="43.505531" lon="12.589423">
        <ele>593.882723</ele>
        <time>2020-02-24T22:57:51.709Z</time>
      </trkpt>
      <trkpt lat="43.505272" lon="12.589530">
        <ele>595.344132</ele>
        <time>2020-02-24T22:58:01.977Z</time>
      </trkpt>
      <trkpt lat="43.505103" lon="12.589469">
        <ele>595.766247</ele>
        <time>2020-02-24T22:58:11.172Z</time>
      </trkpt>
      <trkpt lat="43.504945" lon="12.589239">
        <ele>596.321435</ele>
        <time>2020-02-24T22:58:21.219Z</time>
      </trkpt>
      <trkpt lat="43.504815" lon="12.588812">
        <ele>597.133036</ele>
        <time>2020-02-24T22:58:30.643Z</time>
      </trkpt>
      <trkpt lat="43.504676" lon="12.588817">
        <ele>597.469015</ele>
        <time>2020-02-24T22:58:36.590Z</time>
      </trkpt>
      <trkpt lat="43.504012" lon="12.590055">
        <ele>598.692676</ele>
        <time>2020-02-24T22:59:00.403Z</time>
      </trkpt>
      <trkpt lat="43.503693" lon="12.590317">
        <ele>597.844419</ele>
        <time>2020-02-24T22:59:07.338Z</time>
      </trkpt>
      <trkpt lat="43.503181" lon="12.590445">
        <ele>596.655698</ele>
        <time>2020-02-24T22:59:15.927Z</time>
      </trkpt>
      <trkpt lat="43.503044" lon="12.590572">
        <ele>596.278555</ele>
        <time>2020-02-24T22:59:18.445Z</time>
      </trkpt>
      <trkpt lat="43.502786" lon="12.591418">
        <ele>594.207672</ele>
        <time>2020-02-24T22:59:29.283Z</time>
      </trkpt>
      <trkpt lat="43.502680" lon="12.591613">
        <ele>593.394457</ele>
        <time>2020-02-24T22:59:32.470Z</time>
      </trkpt>
      <trkpt lat="43.502582" lon="12.591698">
        <ele>592.861767</ele>
        <time>2020-02-24T22:59:34.257Z</time>
      </trkpt>
      <trkpt lat="43.502546" lon="12.591763">
        <ele>592.588844</ele>
        <time>2020-02-24T22:59:35.068Z</time>
      </trkpt>
      <trkpt lat="43.502465" lon="12.592094">
        <ele>591.423061</ele>
        <time>2020-02-24T22:59:39.198Z</time>
      </trkpt>
      <trkpt lat="43.502448" lon="12.592888">
        <ele>588.772169</ele>
        <time>2020-02-24T22:59:47.770Z</time>
      </trkpt>
      <trkpt lat="43.502526" lon="12.593152">
        <ele>587.820864</ele>
        <time>2020-02-24T22:59:50.844Z</time>
      </trkpt>
      <trkpt lat="43.502776" lon="12.593549">
        <ele>586.056292</ele>
        <time>2020-02-24T22:59:56.446Z</time>
      </trkpt>
      <trkpt lat="43.502786" lon="12.593843">
        <ele>585.063759</ele>
        <time>2020-02-24T22:59:59.758Z</time>
      </trkpt>
      <trkpt lat="43.502633" lon="12.594112">
        <ele>583.910986</ele>
        <time>2020-02-24T23:00:03.643Z</time>
      </trkpt>
      <trkpt lat="43.502215" lon="12.594387">
        <ele>581.757687</ele>
        <time>2020-02-24T23:00:10.708Z</time>
      </trkpt>
      <trkpt lat="43.502047" lon="12.594582">
        <ele>580.736659</ele>
        <time>2020-02-24T23:00:14.068Z</time>
      </trkpt>
      <trkpt lat="43.501992" lon="12.594800">
        <ele>579.958297</ele>
        <time>2020-02-24T23:00:16.627Z</time>
      </trkpt>
      <trkpt lat="43.501985" lon="12.595387">
        <ele>578.134800</ele>
        <time>2020-02-24T23:00:23.289Z</time>
      </trkpt>
      <trkpt lat="43.501732" lon="12.595965">
        <ele>576.378123</ele>
        <time>2020-02-24T23:00:31.085Z</time>
      </trkpt>
      <trkpt lat="43.501684" lon="12.596196">
        <ele>575.752847</ele>
        <time>2020-02-24T23:00:33.880Z</time>
      </trkpt>
      <trkpt lat="43.501752" lon="12.596818">
        <ele>574.116027</ele>
        <time>2020-02-24T23:00:41.319Z</time>
      </trkpt>
      <trkpt lat="43.501719" lon="12.597149">
        <ele>573.246617</ele>
        <time>2020-02-24T23:00:45.256Z</time>
      </trkpt>
      <trkpt lat="43.501030" lon="12.597900">
        <ele>570.340556</ele>
        <time>2020-02-24T23:00:59.464Z</time>
      </trkpt>
      <trkpt lat="43.500561" lon="12.598216">
        <ele>568.684721</ele>
        <time>2020-02-24T23:01:07.973Z</time>
      </trkpt>
      <trkpt lat="43.500415" lon="12.598374">
        <ele>568.095966</ele>
        <time>2020-02-24T23:01:11.013Z</time>
      </trkpt>
      <trkpt lat="43.500218" lon="12.598919">
        <ele>566.694917</ele>
        <time>2020-02-24T23:01:18.343Z</time>
      </trkpt>
      <trkpt lat="43.500140" lon="12.599571">
        <ele>564.636682</ele>
        <time>2020-02-24T23:01:26.308Z</time>
      </trkpt>
      <trkpt lat="43.499783" lon="12.600700">
        <ele>560.657580</ele>
        <time>2020-02-24T23:01:40.694Z</time>
      </trkpt>
      <trkpt lat="43.499692" lon="12.600882">
        <ele>559.943413</ele>
        <time>2020-02-24T23:01:43.214Z</time>
      </trkpt>
      <trkpt lat="43.499526" lon="12.601148">
        <ele>558.809733</ele>
        <time>2020-02-24T23:01:46.885Z</time>
      </trkpt>
      <trkpt lat="43.499232" lon="12.601546">
        <ele>554.498337</ele>
        <time>2020-02-24T23:01:52.702Z</time>
      </trkpt>
      <trkpt lat="43.499002" lon="12.601757">
        <ele>551.262637</ele>
        <time>2020-02-24T23:01:56.427Z</time>
      </trkpt>
      <trkpt lat="43.498515" lon="12.601938">
        <ele>545.355238</ele>
        <time>2020-02-24T23:02:03.074Z</time>
      </trkpt>
      <trkpt lat="43.498184" lon="12.602036">
        <ele>541.390164</ele>
        <time>2020-02-24T23:02:07.484Z</time>
      </trkpt>
      <trkpt lat="43.498050" lon="12.602089">
        <ele>539.757437</ele>
        <time>2020-02-24T23:02:09.388Z</time>
      </trkpt>
      <trkpt lat="43.497716" lon="12.602301">
        <ele>535.126704</ele>
        <time>2020-02-24T23:02:14.183Z</time>
      </trkpt>
      <trkpt lat="43.497579" lon="12.602370">
        <ele>533.138354</ele>
        <time>2020-02-24T23:02:16.036Z</time>
      </trkpt>
      <trkpt lat="43.497401" lon="12.602569">
        <ele>530.014159</ele>
        <time>2020-02-24T23:02:19.058Z</time>
      </trkpt>
      <trkpt lat="43.497357" lon="12.602697">
        <ele>528.613457</ele>
        <time>2020-02-24T23:02:20.354Z</time>
      </trkpt>
      <trkpt lat="43.497347" lon="12.602840">
        <ele>527.192793</ele>
        <time>2020-02-24T23:02:21.708Z</time>
      </trkpt>
      <trkpt lat="43.497477" lon="12.603462">
        <ele>520.791711</ele>
        <time>2020-02-24T23:02:27.866Z</time>
      </trkpt>
      <trkpt lat="43.497456" lon="12.603804">
        <ele>517.397630</ele>
        <time>2020-02-24T23:02:31.110Z</time>
      </trkpt>
      <trkpt lat="43.497414" lon="12.604064">
        <ele>514.763548</ele>
        <time>2020-02-24T23:02:33.721Z</time>
      </trkpt>
      <trkpt lat="43.497368" lon="12.604346">
        <ele>512.250937</ele>
        <time>2020-02-24T23:02:36.541Z</time>
      </trkpt>
      <trkpt lat="43.497398" lon="12.605341">
        <ele>505.795169</ele>
        <time>2020-02-24T23:02:46.692Z</time>
      </trkpt>
      <trkpt lat="43.497268" lon="12.605560">
        <ele>503.960724</ele>
        <time>2020-02-24T23:02:49.567Z</time>
      </trkpt>
      <trkpt lat="43.496946" lon="12.605876">
        <ele>500.428475</ele>
        <time>2020-02-24T23:02:55.024Z</time>
      </trkpt>
      <trkpt lat="43.496806" lon="12.606166">
        <ele>498.170248</ele>
        <time>2020-02-24T23:02:58.528Z</time>
      </trkpt>
      <trkpt lat="43.496741" lon="12.606929">
        <ele>493.093400</ele>
        <time>2020-02-24T23:03:06.350Z</time>
      </trkpt>
      <trkpt lat="43.496800" lon="12.607678">
        <ele>488.079937</ele>
        <time>2020-02-24T23:03:13.983Z</time>
      </trkpt>
      <trkpt lat="43.496757" lon="12.607970">
        <ele>486.097212</ele>
        <time>2020-02-24T23:03:16.980Z</time>
      </trkpt>
      <trkpt lat="43.496458" lon="12.608280">
        <ele>482.665231</ele>
        <time>2020-02-24T23:03:22.098Z</time>
      </trkpt>
      <trkpt lat="43.496171" lon="12.608356">
        <ele>479.931118</ele>
        <time>2020-02-24T23:03:26.063Z</time>
      </trkpt>
      <trkpt lat="43.495837" lon="12.608304">
        <ele>476.380517</ele>
        <time>2020-02-24T23:03:30.521Z</time>
      </trkpt>
      <trkpt lat="43.495714" lon="12.608375">
        <ele>474.971907</ele>
        <time>2020-02-24T23:03:32.301Z</time>
      </trkpt>
      <trkpt lat="43.495597" lon="12.609301">
        <ele>467.769179</ele>
        <time>2020-02-24T23:03:41.521Z</time>
      </trkpt>
      <trkpt lat="43.495592" lon="12.609645">
        <ele>465.132589</ele>
        <time>2020-02-24T23:03:44.922Z</time>
      </trkpt>
      <trkpt lat="43.495623" lon="12.609814">
        <ele>463.796788</ele>
        <time>2020-02-24T23:03:46.647Z</time>
      </trkpt>
      <trkpt lat="43.495671" lon="12.609985">
        <ele>462.391743</ele>
        <time>2020-02-24T23:03:48.421Z</time>
      </trkpt>
      <trkpt lat="43.495650" lon="12.610175">
        <ele>461.007636</ele>
        <time>2020-02-24T23:03:50.375Z</time>
      </trkpt>
      <trkpt lat="43.495521" lon="12.610256">
        <ele>459.828624</ele>
        <time>2020-02-24T23:03:52.282Z</time>
      </trkpt>
      <trkpt lat="43.495307" lon="12.610062">
        <ele>457.698296</ele>
        <time>2020-02-24T23:03:55.794Z</time>
      </trkpt>
      <trkpt lat="43.495219" lon="12.609803">
        <ele>455.972649</ele>
        <time>2020-02-24T23:03:58.607Z</time>
      </trkpt>
      <trkpt lat="43.495271" lon="12.608907">
        <ele>450.549167</ele>
        <time>2020-02-24T23:04:07.697Z</time>
      </trkpt>
      <trkpt lat="43.495244" lon="12.608101">
        <ele>445.827489</ele>
        <time>2020-02-24T23:04:16.344Z</time>
      </trkpt>
      <trkpt lat="43.495504" lon="12.606933">
        <ele>440.011390</ele>
        <time>2020-02-24T23:04:29.364Z</time>
      </trkpt>
      <trkpt lat="43.495437" lon="12.606494">
        <ele>437.875805</ele>
        <time>2020-02-24T23:04:34.023Z</time>
      </trkpt>
      <trkpt lat="43.495283" lon="12.606232">
        <ele>436.270535</ele>
        <time>2020-02-24T23:04:37.476Z</time>
      </trkpt>
      <trkpt lat="43.495155" lon="12.606267">
        <ele>435.414201</ele>
        <time>2020-02-24T23:04:39.443Z</time>
      </trkpt>
      <trkpt lat="43.495126" lon="12.606354">
        <ele>434.958410</ele>
        <time>2020-02-24T23:04:40.424Z</time>
      </trkpt>
      <trkpt lat="43.495186" lon="12.606749">
        <ele>432.689472</ele>
        <time>2020-02-24T23:04:44.649Z</time>
      </trkpt>
      <trkpt lat="43.495167" lon="12.606884">
        <ele>431.886557</ele>
        <time>2020-02-24T23:04:46.061Z</time>
      </trkpt>
      <trkpt lat="43.495114" lon="12.607010">
        <ele>431.036160</ele>
        <time>2020-02-24T23:04:47.529Z</time>
      </trkpt>
      <trkpt lat="43.494865" lon="12.607405">
        <ele>427.980796</ele>
        <time>2020-02-24T23:04:52.946Z</time>
      </trkpt>
      <trkpt lat="43.494619" lon="12.608171">
        <ele>423.089694</ele>
        <time>2020-02-24T23:05:01.333Z</time>
      </trkpt>
      <trkpt lat="43.494169" lon="12.609208">
        <ele>416.661771</ele>
        <time>2020-02-24T23:05:13.596Z</time>
      </trkpt>
      <trkpt lat="43.494103" lon="12.609463">
        <ele>415.325138</ele>
        <time>2020-02-24T23:05:16.358Z</time>
      </trkpt>
      <trkpt lat="43.494069" lon="12.609898">
        <ele>413.165158</ele>
        <time>2020-02-24T23:05:20.942Z</time>
      </trkpt>
      <trkpt lat="43.494036" lon="12.610491">
        <ele>410.228974</ele>
        <time>2020-02-24T23:05:27.290Z</time>
      </trkpt>
      <trkpt lat="43.494065" lon="12.610860">
        <ele>408.396598</ele>
        <time>2020-02-24T23:05:31.297Z</time>
      </trkpt>
      <trkpt lat="43.494322" lon="12.611424">
        <ele>406.195995</ele>
        <time>2020-02-24T23:05:38.603Z</time>
      </trkpt>
      <trkpt lat="43.494336" lon="12.611761">
        <ele>405.189166</ele>
        <time>2020-02-24T23:05:42.484Z</time>
      </trkpt>
      <trkpt lat="43.494083" lon="12.612989">
        <ele>401.381509</ele>
        <time>2020-02-24T23:05:57.601Z</time>
      </trkpt>
      <trkpt lat="43.493824" lon="12.613795">
        <ele>398.000331</ele>
        <time>2020-02-24T23:06:07.491Z</time>
      </trkpt>
      <trkpt lat="43.493641" lon="12.614129">
        <ele>396.202533</ele>
        <time>2020-02-24T23:06:12.041Z</time>
      </trkpt>
      <trkpt lat="43.492805" lon="12.614860">
        <ele>390.340890</ele>
        <time>2020-02-24T23:06:26.331Z</time>
      </trkpt>
      <trkpt lat="43.492175" lon="12.615667">
        <ele>384.006708</ele>
        <time>2020-02-24T23:06:38.490Z</time>
      </trkpt>
      <trkpt lat="43.491842" lon="12.616216">
        <ele>380.096079</ele>
        <time>2020-02-24T23:06:45.828Z</time>
      </trkpt>
      <trkpt lat="43.491687" lon="12.616622">
        <ele>377.588913</ele>
        <time>2020-02-24T23:06:50.554Z</time>
      </trkpt>
      <trkpt lat="43.491452" lon="12.617235">
        <ele>373.639231</ele>
        <time>2020-02-24T23:06:57.720Z</time>
      </trkpt>
      <trkpt lat="43.490393" lon="12.618785">
        <ele>361.427463</ele>
        <time>2020-02-24T23:07:19.350Z</time>
      </trkpt>
      <trkpt lat="43.490004" lon="12.619216">
        <ele>358.678482</ele>
        <time>2020-02-24T23:07:26.252Z</time>
      </trkpt>
      <trkpt lat="43.489861" lon="12.619310">
        <ele>357.805863</ele>
        <time>2020-02-24T23:07:28.501Z</time>
      </trkpt>
      <trkpt lat="43.489681" lon="12.619391">
        <ele>356.762934</ele>
        <time>2020-02-24T23:07:31.365Z</time>
      </trkpt>
      <trkpt lat="43.489148" lon="12.619995">
        <ele>352.962406</ele>
        <time>2020-02-24T23:07:42.105Z</time>
      </trkpt>
      <trkpt lat="43.489146" lon="12.619997">
        <ele>352.948796</ele>
        <time>2020-02-24T23:07:42.143Z</time>
      </trkpt>
      <trkpt lat="43.489028" lon="12.620178">
        <ele>351.976398</ele>
        <time>2020-02-24T23:07:44.671Z</time>
      </trkpt>
      <trkpt lat="43.488992" lon="12.620238">
        <ele>352.009780</ele>
        <time>2020-02-24T23:07:47.704Z</time>
      </trkpt>
      <trkpt lat="43.488865" lon="12.620642">
        <ele>352.608335</ele>
        <time>2020-02-24T23:07:53.075Z</time>
      </trkpt>
      <trkpt lat="43.488846" lon="12.620672">
        <ele>352.662471</ele>
        <time>2020-02-24T23:07:54.840Z</time>
      </trkpt>
      <trkpt lat="43.488730" lon="12.620791">
        <ele>352.933425</ele>
        <time>2020-02-24T23:08:01.064Z</time>
      </trkpt>
      <trkpt lat="43.488432" lon="12.621058">
        <ele>353.599417</ele>
        <time>2020-02-24T23:08:14.770Z</time>
      </trkpt>
      <trkpt lat="43.488365" lon="12.621100">
        <ele>353.737335</ele>
        <time>2020-02-24T23:08:17.574Z</time>
      </trkpt>
      <trkpt lat="43.487990" lon="12.621021">
        <ele>354.448163</ele>
        <time>2020-02-24T23:08:30.812Z</time>
      </trkpt>
      <trkpt lat="43.487926" lon="12.621022">
        <ele>354.568093</ele>
        <time>2020-02-24T23:08:31.724Z</time>
      </trkpt>
      <trkpt lat="43.487844" lon="12.621061">
        <ele>354.730634</ele>
        <time>2020-02-24T23:08:37.102Z</time>
      </trkpt>
      <trkpt lat="43.487725" lon="12.621248">
        <ele>355.068788</ele>
        <time>2020-02-24T23:08:45.974Z</time>
      </trkpt>
      <trkpt lat="43.487686" lon="12.621581">
        <ele>355.344964</ele>
        <time>2020-02-24T23:08:53.195Z</time>
      </trkpt>
      <trkpt lat="43.487722" lon="12.621730">
        <ele>355.392591</ele>
        <time>2020-02-24T23:08:58.867Z</time>
      </trkpt>
      <trkpt lat="43.487200" lon="12.621972">
        <ele>355.622798</ele>
        <time>2020-02-24T23:09:11.440Z</time>
      </trkpt>
      <trkpt lat="43.486586" lon="12.622042">
        <ele>355.880326</ele>
        <time>2020-02-24T23:09:27.291Z</time>
      </trkpt>
      <trkpt lat="43.486052" lon="12.622363">
        <ele>355.603628</ele>
        <time>2020-02-24T23:09:36.919Z</time>
      </trkpt>
      <trkpt lat="43.484227" lon="12.623784">
        <ele>351.416583</ele>
        <time>2020-02-24T23:10:12.747Z</time>
      </trkpt>
      <trkpt lat="43.483803" lon="12.624103">
        <ele>350.965807</ele>
        <time>2020-02-24T23:10:22.465Z</time>
      </trkpt>
      <trkpt lat="43.483045" lon="12.624580">
        <ele>350.196603</ele>
        <time>2020-02-24T23:10:39.891Z</time>
      </trkpt>
      <trkpt lat="43.482132" lon="12.625153">
        <ele>350.897197</ele>
        <time>2020-02-24T23:11:04.129Z</time>
      </trkpt>
      <trkpt lat="43.481990" lon="12.625170">
        <ele>350.996736</ele>
        <time>2020-02-24T23:11:07.762Z</time>
      </trkpt>
      <trkpt lat="43.481889" lon="12.625166">
        <ele>351.067299</ele>
        <time>2020-02-24T23:11:10.292Z</time>
      </trkpt>
      <trkpt lat="43.481791" lon="12.625125">
        <ele>351.138822</ele>
        <time>2020-02-24T23:11:13.367Z</time>
      </trkpt>
      <trkpt lat="43.481750" lon="12.625097">
        <ele>351.170777</ele>
        <time>2020-02-24T23:11:14.590Z</time>
      </trkpt>
      <trkpt lat="43.481711" lon="12.625091">
        <ele>351.198182</ele>
        <time>2020-02-24T23:11:15.577Z</time>
      </trkpt>
      <trkpt lat="43.481640" lon="12.625134">
        <ele>351.252341</ele>
        <time>2020-02-24T23:11:17.634Z</time>
      </trkpt>
      <trkpt lat="43.481616" lon="12.625177">
        <ele>351.279831</ele>
        <time>2020-02-24T23:11:18.606Z</time>
      </trkpt>
      <trkpt lat="43.481604" lon="12.625237">
        <ele>351.311368</ele>
        <time>2020-02-24T23:11:19.709Z</time>
      </trkpt>
      <trkpt lat="43.481540" lon="12.625351">
        <ele>351.384406</ele>
        <time>2020-02-24T23:11:22.902Z</time>
      </trkpt>
      <trkpt lat="43.481359" lon="12.625556">
        <ele>351.697003</ele>
        <time>2020-02-24T23:11:29.053Z</time>
      </trkpt>
      <trkpt lat="43.481203" lon="12.625684">
        <ele>352.014772</ele>
        <time>2020-02-24T23:11:34.395Z</time>
      </trkpt>
      <trkpt lat="43.480725" lon="12.625960">
        <ele>352.921860</ele>
        <time>2020-02-24T23:11:48.826Z</time>
      </trkpt>
      <trkpt lat="43.480428" lon="12.626116">
        <ele>353.478164</ele>
        <time>2020-02-24T23:11:58.278Z</time>
      </trkpt>
      <trkpt lat="43.479182" lon="12.626748">
        <ele>356.095184</ele>
        <time>2020-02-24T23:12:39.345Z</time>
      </trkpt>
      <trkpt lat="43.479131" lon="12.626774">
        <ele>356.213519</ele>
        <time>2020-02-24T23:12:40.954Z</time>
      </trkpt>
      <trkpt lat="43.478758" lon="12.626969">
        <ele>357.081671</ele>
        <time>2020-02-24T23:12:52.742Z</time>
      </trkpt>
      <trkpt lat="43.478634" lon="12.627032">
        <ele>357.369269</ele>
        <time>2020-02-24T23:12:56.634Z</time>
      </trkpt>
      <trkpt lat="43.478379" lon="12.627151">
        <ele>357.955144</ele>
        <time>2020-02-24T23:13:05.068Z</time>
      </trkpt>
      <trkpt lat="43.477469" lon="12.627341">
        <ele>360.202530</ele>
        <time>2020-02-24T23:13:35.486Z</time>
      </trkpt>
      <trkpt lat="43.477099" lon="12.627352">
        <ele>361.143997</ele>
        <time>2020-02-24T23:13:48.051Z</time>
      </trkpt>
      <trkpt lat="43.476752" lon="12.627344">
        <ele>362.026859</ele>
        <time>2020-02-24T23:13:59.151Z</time>
      </trkpt>
      <trkpt lat="43.476215" lon="12.627319">
        <ele>363.291405</ele>
        <time>2020-02-24T23:14:16.097Z</time>
      </trkpt>
      <trkpt lat="43.476017" lon="12.627301">
        <ele>363.627838</ele>
        <time>2020-02-24T23:14:22.032Z</time>
      </trkpt>
      <trkpt lat="43.475903" lon="12.627247">
        <ele>363.832222</ele>
        <time>2020-02-24T23:14:26.124Z</time>
      </trkpt>
      <trkpt lat="43.475811" lon="12.627218">
        <ele>363.992234</ele>
        <time>2020-02-24T23:14:28.795Z</time>
      </trkpt>
      <trkpt lat="43.475799" lon="12.627180">
        <ele>364.043222</ele>
        <time>2020-02-24T23:14:29.583Z</time>
      </trkpt>
      <trkpt lat="43.475740" lon="12.627154">
        <ele>364.148245</ele>
        <time>2020-02-24T23:14:31.263Z</time>
      </trkpt>
      <trkpt lat="43.475715" lon="12.627173">
        <ele>364.196651</ele>
        <time>2020-02-24T23:14:32.057Z</time>
      </trkpt>
      <trkpt lat="43.475702" lon="12.627198">
        <ele>364.234491</ele>
        <time>2020-02-24T23:14:32.887Z</time>
      </trkpt>
      <trkpt lat="43.475698" lon="12.627233">
        <ele>364.278084</ele>
        <time>2020-02-24T23:14:33.592Z</time>
      </trkpt>
      <trkpt lat="43.475704" lon="12.627266">
        <ele>364.319941</ele>
        <time>2020-02-24T23:14:34.524Z</time>
      </trkpt>
      <trkpt lat="43.475720" lon="12.627292">
        <ele>364.361884</ele>
        <time>2020-02-24T23:14:35.354Z</time>
      </trkpt>
      <trkpt lat="43.475746" lon="12.627307">
        <ele>364.409673</ele>
        <time>2020-02-24T23:14:36.265Z</time>
      </trkpt>
      <trkpt lat="43.475775" lon="12.627303">
        <ele>364.459087</ele>
        <time>2020-02-24T23:14:37.174Z</time>
      </trkpt>
      <trkpt lat="43.475897" lon="12.627298">
        <ele>364.666026</ele>
        <time>2020-02-24T23:14:40.349Z</time>
      </trkpt>
      <trkpt lat="43.476017" lon="12.627301">
        <ele>364.869516</ele>
        <time>2020-02-24T23:14:43.977Z</time>
      </trkpt>
      <trkpt lat="43.476017" lon="12.627301">
        <ele>364.869516</ele>
        <time>2020-02-24T23:14:43.982Z</time>
      </trkpt>
      <trkpt lat="43.475903" lon="12.627247">
        <ele>365.073900</ele>
        <time>2020-02-24T23:14:47.808Z</time>
      </trkpt>
      <trkpt lat="43.475811" lon="12.627218">
        <ele>365.233912</ele>
        <time>2020-02-24T23:14:50.065Z</time>
      </trkpt>
      <trkpt lat="43.475799" lon="12.627180">
        <ele>365.284900</ele>
        <time>2020-02-24T23:14:50.747Z</time>
      </trkpt>
      <trkpt lat="43.475740" lon="12.627154">
        <ele>365.389924</ele>
        <time>2020-02-24T23:14:52.260Z</time>
      </trkpt>
      <trkpt lat="43.475715" lon="12.627173">
        <ele>365.438329</ele>
        <time>2020-02-24T23:14:53.136Z</time>
      </trkpt>
      <trkpt lat="43.475702" lon="12.627198">
        <ele>365.476170</ele>
        <time>2020-02-24T23:14:53.955Z</time>
      </trkpt>
      <trkpt lat="43.475698" lon="12.627233">
        <ele>365.519763</ele>
        <time>2020-02-24T23:14:54.649Z</time>
      </trkpt>
      <trkpt lat="43.475704" lon="12.627266">
        <ele>365.561619</ele>
        <time>2020-02-24T23:14:55.556Z</time>
      </trkpt>
      <trkpt lat="43.475635" lon="12.627282">
        <ele>365.680251</ele>
        <time>2020-02-24T23:14:57.511Z</time>
      </trkpt>
      <trkpt lat="43.475379" lon="12.627275">
        <ele>366.114377</ele>
        <time>2020-02-24T23:15:04.147Z</time>
      </trkpt>
      <trkpt lat="43.475241" lon="12.627270">
        <ele>366.285291</ele>
        <time>2020-02-24T23:15:08.128Z</time>
      </trkpt>
      <trkpt lat="43.475046" lon="12.627266">
        <ele>366.517434</ele>
        <time>2020-02-24T23:15:12.976Z</time>
      </trkpt>
      <trkpt lat="43.475001" lon="12.627267">
        <ele>366.571007</ele>
        <time>2020-02-24T23:15:14.391Z</time>
      </trkpt>
      <trkpt lat="43.474890" lon="12.627279">
        <ele>366.703541</ele>
        <time>2020-02-24T23:15:17.447Z</time>
      </trkpt>
      <trkpt lat="43.474746" lon="12.627344">
        <ele>366.883913</ele>
        <time>2020-02-24T23:15:20.700Z</time>
      </trkpt>
      <trkpt lat="43.474647" lon="12.627414">
        <ele>367.016365</ele>
        <time>2020-02-24T23:15:23.841Z</time>
      </trkpt>
      <trkpt lat="43.474202" lon="12.627937">
        <ele>367.712559</ele>
        <time>2020-02-24T23:15:38.193Z</time>
      </trkpt>
      <trkpt lat="43.474159" lon="12.628033">
        <ele>367.810010</ele>
        <time>2020-02-24T23:15:40.331Z</time>
      </trkpt>
      <trkpt lat="43.474140" lon="12.628136">
        <ele>367.901812</ele>
        <time>2020-02-24T23:15:42.420Z</time>
      </trkpt>
      <trkpt lat="43.474063" lon="12.628163">
        <ele>367.996390</ele>
        <time>2020-02-24T23:15:44.769Z</time>
      </trkpt>
      <trkpt lat="43.473825" lon="12.628247">
        <ele>368.300190</ele>
        <time>2020-02-24T23:15:52.193Z</time>
      </trkpt>
      <trkpt lat="43.473570" lon="12.628361">
        <ele>368.938950</ele>
        <time>2020-02-24T23:16:01.378Z</time>
      </trkpt>
      <trkpt lat="43.473543" lon="12.628304">
        <ele>369.056646</ele>
        <time>2020-02-24T23:16:03.298Z</time>
      </trkpt>
      <trkpt lat="43.473468" lon="12.628213">
        <ele>369.294748</ele>
        <time>2020-02-24T23:16:06.730Z</time>
      </trkpt>
      <trkpt lat="43.473326" lon="12.628122">
        <ele>369.667888</ele>
        <time>2020-02-24T23:16:11.926Z</time>
      </trkpt>
      <trkpt lat="43.473246" lon="12.628082">
        <ele>369.870663</ele>
        <time>2020-02-24T23:16:15.026Z</time>
      </trkpt>
      <trkpt lat="43.473102" lon="12.628101">
        <ele>370.215339</ele>
        <time>2020-02-24T23:16:19.784Z</time>
      </trkpt>
      <trkpt lat="43.472821" lon="12.628279">
        <ele>370.952229</ele>
        <time>2020-02-24T23:16:30.043Z</time>
      </trkpt>
      <trkpt lat="43.472690" lon="12.628359">
        <ele>371.293639</ele>
        <time>2020-02-24T23:16:34.555Z</time>
      </trkpt>
      <trkpt lat="43.472605" lon="12.628471">
        <ele>371.573858</ele>
        <time>2020-02-24T23:16:38.414Z</time>
      </trkpt>
      <trkpt lat="43.472575" lon="12.628522">
        <ele>371.687375</ele>
        <time>2020-02-24T23:16:39.903Z</time>
      </trkpt>
      <trkpt lat="43.472467" lon="12.628698">
        <ele>372.085914</ele>
        <time>2020-02-24T23:16:45.055Z</time>
      </trkpt>
      <trkpt lat="43.472362" lon="12.628869">
        <ele>372.473235</ele>
        <time>2020-02-24T23:16:50.487Z</time>
      </trkpt>
      <trkpt lat="43.472317" lon="12.628941">
        <ele>372.637622</ele>
        <time>2020-02-24T23:16:52.438Z</time>
      </trkpt>
      <trkpt lat="43.472265" lon="12.629047">
        <ele>372.859102</ele>
        <time>2020-02-24T23:16:55.286Z</time>
      </trkpt>
      <trkpt lat="43.472161" lon="12.629213">
        <ele>373.238723</ele>
        <time>2020-02-24T23:17:00.831Z</time>
      </trkpt>
      <trkpt lat="43.472046" lon="12.629313">
        <ele>373.563086</ele>
        <time>2020-02-24T23:17:05.291Z</time>
      </trkpt>
      <trkpt lat="43.471975" lon="12.629460">
        <ele>373.868756</ele>
        <time>2020-02-24T23:17:09.558Z</time>
      </trkpt>
      <trkpt lat="43.471882" lon="12.629741">
        <ele>374.403377</ele>
        <time>2020-02-24T23:17:17.602Z</time>
      </trkpt>
      <trkpt lat="43.471566" lon="12.630245">
        <ele>375.556340</ele>
        <time>2020-02-24T23:17:33.793Z</time>
      </trkpt>
      <trkpt lat="43.471438" lon="12.630353">
        <ele>375.914352</ele>
        <time>2020-02-24T23:17:38.610Z</time>
      </trkpt>
      <trkpt lat="43.471447" lon="12.630397">
        <ele>375.993486</ele>
        <time>2020-02-24T23:17:39.625Z</time>
      </trkpt>
      <trkpt lat="43.471439" lon="12.630480">
        <ele>376.138426</ele>
        <time>2020-02-24T23:17:41.366Z</time>
      </trkpt>
      <trkpt lat="43.471447" lon="12.630532">
        <ele>376.230442</ele>
        <time>2020-02-24T23:17:42.410Z</time>
      </trkpt>
      <trkpt lat="43.471226" lon="12.630799">
        <ele>376.923218</ele>
        <time>2020-02-24T23:17:51.398Z</time>
      </trkpt>
      <trkpt lat="43.471115" lon="12.630989">
        <ele>377.300545</ele>
        <time>2020-02-24T23:17:57.103Z</time>
      </trkpt>
      <trkpt lat="43.471074" lon="12.631319">
        <ele>377.818472</ele>
        <time>2020-02-24T23:18:04.338Z</time>
      </trkpt>
      <trkpt lat="43.471089" lon="12.631575">
        <ele>378.215785</ele>
        <time>2020-02-24T23:18:10.872Z</time>
      </trkpt>
      <trkpt lat="43.471101" lon="12.631766">
        <ele>378.512361</ele>
        <time>2020-02-24T23:18:14.910Z</time>
      </trkpt>
      <trkpt lat="43.471108" lon="12.632118">
        <ele>379.057099</ele>
        <time>2020-02-24T23:18:23.436Z</time>
      </trkpt>
      <trkpt lat="43.470881" lon="12.632338">
        <ele>379.648679</ele>
        <time>2020-02-24T23:18:32.665Z</time>
      </trkpt>
      <trkpt lat="43.470053" lon="12.632930">
        <ele>381.401546</ele>
        <time>2020-02-24T23:19:00.430Z</time>
      </trkpt>
      <trkpt lat="43.469892" lon="12.633095">
        <ele>381.723156</ele>
        <time>2020-02-24T23:19:05.886Z</time>
      </trkpt>
      <trkpt lat="43.469751" lon="12.633336">
        <ele>382.083251</ele>
        <time>2020-02-24T23:19:12.937Z</time>
      </trkpt>
      <trkpt lat="43.469671" lon="12.633564">
        <ele>382.377842</ele>
        <time>2020-02-24T23:19:18.264Z</time>
      </trkpt>
      <trkpt lat="43.469518" lon="12.634867">
        <ele>383.958849</ele>
        <time>2020-02-24T23:19:44.101Z</time>
      </trkpt>
      <trkpt lat="43.469471" lon="12.635129">
        <ele>384.314534</ele>
        <time>2020-02-24T23:19:49.116Z</time>
      </trkpt>
      <trkpt lat="43.469392" lon="12.635437">
        <ele>384.745056</ele>
        <time>2020-02-24T23:19:56.139Z</time>
      </trkpt>
      <trkpt lat="43.468817" lon="12.636663">
        <ele>386.668855</ele>
        <time>2020-02-24T23:20:27.789Z</time>
      </trkpt>
      <trkpt lat="43.468229" lon="12.638260">
        <ele>390.755079</ele>
        <time>2020-02-24T23:21:11.559Z</time>
      </trkpt>
      <trkpt lat="43.467549" lon="12.639841">
        <ele>396.458059</ele>
        <time>2020-02-24T23:22:04.289Z</time>
      </trkpt>
      <trkpt lat="43.466819" lon="12.641414">
        <ele>403.403245</ele>
        <time>2020-02-24T23:23:05.104Z</time>
      </trkpt>
      <trkpt lat="43.466514" lon="12.641790">
        <ele>405.542778</ele>
        <time>2020-02-24T23:23:24.432Z</time>
      </trkpt>
      <trkpt lat="43.466289" lon="12.641972">
        <ele>406.906754</ele>
        <time>2020-02-24T23:23:36.217Z</time>
      </trkpt>
      <trkpt lat="43.465877" lon="12.642095">
        <ele>409.110587</ele>
        <time>2020-02-24T23:23:54.156Z</time>
      </trkpt>
      <trkpt lat="43.465638" lon="12.642183">
        <ele>410.403875</ele>
        <time>2020-02-24T23:24:04.322Z</time>
      </trkpt>
      <trkpt lat="43.465456" lon="12.642270">
        <ele>411.353777</ele>
        <time>2020-02-24T23:24:11.828Z</time>
      </trkpt>
      <trkpt lat="43.464254" lon="12.643036">
        <ele>415.904983</ele>
        <time>2020-02-24T23:24:59.833Z</time>
      </trkpt>
      <trkpt lat="43.463695" lon="12.643525">
        <ele>418.088103</ele>
        <time>2020-02-24T23:25:21.349Z</time>
      </trkpt>
      <trkpt lat="43.463186" lon="12.644079">
        <ele>420.044529</ele>
        <time>2020-02-24T23:25:43.363Z</time>
      </trkpt>
      <trkpt lat="43.462843" lon="12.644349">
        <ele>421.235991</ele>
        <time>2020-02-24T23:25:57.219Z</time>
      </trkpt>
      <trkpt lat="43.461802" lon="12.644985">
        <ele>424.693673</ele>
        <time>2020-02-24T23:26:37.207Z</time>
      </trkpt>
      <trkpt lat="43.461608" lon="12.645343">
        <ele>425.684127</ele>
        <time>2020-02-24T23:26:48.698Z</time>
      </trkpt>
      <trkpt lat="43.461396" lon="12.646128">
        <ele>427.540981</ele>
        <time>2020-02-24T23:27:09.752Z</time>
      </trkpt>
      <trkpt lat="43.461214" lon="12.646432">
        <ele>428.404940</ele>
        <time>2020-02-24T23:27:19.269Z</time>
      </trkpt>
      <trkpt lat="43.460746" lon="12.646767">
        <ele>429.796224</ele>
        <time>2020-02-24T23:27:36.166Z</time>
      </trkpt>
      <trkpt lat="43.460516" lon="12.647014">
        <ele>430.565523</ele>
        <time>2020-02-24T23:27:45.256Z</time>
      </trkpt>
      <trkpt lat="43.460049" lon="12.648274">
        <ele>433.324077</ele>
        <time>2020-02-24T23:28:19.021Z</time>
      </trkpt>
      <trkpt lat="43.459838" lon="12.648776">
        <ele>434.730911</ele>
        <time>2020-02-24T23:28:33.404Z</time>
      </trkpt>
      <trkpt lat="43.459017" lon="12.650503">
        <ele>439.854098</ele>
        <time>2020-02-24T23:29:27.819Z</time>
      </trkpt>
      <trkpt lat="43.458891" lon="12.650833">
        <ele>440.923148</ele>
        <time>2020-02-24T23:29:38.413Z</time>
      </trkpt>
      <trkpt lat="43.458502" lon="12.652177">
        <ele>445.071566</ele>
        <time>2020-02-24T23:30:18.794Z</time>
      </trkpt>
      <trkpt lat="43.458298" lon="12.652870">
        <ele>447.199169</ele>
        <time>2020-02-24T23:30:39.461Z</time>
      </trkpt>
      <trkpt lat="43.457952" lon="12.653855">
        <ele>450.285567</ele>
        <time>2020-02-24T23:31:10.090Z</time>
      </trkpt>
      <trkpt lat="43.457657" lon="12.654340">
        <ele>452.070282</ele>
        <time>2020-02-24T23:31:27.462Z</time>
      </trkpt>
      <trkpt lat="43.457329" lon="12.654702">
        <ele>453.584837</ele>
        <time>2020-02-24T23:31:42.992Z</time>
      </trkpt>
      <trkpt lat="43.457195" lon="12.654869">
        <ele>454.124455</ele>
        <time>2020-02-24T23:31:49.481Z</time>
      </trkpt>
      <trkpt lat="43.457096" lon="12.655050">
        <ele>454.615733</ele>
        <time>2020-02-24T23:31:55.256Z</time>
      </trkpt>
      <trkpt lat="43.457024" lon="12.655212">
        <ele>455.027504</ele>
        <time>2020-02-24T23:32:00.142Z</time>
      </trkpt>
      <trkpt lat="43.456678" lon="12.656104">
        <ele>457.219898</ele>
        <time>2020-02-24T23:32:25.173Z</time>
      </trkpt>
      <trkpt lat="43.456398" lon="12.656929">
        <ele>459.198640</ele>
        <time>2020-02-24T23:32:45.705Z</time>
      </trkpt>
      <trkpt lat="43.455829" lon="12.657498">
        <ele>461.313362</ele>
        <time>2020-02-24T23:33:09.558Z</time>
      </trkpt>
      <trkpt lat="43.455379" lon="12.657786">
        <ele>462.805747</ele>
        <time>2020-02-24T23:33:26.390Z</time>
      </trkpt>
      <trkpt lat="43.455152" lon="12.657936">
        <ele>463.562973</ele>
        <time>2020-02-24T23:33:35.205Z</time>
      </trkpt>
      <trkpt lat="43.455012" lon="12.658067">
        <ele>464.117043</ele>
        <time>2020-02-24T23:33:41.038Z</time>
      </trkpt>
      <trkpt lat="43.454841" lon="12.658284">
        <ele>465.132725</ele>
        <time>2020-02-24T23:33:50.377Z</time>
      </trkpt>
      <trkpt lat="43.454086" lon="12.659945">
        <ele>471.347600</ele>
        <time>2020-02-24T23:34:46.983Z</time>
      </trkpt>
      <trkpt lat="43.454085" lon="12.659946">
        <ele>471.352998</ele>
        <time>2020-02-24T23:34:47.238Z</time>
      </trkpt>
      <trkpt lat="43.453619" lon="12.660728">
        <ele>474.825140</ele>
        <time>2020-02-24T23:35:17.994Z</time>
      </trkpt>
      <trkpt lat="43.453262" lon="12.661325">
        <ele>477.514808</ele>
        <time>2020-02-24T23:35:41.290Z</time>
      </trkpt>
      <trkpt lat="43.453148" lon="12.661554">
        <ele>478.480391</ele>
        <time>2020-02-24T23:35:49.851Z</time>
      </trkpt>
      <trkpt lat="43.453002" lon="12.661947">
        <ele>480.015577</ele>
        <time>2020-02-24T23:36:02.567Z</time>
      </trkpt>
      <trkpt lat="43.452738" lon="12.662611">
        <ele>482.674149</ele>
        <time>2020-02-24T23:36:25.181Z</time>
      </trkpt>
      <trkpt lat="43.452587" lon="12.662766">
        <ele>483.586837</ele>
        <time>2020-02-24T23:36:32.536Z</time>
      </trkpt>
      <trkpt lat="43.452520" lon="12.662774">
        <ele>483.912779</ele>
        <time>2020-02-24T23:36:35.616Z</time>
      </trkpt>
      <trkpt lat="43.452459" lon="12.663189">
        <ele>485.402542</ele>
        <time>2020-02-24T23:36:48.524Z</time>
      </trkpt>
      <trkpt lat="43.452423" lon="12.663517">
        <ele>486.569691</ele>
        <time>2020-02-24T23:36:59.252Z</time>
      </trkpt>
      <trkpt lat="43.452373" lon="12.663829">
        <ele>487.693861</ele>
        <time>2020-02-24T23:37:09.865Z</time>
      </trkpt>
      <trkpt lat="43.452359" lon="12.663969">
        <ele>488.191088</ele>
        <time>2020-02-24T23:37:13.846Z</time>
      </trkpt>
      <trkpt lat="43.452441" lon="12.664556">
        <ele>490.574598</ele>
        <time>2020-02-24T23:37:31.994Z</time>
      </trkpt>
      <trkpt lat="43.452459" lon="12.664642">
        <ele>490.967556</ele>
        <time>2020-02-24T23:37:35.161Z</time>
      </trkpt>
      <trkpt lat="43.452545" lon="12.665075">
        <ele>492.938486</ele>
        <time>2020-02-24T23:37:49.231Z</time>
      </trkpt>
      <trkpt lat="43.452583" lon="12.665240">
        <ele>493.698489</ele>
        <time>2020-02-24T23:37:55.330Z</time>
      </trkpt>
      <trkpt lat="43.453169" lon="12.666701">
        <ele>500.670922</ele>
        <time>2020-02-24T23:38:56.999Z</time>
      </trkpt>
      <trkpt lat="43.453429" lon="12.667627">
        <ele>503.455643</ele>
        <time>2020-02-24T23:39:29.368Z</time>
      </trkpt>
      <trkpt lat="43.453427" lon="12.667685">
        <ele>503.618503</ele>
        <time>2020-02-24T23:39:31.990Z</time>
      </trkpt>
      <trkpt lat="43.453400" lon="12.667885">
        <ele>504.189074</ele>
        <time>2020-02-24T23:39:39.546Z</time>
      </trkpt>
      <trkpt lat="43.453366" lon="12.668067">
        <ele>504.716173</ele>
        <time>2020-02-24T23:39:41.782Z</time>
      </trkpt>
      <trkpt lat="43.453290" lon="12.668330">
        <ele>505.510124</ele>
        <time>2020-02-24T23:39:51.224Z</time>
      </trkpt>
      <trkpt lat="43.453305" lon="12.668389">
        <ele>505.685460</ele>
        <time>2020-02-24T23:39:52.996Z</time>
      </trkpt>
      <trkpt lat="43.453290" lon="12.668330">
        <ele>505.860797</ele>
        <time>2020-02-24T23:39:53.689Z</time>
      </trkpt>
      <trkpt lat="43.453251" lon="12.668268">
        <ele>506.090895</ele>
        <time>2020-02-24T23:39:54.503Z</time>
      </trkpt>
      <trkpt lat="43.453038" lon="12.667979">
        <ele>506.781556</ele>
        <time>2020-02-24T23:40:04.515Z</time>
      </trkpt>
      <trkpt lat="43.452961" lon="12.667805">
        <ele>506.313464</ele>
        <time>2020-02-24T23:40:07.028Z</time>
      </trkpt>
      <trkpt lat="43.452703" lon="12.667221">
        <ele>504.743112</ele>
        <time>2020-02-24T23:40:18.858Z</time>
      </trkpt>
      <trkpt lat="43.452572" lon="12.667016">
        <ele>504.115766</ele>
        <time>2020-02-24T23:40:21.722Z</time>
      </trkpt>
      <trkpt lat="43.451464" lon="12.665597">
        <ele>500.001950</ele>
        <time>2020-02-24T23:40:44.230Z</time>
      </trkpt>
      <trkpt lat="43.450924" lon="12.664885">
        <ele>498.444765</ele>
        <time>2020-02-24T23:40:57.881Z</time>
      </trkpt>
      <trkpt lat="43.450596" lon="12.665264">
        <ele>497.552920</ele>
        <time>2020-02-24T23:41:09.090Z</time>
      </trkpt>
      <trkpt lat="43.450404" lon="12.665481">
        <ele>498.581664</ele>
        <time>2020-02-24T23:41:16.944Z</time>
      </trkpt>
      <trkpt lat="43.450403" lon="12.665483">
        <ele>498.588976</ele>
        <time>2020-02-24T23:41:17.082Z</time>
      </trkpt>
      <trkpt lat="43.450310" lon="12.665637">
        <ele>499.192106</ele>
        <time>2020-02-24T23:41:21.558Z</time>
      </trkpt>
      <trkpt lat="43.450046" lon="12.666408">
        <ele>501.758765</ele>
        <time>2020-02-24T23:41:44.123Z</time>
      </trkpt>
      <trkpt lat="43.449933" lon="12.666739">
        <ele>502.860068</ele>
        <time>2020-02-24T23:41:57.052Z</time>
      </trkpt>
      <trkpt lat="43.449827" lon="12.667053">
        <ele>503.902709</ele>
        <time>2020-02-24T23:42:08.614Z</time>
      </trkpt>
      <trkpt lat="43.449507" lon="12.667826">
        <ele>507.512889</ele>
        <time>2020-02-24T23:42:39.028Z</time>
      </trkpt>
      <trkpt lat="43.449445" lon="12.668398">
        <ele>510.286907</ele>
        <time>2020-02-24T23:42:59.121Z</time>
      </trkpt>
      <trkpt lat="43.449424" lon="12.668560">
        <ele>511.076233</ele>
        <time>2020-02-24T23:43:05.590Z</time>
      </trkpt>
      <trkpt lat="43.449372" lon="12.668706">
        <ele>511.856261</ele>
        <time>2020-02-24T23:43:12.343Z</time>
      </trkpt>
      <trkpt lat="43.449146" lon="12.669220">
        <ele>514.738593</ele>
        <time>2020-02-24T23:43:32.626Z</time>
      </trkpt>
      <trkpt lat="43.448805" lon="12.670442">
        <ele>521.108401</ele>
        <time>2020-02-24T23:44:19.348Z</time>
      </trkpt>
      <trkpt lat="43.448804" lon="12.670444">
        <ele>521.120304</ele>
        <time>2020-02-24T23:44:19.703Z</time>
      </trkpt>
      <trkpt lat="43.448385" lon="12.671328">
        <ele>526.295132</ele>
        <time>2020-02-24T23:44:56.783Z</time>
      </trkpt>
      <trkpt lat="43.448225" lon="12.671957">
        <ele>529.555967</ele>
        <time>2020-02-24T23:45:20.580Z</time>
      </trkpt>
      <trkpt lat="43.447353" lon="12.672983">
        <ele>537.208344</ele>
        <time>2020-02-24T23:46:16.426Z</time>
      </trkpt>
      <trkpt lat="43.447185" lon="12.673319">
        <ele>539.184723</ele>
        <time>2020-02-24T23:46:31.189Z</time>
      </trkpt>
      <trkpt lat="43.447170" lon="12.673501">
        <ele>540.072062</ele>
        <time>2020-02-24T23:46:37.641Z</time>
      </trkpt>
      <trkpt lat="43.447243" lon="12.673561">
        <ele>540.639294</ele>
        <time>2020-02-24T23:46:41.803Z</time>
      </trkpt>
      <trkpt lat="43.447300" lon="12.673532">
        <ele>541.045249</ele>
        <time>2020-02-24T23:46:44.781Z</time>
      </trkpt>
      <trkpt lat="43.447536" lon="12.673216">
        <ele>543.559438</ele>
        <time>2020-02-24T23:47:00.785Z</time>
      </trkpt>
      <trkpt lat="43.448119" lon="12.672740">
        <ele>548.736464</ele>
        <time>2020-02-24T23:47:35.379Z</time>
      </trkpt>
      <trkpt lat="43.448201" lon="12.672788">
        <ele>549.417065</ele>
        <time>2020-02-24T23:47:40.723Z</time>
      </trkpt>
      <trkpt lat="43.448202" lon="12.672921">
        <ele>550.154690</ele>
        <time>2020-02-24T23:47:46.200Z</time>
      </trkpt>
      <trkpt lat="43.447882" lon="12.673351">
        <ele>553.569645</ele>
        <time>2020-02-24T23:48:10.279Z</time>
      </trkpt>
      <trkpt lat="43.447538" lon="12.673765">
        <ele>557.710484</ele>
        <time>2020-02-24T23:48:35.869Z</time>
      </trkpt>
      <trkpt lat="43.447434" lon="12.673890">
        <ele>559.066289</ele>
        <time>2020-02-24T23:48:44.964Z</time>
      </trkpt>
      <trkpt lat="43.447230" lon="12.674048">
        <ele>561.365181</ele>
        <time>2020-02-24T23:48:57.959Z</time>
      </trkpt>
      <trkpt lat="43.446462" lon="12.675376">
        <ele>573.511823</ele>
        <time>2020-02-24T23:50:17.761Z</time>
      </trkpt>
      <trkpt lat="43.445778" lon="12.676291">
        <ele>583.232453</ele>
        <time>2020-02-24T23:51:18.719Z</time>
      </trkpt>
      <trkpt lat="43.445572" lon="12.676504">
        <ele>585.858462</ele>
        <time>2020-02-24T23:51:35.046Z</time>
      </trkpt>
      <trkpt lat="43.445179" lon="12.676784">
        <ele>590.369249</ele>
        <time>2020-02-24T23:52:02.707Z</time>
      </trkpt>
      <trkpt lat="43.444288" lon="12.677283">
        <ele>598.933626</ele>
        <time>2020-02-24T23:52:59.487Z</time>
      </trkpt>
      <trkpt lat="43.444096" lon="12.677546">
        <ele>601.329288</ele>
        <time>2020-02-24T23:53:14.930Z</time>
      </trkpt>
      <trkpt lat="43.443876" lon="12.678150">
        <ele>605.669839</ele>
        <time>2020-02-24T23:53:42.581Z</time>
      </trkpt>
      <trkpt lat="43.443645" lon="12.678613">
        <ele>608.736627</ele>
        <time>2020-02-24T23:54:04.559Z</time>
      </trkpt>
      <trkpt lat="43.442910" lon="12.679626">
        <ele>616.004762</ele>
        <time>2020-02-24T23:54:57.039Z</time>
      </trkpt>
      <trkpt lat="43.442147" lon="12.680200">
        <ele>621.446966</ele>
        <time>2020-02-24T23:55:37.664Z</time>
      </trkpt>
      <trkpt lat="43.441997" lon="12.680545">
        <ele>623.027030</ele>
        <time>2020-02-24T23:55:50.757Z</time>
      </trkpt>
      <trkpt lat="43.442003" lon="12.680690">
        <ele>623.597701</ele>
        <time>2020-02-24T23:55:55.314Z</time>
      </trkpt>
      <trkpt lat="43.442100" lon="12.680810">
        <ele>624.303309</ele>
        <time>2020-02-24T23:56:01.029Z</time>
      </trkpt>
      <trkpt lat="43.442218" lon="12.680719">
        <ele>625.035182</ele>
        <time>2020-02-24T23:56:06.843Z</time>
      </trkpt>
      <trkpt lat="43.442463" lon="12.680257">
        <ele>627.283139</ele>
        <time>2020-02-24T23:56:24.132Z</time>
      </trkpt>
      <trkpt lat="43.443527" lon="12.679619">
        <ele>633.427681</ele>
        <time>2020-02-24T23:57:13.104Z</time>
      </trkpt>
      <trkpt lat="43.443829" lon="12.679228">
        <ele>635.604054</ele>
        <time>2020-02-24T23:57:31.120Z</time>
      </trkpt>
      <trkpt lat="43.443895" lon="12.679223">
        <ele>635.951132</ele>
        <time>2020-02-24T23:57:34.038Z</time>
      </trkpt>
      <trkpt lat="43.443941" lon="12.679308">
        <ele>636.355297</ele>
        <time>2020-02-24T23:57:37.558Z</time>
      </trkpt>
      <trkpt lat="43.443899" lon="12.679467">
        <ele>637.000332</ele>
        <time>2020-02-24T23:57:43.011Z</time>
      </trkpt>
      <trkpt lat="43.443586" lon="12.679843">
        <ele>639.259148</ele>
        <time>2020-02-24T23:58:01.459Z</time>
      </trkpt>
      <trkpt lat="43.443369" lon="12.680009">
        <ele>640.701248</ele>
        <time>2020-02-24T23:58:12.581Z</time>
      </trkpt>
      <trkpt lat="43.442977" lon="12.680565">
        <ele>643.970330</ele>
        <time>2020-02-24T23:58:37.818Z</time>
      </trkpt>
      <trkpt lat="43.442594" lon="12.680936">
        <ele>646.690648</ele>
        <time>2020-02-24T23:58:59.485Z</time>
      </trkpt>
      <trkpt lat="43.442131" lon="12.681503">
        <ele>650.269982</ele>
        <time>2020-02-24T23:59:28.156Z</time>
      </trkpt>
      <trkpt lat="43.441732" lon="12.681842">
        <ele>652.954351</ele>
        <time>2020-02-24T23:59:50.259Z</time>
      </trkpt>
      <trkpt lat="43.441292" lon="12.682024">
        <ele>655.584915</ele>
        <time>2020-02-25T00:00:12.549Z</time>
      </trkpt>
      <trkpt lat="43.441008" lon="12.682220">
        <ele>657.403809</ele>
        <time>2020-02-25T00:00:27.082Z</time>
      </trkpt>
      <trkpt lat="43.440801" lon="12.682446">
        <ele>658.916313</ele>
        <time>2020-02-25T00:00:38.340Z</time>
      </trkpt>
      <trkpt lat="43.440133" lon="12.683253">
        <ele>660.812396</ele>
        <time>2020-02-25T00:01:10.890Z</time>
      </trkpt>
      <trkpt lat="43.439824" lon="12.683603">
        <ele>661.582361</ele>
        <time>2020-02-25T00:01:22.303Z</time>
      </trkpt>
      <trkpt lat="43.439634" lon="12.683907">
        <ele>662.142868</ele>
        <time>2020-02-25T00:01:29.477Z</time>
      </trkpt>
      <trkpt lat="43.439261" lon="12.684499">
        <ele>661.626802</ele>
        <time>2020-02-25T00:01:40.403Z</time>
      </trkpt>
      <trkpt lat="43.438701" lon="12.685297">
        <ele>658.870255</ele>
        <time>2020-02-25T00:01:53.361Z</time>
      </trkpt>
      <trkpt lat="43.438080" lon="12.686394">
        <ele>654.637119</ele>
        <time>2020-02-25T00:02:08.756Z</time>
      </trkpt>
      <trkpt lat="43.436696" lon="12.689384">
        <ele>639.851577</ele>
        <time>2020-02-25T00:02:46.412Z</time>
      </trkpt>
      <trkpt lat="43.435853" lon="12.690800">
        <ele>633.916705</ele>
        <time>2020-02-25T00:03:06.673Z</time>
      </trkpt>
      <trkpt lat="43.435611" lon="12.692381">
        <ele>630.154458</ele>
        <time>2020-02-25T00:03:26.510Z</time>
      </trkpt>
      <trkpt lat="43.435665" lon="12.693156">
        <ele>629.910214</ele>
        <time>2020-02-25T00:03:37.227Z</time>
      </trkpt>
      <trkpt lat="43.435646" lon="12.693851">
        <ele>629.692029</ele>
        <time>2020-02-25T00:03:48.412Z</time>
      </trkpt>
      <trkpt lat="43.435382" lon="12.694605">
        <ele>629.429427</ele>
        <time>2020-02-25T00:04:03.120Z</time>
      </trkpt>
      <trkpt lat="43.435079" lon="12.695296">
        <ele>628.742874</ele>
        <time>2020-02-25T00:04:16.916Z</time>
      </trkpt>
      <trkpt lat="43.434732" lon="12.695659">
        <ele>628.149453</ele>
        <time>2020-02-25T00:04:25.904Z</time>
      </trkpt>
      <trkpt lat="43.434691" lon="12.696291">
        <ele>627.521995</ele>
        <time>2020-02-25T00:04:34.658Z</time>
      </trkpt>
      <trkpt lat="43.434506" lon="12.696767">
        <ele>626.988109</ele>
        <time>2020-02-25T00:04:41.302Z</time>
      </trkpt>
      <trkpt lat="43.434438" lon="12.697173">
        <ele>624.998032</ele>
        <time>2020-02-25T00:04:45.966Z</time>
      </trkpt>
      <trkpt lat="43.434178" lon="12.697894">
        <ele>620.633951</ele>
        <time>2020-02-25T00:04:54.483Z</time>
      </trkpt>
      <trkpt lat="43.434198" lon="12.698373">
        <ele>618.032919</ele>
        <time>2020-02-25T00:04:59.349Z</time>
      </trkpt>
      <trkpt lat="43.434075" lon="12.699031">
        <ele>614.349490</ele>
        <time>2020-02-25T00:05:06.086Z</time>
      </trkpt>
      <trkpt lat="43.433928" lon="12.699422">
        <ele>611.455981</ele>
        <time>2020-02-25T00:05:10.410Z</time>
      </trkpt>
      <trkpt lat="43.433852" lon="12.699814">
        <ele>608.531876</ele>
        <time>2020-02-25T00:05:14.383Z</time>
      </trkpt>
      <trkpt lat="43.433981" lon="12.700274">
        <ele>604.978029</ele>
        <time>2020-02-25T00:05:19.213Z</time>
      </trkpt>
      <trkpt lat="43.433841" lon="12.700831">
        <ele>600.730063</ele>
        <time>2020-02-25T00:05:25.030Z</time>
      </trkpt>
      <trkpt lat="43.433585" lon="12.701180">
        <ele>597.154901</ele>
        <time>2020-02-25T00:05:29.983Z</time>
      </trkpt>
      <trkpt lat="43.433478" lon="12.701791">
        <ele>593.368446</ele>
        <time>2020-02-25T00:05:36.327Z</time>
      </trkpt>
      <trkpt lat="43.432321" lon="12.704119">
        <ele>577.932112</ele>
        <time>2020-02-25T00:06:05.703Z</time>
      </trkpt>
      <trkpt lat="43.431886" lon="12.704588">
        <ele>573.695074</ele>
        <time>2020-02-25T00:06:13.532Z</time>
      </trkpt>
      <trkpt lat="43.430961" lon="12.706071">
        <ele>562.338370</ele>
        <time>2020-02-25T00:06:33.342Z</time>
      </trkpt>
      <trkpt lat="43.430062" lon="12.707188">
        <ele>552.490273</ele>
        <time>2020-02-25T00:06:50.202Z</time>
      </trkpt>
      <trkpt lat="43.429287" lon="12.707492">
        <ele>547.043824</ele>
        <time>2020-02-25T00:07:01.641Z</time>
      </trkpt>
      <trkpt lat="43.428491" lon="12.707985">
        <ele>541.203841</ele>
        <time>2020-02-25T00:07:14.389Z</time>
      </trkpt>
      <trkpt lat="43.428387" lon="12.708015">
        <ele>540.794605</ele>
        <time>2020-02-25T00:07:15.999Z</time>
      </trkpt>
      <trkpt lat="43.428085" lon="12.707928">
        <ele>539.606314</ele>
        <time>2020-02-25T00:07:20.737Z</time>
      </trkpt>
      <trkpt lat="43.427867" lon="12.707944">
        <ele>538.765526</ele>
        <time>2020-02-25T00:07:24.153Z</time>
      </trkpt>
      <trkpt lat="43.427341" lon="12.708372">
        <ele>536.412437</ele>
        <time>2020-02-25T00:07:33.985Z</time>
      </trkpt>
      <trkpt lat="43.426667" lon="12.708456">
        <ele>533.896222</ele>
        <time>2020-02-25T00:07:45.180Z</time>
      </trkpt>
      <trkpt lat="43.426434" lon="12.708643">
        <ele>533.028215</ele>
        <time>2020-02-25T00:07:49.689Z</time>
      </trkpt>
      <trkpt lat="43.426158" lon="12.709106">
        <ele>531.628081</ele>
        <time>2020-02-25T00:07:56.791Z</time>
      </trkpt>
      <trkpt lat="43.425665" lon="12.709713">
        <ele>529.499494</ele>
        <time>2020-02-25T00:08:07.392Z</time>
      </trkpt>
      <trkpt lat="43.425318" lon="12.710440">
        <ele>527.809815</ele>
        <time>2020-02-25T00:08:17.743Z</time>
      </trkpt>
      <trkpt lat="43.425160" lon="12.710704">
        <ele>527.260110</ele>
        <time>2020-02-25T00:08:21.819Z</time>
      </trkpt>
      <trkpt lat="43.425229" lon="12.710783">
        <ele>527.061560</ele>
        <time>2020-02-25T00:08:23.375Z</time>
      </trkpt>
      <trkpt lat="43.425284" lon="12.710893">
        <ele>526.846961</ele>
        <time>2020-02-25T00:08:25.038Z</time>
      </trkpt>
      <trkpt lat="43.425309" lon="12.710987">
        <ele>526.686102</ele>
        <time>2020-02-25T00:08:26.184Z</time>
      </trkpt>
      <trkpt lat="43.425329" lon="12.711063">
        <ele>526.556207</ele>
        <time>2020-02-25T00:08:27.264Z</time>
      </trkpt>
      <trkpt lat="43.425351" lon="12.711501">
        <ele>525.850700</ele>
        <time>2020-02-25T00:08:32.726Z</time>
      </trkpt>
      <trkpt lat="43.425313" lon="12.711938">
        <ele>525.143465</ele>
        <time>2020-02-25T00:08:38.403Z</time>
      </trkpt>
      <trkpt lat="43.425477" lon="12.712694">
        <ele>524.508344</ele>
        <time>2020-02-25T00:08:49.772Z</time>
      </trkpt>
      <trkpt lat="43.425450" lon="12.713406">
        <ele>524.382452</ele>
        <time>2020-02-25T00:09:03.088Z</time>
      </trkpt>
      <trkpt lat="43.425653" lon="12.714056">
        <ele>524.257517</ele>
        <time>2020-02-25T00:09:15.435Z</time>
      </trkpt>
      <trkpt lat="43.425710" lon="12.714226">
        <ele>524.224454</ele>
        <time>2020-02-25T00:09:17.690Z</time>
      </trkpt>
      <trkpt lat="43.425778" lon="12.714444">
        <ele>524.182561</ele>
        <time>2020-02-25T00:09:22.670Z</time>
      </trkpt>
      <trkpt lat="43.425816" lon="12.714688">
        <ele>524.036702</ele>
        <time>2020-02-25T00:09:25.683Z</time>
      </trkpt>
      <trkpt lat="43.425755" lon="12.714921">
        <ele>523.575407</ele>
        <time>2020-02-25T00:09:30.466Z</time>
      </trkpt>
      <trkpt lat="43.425449" lon="12.715431">
        <ele>522.343310</ele>
        <time>2020-02-25T00:09:39.004Z</time>
      </trkpt>
      <trkpt lat="43.425201" lon="12.715564">
        <ele>521.660781</ele>
        <time>2020-02-25T00:09:43.916Z</time>
      </trkpt>
      <trkpt lat="43.424340" lon="12.715400">
        <ele>519.387792</ele>
        <time>2020-02-25T00:09:57.542Z</time>
      </trkpt>
      <trkpt lat="43.424105" lon="12.715301">
        <ele>518.493390</ele>
        <time>2020-02-25T00:10:01.288Z</time>
      </trkpt>
      <trkpt lat="43.423906" lon="12.715332">
        <ele>517.764524</ele>
        <time>2020-02-25T00:10:04.349Z</time>
      </trkpt>
      <trkpt lat="43.423753" lon="12.715515">
        <ele>517.026930</ele>
        <time>2020-02-25T00:10:07.496Z</time>
      </trkpt>
      <trkpt lat="43.423609" lon="12.716220">
        <ele>515.091128</ele>
        <time>2020-02-25T00:10:15.933Z</time>
      </trkpt>
      <trkpt lat="43.423468" lon="12.716491">
        <ele>514.209958</ele>
        <time>2020-02-25T00:10:19.847Z</time>
      </trkpt>
      <trkpt lat="43.422730" lon="12.717234">
        <ele>512.604211</ele>
        <time>2020-02-25T00:10:35.403Z</time>
      </trkpt>
      <trkpt lat="43.422366" lon="12.717781">
        <ele>512.244796</ele>
        <time>2020-02-25T00:10:46.175Z</time>
      </trkpt>
      <trkpt lat="43.422017" lon="12.719212">
        <ele>512.265795</ele>
        <time>2020-02-25T00:11:15.142Z</time>
      </trkpt>
      <trkpt lat="43.421945" lon="12.719979">
        <ele>512.907543</ele>
        <time>2020-02-25T00:11:30.767Z</time>
      </trkpt>
      <trkpt lat="43.421707" lon="12.721021">
        <ele>513.813940</ele>
        <time>2020-02-25T00:11:51.929Z</time>
      </trkpt>
      <trkpt lat="43.421469" lon="12.721433">
        <ele>514.205669</ele>
        <time>2020-02-25T00:12:02.331Z</time>
      </trkpt>
      <trkpt lat="43.421071" lon="12.721735">
        <ele>514.667057</ele>
        <time>2020-02-25T00:12:13.766Z</time>
      </trkpt>
      <trkpt lat="43.420909" lon="12.722007">
        <ele>514.926449</ele>
        <time>2020-02-25T00:12:20.285Z</time>
      </trkpt>
      <trkpt lat="43.420812" lon="12.722615">
        <ele>515.385492</ele>
        <time>2020-02-25T00:12:31.626Z</time>
      </trkpt>
      <trkpt lat="43.420485" lon="12.723085">
        <ele>515.887543</ele>
        <time>2020-02-25T00:12:44.329Z</time>
      </trkpt>
      <trkpt lat="43.420384" lon="12.723436">
        <ele>516.197744</ele>
        <time>2020-02-25T00:12:52.362Z</time>
      </trkpt>
      <trkpt lat="43.420364" lon="12.724248">
        <ele>516.865297</ele>
        <time>2020-02-25T00:13:13.403Z</time>
      </trkpt>
      <trkpt lat="43.420498" lon="12.724596">
        <ele>517.188921</ele>
        <time>2020-02-25T00:13:24.883Z</time>
      </trkpt>
      <trkpt lat="43.420960" lon="12.724939">
        <ele>517.345081</ele>
        <time>2020-02-25T00:13:33.692Z</time>
      </trkpt>
      <trkpt lat="43.421028" lon="12.725314">
        <ele>515.838509</ele>
        <time>2020-02-25T00:13:38.046Z</time>
      </trkpt>
      <trkpt lat="43.420942" lon="12.725567">
        <ele>514.749689</ele>
        <time>2020-02-25T00:13:43.951Z</time>
      </trkpt>
      <trkpt lat="43.420934" lon="12.725849">
        <ele>513.649647</ele>
        <time>2020-02-25T00:13:46.817Z</time>
      </trkpt>
      <trkpt lat="43.420938" lon="12.725904">
        <ele>513.434191</ele>
        <time>2020-02-25T00:13:49.071Z</time>
      </trkpt>
      <trkpt lat="43.420938" lon="12.725908">
        <ele>513.418599</ele>
        <time>2020-02-25T00:13:49.115Z</time>
      </trkpt>
      <trkpt lat="43.420967" lon="12.726237">
        <ele>512.126785</ele>
        <time>2020-02-25T00:13:53.272Z</time>
      </trkpt>
      <trkpt lat="43.420970" lon="12.726272">
        <ele>511.989413</ele>
        <time>2020-02-25T00:13:53.632Z</time>
      </trkpt>
      <trkpt lat="43.421021" lon="12.726919">
        <ele>509.452673</ele>
        <time>2020-02-25T00:14:00.646Z</time>
      </trkpt>
      <trkpt lat="43.421201" lon="12.727402">
        <ele>506.878098</ele>
        <time>2020-02-25T00:14:06.112Z</time>
      </trkpt>
      <trkpt lat="43.421272" lon="12.727750">
        <ele>504.568403</ele>
        <time>2020-02-25T00:14:09.586Z</time>
      </trkpt>
      <trkpt lat="43.421446" lon="12.728042">
        <ele>502.155018</ele>
        <time>2020-02-25T00:14:13.523Z</time>
      </trkpt>
      <trkpt lat="43.422014" lon="12.728076">
        <ele>497.153355</ele>
        <time>2020-02-25T00:14:21.182Z</time>
      </trkpt>
      <trkpt lat="43.422161" lon="12.728369">
        <ele>494.877955</ele>
        <time>2020-02-25T00:14:24.834Z</time>
      </trkpt>
      <trkpt lat="43.422395" lon="12.728684">
        <ele>492.099669</ele>
        <time>2020-02-25T00:14:29.512Z</time>
      </trkpt>
      <trkpt lat="43.422468" lon="12.729501">
        <ele>489.128835</ele>
        <time>2020-02-25T00:14:38.220Z</time>
      </trkpt>
      <trkpt lat="43.422489" lon="12.730376">
        <ele>485.969183</ele>
        <time>2020-02-25T00:14:47.942Z</time>
      </trkpt>
      <trkpt lat="43.422363" lon="12.730816">
        <ele>484.262224</ele>
        <time>2020-02-25T00:14:53.448Z</time>
      </trkpt>
      <trkpt lat="43.422359" lon="12.731088">
        <ele>483.288036</ele>
        <time>2020-02-25T00:14:56.678Z</time>
      </trkpt>
      <trkpt lat="43.422448" lon="12.731261">
        <ele>482.992270</ele>
        <time>2020-02-25T00:14:59.262Z</time>
      </trkpt>
      <trkpt lat="43.422602" lon="12.731327">
        <ele>482.682462</ele>
        <time>2020-02-25T00:15:01.982Z</time>
      </trkpt>
      <trkpt lat="43.423383" lon="12.731061">
        <ele>481.137073</ele>
        <time>2020-02-25T00:15:16.635Z</time>
      </trkpt>
      <trkpt lat="43.424526" lon="12.730872">
        <ele>477.659445</ele>
        <time>2020-02-25T00:15:37.958Z</time>
      </trkpt>
      <trkpt lat="43.424822" lon="12.730699">
        <ele>476.184307</ele>
        <time>2020-02-25T00:15:43.056Z</time>
      </trkpt>
      <trkpt lat="43.425054" lon="12.730456">
        <ele>474.847091</ele>
        <time>2020-02-25T00:15:47.380Z</time>
      </trkpt>
      <trkpt lat="43.425254" lon="12.730460">
        <ele>473.929515</ele>
        <time>2020-02-25T00:15:50.323Z</time>
      </trkpt>
      <trkpt lat="43.425944" lon="12.730909">
        <ele>470.001960</ele>
        <time>2020-02-25T00:16:01.265Z</time>
      </trkpt>
      <trkpt lat="43.426244" lon="12.731244">
        <ele>467.577550</ele>
        <time>2020-02-25T00:16:06.724Z</time>
      </trkpt>
      <trkpt lat="43.426629" lon="12.731672">
        <ele>464.471726</ele>
        <time>2020-02-25T00:16:13.799Z</time>
      </trkpt>
      <trkpt lat="43.426932" lon="12.732270">
        <ele>461.147892</ele>
        <time>2020-02-25T00:16:21.572Z</time>
      </trkpt>
      <trkpt lat="43.427422" lon="12.732776">
        <ele>459.562119</ele>
        <time>2020-02-25T00:16:31.181Z</time>
      </trkpt>
      <trkpt lat="43.427727" lon="12.732924">
        <ele>459.063639</ele>
        <time>2020-02-25T00:16:37.347Z</time>
      </trkpt>
      <trkpt lat="43.428932" lon="12.732743">
        <ele>457.523293</ele>
        <time>2020-02-25T00:17:04.155Z</time>
      </trkpt>
      <trkpt lat="43.429919" lon="12.732246">
        <ele>457.515629</ele>
        <time>2020-02-25T00:17:28.393Z</time>
      </trkpt>
      <trkpt lat="43.430146" lon="12.732171">
        <ele>457.513926</ele>
        <time>2020-02-25T00:17:33.652Z</time>
      </trkpt>
      <trkpt lat="43.430359" lon="12.732100">
        <ele>457.512328</ele>
        <time>2020-02-25T00:17:38.217Z</time>
      </trkpt>
      <trkpt lat="43.430660" lon="12.732201">
        <ele>457.142100</ele>
        <time>2020-02-25T00:17:44.738Z</time>
      </trkpt>
      <trkpt lat="43.431083" lon="12.732876">
        <ele>456.094977</ele>
        <time>2020-02-25T00:17:57.131Z</time>
      </trkpt>
      <trkpt lat="43.431085" lon="12.732880">
        <ele>456.089274</ele>
        <time>2020-02-25T00:17:57.265Z</time>
      </trkpt>
      <trkpt lat="43.431423" lon="12.733579">
        <ele>455.102989</ele>
        <time>2020-02-25T00:18:07.947Z</time>
      </trkpt>
      <trkpt lat="43.431689" lon="12.734410">
        <ele>453.167821</ele>
        <time>2020-02-25T00:18:19.121Z</time>
      </trkpt>
      <trkpt lat="43.432354" lon="12.735580">
        <ele>448.747171</ele>
        <time>2020-02-25T00:18:35.798Z</time>
      </trkpt>
      <trkpt lat="43.432530" lon="12.736155">
        <ele>446.925523</ele>
        <time>2020-02-25T00:18:42.641Z</time>
      </trkpt>
      <trkpt lat="43.432777" lon="12.737040">
        <ele>444.391981</ele>
        <time>2020-02-25T00:18:53.060Z</time>
      </trkpt>
      <trkpt lat="43.432948" lon="12.737362">
        <ele>443.326002</ele>
        <time>2020-02-25T00:18:57.500Z</time>
      </trkpt>
      <trkpt lat="43.432952" lon="12.737369">
        <ele>443.302199</ele>
        <time>2020-02-25T00:18:57.611Z</time>
      </trkpt>
      <trkpt lat="43.432987" lon="12.737475">
        <ele>442.991042</ele>
        <time>2020-02-25T00:18:59.037Z</time>
      </trkpt>
      <trkpt lat="43.432790" lon="12.737681">
        <ele>442.080810</ele>
        <time>2020-02-25T00:19:03.229Z</time>
      </trkpt>
      <trkpt lat="43.432859" lon="12.738022">
        <ele>441.134880</ele>
        <time>2020-02-25T00:19:07.920Z</time>
      </trkpt>
      <trkpt lat="43.432432" lon="12.738304">
        <ele>440.269089</ele>
        <time>2020-02-25T00:19:17.959Z</time>
      </trkpt>
      <trkpt lat="43.432416" lon="12.738422">
        <ele>440.178376</ele>
        <time>2020-02-25T00:19:19.925Z</time>
      </trkpt>
      <trkpt lat="43.432450" lon="12.738529">
        <ele>440.090114</ele>
        <time>2020-02-25T00:19:21.433Z</time>
      </trkpt>
      <trkpt lat="43.432438" lon="12.738692">
        <ele>439.966304</ele>
        <time>2020-02-25T00:19:23.841Z</time>
      </trkpt>
      <trkpt lat="43.432469" lon="12.739116">
        <ele>439.644268</ele>
        <time>2020-02-25T00:19:30.090Z</time>
      </trkpt>
      <trkpt lat="43.432385" lon="12.739312">
        <ele>439.472281</ele>
        <time>2020-02-25T00:19:34.030Z</time>
      </trkpt>
      <trkpt lat="43.432197" lon="12.739406">
        <ele>439.264143</ele>
        <time>2020-02-25T00:19:37.679Z</time>
      </trkpt>
      <trkpt lat="43.432093" lon="12.739531">
        <ele>439.120490</ele>
        <time>2020-02-25T00:19:41.465Z</time>
      </trkpt>
      <trkpt lat="43.431671" lon="12.739666">
        <ele>438.645720</ele>
        <time>2020-02-25T00:19:49.635Z</time>
      </trkpt>
      <trkpt lat="43.430959" lon="12.739928">
        <ele>437.628950</ele>
        <time>2020-02-25T00:20:03.826Z</time>
      </trkpt>
      <trkpt lat="43.430678" lon="12.740090">
        <ele>437.208666</ele>
        <time>2020-02-25T00:20:09.529Z</time>
      </trkpt>
      <trkpt lat="43.430549" lon="12.740422">
        <ele>436.831415</ele>
        <time>2020-02-25T00:20:14.121Z</time>
      </trkpt>
      <trkpt lat="43.430455" lon="12.740876">
        <ele>436.358423</ele>
        <time>2020-02-25T00:20:20.106Z</time>
      </trkpt>
      <trkpt lat="43.430287" lon="12.741694">
        <ele>435.895989</ele>
        <time>2020-02-25T00:20:31.985Z</time>
      </trkpt>
      <trkpt lat="43.429867" lon="12.743472">
        <ele>434.975499</ele>
        <time>2020-02-25T00:21:01.357Z</time>
      </trkpt>
      <trkpt lat="43.429594" lon="12.743847">
        <ele>434.669993</ele>
        <time>2020-02-25T00:21:08.900Z</time>
      </trkpt>
      <trkpt lat="43.429073" lon="12.744180">
        <ele>434.214921</ele>
        <time>2020-02-25T00:21:19.867Z</time>
      </trkpt>
      <trkpt lat="43.428379" lon="12.745120">
        <ele>433.722432</ele>
        <time>2020-02-25T00:21:38.603Z</time>
      </trkpt>
      <trkpt lat="43.427519" lon="12.746525">
        <ele>434.207752</ele>
        <time>2020-02-25T00:22:11.202Z</time>
      </trkpt>
      <trkpt lat="43.427294" lon="12.746746">
        <ele>434.294439</ele>
        <time>2020-02-25T00:22:19.289Z</time>
      </trkpt>
      <trkpt lat="43.426291" lon="12.747345">
        <ele>434.408619</ele>
        <time>2020-02-25T00:22:47.719Z</time>
      </trkpt>
      <trkpt lat="43.425945" lon="12.747614">
        <ele>434.450117</ele>
        <time>2020-02-25T00:22:56.031Z</time>
      </trkpt>
      <trkpt lat="43.425621" lon="12.747687">
        <ele>434.221539</ele>
        <time>2020-02-25T00:23:02.090Z</time>
      </trkpt>
      <trkpt lat="43.425298" lon="12.747612">
        <ele>433.086305</ele>
        <time>2020-02-25T00:23:07.638Z</time>
      </trkpt>
      <trkpt lat="43.424851" lon="12.747625">
        <ele>431.536782</ele>
        <time>2020-02-25T00:23:14.720Z</time>
      </trkpt>
      <trkpt lat="43.424401" lon="12.747781">
        <ele>429.928535</ele>
        <time>2020-02-25T00:23:21.785Z</time>
      </trkpt>
      <trkpt lat="43.424005" lon="12.747354">
        <ele>428.209516</ele>
        <time>2020-02-25T00:23:29.546Z</time>
      </trkpt>
      <trkpt lat="43.423829" lon="12.747407">
        <ele>427.846420</ele>
        <time>2020-02-25T00:23:32.402Z</time>
      </trkpt>
      <trkpt lat="43.423745" lon="12.747631">
        <ele>427.477409</ele>
        <time>2020-02-25T00:23:35.367Z</time>
      </trkpt>
      <trkpt lat="43.423789" lon="12.748002">
        <ele>426.927158</ele>
        <time>2020-02-25T00:23:39.969Z</time>
      </trkpt>
      <trkpt lat="43.423926" lon="12.748454">
        <ele>426.210233</ele>
        <time>2020-02-25T00:23:46.265Z</time>
      </trkpt>
      <trkpt lat="43.423904" lon="12.749176">
        <ele>425.152464</ele>
        <time>2020-02-25T00:23:56.214Z</time>
      </trkpt>
      <trkpt lat="43.423517" lon="12.750059">
        <ele>424.422727</ele>
        <time>2020-02-25T00:24:12.421Z</time>
      </trkpt>
      <trkpt lat="43.423180" lon="12.751189">
        <ele>424.064485</ele>
        <time>2020-02-25T00:24:32.853Z</time>
      </trkpt>
      <trkpt lat="43.423008" lon="12.751380">
        <ele>423.975260</ele>
        <time>2020-02-25T00:24:37.253Z</time>
      </trkpt>
      <trkpt lat="43.422760" lon="12.751471">
        <ele>423.811723</ele>
        <time>2020-02-25T00:24:42.035Z</time>
      </trkpt>
      <trkpt lat="43.422541" lon="12.751472">
        <ele>423.461431</ele>
        <time>2020-02-25T00:24:45.960Z</time>
      </trkpt>
      <trkpt lat="43.422162" lon="12.751863">
        <ele>422.703920</ele>
        <time>2020-02-25T00:24:54.244Z</time>
      </trkpt>
      <trkpt lat="43.421974" lon="12.752129">
        <ele>422.272738</ele>
        <time>2020-02-25T00:24:59.084Z</time>
      </trkpt>
      <trkpt lat="43.421818" lon="12.752990">
        <ele>421.241829</ele>
        <time>2020-02-25T00:25:10.733Z</time>
      </trkpt>
      <trkpt lat="43.421767" lon="12.753314">
        <ele>420.950442</ele>
        <time>2020-02-25T00:25:15.144Z</time>
      </trkpt>
      <trkpt lat="43.421711" lon="12.753610">
        <ele>420.805640</ele>
        <time>2020-02-25T00:25:19.268Z</time>
      </trkpt>
      <trkpt lat="43.421669" lon="12.753794">
        <ele>420.714334</ele>
        <time>2020-02-25T00:25:22.118Z</time>
      </trkpt>
      <trkpt lat="43.421538" lon="12.754119">
        <ele>420.538373</ele>
        <time>2020-02-25T00:25:27.250Z</time>
      </trkpt>
      <trkpt lat="43.421467" lon="12.754282">
        <ele>420.448396</ele>
        <time>2020-02-25T00:25:30.504Z</time>
      </trkpt>
      <trkpt lat="43.421333" lon="12.754498">
        <ele>420.313918</ele>
        <time>2020-02-25T00:25:34.353Z</time>
      </trkpt>
      <trkpt lat="43.420757" lon="12.754802">
        <ele>419.911850</ele>
        <time>2020-02-25T00:25:48.017Z</time>
      </trkpt>
      <trkpt lat="43.420657" lon="12.755026">
        <ele>419.796234</ele>
        <time>2020-02-25T00:25:52.314Z</time>
      </trkpt>
      <trkpt lat="43.420561" lon="12.755602">
        <ele>419.561341</ele>
        <time>2020-02-25T00:26:02.610Z</time>
      </trkpt>
      <trkpt lat="43.420457" lon="12.755854">
        <ele>419.446138</ele>
        <time>2020-02-25T00:26:06.740Z</time>
      </trkpt>
      <trkpt lat="43.420121" lon="12.756290">
        <ele>419.193471</ele>
        <time>2020-02-25T00:26:16.021Z</time>
      </trkpt>
      <trkpt lat="43.420040" lon="12.756518">
        <ele>419.092588</ele>
        <time>2020-02-25T00:26:19.250Z</time>
      </trkpt>
      <trkpt lat="43.420103" lon="12.756739">
        <ele>418.998223</ele>
        <time>2020-02-25T00:26:22.712Z</time>
      </trkpt>
      <trkpt lat="43.420571" lon="12.756875">
        <ele>418.891892</ele>
        <time>2020-02-25T00:26:31.982Z</time>
      </trkpt>
      <trkpt lat="43.420765" lon="12.757136">
        <ele>418.932801</ele>
        <time>2020-02-25T00:26:37.849Z</time>
      </trkpt>
      <trkpt lat="43.420854" lon="12.757368">
        <ele>418.961542</ele>
        <time>2020-02-25T00:26:41.714Z</time>
      </trkpt>
      <trkpt lat="43.420947" lon="12.757612">
        <ele>418.991727</ele>
        <time>2020-02-25T00:26:46.217Z</time>
      </trkpt>
      <trkpt lat="43.421046" lon="12.757870">
        <ele>419.023691</ele>
        <time>2020-02-25T00:26:51.048Z</time>
      </trkpt>
      <trkpt lat="43.421130" lon="12.758088">
        <ele>419.050724</ele>
        <time>2020-02-25T00:26:55.104Z</time>
      </trkpt>
      <trkpt lat="43.421182" lon="12.758225">
        <ele>419.067657</ele>
        <time>2020-02-25T00:26:58.033Z</time>
      </trkpt>
      <trkpt lat="43.421178" lon="12.758361">
        <ele>419.082567</ele>
        <time>2020-02-25T00:27:00.564Z</time>
      </trkpt>
      <trkpt lat="43.420937" lon="12.758740">
        <ele>419.244635</ele>
        <time>2020-02-25T00:27:09.975Z</time>
      </trkpt>
      <trkpt lat="43.420399" lon="12.759326">
        <ele>420.702727</ele>
        <time>2020-02-25T00:27:30.602Z</time>
      </trkpt>
      <trkpt lat="43.420183" lon="12.759674">
        <ele>421.409415</ele>
        <time>2020-02-25T00:27:42.186Z</time>
      </trkpt>
      <trkpt lat="43.420252" lon="12.759921">
        <ele>421.817965</ele>
        <time>2020-02-25T00:27:48.362Z</time>
      </trkpt>
      <trkpt lat="43.420806" lon="12.760802">
        <ele>423.535776</ele>
        <time>2020-02-25T00:28:14.656Z</time>
      </trkpt>
      <trkpt lat="43.421192" lon="12.762716">
        <ele>426.227651</ele>
        <time>2020-02-25T00:28:58.185Z</time>
      </trkpt>
      <trkpt lat="43.421317" lon="12.763033">
        <ele>426.253538</ele>
        <time>2020-02-25T00:29:05.208Z</time>
      </trkpt>
      <trkpt lat="43.421941" lon="12.763614">
        <ele>426.064547</ele>
        <time>2020-02-25T00:29:23.457Z</time>
      </trkpt>
      <trkpt lat="43.422121" lon="12.763869">
        <ele>425.999751</ele>
        <time>2020-02-25T00:29:28.880Z</time>
      </trkpt>
      <trkpt lat="43.422466" lon="12.764778">
        <ele>425.050603</ele>
        <time>2020-02-25T00:29:42.938Z</time>
      </trkpt>
      <trkpt lat="43.423470" lon="12.766202">
        <ele>418.465344</ele>
        <time>2020-02-25T00:30:04.862Z</time>
      </trkpt>
      <trkpt lat="43.423995" lon="12.766672">
        <ele>414.917778</ele>
        <time>2020-02-25T00:30:13.827Z</time>
      </trkpt>
      <trkpt lat="43.424299" lon="12.767409">
        <ele>411.156786</ele>
        <time>2020-02-25T00:30:22.741Z</time>
      </trkpt>
      <trkpt lat="43.424344" lon="12.767704">
        <ele>409.819195</ele>
        <time>2020-02-25T00:30:25.872Z</time>
      </trkpt>
      <trkpt lat="43.424380" lon="12.767965">
        <ele>408.640337</ele>
        <time>2020-02-25T00:30:28.758Z</time>
      </trkpt>
      <trkpt lat="43.424370" lon="12.768241">
        <ele>407.414095</ele>
        <time>2020-02-25T00:30:31.695Z</time>
      </trkpt>
      <trkpt lat="43.424202" lon="12.769083">
        <ele>405.440652</ele>
        <time>2020-02-25T00:30:41.376Z</time>
      </trkpt>
      <trkpt lat="43.423015" lon="12.774192">
        <ele>400.224970</ele>
        <time>2020-02-25T00:31:55.830Z</time>
      </trkpt>
      <trkpt lat="43.422887" lon="12.774525">
        <ele>400.167078</ele>
        <time>2020-02-25T00:32:02.852Z</time>
      </trkpt>
      <trkpt lat="43.422663" lon="12.774805">
        <ele>400.103070</ele>
        <time>2020-02-25T00:32:10.387Z</time>
      </trkpt>
      <trkpt lat="43.422308" lon="12.775049">
        <ele>400.019127</ele>
        <time>2020-02-25T00:32:19.935Z</time>
      </trkpt>
      <trkpt lat="43.421646" lon="12.775306">
        <ele>399.267655</ele>
        <time>2020-02-25T00:32:36.002Z</time>
      </trkpt>
      <trkpt lat="43.420018" lon="12.775507">
        <ele>396.387664</ele>
        <time>2020-02-25T00:33:04.789Z</time>
      </trkpt>
      <trkpt lat="43.419264" lon="12.775879">
        <ele>393.822019</ele>
        <time>2020-02-25T00:33:17.444Z</time>
      </trkpt>
      <trkpt lat="43.418242" lon="12.776866">
        <ele>390.075100</ele>
        <time>2020-02-25T00:33:37.372Z</time>
      </trkpt>
      <trkpt lat="43.417195" lon="12.778661">
        <ele>385.860885</ele>
        <time>2020-02-25T00:34:06.084Z</time>
      </trkpt>
      <trkpt lat="43.416962" lon="12.779264">
        <ele>384.897798</ele>
        <time>2020-02-25T00:34:15.172Z</time>
      </trkpt>
      <trkpt lat="43.416848" lon="12.779449">
        <ele>384.555711</ele>
        <time>2020-02-25T00:34:18.392Z</time>
      </trkpt>
      <trkpt lat="43.416274" lon="12.780027">
        <ele>383.263073</ele>
        <time>2020-02-25T00:34:31.204Z</time>
      </trkpt>
      <trkpt lat="43.415856" lon="12.780909">
        <ele>382.090961</ele>
        <time>2020-02-25T00:34:44.493Z</time>
      </trkpt>
      <trkpt lat="43.415820" lon="12.781252">
        <ele>381.705242</ele>
        <time>2020-02-25T00:34:48.771Z</time>
      </trkpt>
      <trkpt lat="43.415890" lon="12.781733">
        <ele>381.159256</ele>
        <time>2020-02-25T00:34:54.942Z</time>
      </trkpt>
      <trkpt lat="43.416185" lon="12.783220">
        <ele>383.828486</ele>
        <time>2020-02-25T00:35:24.456Z</time>
      </trkpt>
      <trkpt lat="43.416288" lon="12.783717">
        <ele>385.064245</ele>
        <time>2020-02-25T00:35:39.691Z</time>
      </trkpt>
      <trkpt lat="43.416312" lon="12.783837">
        <ele>385.361845</ele>
        <time>2020-02-25T00:35:43.664Z</time>
      </trkpt>
      <trkpt lat="43.416512" lon="12.784805">
        <ele>388.890763</ele>
        <time>2020-02-25T00:36:20.327Z</time>
      </trkpt>
      <trkpt lat="43.416616" lon="12.785220">
        <ele>391.105769</ele>
        <time>2020-02-25T00:36:38.273Z</time>
      </trkpt>
      <trkpt lat="43.416873" lon="12.785897">
        <ele>394.959934</ele>
        <time>2020-02-25T00:37:11.678Z</time>
      </trkpt>
      <trkpt lat="43.417937" lon="12.787077">
        <ele>399.191968</ele>
        <time>2020-02-25T00:38:07.152Z</time>
      </trkpt>
      <trkpt lat="43.418580" lon="12.787514">
        <ele>399.135744</ele>
        <time>2020-02-25T00:38:19.635Z</time>
      </trkpt>
      <trkpt lat="43.418873" lon="12.787792">
        <ele>398.955736</ele>
        <time>2020-02-25T00:38:25.139Z</time>
      </trkpt>
      <trkpt lat="43.418994" lon="12.787967">
        <ele>397.773808</ele>
        <time>2020-02-25T00:38:27.635Z</time>
      </trkpt>
      <trkpt lat="43.419029" lon="12.788019">
        <ele>397.427007</ele>
        <time>2020-02-25T00:38:28.396Z</time>
      </trkpt>
      <trkpt lat="43.419042" lon="12.788638">
        <ele>394.397691</ele>
        <time>2020-02-25T00:38:34.916Z</time>
      </trkpt>
      <trkpt lat="43.418918" lon="12.789126">
        <ele>391.868609</ele>
        <time>2020-02-25T00:38:40.214Z</time>
      </trkpt>
      <trkpt lat="43.418621" lon="12.789745">
        <ele>388.239534</ele>
        <time>2020-02-25T00:38:47.707Z</time>
      </trkpt>
      <trkpt lat="43.418415" lon="12.790539">
        <ele>385.706074</ele>
        <time>2020-02-25T00:38:56.722Z</time>
      </trkpt>
      <trkpt lat="43.418258" lon="12.791005">
        <ele>384.580930</ele>
        <time>2020-02-25T00:39:02.486Z</time>
      </trkpt>
      <trkpt lat="43.418114" lon="12.791272">
        <ele>383.852529</ele>
        <time>2020-02-25T00:39:06.449Z</time>
      </trkpt>
      <trkpt lat="43.417784" lon="12.791340">
        <ele>382.846329</ele>
        <time>2020-02-25T00:39:12.408Z</time>
      </trkpt>
      <trkpt lat="43.417224" lon="12.791306">
        <ele>381.878474</ele>
        <time>2020-02-25T00:39:25.398Z</time>
      </trkpt>
      <trkpt lat="43.416605" lon="12.791402">
        <ele>383.260683</ele>
        <time>2020-02-25T00:39:45.327Z</time>
      </trkpt>
      <trkpt lat="43.415945" lon="12.791794">
        <ele>384.855660</ele>
        <time>2020-02-25T00:40:11.737Z</time>
      </trkpt>
      <trkpt lat="43.415446" lon="12.792407">
        <ele>385.529683</ele>
        <time>2020-02-25T00:40:32.087Z</time>
      </trkpt>
      <trkpt lat="43.415389" lon="12.792691">
        <ele>385.509128</ele>
        <time>2020-02-25T00:40:37.115Z</time>
      </trkpt>
      <trkpt lat="43.415377" lon="12.793088">
        <ele>385.481408</ele>
        <time>2020-02-25T00:40:43.499Z</time>
      </trkpt>
      <trkpt lat="43.415538" lon="12.793786">
        <ele>385.430318</ele>
        <time>2020-02-25T00:40:55.628Z</time>
      </trkpt>
      <trkpt lat="43.415660" lon="12.793965">
        <ele>385.413194</ele>
        <time>2020-02-25T00:40:58.461Z</time>
      </trkpt>
      <trkpt lat="43.415692" lon="12.794013">
        <ele>385.408649</ele>
        <time>2020-02-25T00:40:59.407Z</time>
      </trkpt>
      <trkpt lat="43.415945" lon="12.794382">
        <ele>385.006912</ele>
        <time>2020-02-25T00:41:05.711Z</time>
      </trkpt>
      <trkpt lat="43.416209" lon="12.794813">
        <ele>384.134393</ele>
        <time>2020-02-25T00:41:12.630Z</time>
      </trkpt>
      <trkpt lat="43.416411" lon="12.794988">
        <ele>383.625892</ele>
        <time>2020-02-25T00:41:16.489Z</time>
      </trkpt>
      <trkpt lat="43.416720" lon="12.794978">
        <ele>382.967363</ele>
        <time>2020-02-25T00:41:21.629Z</time>
      </trkpt>
      <trkpt lat="43.417108" lon="12.794739">
        <ele>382.061727</ele>
        <time>2020-02-25T00:41:29.634Z</time>
      </trkpt>
      <trkpt lat="43.417380" lon="12.794433">
        <ele>381.461312</ele>
        <time>2020-02-25T00:41:36.237Z</time>
      </trkpt>
      <trkpt lat="43.417763" lon="12.794216">
        <ele>381.111732</ele>
        <time>2020-02-25T00:41:43.874Z</time>
      </trkpt>
      <trkpt lat="43.418112" lon="12.794319">
        <ele>380.810464</ele>
        <time>2020-02-25T00:41:50.403Z</time>
      </trkpt>
      <trkpt lat="43.418794" lon="12.794217">
        <ele>380.231429</ele>
        <time>2020-02-25T00:42:04.557Z</time>
      </trkpt>
      <trkpt lat="43.419479" lon="12.793911">
        <ele>380.631340</ele>
        <time>2020-02-25T00:42:20.109Z</time>
      </trkpt>
      <trkpt lat="43.420497" lon="12.793616">
        <ele>381.877015</ele>
        <time>2020-02-25T00:42:49.359Z</time>
      </trkpt>
      <trkpt lat="43.420703" lon="12.793654">
        <ele>382.125886</ele>
        <time>2020-02-25T00:42:55.265Z</time>
      </trkpt>
      <trkpt lat="43.420897" lon="12.793690">
        <ele>382.596660</ele>
        <time>2020-02-25T00:43:02.525Z</time>
      </trkpt>
      <trkpt lat="43.421243" lon="12.793968">
        <ele>383.758075</ele>
        <time>2020-02-25T00:43:15.675Z</time>
      </trkpt>
      <trkpt lat="43.421490" lon="12.794371">
        <ele>384.868432</ele>
        <time>2020-02-25T00:43:28.928Z</time>
      </trkpt>
      <trkpt lat="43.421647" lon="12.794745">
        <ele>385.778033</ele>
        <time>2020-02-25T00:43:40.566Z</time>
      </trkpt>
      <trkpt lat="43.421705" lon="12.795222">
        <ele>386.796422</ele>
        <time>2020-02-25T00:43:53.891Z</time>
      </trkpt>
      <trkpt lat="43.421594" lon="12.795738">
        <ele>387.507391</ele>
        <time>2020-02-25T00:44:06.574Z</time>
      </trkpt>
      <trkpt lat="43.421297" lon="12.796590">
        <ele>387.885129</ele>
        <time>2020-02-25T00:44:26.099Z</time>
      </trkpt>
      <trkpt lat="43.421429" lon="12.797248">
        <ele>388.157981</ele>
        <time>2020-02-25T00:44:37.242Z</time>
      </trkpt>
      <trkpt lat="43.420946" lon="12.800325">
        <ele>385.583320</ele>
        <time>2020-02-25T00:45:18.262Z</time>
      </trkpt>
      <trkpt lat="43.420769" lon="12.800660">
        <ele>385.692220</ele>
        <time>2020-02-25T00:45:24.201Z</time>
      </trkpt>
      <trkpt lat="43.420500" lon="12.801013">
        <ele>385.826719</ele>
        <time>2020-02-25T00:45:32.575Z</time>
      </trkpt>
      <trkpt lat="43.419503" lon="12.802113">
        <ele>385.818967</ele>
        <time>2020-02-25T00:46:07.372Z</time>
      </trkpt>
      <trkpt lat="43.419297" lon="12.802266">
        <ele>385.360683</ele>
        <time>2020-02-25T00:46:13.462Z</time>
      </trkpt>
      <trkpt lat="43.419235" lon="12.802472">
        <ele>385.043568</ele>
        <time>2020-02-25T00:46:17.191Z</time>
      </trkpt>
      <trkpt lat="43.419145" lon="12.803128">
        <ele>384.094147</ele>
        <time>2020-02-25T00:46:26.642Z</time>
      </trkpt>
      <trkpt lat="43.419149" lon="12.804088">
        <ele>382.728868</ele>
        <time>2020-02-25T00:46:37.654Z</time>
      </trkpt>
      <trkpt lat="43.419243" lon="12.804729">
        <ele>379.027984</ele>
        <time>2020-02-25T00:46:44.502Z</time>
      </trkpt>
      <trkpt lat="43.419578" lon="12.805433">
        <ele>374.126556</ele>
        <time>2020-02-25T00:46:52.911Z</time>
      </trkpt>
      <trkpt lat="43.419643" lon="12.805660">
        <ele>372.705547</ele>
        <time>2020-02-25T00:46:55.345Z</time>
      </trkpt>
      <trkpt lat="43.419598" lon="12.805864">
        <ele>371.463925</ele>
        <time>2020-02-25T00:46:57.471Z</time>
      </trkpt>
      <trkpt lat="43.418823" lon="12.807028">
        <ele>363.617632</ele>
        <time>2020-02-25T00:47:13.477Z</time>
      </trkpt>
      <trkpt lat="43.418493" lon="12.807760">
        <ele>359.727958</ele>
        <time>2020-02-25T00:47:22.759Z</time>
      </trkpt>
      <trkpt lat="43.417104" lon="12.809315">
        <ele>352.459374</ele>
        <time>2020-02-25T00:47:51.688Z</time>
      </trkpt>
      <trkpt lat="43.416697" lon="12.810026">
        <ele>350.406448</ele>
        <time>2020-02-25T00:48:02.456Z</time>
      </trkpt>
      <trkpt lat="43.416292" lon="12.810433">
        <ele>349.099926</ele>
        <time>2020-02-25T00:48:10.620Z</time>
      </trkpt>
      <trkpt lat="43.416074" lon="12.810652">
        <ele>348.396746</ele>
        <time>2020-02-25T00:48:15.235Z</time>
      </trkpt>
      <trkpt lat="43.415163" lon="12.811468">
        <ele>346.103101</ele>
        <time>2020-02-25T00:48:33.895Z</time>
      </trkpt>
      <trkpt lat="43.414777" lon="12.811725">
        <ele>345.796486</ele>
        <time>2020-02-25T00:48:42.374Z</time>
      </trkpt>
      <trkpt lat="43.413580" lon="12.812257">
        <ele>345.092723</ele>
        <time>2020-02-25T00:49:09.308Z</time>
      </trkpt>
      <trkpt lat="43.413330" lon="12.812523">
        <ele>345.224852</ele>
        <time>2020-02-25T00:49:16.729Z</time>
      </trkpt>
      <trkpt lat="43.412907" lon="12.813356">
        <ele>345.533584</ele>
        <time>2020-02-25T00:49:35.817Z</time>
      </trkpt>
      <trkpt lat="43.412626" lon="12.814083">
        <ele>345.735848</ele>
        <time>2020-02-25T00:49:50.997Z</time>
      </trkpt>
      <trkpt lat="43.412362" lon="12.814412">
        <ele>345.242007</ele>
        <time>2020-02-25T00:49:58.541Z</time>
      </trkpt>
      <trkpt lat="43.412177" lon="12.814696">
        <ele>344.857728</ele>
        <time>2020-02-25T00:50:03.933Z</time>
      </trkpt>
      <trkpt lat="43.412103" lon="12.815087">
        <ele>344.450691</ele>
        <time>2020-02-25T00:50:09.154Z</time>
      </trkpt>
      <trkpt lat="43.412085" lon="12.815642">
        <ele>343.891034</ele>
        <time>2020-02-25T00:50:16.400Z</time>
      </trkpt>
      <trkpt lat="43.412095" lon="12.816005">
        <ele>343.525089</ele>
        <time>2020-02-25T00:50:20.888Z</time>
      </trkpt>
      <trkpt lat="43.412096" lon="12.816300">
        <ele>343.182989</ele>
        <time>2020-02-25T00:50:24.595Z</time>
      </trkpt>
      <trkpt lat="43.412068" lon="12.816526">
        <ele>342.746356</ele>
        <time>2020-02-25T00:50:27.459Z</time>
      </trkpt>
      <trkpt lat="43.411969" lon="12.816929">
        <ele>341.936141</ele>
        <time>2020-02-25T00:50:32.583Z</time>
      </trkpt>
      <trkpt lat="43.411522" lon="12.818806">
        <ele>338.276425</ele>
        <time>2020-02-25T00:50:56.506Z</time>
      </trkpt>
      <trkpt lat="43.411531" lon="12.819093">
        <ele>337.873270</ele>
        <time>2020-02-25T00:51:00.425Z</time>
      </trkpt>
      <trkpt lat="43.411632" lon="12.819486">
        <ele>337.288231</ele>
        <time>2020-02-25T00:51:05.943Z</time>
      </trkpt>
      <trkpt lat="43.411789" lon="12.819986">
        <ele>336.523778</ele>
        <time>2020-02-25T00:51:13.154Z</time>
      </trkpt>
      <trkpt lat="43.411843" lon="12.820395">
        <ele>335.940381</ele>
        <time>2020-02-25T00:51:18.552Z</time>
      </trkpt>
      <trkpt lat="43.411734" lon="12.820952">
        <ele>335.130816</ele>
        <time>2020-02-25T00:51:26.024Z</time>
      </trkpt>
      <trkpt lat="43.411441" lon="12.821681">
        <ele>333.836111</ele>
        <time>2020-02-25T00:51:36.599Z</time>
      </trkpt>
      <trkpt lat="43.411173" lon="12.822651">
        <ele>332.217430</ele>
        <time>2020-02-25T00:51:49.738Z</time>
      </trkpt>
      <trkpt lat="43.411111" lon="12.823338">
        <ele>331.149967</ele>
        <time>2020-02-25T00:51:58.422Z</time>
      </trkpt>
      <trkpt lat="43.411223" lon="12.823827">
        <ele>330.461650</ele>
        <time>2020-02-25T00:52:04.855Z</time>
      </trkpt>
      <trkpt lat="43.411566" lon="12.824540">
        <ele>329.313629</ele>
        <time>2020-02-25T00:52:15.600Z</time>
      </trkpt>
      <trkpt lat="43.411797" lon="12.825398">
        <ele>328.085249</ele>
        <time>2020-02-25T00:52:27.730Z</time>
      </trkpt>
      <trkpt lat="43.412000" lon="12.826735">
        <ele>327.468145</ele>
        <time>2020-02-25T00:52:47.463Z</time>
      </trkpt>
      <trkpt lat="43.412004" lon="12.826779">
        <ele>327.452490</ele>
        <time>2020-02-25T00:52:48.419Z</time>
      </trkpt>
      <trkpt lat="43.412037" lon="12.827177">
        <ele>327.311074</ele>
        <time>2020-02-25T00:52:54.536Z</time>
      </trkpt>
      <trkpt lat="43.412077" lon="12.827372">
        <ele>327.239543</ele>
        <time>2020-02-25T00:52:57.899Z</time>
      </trkpt>
      <trkpt lat="43.412255" lon="12.827643">
        <ele>327.110565</ele>
        <time>2020-02-25T00:53:03.741Z</time>
      </trkpt>
      <trkpt lat="43.412886" lon="12.827983">
        <ele>326.663522</ele>
        <time>2020-02-25T00:53:18.956Z</time>
      </trkpt>
      <trkpt lat="43.413399" lon="12.828780">
        <ele>326.108305</ele>
        <time>2020-02-25T00:53:35.030Z</time>
      </trkpt>
      <trkpt lat="43.414187" lon="12.829723">
        <ele>324.339607</ele>
        <time>2020-02-25T00:53:53.802Z</time>
      </trkpt>
      <trkpt lat="43.414338" lon="12.829904">
        <ele>323.808623</ele>
        <time>2020-02-25T00:53:57.242Z</time>
      </trkpt>
      <trkpt lat="43.414357" lon="12.829927">
        <ele>323.741525</ele>
        <time>2020-02-25T00:53:57.619Z</time>
      </trkpt>
      <trkpt lat="43.414420" lon="12.830064">
        <ele>323.429165</ele>
        <time>2020-02-25T00:53:59.696Z</time>
      </trkpt>
      <trkpt lat="43.414446" lon="12.830283">
        <ele>323.001680</ele>
        <time>2020-02-25T00:54:02.407Z</time>
      </trkpt>
      <trkpt lat="43.414247" lon="12.831552">
        <ele>320.691292</ele>
        <time>2020-02-25T00:54:17.512Z</time>
      </trkpt>
      <trkpt lat="43.414263" lon="12.832190">
        <ele>319.964021</ele>
        <time>2020-02-25T00:54:25.233Z</time>
      </trkpt>
      <trkpt lat="43.414348" lon="12.832634">
        <ele>319.440925</ele>
        <time>2020-02-25T00:54:31.157Z</time>
      </trkpt>
      <trkpt lat="43.414447" lon="12.833157">
        <ele>318.825204</ele>
        <time>2020-02-25T00:54:39.933Z</time>
      </trkpt>
      <trkpt lat="43.414395" lon="12.833413">
        <ele>318.522371</ele>
        <time>2020-02-25T00:54:43.440Z</time>
      </trkpt>
      <trkpt lat="43.413941" lon="12.833744">
        <ele>318.342772</ele>
        <time>2020-02-25T00:54:55.276Z</time>
      </trkpt>
      <trkpt lat="43.413854" lon="12.833895">
        <ele>318.443245</ele>
        <time>2020-02-25T00:54:58.101Z</time>
      </trkpt>
      <trkpt lat="43.413823" lon="12.834153">
        <ele>318.579572</ele>
        <time>2020-02-25T00:55:01.817Z</time>
      </trkpt>
      <trkpt lat="43.413832" lon="12.834195">
        <ele>318.602400</ele>
        <time>2020-02-25T00:55:04.016Z</time>
      </trkpt>
      <trkpt lat="43.413847" lon="12.834264">
        <ele>318.639947</ele>
        <time>2020-02-25T00:55:05.723Z</time>
      </trkpt>
      <trkpt lat="43.413861" lon="12.834324">
        <ele>318.672800</ele>
        <time>2020-02-25T00:55:06.543Z</time>
      </trkpt>
      <trkpt lat="43.414569" lon="12.834728">
        <ele>319.222823</ele>
        <time>2020-02-25T00:55:27.492Z</time>
      </trkpt>
      <trkpt lat="43.414846" lon="12.835071">
        <ele>319.459814</ele>
        <time>2020-02-25T00:55:37.391Z</time>
      </trkpt>
      <trkpt lat="43.414883" lon="12.835349">
        <ele>319.522955</ele>
        <time>2020-02-25T00:55:43.524Z</time>
      </trkpt>
      <trkpt lat="43.414842" lon="12.835534">
        <ele>319.566166</ele>
        <time>2020-02-25T00:55:46.453Z</time>
      </trkpt>
      <trkpt lat="43.414505" lon="12.836415">
        <ele>319.788611</ele>
        <time>2020-02-25T00:56:02.149Z</time>
      </trkpt>
      <trkpt lat="43.414157" lon="12.837103">
        <ele>319.975910</ele>
        <time>2020-02-25T00:56:15.992Z</time>
      </trkpt>
      <trkpt lat="43.414132" lon="12.837330">
        <ele>320.062755</ele>
        <time>2020-02-25T00:56:19.820Z</time>
      </trkpt>
      <trkpt lat="43.414136" lon="12.837544">
        <ele>320.156540</ele>
        <time>2020-02-25T00:56:23.689Z</time>
      </trkpt>
      <trkpt lat="43.414206" lon="12.837701">
        <ele>320.237245</ele>
        <time>2020-02-25T00:56:26.891Z</time>
      </trkpt>
      <trkpt lat="43.414375" lon="12.837825">
        <ele>320.352744</ele>
        <time>2020-02-25T00:56:31.774Z</time>
      </trkpt>
      <trkpt lat="43.414567" lon="12.837735">
        <ele>320.475070</ele>
        <time>2020-02-25T00:56:36.928Z</time>
      </trkpt>
      <trkpt lat="43.414832" lon="12.837499">
        <ele>320.665421</ele>
        <time>2020-02-25T00:56:45.086Z</time>
      </trkpt>
      <trkpt lat="43.414925" lon="12.837481">
        <ele>320.722062</ele>
        <time>2020-02-25T00:56:47.455Z</time>
      </trkpt>
      <trkpt lat="43.415063" lon="12.837571">
        <ele>320.814158</ele>
        <time>2020-02-25T00:56:51.345Z</time>
      </trkpt>
      <trkpt lat="43.415809" lon="12.838422">
        <ele>320.994869</ele>
        <time>2020-02-25T00:57:14.807Z</time>
      </trkpt>
      <trkpt lat="43.416660" lon="12.839792">
        <ele>320.750795</ele>
        <time>2020-02-25T00:57:42.595Z</time>
      </trkpt>
      <trkpt lat="43.417145" lon="12.840577">
        <ele>319.868602</ele>
        <time>2020-02-25T00:57:56.650Z</time>
      </trkpt>
      <trkpt lat="43.417893" lon="12.841563">
        <ele>318.648250</ele>
        <time>2020-02-25T00:58:15.872Z</time>
      </trkpt>
      <trkpt lat="43.419036" lon="12.844930">
        <ele>315.941647</ele>
        <time>2020-02-25T00:59:07.292Z</time>
      </trkpt>
      <trkpt lat="43.419159" lon="12.846488">
        <ele>315.435956</ele>
        <time>2020-02-25T00:59:31.679Z</time>
      </trkpt>
      <trkpt lat="43.418986" lon="12.849134">
        <ele>315.164368</ele>
        <time>2020-02-25T01:00:18.357Z</time>
      </trkpt>
      <trkpt lat="43.419013" lon="12.849408">
        <ele>314.811709</ele>
        <time>2020-02-25T01:00:22.507Z</time>
      </trkpt>
      <trkpt lat="43.419071" lon="12.849729">
        <ele>314.389831</ele>
        <time>2020-02-25T01:00:26.688Z</time>
      </trkpt>
      <trkpt lat="43.419131" lon="12.849929">
        <ele>314.113852</ele>
        <time>2020-02-25T01:00:29.584Z</time>
      </trkpt>
      <trkpt lat="43.419186" lon="12.850100">
        <ele>313.875335</ele>
        <time>2020-02-25T01:00:31.783Z</time>
      </trkpt>
      <trkpt lat="43.419300" lon="12.850417">
        <ele>313.424196</ele>
        <time>2020-02-25T01:00:36.071Z</time>
      </trkpt>
      <trkpt lat="43.419396" lon="12.850679">
        <ele>313.049935</ele>
        <time>2020-02-25T01:00:39.516Z</time>
      </trkpt>
      <trkpt lat="43.419666" lon="12.851356">
        <ele>311.648237</ele>
        <time>2020-02-25T01:00:48.655Z</time>
      </trkpt>
      <trkpt lat="43.419880" lon="12.851833">
        <ele>310.475529</ele>
        <time>2020-02-25T01:00:55.095Z</time>
      </trkpt>
      <trkpt lat="43.420051" lon="12.852153">
        <ele>309.644566</ele>
        <time>2020-02-25T01:00:59.758Z</time>
      </trkpt>
      <trkpt lat="43.420302" lon="12.852400">
        <ele>308.756095</ele>
        <time>2020-02-25T01:01:04.852Z</time>
      </trkpt>
      <trkpt lat="43.420888" lon="12.852887">
        <ele>307.219678</ele>
        <time>2020-02-25T01:01:17.128Z</time>
      </trkpt>
      <trkpt lat="43.421290" lon="12.853203">
        <ele>306.657952</ele>
        <time>2020-02-25T01:01:26.151Z</time>
      </trkpt>
      <trkpt lat="43.422282" lon="12.853985">
        <ele>305.208644</ele>
        <time>2020-02-25T01:01:48.978Z</time>
      </trkpt>
      <trkpt lat="43.424420" lon="12.855682">
        <ele>299.732919</ele>
        <time>2020-02-25T01:02:31.240Z</time>
      </trkpt>
      <trkpt lat="43.424856" lon="12.855963">
        <ele>298.558396</ele>
        <time>2020-02-25T01:02:39.435Z</time>
      </trkpt>
      <trkpt lat="43.425071" lon="12.856041">
        <ele>298.015935</ele>
        <time>2020-02-25T01:02:43.199Z</time>
      </trkpt>
      <trkpt lat="43.425310" lon="12.856098">
        <ele>297.424140</ele>
        <time>2020-02-25T01:02:47.365Z</time>
      </trkpt>
      <trkpt lat="43.427469" lon="12.856657">
        <ele>291.762701</ele>
        <time>2020-02-25T01:03:24.324Z</time>
      </trkpt>
      <trkpt lat="43.428543" lon="12.856935">
        <ele>289.013190</ele>
        <time>2020-02-25T01:03:43.070Z</time>
      </trkpt>
      <trkpt lat="43.428811" lon="12.857005">
        <ele>288.326879</ele>
        <time>2020-02-25T01:03:47.657Z</time>
      </trkpt>
      <trkpt lat="43.429359" lon="12.857146">
        <ele>287.615364</ele>
        <time>2020-02-25T01:03:56.888Z</time>
      </trkpt>
      <trkpt lat="43.429489" lon="12.857180">
        <ele>287.506740</ele>
        <time>2020-02-25T01:03:59.199Z</time>
      </trkpt>
      <trkpt lat="43.429784" lon="12.857268">
        <ele>287.258960</ele>
        <time>2020-02-25T01:04:04.352Z</time>
      </trkpt>
      <trkpt lat="43.429997" lon="12.857391">
        <ele>287.069358</ele>
        <time>2020-02-25T01:04:08.548Z</time>
      </trkpt>
      <trkpt lat="43.430225" lon="12.857578">
        <ele>286.851510</ele>
        <time>2020-02-25T01:04:13.929Z</time>
      </trkpt>
      <trkpt lat="43.430409" lon="12.857715">
        <ele>286.679800</ele>
        <time>2020-02-25T01:04:18.570Z</time>
      </trkpt>
      <trkpt lat="43.430492" lon="12.857776">
        <ele>286.602569</ele>
        <time>2020-02-25T01:04:21.683Z</time>
      </trkpt>
      <trkpt lat="43.430584" lon="12.857843">
        <ele>286.517136</ele>
        <time>2020-02-25T01:04:24.988Z</time>
      </trkpt>
      <trkpt lat="43.430639" lon="12.857713">
        <ele>286.808823</ele>
        <time>2020-02-25T01:04:28.202Z</time>
      </trkpt>
      <trkpt lat="43.430673" lon="12.857634">
        <ele>287.206811</ele>
        <time>2020-02-25T01:04:29.508Z</time>
      </trkpt>
      <trkpt lat="43.430731" lon="12.857540">
        <ele>287.741390</ele>
        <time>2020-02-25T01:04:33.728Z</time>
      </trkpt>
      <trkpt lat="43.430773" lon="12.857601">
        <ele>288.105692</ele>
        <time>2020-02-25T01:04:36.419Z</time>
      </trkpt>
      <trkpt lat="43.430942" lon="12.857675">
        <ele>289.164025</ele>
        <time>2020-02-25T01:04:42.963Z</time>
      </trkpt>
      <trkpt lat="43.430953" lon="12.857676">
        <ele>289.229814</ele>
        <time>2020-02-25T01:04:43.152Z</time>
      </trkpt>
      <trkpt lat="43.431002" lon="12.857674">
        <ele>289.522368</ele>
        <time>2020-02-25T01:04:44.799Z</time>
      </trkpt>
      <trkpt lat="43.431032" lon="12.857667">
        <ele>289.703956</ele>
        <time>2020-02-25T01:04:46.464Z</time>
      </trkpt>
      <trkpt lat="43.431323" lon="12.857480">
        <ele>291.620400</ele>
        <time>2020-02-25T01:05:00.355Z</time>
      </trkpt>
      <trkpt lat="43.431367" lon="12.857470">
        <ele>291.886539</ele>
        <time>2020-02-25T01:05:03.002Z</time>
      </trkpt>
      <trkpt lat="43.431598" lon="12.857572">
        <ele>293.334257</ele>
        <time>2020-02-25T01:05:15.478Z</time>
      </trkpt>
      <trkpt lat="43.431656" lon="12.857571">
        <ele>293.680421</ele>
        <time>2020-02-25T01:05:17.327Z</time>
      </trkpt>
      <trkpt lat="43.431759" lon="12.857528">
        <ele>294.322739</ele>
        <time>2020-02-25T01:05:24.124Z</time>
      </trkpt>
      <trkpt lat="43.431853" lon="12.857511">
        <ele>294.888536</ele>
        <time>2020-02-25T01:05:29.684Z</time>
      </trkpt>
      <trkpt lat="43.431887" lon="12.857504">
        <ele>295.093699</ele>
        <time>2020-02-25T01:05:31.914Z</time>
      </trkpt>
      <trkpt lat="43.431955" lon="12.857353">
        <ele>295.863721</ele>
        <time>2020-02-25T01:05:37.335Z</time>
      </trkpt>
      <trkpt lat="43.431940" lon="12.857327">
        <ele>296.007631</ele>
        <time>2020-02-25T01:05:39.059Z</time>
      </trkpt>
      <trkpt lat="43.432117" lon="12.857143">
        <ele>297.379861</ele>
        <time>2020-02-25T01:05:53.463Z</time>
      </trkpt>
      <trkpt lat="43.432761" lon="12.856463">
        <ele>304.133429</ele>
        <time>2020-02-25T01:06:44.851Z</time>
      </trkpt>
      <trkpt lat="43.433011" lon="12.856382">
        <ele>306.270745</ele>
        <time>2020-02-25T01:07:01.649Z</time>
      </trkpt>
      <trkpt lat="43.433428" lon="12.856133">
        <ele>310.053230</ele>
        <time>2020-02-25T01:07:24.070Z</time>
      </trkpt>
      <trkpt lat="43.433695" lon="12.855946">
        <ele>312.477905</ele>
        <time>2020-02-25T01:07:37.105Z</time>
      </trkpt>
      <trkpt lat="43.434268" lon="12.855544">
        <ele>316.843828</ele>
        <time>2020-02-25T01:08:07.798Z</time>
      </trkpt>
      <trkpt lat="43.434731" lon="12.855237">
        <ele>320.332593</ele>
        <time>2020-02-25T01:08:33.138Z</time>
      </trkpt>
      <trkpt lat="43.435097" lon="12.855101">
        <ele>322.906283</ele>
        <time>2020-02-25T01:08:53.257Z</time>
      </trkpt>
      <trkpt lat="43.435136" lon="12.855049">
        <ele>323.274828</ele>
        <time>2020-02-25T01:08:56.466Z</time>
      </trkpt>
      <trkpt lat="43.435185" lon="12.855066">
        <ele>323.617890</ele>
        <time>2020-02-25T01:09:00.110Z</time>
      </trkpt>
      <trkpt lat="43.435407" lon="12.855031">
        <ele>325.331973</ele>
        <time>2020-02-25T01:09:08.978Z</time>
      </trkpt>
      <trkpt lat="43.435542" lon="12.855064">
        <ele>326.508147</ele>
        <time>2020-02-25T01:09:18.223Z</time>
      </trkpt>
      <trkpt lat="43.436171" lon="12.855366">
        <ele>332.222431</ele>
        <time>2020-02-25T01:09:56.579Z</time>
      </trkpt>
      <trkpt lat="43.436559" lon="12.855660">
        <ele>336.021370</ele>
        <time>2020-02-25T01:10:24.824Z</time>
      </trkpt>
      <trkpt lat="43.436988" lon="12.856156">
        <ele>340.446103</ele>
        <time>2020-02-25T01:10:56.911Z</time>
      </trkpt>
      <trkpt lat="43.437160" lon="12.856477">
        <ele>341.995232</ele>
        <time>2020-02-25T01:11:08.583Z</time>
      </trkpt>
      <trkpt lat="43.437153" lon="12.856544">
        <ele>342.258083</ele>
        <time>2020-02-25T01:11:12.457Z</time>
      </trkpt>
      <trkpt lat="43.437110" lon="12.856578">
        <ele>342.523243</ele>
        <time>2020-02-25T01:11:14.778Z</time>
      </trkpt>
      <trkpt lat="43.436816" lon="12.856346">
        <ele>344.335297</ele>
        <time>2020-02-25T01:11:29.166Z</time>
      </trkpt>
      <trkpt lat="43.436487" lon="12.855977">
        <ele>346.604374</ele>
        <time>2020-02-25T01:11:45.901Z</time>
      </trkpt>
      <trkpt lat="43.436114" lon="12.855766">
        <ele>348.760809</ele>
        <time>2020-02-25T01:12:01.289Z</time>
      </trkpt>
      <trkpt lat="43.435529" lon="12.855694">
        <ele>351.908888</ele>
        <time>2020-02-25T01:12:23.403Z</time>
      </trkpt>
      <trkpt lat="43.435325" lon="12.855755">
        <ele>353.028498</ele>
        <time>2020-02-25T01:12:31.195Z</time>
      </trkpt>
      <trkpt lat="43.435053" lon="12.855962">
        <ele>354.695255</ele>
        <time>2020-02-25T01:12:43.961Z</time>
      </trkpt>
      <trkpt lat="43.435115" lon="12.856028">
        <ele>355.115545</ele>
        <time>2020-02-25T01:12:47.642Z</time>
      </trkpt>
      <trkpt lat="43.435393" lon="12.855886">
        <ele>356.705804</ele>
        <time>2020-02-25T01:13:01.350Z</time>
      </trkpt>
      <trkpt lat="43.435810" lon="12.855911">
        <ele>358.944422</ele>
        <time>2020-02-25T01:13:22.749Z</time>
      </trkpt>
      <trkpt lat="43.436194" lon="12.856127">
        <ele>361.373253</ele>
        <time>2020-02-25T01:13:44.662Z</time>
      </trkpt>
      <trkpt lat="43.436308" lon="12.856284">
        <ele>362.322514</ele>
        <time>2020-02-25T01:13:52.808Z</time>
      </trkpt>
      <trkpt lat="43.436380" lon="12.856554">
        <ele>363.552256</ele>
        <time>2020-02-25T01:14:03.561Z</time>
      </trkpt>
      <trkpt lat="43.436396" lon="12.857034">
        <ele>365.606614</ele>
        <time>2020-02-25T01:14:20.374Z</time>
      </trkpt>
      <trkpt lat="43.436527" lon="12.857303">
        <ele>366.991394</ele>
        <time>2020-02-25T01:14:31.023Z</time>
      </trkpt>
      <trkpt lat="43.436746" lon="12.857751">
        <ele>369.300362</ele>
        <time>2020-02-25T01:14:47.106Z</time>
      </trkpt>
      <trkpt lat="43.437031" lon="12.859584">
        <ele>372.985354</ele>
        <time>2020-02-25T01:15:30.821Z</time>
      </trkpt>
      <trkpt lat="43.437181" lon="12.860091">
        <ele>374.000068</ele>
        <time>2020-02-25T01:15:41.969Z</time>
      </trkpt>
      <trkpt lat="43.437198" lon="12.860229">
        <ele>374.259501</ele>
        <time>2020-02-25T01:15:43.699Z</time>
      </trkpt>
      <trkpt lat="43.437133" lon="12.860134">
        <ele>374.440554</ele>
        <time>2020-02-25T01:15:48.492Z</time>
      </trkpt>
      <trkpt lat="43.436288" lon="12.858064">
        <ele>377.597349</ele>
        <time>2020-02-25T01:16:46.100Z</time>
      </trkpt>
      <trkpt lat="43.436239" lon="12.858010">
        <ele>377.320884</ele>
        <time>2020-02-25T01:16:47.843Z</time>
      </trkpt>
      <trkpt lat="43.436134" lon="12.858033">
        <ele>376.852516</ele>
        <time>2020-02-25T01:16:49.783Z</time>
      </trkpt>
      <trkpt lat="43.435934" lon="12.858303">
        <ele>375.618736</ele>
        <time>2020-02-25T01:16:55.212Z</time>
      </trkpt>
      <trkpt lat="43.436191" lon="12.858707">
        <ele>373.900627</ele>
        <time>2020-02-25T01:17:01.417Z</time>
      </trkpt>
      <trkpt lat="43.436203" lon="12.858726">
        <ele>373.820076</ele>
        <time>2020-02-25T01:17:01.673Z</time>
      </trkpt>
      <trkpt lat="43.436449" lon="12.859268">
        <ele>371.775487</ele>
        <time>2020-02-25T01:17:08.739Z</time>
      </trkpt>
      <trkpt lat="43.436265" lon="12.859432">
        <ele>370.809963</ele>
        <time>2020-02-25T01:17:11.991Z</time>
      </trkpt>
      <trkpt lat="43.436326" lon="12.859561">
        <ele>370.317529</ele>
        <time>2020-02-25T01:17:13.667Z</time>
      </trkpt>
      <trkpt lat="43.436367" lon="12.859677">
        <ele>369.904842</ele>
        <time>2020-02-25T01:17:15.206Z</time>
      </trkpt>
      <trkpt lat="43.436425" lon="12.859869">
        <ele>369.183206</ele>
        <time>2020-02-25T01:17:17.402Z</time>
      </trkpt>
      <trkpt lat="43.436539" lon="12.860143">
        <ele>368.063015</ele>
        <time>2020-02-25T01:17:20.921Z</time>
      </trkpt>
      <trkpt lat="43.436606" lon="12.860353">
        <ele>367.249357</ele>
        <time>2020-02-25T01:17:23.326Z</time>
      </trkpt>
      <trkpt lat="43.436921" lon="12.861194">
        <ele>363.892628</ele>
        <time>2020-02-25T01:17:33.899Z</time>
      </trkpt>
      <trkpt lat="43.436985" lon="12.861341">
        <ele>363.284637</ele>
        <time>2020-02-25T01:17:35.965Z</time>
      </trkpt>
      <trkpt lat="43.437496" lon="12.862222">
        <ele>360.967677</ele>
        <time>2020-02-25T01:17:51.531Z</time>
      </trkpt>
      <trkpt lat="43.437808" lon="12.863177">
        <ele>360.960044</ele>
        <time>2020-02-25T01:18:13.075Z</time>
      </trkpt>
      <trkpt lat="43.437965" lon="12.863524">
        <ele>360.957065</ele>
        <time>2020-02-25T01:18:20.814Z</time>
      </trkpt>
      <trkpt lat="43.438081" lon="12.863785">
        <ele>360.954834</ele>
        <time>2020-02-25T01:18:26.223Z</time>
      </trkpt>
      <trkpt lat="43.438137" lon="12.863857">
        <ele>360.954065</ele>
        <time>2020-02-25T01:18:28.278Z</time>
      </trkpt>
      <trkpt lat="43.438157" lon="12.863953">
        <ele>360.953337</ele>
        <time>2020-02-25T01:18:29.520Z</time>
      </trkpt>
      <trkpt lat="43.438478" lon="12.864702">
        <ele>359.556339</ele>
        <time>2020-02-25T01:18:42.567Z</time>
      </trkpt>
      <trkpt lat="43.438491" lon="12.864814">
        <ele>359.366725</ele>
        <time>2020-02-25T01:18:43.943Z</time>
      </trkpt>
      <trkpt lat="43.438434" lon="12.865061">
        <ele>358.933449</ele>
        <time>2020-02-25T01:18:47.522Z</time>
      </trkpt>
      <trkpt lat="43.438275" lon="12.865180">
        <ele>358.516814</ele>
        <time>2020-02-25T01:18:50.638Z</time>
      </trkpt>
      <trkpt lat="43.438128" lon="12.865153">
        <ele>358.175374</ele>
        <time>2020-02-25T01:18:53.087Z</time>
      </trkpt>
      <trkpt lat="43.438085" lon="12.865113">
        <ele>358.055906</ele>
        <time>2020-02-25T01:18:53.891Z</time>
      </trkpt>
      <trkpt lat="43.437587" lon="12.864653">
        <ele>356.391877</ele>
        <time>2020-02-25T01:19:03.249Z</time>
      </trkpt>
      <trkpt lat="43.437357" lon="12.864437">
        <ele>354.421725</ele>
        <time>2020-02-25T01:19:07.469Z</time>
      </trkpt>
      <trkpt lat="43.437042" lon="12.864142">
        <ele>351.725860</ele>
        <time>2020-02-25T01:19:13.114Z</time>
      </trkpt>
      <trkpt lat="43.436787" lon="12.863890">
        <ele>349.504665</ele>
        <time>2020-02-25T01:19:17.624Z</time>
      </trkpt>
      <trkpt lat="43.436667" lon="12.863651">
        <ele>348.011464</ele>
        <time>2020-02-25T01:19:20.609Z</time>
      </trkpt>
      <trkpt lat="43.436784" lon="12.862746">
        <ele>342.778572</ele>
        <time>2020-02-25T01:19:29.835Z</time>
      </trkpt>
      <trkpt lat="43.436752" lon="12.862513">
        <ele>340.779983</ele>
        <time>2020-02-25T01:19:32.176Z</time>
      </trkpt>
      <trkpt lat="43.436282" lon="12.861551">
        <ele>331.007609</ele>
        <time>2020-02-25T01:19:43.390Z</time>
      </trkpt>
      <trkpt lat="43.436077" lon="12.861296">
        <ele>327.801239</ele>
        <time>2020-02-25T01:19:47.020Z</time>
      </trkpt>
      <trkpt lat="43.435764" lon="12.861158">
        <ele>323.986611</ele>
        <time>2020-02-25T01:19:51.347Z</time>
      </trkpt>
      <trkpt lat="43.435511" lon="12.861256">
        <ele>321.396962</ele>
        <time>2020-02-25T01:19:54.853Z</time>
      </trkpt>
      <trkpt lat="43.435399" lon="12.861394">
        <ele>320.006734</ele>
        <time>2020-02-25T01:19:56.891Z</time>
      </trkpt>
      <trkpt lat="43.435279" lon="12.861594">
        <ele>318.263993</ele>
        <time>2020-02-25T01:19:59.416Z</time>
      </trkpt>
      <trkpt lat="43.435184" lon="12.861648">
        <ele>317.313270</ele>
        <time>2020-02-25T01:20:00.795Z</time>
      </trkpt>
      <trkpt lat="43.435046" lon="12.861622">
        <ele>316.024798</ele>
        <time>2020-02-25T01:20:02.727Z</time>
      </trkpt>
      <trkpt lat="43.434988" lon="12.861546">
        <ele>315.284192</ele>
        <time>2020-02-25T01:20:03.825Z</time>
      </trkpt>
      <trkpt lat="43.434888" lon="12.861347">
        <ele>313.658572</ele>
        <time>2020-02-25T01:20:06.226Z</time>
      </trkpt>
      <trkpt lat="43.434394" lon="12.860090">
        <ele>305.271405</ele>
        <time>2020-02-25T01:20:20.919Z</time>
      </trkpt>
      <trkpt lat="43.433981" lon="12.859320">
        <ele>301.950612</ele>
        <time>2020-02-25T01:20:32.109Z</time>
      </trkpt>
      <trkpt lat="43.433740" lon="12.859045">
        <ele>300.455424</ele>
        <time>2020-02-25T01:20:37.018Z</time>
      </trkpt>
      <trkpt lat="43.433492" lon="12.858852">
        <ele>299.094586</ele>
        <time>2020-02-25T01:20:41.422Z</time>
      </trkpt>
      <trkpt lat="43.432976" lon="12.858612">
        <ele>296.527965</ele>
        <time>2020-02-25T01:20:49.773Z</time>
      </trkpt>
      <trkpt lat="43.432762" lon="12.858568">
        <ele>295.518867</ele>
        <time>2020-02-25T01:20:53.020Z</time>
      </trkpt>
      <trkpt lat="43.432451" lon="12.858542">
        <ele>294.065783</ele>
        <time>2020-02-25T01:20:57.744Z</time>
      </trkpt>
      <trkpt lat="43.432167" lon="12.858541">
        <ele>292.741284</ele>
        <time>2020-02-25T01:21:02.023Z</time>
      </trkpt>
      <trkpt lat="43.431942" lon="12.858540">
        <ele>291.691944</ele>
        <time>2020-02-25T01:21:05.444Z</time>
      </trkpt>
      <trkpt lat="43.431889" lon="12.858565">
        <ele>291.430668</ele>
        <time>2020-02-25T01:21:06.330Z</time>
      </trkpt>
      <trkpt lat="43.431850" lon="12.858611">
        <ele>291.191183</ele>
        <time>2020-02-25T01:21:07.072Z</time>
      </trkpt>
      <trkpt lat="43.431930" lon="12.858694">
        <ele>290.724044</ele>
        <time>2020-02-25T01:21:08.590Z</time>
      </trkpt>
      <trkpt lat="43.432033" lon="12.858835">
        <ele>290.046708</ele>
        <time>2020-02-25T01:21:10.820Z</time>
      </trkpt>
      <trkpt lat="43.432052" lon="12.858895">
        <ele>289.825024</ele>
        <time>2020-02-25T01:21:11.570Z</time>
      </trkpt>
      <trkpt lat="43.432191" lon="12.859009">
        <ele>289.302389</ele>
        <time>2020-02-25T01:21:14.005Z</time>
      </trkpt>
      <trkpt lat="43.432409" lon="12.859208">
        <ele>288.630331</ele>
        <time>2020-02-25T01:21:18.098Z</time>
      </trkpt>
      <trkpt lat="43.432548" lon="12.859345">
        <ele>288.191107</ele>
        <time>2020-02-25T01:21:20.990Z</time>
      </trkpt>
      <trkpt lat="43.432496" lon="12.859430">
        <ele>287.983720</ele>
        <time>2020-02-25T01:21:22.347Z</time>
      </trkpt>
      <trkpt lat="43.432934" lon="12.860065">
        <ele>286.349522</ele>
        <time>2020-02-25T01:21:33.990Z</time>
      </trkpt>
      <trkpt lat="43.433052" lon="12.860285">
        <ele>285.839179</ele>
        <time>2020-02-25T01:21:37.815Z</time>
      </trkpt>
      <trkpt lat="43.433181" lon="12.860520">
        <ele>285.289495</ele>
        <time>2020-02-25T01:21:41.897Z</time>
      </trkpt>
      <trkpt lat="43.433537" lon="12.861303">
        <ele>284.428939</ele>
        <time>2020-02-25T01:21:55.116Z</time>
      </trkpt>
      <trkpt lat="43.433638" lon="12.861316">
        <ele>284.329057</ele>
        <time>2020-02-25T01:21:57.307Z</time>
      </trkpt>
      <trkpt lat="43.433680" lon="12.861577">
        <ele>284.137909</ele>
        <time>2020-02-25T01:22:00.946Z</time>
      </trkpt>
      <trkpt lat="43.433706" lon="12.862089">
        <ele>283.770925</ele>
        <time>2020-02-25T01:22:08.461Z</time>
      </trkpt>
      <trkpt lat="43.433755" lon="12.863570">
        <ele>282.699912</ele>
        <time>2020-02-25T01:22:29.889Z</time>
      </trkpt>
      <trkpt lat="43.433771" lon="12.864253">
        <ele>282.200209</ele>
        <time>2020-02-25T01:22:39.457Z</time>
      </trkpt>
      <trkpt lat="43.433880" lon="12.867419">
        <ele>279.814110</ele>
        <time>2020-02-25T01:23:23.308Z</time>
      </trkpt>
      <trkpt lat="43.434049" lon="12.868088">
        <ele>279.463946</ele>
        <time>2020-02-25T01:23:33.362Z</time>
      </trkpt>
      <trkpt lat="43.434455" lon="12.868899">
        <ele>279.376072</ele>
        <time>2020-02-25T01:23:48.318Z</time>
      </trkpt>
      <trkpt lat="43.434670" lon="12.869228">
        <ele>279.336588</ele>
        <time>2020-02-25T01:23:55.554Z</time>
      </trkpt>
      <trkpt lat="43.435355" lon="12.870064">
        <ele>279.389517</ele>
        <time>2020-02-25T01:24:17.811Z</time>
      </trkpt>
      <trkpt lat="43.435472" lon="12.870219">
        <ele>279.444327</ele>
        <time>2020-02-25T01:24:21.759Z</time>
      </trkpt>
      <trkpt lat="43.435550" lon="12.870349">
        <ele>279.485667</ele>
        <time>2020-02-25T01:24:24.851Z</time>
      </trkpt>
      <trkpt lat="43.435609" lon="12.870501">
        <ele>279.527919</ele>
        <time>2020-02-25T01:24:27.936Z</time>
      </trkpt>
      <trkpt lat="43.435678" lon="12.870730">
        <ele>279.588699</ele>
        <time>2020-02-25T01:24:32.381Z</time>
      </trkpt>
      <trkpt lat="43.435736" lon="12.870986">
        <ele>279.654441</ele>
        <time>2020-02-25T01:24:37.202Z</time>
      </trkpt>
      <trkpt lat="43.435793" lon="12.871311">
        <ele>279.736404</ele>
        <time>2020-02-25T01:24:43.117Z</time>
      </trkpt>
      <trkpt lat="43.435915" lon="12.873370">
        <ele>279.101679</ele>
        <time>2020-02-25T01:25:15.306Z</time>
      </trkpt>
      <trkpt lat="43.436006" lon="12.873997">
        <ele>278.771496</ele>
        <time>2020-02-25T01:25:23.761Z</time>
      </trkpt>
      <trkpt lat="43.436180" lon="12.874684">
        <ele>278.154041</ele>
        <time>2020-02-25T01:25:33.562Z</time>
      </trkpt>
      <trkpt lat="43.436207" lon="12.874930">
        <ele>277.870761</ele>
        <time>2020-02-25T01:25:36.715Z</time>
      </trkpt>
      <trkpt lat="43.436221" lon="12.875230">
        <ele>277.528472</ele>
        <time>2020-02-25T01:25:40.845Z</time>
      </trkpt>
      <trkpt lat="43.436253" lon="12.875918">
        <ele>276.743501</ele>
        <time>2020-02-25T01:25:49.834Z</time>
      </trkpt>
      <trkpt lat="43.436334" lon="12.878107">
        <ele>274.366374</ele>
        <time>2020-02-25T01:26:19.237Z</time>
      </trkpt>
      <trkpt lat="43.436367" lon="12.878427">
        <ele>274.026905</ele>
        <time>2020-02-25T01:26:23.704Z</time>
      </trkpt>
      <trkpt lat="43.436554" lon="12.879142">
        <ele>273.228716</ele>
        <time>2020-02-25T01:26:34.072Z</time>
      </trkpt>
      <trkpt lat="43.437115" lon="12.880801">
        <ele>270.574401</ele>
        <time>2020-02-25T01:26:57.570Z</time>
      </trkpt>
      <trkpt lat="43.437795" lon="12.882814">
        <ele>267.297369</ele>
        <time>2020-02-25T01:27:25.164Z</time>
      </trkpt>
      <trkpt lat="43.438568" lon="12.885081">
        <ele>265.177829</ele>
        <time>2020-02-25T01:27:58.735Z</time>
      </trkpt>
      <trkpt lat="43.439443" lon="12.887642">
        <ele>266.452242</ele>
        <time>2020-02-25T01:28:50.887Z</time>
      </trkpt>
      <trkpt lat="43.439913" lon="12.889036">
        <ele>268.753974</ele>
        <time>2020-02-25T01:29:27.033Z</time>
      </trkpt>
      <trkpt lat="43.440165" lon="12.889781">
        <ele>270.282474</ele>
        <time>2020-02-25T01:29:47.269Z</time>
      </trkpt>
      <trkpt lat="43.440471" lon="12.890689">
        <ele>271.761633</ele>
        <time>2020-02-25T01:30:10.895Z</time>
      </trkpt>
      <trkpt lat="43.440677" lon="12.891303">
        <ele>272.179211</ele>
        <time>2020-02-25T01:30:26.005Z</time>
      </trkpt>
      <trkpt lat="43.441251" lon="12.893017">
        <ele>272.637606</ele>
        <time>2020-02-25T01:30:56.768Z</time>
      </trkpt>
      <trkpt lat="43.441402" lon="12.893336">
        <ele>272.190564</ele>
        <time>2020-02-25T01:31:01.717Z</time>
      </trkpt>
      <trkpt lat="43.441696" lon="12.893655">
        <ele>271.585422</ele>
        <time>2020-02-25T01:31:08.246Z</time>
      </trkpt>
      <trkpt lat="43.441859" lon="12.893749">
        <ele>271.299708</ele>
        <time>2020-02-25T01:31:11.245Z</time>
      </trkpt>
      <trkpt lat="43.442341" lon="12.893891">
        <ele>270.502766</ele>
        <time>2020-02-25T01:31:19.866Z</time>
      </trkpt>
      <trkpt lat="43.442969" lon="12.894082">
        <ele>269.572360</ele>
        <time>2020-02-25T01:31:31.118Z</time>
      </trkpt>
      <trkpt lat="43.443236" lon="12.894162">
        <ele>269.196807</ele>
        <time>2020-02-25T01:31:35.980Z</time>
      </trkpt>
      <trkpt lat="43.443362" lon="12.894187">
        <ele>269.021842</ele>
        <time>2020-02-25T01:31:38.362Z</time>
      </trkpt>
      <trkpt lat="43.443417" lon="12.894557">
        <ele>268.644959</ele>
        <time>2020-02-25T01:31:43.505Z</time>
      </trkpt>
      <trkpt lat="43.443297" lon="12.895735">
        <ele>267.446044</ele>
        <time>2020-02-25T01:32:00.806Z</time>
      </trkpt>
      <trkpt lat="43.443175" lon="12.896234">
        <ele>266.896878</ele>
        <time>2020-02-25T01:32:08.478Z</time>
      </trkpt>
      <trkpt lat="43.443061" lon="12.896459">
        <ele>266.610715</ele>
        <time>2020-02-25T01:32:12.226Z</time>
      </trkpt>
      <trkpt lat="43.441708" lon="12.897940">
        <ele>263.711180</ele>
        <time>2020-02-25T01:32:42.911Z</time>
      </trkpt>
      <trkpt lat="43.440781" lon="12.899217">
        <ele>261.278233</ele>
        <time>2020-02-25T01:33:05.541Z</time>
      </trkpt>
      <trkpt lat="43.439827" lon="12.901244">
        <ele>259.853521</ele>
        <time>2020-02-25T01:33:40.176Z</time>
      </trkpt>
      <trkpt lat="43.439675" lon="12.901523">
        <ele>260.008274</ele>
        <time>2020-02-25T01:33:46.118Z</time>
      </trkpt>
      <trkpt lat="43.439527" lon="12.901714">
        <ele>260.132206</ele>
        <time>2020-02-25T01:33:51.351Z</time>
      </trkpt>
      <trkpt lat="43.438212" lon="12.903206">
        <ele>261.146832</ele>
        <time>2020-02-25T01:34:36.370Z</time>
      </trkpt>
      <trkpt lat="43.436982" lon="12.904647">
        <ele>261.734498</ele>
        <time>2020-02-25T01:35:14.774Z</time>
      </trkpt>
      <trkpt lat="43.436915" lon="12.904723">
        <ele>261.703612</ele>
        <time>2020-02-25T01:35:16.639Z</time>
      </trkpt>
      <trkpt lat="43.436216" lon="12.905538">
        <ele>261.377719</ele>
        <time>2020-02-25T01:35:35.434Z</time>
      </trkpt>
      <trkpt lat="43.435702" lon="12.906117">
        <ele>261.139957</ele>
        <time>2020-02-25T01:35:48.499Z</time>
      </trkpt>
      <trkpt lat="43.435524" lon="12.906299">
        <ele>261.059553</ele>
        <time>2020-02-25T01:35:53.014Z</time>
      </trkpt>
      <trkpt lat="43.435431" lon="12.906393">
        <ele>261.017715</ele>
        <time>2020-02-25T01:35:55.296Z</time>
      </trkpt>
      <trkpt lat="43.434813" lon="12.906979">
        <ele>260.745591</ele>
        <time>2020-02-25T01:36:11.050Z</time>
      </trkpt>
      <trkpt lat="43.433836" lon="12.907887">
        <ele>260.580433</ele>
        <time>2020-02-25T01:36:37.550Z</time>
      </trkpt>
      <trkpt lat="43.433462" lon="12.908217">
        <ele>260.589931</ele>
        <time>2020-02-25T01:36:47.920Z</time>
      </trkpt>
      <trkpt lat="43.432692" lon="12.908882">
        <ele>260.548676</ele>
        <time>2020-02-25T01:37:07.775Z</time>
      </trkpt>
      <trkpt lat="43.432500" lon="12.909049">
        <ele>260.495490</ele>
        <time>2020-02-25T01:37:12.595Z</time>
      </trkpt>
      <trkpt lat="43.432065" lon="12.909438">
        <ele>260.374014</ele>
        <time>2020-02-25T01:37:23.368Z</time>
      </trkpt>
      <trkpt lat="43.431719" lon="12.909853">
        <ele>260.266551</ele>
        <time>2020-02-25T01:37:32.965Z</time>
      </trkpt>
      <trkpt lat="43.431557" lon="12.910152">
        <ele>260.203103</ele>
        <time>2020-02-25T01:37:38.585Z</time>
      </trkpt>
      <trkpt lat="43.430748" lon="12.911914">
        <ele>260.833372</ele>
        <time>2020-02-25T01:38:14.132Z</time>
      </trkpt>
      <trkpt lat="43.430380" lon="12.912590">
        <ele>261.066035</ele>
        <time>2020-02-25T01:38:30.568Z</time>
      </trkpt>
      <trkpt lat="43.429980" lon="12.913087">
        <ele>261.207835</ele>
        <time>2020-02-25T01:38:45.320Z</time>
      </trkpt>
      <trkpt lat="43.429707" lon="12.913316">
        <ele>261.291969</ele>
        <time>2020-02-25T01:38:53.168Z</time>
      </trkpt>
      <trkpt lat="43.428737" lon="12.913965">
        <ele>260.691612</ele>
        <time>2020-02-25T01:39:14.700Z</time>
      </trkpt>
      <trkpt lat="43.428144" lon="12.914360">
        <ele>259.337502</ele>
        <time>2020-02-25T01:39:26.274Z</time>
      </trkpt>
      <trkpt lat="43.427901" lon="12.914551">
        <ele>258.762336</ele>
        <time>2020-02-25T01:39:31.016Z</time>
      </trkpt>
      <trkpt lat="43.427519" lon="12.915033">
        <ele>257.666362</ele>
        <time>2020-02-25T01:39:39.590Z</time>
      </trkpt>
      <trkpt lat="43.427391" lon="12.915280">
        <ele>257.040283</ele>
        <time>2020-02-25T01:39:43.117Z</time>
      </trkpt>
      <trkpt lat="43.427211" lon="12.915883">
        <ele>255.695109</ele>
        <time>2020-02-25T01:39:50.880Z</time>
      </trkpt>
      <trkpt lat="43.427187" lon="12.916677">
        <ele>254.055420</ele>
        <time>2020-02-25T01:40:00.698Z</time>
      </trkpt>
      <trkpt lat="43.427311" lon="12.917653">
        <ele>252.019545</ele>
        <time>2020-02-25T01:40:12.807Z</time>
      </trkpt>
      <trkpt lat="43.427398" lon="12.919319">
        <ele>248.617783</ele>
        <time>2020-02-25T01:40:32.927Z</time>
      </trkpt>
      <trkpt lat="43.427401" lon="12.919365">
        <ele>248.523721</ele>
        <time>2020-02-25T01:40:33.385Z</time>
      </trkpt>
      <trkpt lat="43.427404" lon="12.919447">
        <ele>248.356507</ele>
        <time>2020-02-25T01:40:34.445Z</time>
      </trkpt>
      <trkpt lat="43.427415" lon="12.919652">
        <ele>247.937863</ele>
        <time>2020-02-25T01:40:37.146Z</time>
      </trkpt>
      <trkpt lat="43.427453" lon="12.919885">
        <ele>247.519319</ele>
        <time>2020-02-25T01:40:39.950Z</time>
      </trkpt>
      <trkpt lat="43.427990" lon="12.921604">
        <ele>245.205038</ele>
        <time>2020-02-25T01:41:04.116Z</time>
      </trkpt>
      <trkpt lat="43.428098" lon="12.922130">
        <ele>244.552982</ele>
        <time>2020-02-25T01:41:12.206Z</time>
      </trkpt>
      <trkpt lat="43.428204" lon="12.923335">
        <ele>244.169366</ele>
        <time>2020-02-25T01:41:30.525Z</time>
      </trkpt>
      <trkpt lat="43.428256" lon="12.924445">
        <ele>243.817829</ele>
        <time>2020-02-25T01:41:47.559Z</time>
      </trkpt>
      <trkpt lat="43.428277" lon="12.924898">
        <ele>243.745989</ele>
        <time>2020-02-25T01:41:54.602Z</time>
      </trkpt>
      <trkpt lat="43.428361" lon="12.926506">
        <ele>243.586998</ele>
        <time>2020-02-25T01:42:20.073Z</time>
      </trkpt>
      <trkpt lat="43.428495" lon="12.929407">
        <ele>243.339375</ele>
        <time>2020-02-25T01:43:07.527Z</time>
      </trkpt>
      <trkpt lat="43.428432" lon="12.930050">
        <ele>243.204661</ele>
        <time>2020-02-25T01:43:16.731Z</time>
      </trkpt>
      <trkpt lat="43.428175" lon="12.931003">
        <ele>242.968982</ele>
        <time>2020-02-25T01:43:30.555Z</time>
      </trkpt>
      <trkpt lat="43.427936" lon="12.931832">
        <ele>242.762200</ele>
        <time>2020-02-25T01:43:46.109Z</time>
      </trkpt>
      <trkpt lat="43.427874" lon="12.931994">
        <ele>243.028757</ele>
        <time>2020-02-25T01:43:49.234Z</time>
      </trkpt>
      <trkpt lat="43.427756" lon="12.932208">
        <ele>243.489099</ele>
        <time>2020-02-25T01:43:55.264Z</time>
      </trkpt>
      <trkpt lat="43.427618" lon="12.932353">
        <ele>243.898610</ele>
        <time>2020-02-25T01:43:59.806Z</time>
      </trkpt>
      <trkpt lat="43.427601" lon="12.932454">
        <ele>244.076236</ele>
        <time>2020-02-25T01:44:02.295Z</time>
      </trkpt>
      <trkpt lat="43.427607" lon="12.932525">
        <ele>244.198699</ele>
        <time>2020-02-25T01:44:03.903Z</time>
      </trkpt>
      <trkpt lat="43.427665" lon="12.932669">
        <ele>244.480812</ele>
        <time>2020-02-25T01:44:07.568Z</time>
      </trkpt>
      <trkpt lat="43.427701" lon="12.932765">
        <ele>244.665917</ele>
        <time>2020-02-25T01:44:09.625Z</time>
      </trkpt>
      <trkpt lat="43.427723" lon="12.933095">
        <ele>245.233672</ele>
        <time>2020-02-25T01:44:17.361Z</time>
      </trkpt>
      <trkpt lat="43.427753" lon="12.933582">
        <ele>246.071028</ele>
        <time>2020-02-25T01:44:29.056Z</time>
      </trkpt>
      <trkpt lat="43.427791" lon="12.934328">
        <ele>247.603995</ele>
        <time>2020-02-25T01:44:49.360Z</time>
      </trkpt>
      <trkpt lat="43.427713" lon="12.934730">
        <ele>248.825930</ele>
        <time>2020-02-25T01:45:01.565Z</time>
      </trkpt>
      <trkpt lat="43.427403" lon="12.935388">
        <ele>251.129220</ele>
        <time>2020-02-25T01:45:24.448Z</time>
      </trkpt>
      <trkpt lat="43.426694" lon="12.936211">
        <ele>255.165791</ele>
        <time>2020-02-25T01:45:58.368Z</time>
      </trkpt>
      <trkpt lat="43.426647" lon="12.936414">
        <ele>256.087552</ele>
        <time>2020-02-25T01:46:04.690Z</time>
      </trkpt>
      <trkpt lat="43.426736" lon="12.936626">
        <ele>257.146906</ele>
        <time>2020-02-25T01:46:12.029Z</time>
      </trkpt>
      <trkpt lat="43.426836" lon="12.936701">
        <ele>257.825223</ele>
        <time>2020-02-25T01:46:17.087Z</time>
      </trkpt>
      <trkpt lat="43.427041" lon="12.936732">
        <ele>259.053715</ele>
        <time>2020-02-25T01:46:26.228Z</time>
      </trkpt>
      <trkpt lat="43.427737" lon="12.936452">
        <ele>263.373000</ele>
        <time>2020-02-25T01:47:01.408Z</time>
      </trkpt>
      <trkpt lat="43.428898" lon="12.936378">
        <ele>272.110606</ele>
        <time>2020-02-25T01:48:04.309Z</time>
      </trkpt>
      <trkpt lat="43.429726" lon="12.936134">
        <ele>278.878171</ele>
        <time>2020-02-25T01:48:51.558Z</time>
      </trkpt>
      <trkpt lat="43.429817" lon="12.936176">
        <ele>279.584428</ele>
        <time>2020-02-25T01:48:57.745Z</time>
      </trkpt>
      <trkpt lat="43.429920" lon="12.936249">
        <ele>280.311174</ele>
        <time>2020-02-25T01:49:03.932Z</time>
      </trkpt>
      <trkpt lat="43.430100" lon="12.936439">
        <ele>281.734028</ele>
        <time>2020-02-25T01:49:15.686Z</time>
      </trkpt>
      <trkpt lat="43.430296" lon="12.936545">
        <ele>283.055084</ele>
        <time>2020-02-25T01:49:25.664Z</time>
      </trkpt>
      <trkpt lat="43.430455" lon="12.936571">
        <ele>284.059591</ele>
        <time>2020-02-25T01:49:33.959Z</time>
      </trkpt>
      <trkpt lat="43.430959" lon="12.936627">
        <ele>287.231750</ele>
        <time>2020-02-25T01:49:57.052Z</time>
      </trkpt>
      <trkpt lat="43.431403" lon="12.936431">
        <ele>290.156848</ele>
        <time>2020-02-25T01:50:17.151Z</time>
      </trkpt>
      <trkpt lat="43.431679" lon="12.936634">
        <ele>291.607170</ele>
        <time>2020-02-25T01:50:29.341Z</time>
      </trkpt>
      <trkpt lat="43.431686" lon="12.936639">
        <ele>291.639428</ele>
        <time>2020-02-25T01:50:29.772Z</time>
      </trkpt>
      <trkpt lat="43.431830" lon="12.936650">
        <ele>292.229397</ele>
        <time>2020-02-25T01:50:35.555Z</time>
      </trkpt>
      <trkpt lat="43.431898" lon="12.936516">
        <ele>292.715026</ele>
        <time>2020-02-25T01:50:40.454Z</time>
      </trkpt>
      <trkpt lat="43.431841" lon="12.936326">
        <ele>293.325716</ele>
        <time>2020-02-25T01:50:46.189Z</time>
      </trkpt>
      <trkpt lat="43.431593" lon="12.936201">
        <ele>294.406037</ele>
        <time>2020-02-25T01:50:55.794Z</time>
      </trkpt>
      <trkpt lat="43.431395" lon="12.936202">
        <ele>295.216004</ele>
        <time>2020-02-25T01:51:02.347Z</time>
      </trkpt>
      <trkpt lat="43.431103" lon="12.936362">
        <ele>296.501587</ele>
        <time>2020-02-25T01:51:14.810Z</time>
      </trkpt>
      <trkpt lat="43.430930" lon="12.936382">
        <ele>297.211771</ele>
        <time>2020-02-25T01:51:20.186Z</time>
      </trkpt>
      <trkpt lat="43.430593" lon="12.936170">
        <ele>298.984935</ele>
        <time>2020-02-25T01:51:35.343Z</time>
      </trkpt>
      <trkpt lat="43.429981" lon="12.935421">
        <ele>303.527023</ele>
        <time>2020-02-25T01:52:09.362Z</time>
      </trkpt>
      <trkpt lat="43.429969" lon="12.935381">
        <ele>303.701375</ele>
        <time>2020-02-25T01:52:12.961Z</time>
      </trkpt>
      <trkpt lat="43.429972" lon="12.935359">
        <ele>303.791552</ele>
        <time>2020-02-25T01:52:13.738Z</time>
      </trkpt>
      <trkpt lat="43.429985" lon="12.935345">
        <ele>303.883104</ele>
        <time>2020-02-25T01:52:14.309Z</time>
      </trkpt>
      <trkpt lat="43.430161" lon="12.935351">
        <ele>304.859738</ele>
        <time>2020-02-25T01:52:20.495Z</time>
      </trkpt>
      <trkpt lat="43.430244" lon="12.935358">
        <ele>305.321032</ele>
        <time>2020-02-25T01:52:23.001Z</time>
      </trkpt>
      <trkpt lat="43.430361" lon="12.935341">
        <ele>305.973677</ele>
        <time>2020-02-25T01:52:31.080Z</time>
      </trkpt>
      <trkpt lat="43.430754" lon="12.935194">
        <ele>308.276338</ele>
        <time>2020-02-25T01:52:50.917Z</time>
      </trkpt>
      <trkpt lat="43.430814" lon="12.935071">
        <ele>308.976842</ele>
        <time>2020-02-25T01:52:55.166Z</time>
      </trkpt>
      <trkpt lat="43.430766" lon="12.934920">
        <ele>309.756106</ele>
        <time>2020-02-25T01:53:00.632Z</time>
      </trkpt>
      <trkpt lat="43.430373" lon="12.934792">
        <ele>312.385133</ele>
        <time>2020-02-25T01:53:23.461Z</time>
      </trkpt>
      <trkpt lat="43.430356" lon="12.934579">
        <ele>313.398183</ele>
        <time>2020-02-25T01:53:30.130Z</time>
      </trkpt>
      <trkpt lat="43.430477" lon="12.934549">
        <ele>314.198562</ele>
        <time>2020-02-25T01:53:35.315Z</time>
      </trkpt>
      <trkpt lat="43.430741" lon="12.934645">
        <ele>315.976121</ele>
        <time>2020-02-25T01:53:48.782Z</time>
      </trkpt>
      <trkpt lat="43.430864" lon="12.934702">
        <ele>316.820980</ele>
        <time>2020-02-25T01:53:55.213Z</time>
      </trkpt>
      <trkpt lat="43.431450" lon="12.935475">
        <ele>321.873641</ele>
        <time>2020-02-25T01:54:33.085Z</time>
      </trkpt>
      <trkpt lat="43.432061" lon="12.935311">
        <ele>325.539571</ele>
        <time>2020-02-25T01:55:02.618Z</time>
      </trkpt>
      <trkpt lat="43.432262" lon="12.935438">
        <ele>326.841926</ele>
        <time>2020-02-25T01:55:11.988Z</time>
      </trkpt>
      <trkpt lat="43.432467" lon="12.935729">
        <ele>328.575763</ele>
        <time>2020-02-25T01:55:24.577Z</time>
      </trkpt>
      <trkpt lat="43.433127" lon="12.935835">
        <ele>332.923533</ele>
        <time>2020-02-25T01:55:54.793Z</time>
      </trkpt>
      <trkpt lat="43.433500" lon="12.935959">
        <ele>335.628576</ele>
        <time>2020-02-25T01:56:12.274Z</time>
      </trkpt>
      <trkpt lat="43.433626" lon="12.936201">
        <ele>337.152961</ele>
        <time>2020-02-25T01:56:23.983Z</time>
      </trkpt>
      <trkpt lat="43.433690" lon="12.936686">
        <ele>339.676445</ele>
        <time>2020-02-25T01:56:43.714Z</time>
      </trkpt>
      <trkpt lat="43.433778" lon="12.936954">
        <ele>341.182135</ele>
        <time>2020-02-25T01:56:55.131Z</time>
      </trkpt>
      <trkpt lat="43.433863" lon="12.937024">
        <ele>341.880327</ele>
        <time>2020-02-25T01:57:00.082Z</time>
      </trkpt>
      <trkpt lat="43.434555" lon="12.937150">
        <ele>347.428149</ele>
        <time>2020-02-25T01:57:37.872Z</time>
      </trkpt>
      <trkpt lat="43.434645" lon="12.937150">
        <ele>348.166269</ele>
        <time>2020-02-25T01:57:44.261Z</time>
      </trkpt>
      <trkpt lat="43.434726" lon="12.937119">
        <ele>348.855753</ele>
        <time>2020-02-25T01:57:49.484Z</time>
      </trkpt>
      <trkpt lat="43.435096" lon="12.936907">
        <ele>352.142421</ele>
        <time>2020-02-25T01:58:10.967Z</time>
      </trkpt>
      <trkpt lat="43.435258" lon="12.936891">
        <ele>353.474448</ele>
        <time>2020-02-25T01:58:18.596Z</time>
      </trkpt>
      <trkpt lat="43.435370" lon="12.936959">
        <ele>354.478306</ele>
        <time>2020-02-25T01:58:26.819Z</time>
      </trkpt>
      <trkpt lat="43.435760" lon="12.937684">
        <ele>359.728651</ele>
        <time>2020-02-25T01:59:02.865Z</time>
      </trkpt>
      <trkpt lat="43.436698" lon="12.938659">
        <ele>368.812252</ele>
        <time>2020-02-25T02:00:03.570Z</time>
      </trkpt>
      <trkpt lat="43.437016" lon="12.938735">
        <ele>371.306947</ele>
        <time>2020-02-25T02:00:21.332Z</time>
      </trkpt>
      <trkpt lat="43.437485" lon="12.938523">
        <ele>374.885337</ele>
        <time>2020-02-25T02:00:48.448Z</time>
      </trkpt>
      <trkpt lat="43.437723" lon="12.938537">
        <ele>376.602139</ele>
        <time>2020-02-25T02:01:01.436Z</time>
      </trkpt>
      <trkpt lat="43.438238" lon="12.939191">
        <ele>381.650751</ele>
        <time>2020-02-25T02:01:37.627Z</time>
      </trkpt>
      <trkpt lat="43.438952" lon="12.939743">
        <ele>386.531881</ele>
        <time>2020-02-25T02:02:15.836Z</time>
      </trkpt>
      <trkpt lat="43.440108" lon="12.940057">
        <ele>392.109754</ele>
        <time>2020-02-25T02:03:02.145Z</time>
      </trkpt>
      <trkpt lat="43.440949" lon="12.940459">
        <ele>396.537121</ele>
        <time>2020-02-25T02:03:35.737Z</time>
      </trkpt>
      <trkpt lat="43.441881" lon="12.941293">
        <ele>402.145867</ele>
        <time>2020-02-25T02:04:24.297Z</time>
      </trkpt>
      <trkpt lat="43.442320" lon="12.941792">
        <ele>406.617711</ele>
        <time>2020-02-25T02:04:52.469Z</time>
      </trkpt>
      <trkpt lat="43.442475" lon="12.942101">
        <ele>408.766747</ele>
        <time>2020-02-25T02:05:09.222Z</time>
      </trkpt>
      <trkpt lat="43.442682" lon="12.942743">
        <ele>412.786216</ele>
        <time>2020-02-25T02:05:38.411Z</time>
      </trkpt>
      <trkpt lat="43.442668" lon="12.943620">
        <ele>417.342901</ele>
        <time>2020-02-25T02:06:13.769Z</time>
      </trkpt>
      <trkpt lat="43.442657" lon="12.943868">
        <ele>418.314030</ele>
        <time>2020-02-25T02:06:23.882Z</time>
      </trkpt>
      <trkpt lat="43.442671" lon="12.943940">
        <ele>418.605363</ele>
        <time>2020-02-25T02:06:27.350Z</time>
      </trkpt>
      <trkpt lat="43.442750" lon="12.944037">
        <ele>419.175098</ele>
        <time>2020-02-25T02:06:32.309Z</time>
      </trkpt>
      <trkpt lat="43.442829" lon="12.944036">
        <ele>419.600390</ele>
        <time>2020-02-25T02:06:36.460Z</time>
      </trkpt>
      <trkpt lat="43.443311" lon="12.943330">
        <ele>423.388126</ele>
        <time>2020-02-25T02:07:08.550Z</time>
      </trkpt>
      <trkpt lat="43.443805" lon="12.943021">
        <ele>425.853607</ele>
        <time>2020-02-25T02:07:28.107Z</time>
      </trkpt>
      <trkpt lat="43.443965" lon="12.942989">
        <ele>425.312790</ele>
        <time>2020-02-25T02:07:31.807Z</time>
      </trkpt>
      <trkpt lat="43.444220" lon="12.943002">
        <ele>424.459226</ele>
        <time>2020-02-25T02:07:36.389Z</time>
      </trkpt>
      <trkpt lat="43.444862" lon="12.943139">
        <ele>422.286100</ele>
        <time>2020-02-25T02:07:47.068Z</time>
      </trkpt>
      <trkpt lat="43.446084" lon="12.943208">
        <ele>415.495346</ele>
        <time>2020-02-25T02:08:04.520Z</time>
      </trkpt>
      <trkpt lat="43.446239" lon="12.943259">
        <ele>414.170038</ele>
        <time>2020-02-25T02:08:06.751Z</time>
      </trkpt>
      <trkpt lat="43.447149" lon="12.943989">
        <ele>405.412173</ele>
        <time>2020-02-25T02:08:21.177Z</time>
      </trkpt>
      <trkpt lat="43.447223" lon="12.944060">
        <ele>404.857704</ele>
        <time>2020-02-25T02:08:22.377Z</time>
      </trkpt>
      <trkpt lat="43.447293" lon="12.944147">
        <ele>404.465523</ele>
        <time>2020-02-25T02:08:23.656Z</time>
      </trkpt>
      <trkpt lat="43.447715" lon="12.945329">
        <ele>400.487787</ele>
        <time>2020-02-25T02:08:37.876Z</time>
      </trkpt>
      <trkpt lat="43.447881" lon="12.945448">
        <ele>399.709382</ele>
        <time>2020-02-25T02:08:40.823Z</time>
      </trkpt>
      <trkpt lat="43.447978" lon="12.945435">
        <ele>399.303999</ele>
        <time>2020-02-25T02:08:43.264Z</time>
      </trkpt>
      <trkpt lat="43.448122" lon="12.945281">
        <ele>398.545679</ele>
        <time>2020-02-25T02:08:46.051Z</time>
      </trkpt>
      <trkpt lat="43.448109" lon="12.944890">
        <ele>397.642814</ele>
        <time>2020-02-25T02:08:54.773Z</time>
      </trkpt>
      <trkpt lat="43.447778" lon="12.944155">
        <ele>398.534196</ele>
        <time>2020-02-25T02:09:17.558Z</time>
      </trkpt>
      <trkpt lat="43.447731" lon="12.943865">
        <ele>398.840426</ele>
        <time>2020-02-25T02:09:25.939Z</time>
      </trkpt>
      <trkpt lat="43.447760" lon="12.943611">
        <ele>399.105414</ele>
        <time>2020-02-25T02:09:33.548Z</time>
      </trkpt>
      <trkpt lat="43.448009" lon="12.942787">
        <ele>400.025249</ele>
        <time>2020-02-25T02:09:51.379Z</time>
      </trkpt>
      <trkpt lat="43.447997" lon="12.942195">
        <ele>397.592270</ele>
        <time>2020-02-25T02:09:58.429Z</time>
      </trkpt>
      <trkpt lat="43.448046" lon="12.941680">
        <ele>394.936685</ele>
        <time>2020-02-25T02:10:03.983Z</time>
      </trkpt>
      <trkpt lat="43.448117" lon="12.941473">
        <ele>393.766176</ele>
        <time>2020-02-25T02:10:06.281Z</time>
      </trkpt>
      <trkpt lat="43.448195" lon="12.941388">
        <ele>393.065748</ele>
        <time>2020-02-25T02:10:07.886Z</time>
      </trkpt>
      <trkpt lat="43.448215" lon="12.941376">
        <ele>392.912118</ele>
        <time>2020-02-25T02:10:08.228Z</time>
      </trkpt>
      <trkpt lat="43.448259" lon="12.941356">
        <ele>392.585817</ele>
        <time>2020-02-25T02:10:08.876Z</time>
      </trkpt>
      <trkpt lat="43.448352" lon="12.941380">
        <ele>391.919480</ele>
        <time>2020-02-25T02:10:10.073Z</time>
      </trkpt>
      <trkpt lat="43.448763" lon="12.942058">
        <ele>387.405331</ele>
        <time>2020-02-25T02:10:18.929Z</time>
      </trkpt>
      <trkpt lat="43.448881" lon="12.942513">
        <ele>385.015754</ele>
        <time>2020-02-25T02:10:23.645Z</time>
      </trkpt>
      <trkpt lat="43.449137" lon="12.943139">
        <ele>381.462338</ele>
        <time>2020-02-25T02:10:30.536Z</time>
      </trkpt>
      <trkpt lat="43.449392" lon="12.943517">
        <ele>378.910346</ele>
        <time>2020-02-25T02:10:36.042Z</time>
      </trkpt>
      <trkpt lat="43.450003" lon="12.944212">
        <ele>376.347788</ele>
        <time>2020-02-25T02:10:51.764Z</time>
      </trkpt>
      <trkpt lat="43.450252" lon="12.944332">
        <ele>377.560552</ele>
        <time>2020-02-25T02:11:00.186Z</time>
      </trkpt>
      <trkpt lat="43.450526" lon="12.944349">
        <ele>378.821487</ele>
        <time>2020-02-25T02:11:10.740Z</time>
      </trkpt>
      <trkpt lat="43.450747" lon="12.944335">
        <ele>379.838562</ele>
        <time>2020-02-25T02:11:21.121Z</time>
      </trkpt>
      <trkpt lat="43.450794" lon="12.944332">
        <ele>380.054866</ele>
        <time>2020-02-25T02:11:24.980Z</time>
      </trkpt>
      <trkpt lat="43.451162" lon="12.944375">
        <ele>381.752745</ele>
        <time>2020-02-25T02:11:43.594Z</time>
      </trkpt>
      <trkpt lat="43.451436" lon="12.944315">
        <ele>383.028220</ele>
        <time>2020-02-25T02:11:56.632Z</time>
      </trkpt>
      <trkpt lat="43.451928" lon="12.943963">
        <ele>386.657606</ele>
        <time>2020-02-25T02:12:26.291Z</time>
      </trkpt>
      <trkpt lat="43.452115" lon="12.943903">
        <ele>387.993930</ele>
        <time>2020-02-25T02:12:37.057Z</time>
      </trkpt>
      <trkpt lat="43.452321" lon="12.943972">
        <ele>389.469427</ele>
        <time>2020-02-25T02:12:48.332Z</time>
      </trkpt>
      <trkpt lat="43.452632" lon="12.944212">
        <ele>391.950441</ele>
        <time>2020-02-25T02:13:04.764Z</time>
      </trkpt>
      <trkpt lat="43.452826" lon="12.944255">
        <ele>393.318011</ele>
        <time>2020-02-25T02:13:14.153Z</time>
      </trkpt>
      <trkpt lat="43.453237" lon="12.943972">
        <ele>396.567915</ele>
        <time>2020-02-25T02:13:35.829Z</time>
      </trkpt>
      <trkpt lat="43.453405" lon="12.943963">
        <ele>397.854196</ele>
        <time>2020-02-25T02:13:44.762Z</time>
      </trkpt>
      <trkpt lat="43.453548" lon="12.944041">
        <ele>399.030884</ele>
        <time>2020-02-25T02:13:52.090Z</time>
      </trkpt>
      <trkpt lat="43.453997" lon="12.944856">
        <ele>404.713162</ele>
        <time>2020-02-25T02:14:28.135Z</time>
      </trkpt>
      <trkpt lat="43.454545" lon="12.945585">
        <ele>410.860799</ele>
        <time>2020-02-25T02:15:12.598Z</time>
      </trkpt>
      <trkpt lat="43.455081" lon="12.945834">
        <ele>416.941167</ele>
        <time>2020-02-25T02:15:49.446Z</time>
      </trkpt>
      <trkpt lat="43.456209" lon="12.946186">
        <ele>429.348603</ele>
        <time>2020-02-25T02:17:07.579Z</time>
      </trkpt>
      <trkpt lat="43.456464" lon="12.946341">
        <ele>432.084335</ele>
        <time>2020-02-25T02:17:26.122Z</time>
      </trkpt>
      <trkpt lat="43.456720" lon="12.946753">
        <ele>435.948377</ele>
        <time>2020-02-25T02:17:51.876Z</time>
      </trkpt>
      <trkpt lat="43.456888" lon="12.946890">
        <ele>437.864606</ele>
        <time>2020-02-25T02:18:04.189Z</time>
      </trkpt>
      <trkpt lat="43.457050" lon="12.946838">
        <ele>439.497288</ele>
        <time>2020-02-25T02:18:14.310Z</time>
      </trkpt>
      <trkpt lat="43.457118" lon="12.946658">
        <ele>440.943051</ele>
        <time>2020-02-25T02:18:23.185Z</time>
      </trkpt>
      <trkpt lat="43.457081" lon="12.946487">
        <ele>442.214379</ele>
        <time>2020-02-25T02:18:30.768Z</time>
      </trkpt>
      <trkpt lat="43.456838" lon="12.946006">
        <ele>446.389745</ele>
        <time>2020-02-25T02:18:54.437Z</time>
      </trkpt>
      <trkpt lat="43.456838" lon="12.945886">
        <ele>447.075089</ele>
        <time>2020-02-25T02:18:59.556Z</time>
      </trkpt>
      <trkpt lat="43.456900" lon="12.945791">
        <ele>447.678468</ele>
        <time>2020-02-25T02:19:05.180Z</time>
      </trkpt>
      <trkpt lat="43.456994" lon="12.945800">
        <ele>448.291565</ele>
        <time>2020-02-25T02:19:10.708Z</time>
      </trkpt>
      <trkpt lat="43.457530" lon="12.946375">
        <ele>452.711785</ele>
        <time>2020-02-25T02:19:46.356Z</time>
      </trkpt>
      <trkpt lat="43.457860" lon="12.946907">
        <ele>456.016906</ele>
        <time>2020-02-25T02:20:09.093Z</time>
      </trkpt>
      <trkpt lat="43.458072" lon="12.947182">
        <ele>457.911558</ele>
        <time>2020-02-25T02:20:21.348Z</time>
      </trkpt>
      <trkpt lat="43.458221" lon="12.947233">
        <ele>458.683980</ele>
        <time>2020-02-25T02:20:26.869Z</time>
      </trkpt>
      <trkpt lat="43.458720" lon="12.947165">
        <ele>460.360398</ele>
        <time>2020-02-25T02:20:45.706Z</time>
      </trkpt>
      <trkpt lat="43.459691" lon="12.946916">
        <ele>463.662441</ele>
        <time>2020-02-25T02:21:20.527Z</time>
      </trkpt>
      <trkpt lat="43.460090" lon="12.946735">
        <ele>465.014198</ele>
        <time>2020-02-25T02:21:33.048Z</time>
      </trkpt>
      <trkpt lat="43.460277" lon="12.946735">
        <ele>465.585335</ele>
        <time>2020-02-25T02:21:38.875Z</time>
      </trkpt>
      <trkpt lat="43.460732" lon="12.946890">
        <ele>467.016852</ele>
        <time>2020-02-25T02:21:54.034Z</time>
      </trkpt>
      <trkpt lat="43.461068" lon="12.946821">
        <ele>468.054404</ele>
        <time>2020-02-25T02:22:06.120Z</time>
      </trkpt>
      <trkpt lat="43.461504" lon="12.945997">
        <ele>470.358565</ele>
        <time>2020-02-25T02:22:34.198Z</time>
      </trkpt>
      <trkpt lat="43.461648" lon="12.945869">
        <ele>470.944738</ele>
        <time>2020-02-25T02:22:40.386Z</time>
      </trkpt>
      <trkpt lat="43.461816" lon="12.945869">
        <ele>471.519383</ele>
        <time>2020-02-25T02:22:46.308Z</time>
      </trkpt>
      <trkpt lat="43.462009" lon="12.946066">
        <ele>472.340980</ele>
        <time>2020-02-25T02:22:54.633Z</time>
      </trkpt>
      <trkpt lat="43.462414" lon="12.946641">
        <ele>474.330195</ele>
        <time>2020-02-25T02:23:14.751Z</time>
      </trkpt>
      <trkpt lat="43.463000" lon="12.947233">
        <ele>476.666499</ele>
        <time>2020-02-25T02:23:41.668Z</time>
      </trkpt>
      <trkpt lat="43.463498" lon="12.947577">
        <ele>478.172742</ele>
        <time>2020-02-25T02:24:01.895Z</time>
      </trkpt>
      <trkpt lat="43.463866" lon="12.948074">
        <ele>479.566045</ele>
        <time>2020-02-25T02:24:17.105Z</time>
      </trkpt>
      <trkpt lat="43.464066" lon="12.948226">
        <ele>480.183618</ele>
        <time>2020-02-25T02:24:24.625Z</time>
      </trkpt>
      <trkpt lat="43.464166" lon="12.948311">
        <ele>480.501311</ele>
        <time>2020-02-25T02:24:27.186Z</time>
      </trkpt>
      <trkpt lat="43.464314" lon="12.948478">
        <ele>481.011870</ele>
        <time>2020-02-25T02:24:33.139Z</time>
      </trkpt>
      <trkpt lat="43.464869" lon="12.948813">
        <ele>482.439127</ele>
        <time>2020-02-25T02:24:53.465Z</time>
      </trkpt>
      <trkpt lat="43.465563" lon="12.949543">
        <ele>484.495789</ele>
        <time>2020-02-25T02:25:21.024Z</time>
      </trkpt>
      <trkpt lat="43.465681" lon="12.949576">
        <ele>484.779406</ele>
        <time>2020-02-25T02:25:23.585Z</time>
      </trkpt>
      <trkpt lat="43.465778" lon="12.949573">
        <ele>485.007948</ele>
        <time>2020-02-25T02:25:28.584Z</time>
      </trkpt>
      <trkpt lat="43.466887" lon="12.949459">
        <ele>486.137980</ele>
        <time>2020-02-25T02:26:02.161Z</time>
      </trkpt>
      <trkpt lat="43.467372" lon="12.949500">
        <ele>486.579251</ele>
        <time>2020-02-25T02:26:14.318Z</time>
      </trkpt>
      <trkpt lat="43.467383" lon="12.949317">
        <ele>486.700278</ele>
        <time>2020-02-25T02:26:16.900Z</time>
      </trkpt>
      <trkpt lat="43.467313" lon="12.949262">
        <ele>486.773456</ele>
        <time>2020-02-25T02:26:18.399Z</time>
      </trkpt>
      <trkpt lat="43.466705" lon="12.949174">
        <ele>484.247189</ele>
        <time>2020-02-25T02:26:28.842Z</time>
      </trkpt>
      <trkpt lat="43.466673" lon="12.949023">
        <ele>483.701254</ele>
        <time>2020-02-25T02:26:30.657Z</time>
      </trkpt>
      <trkpt lat="43.466708" lon="12.948954">
        <ele>483.409098</ele>
        <time>2020-02-25T02:26:31.616Z</time>
      </trkpt>
      <trkpt lat="43.466788" lon="12.948909">
        <ele>482.995900</ele>
        <time>2020-02-25T02:26:32.948Z</time>
      </trkpt>
      <trkpt lat="43.467641" lon="12.948914">
        <ele>478.916954</ele>
        <time>2020-02-25T02:26:45.390Z</time>
      </trkpt>
      <trkpt lat="43.467967" lon="12.948642">
        <ele>476.144990</ele>
        <time>2020-02-25T02:26:50.738Z</time>
      </trkpt>
      <trkpt lat="43.468076" lon="12.948614">
        <ele>475.173730</ele>
        <time>2020-02-25T02:26:52.282Z</time>
      </trkpt>
      <trkpt lat="43.468278" lon="12.948674">
        <ele>473.363620</ele>
        <time>2020-02-25T02:26:55.146Z</time>
      </trkpt>
      <trkpt lat="43.468700" lon="12.948965">
        <ele>469.229936</ele>
        <time>2020-02-25T02:27:01.678Z</time>
      </trkpt>
      <trkpt lat="43.468934" lon="12.949069">
        <ele>467.076169</ele>
        <time>2020-02-25T02:27:05.048Z</time>
      </trkpt>
      <trkpt lat="43.469125" lon="12.949081">
        <ele>465.401326</ele>
        <time>2020-02-25T02:27:07.668Z</time>
      </trkpt>
      <trkpt lat="43.469210" lon="12.948888">
        <ele>463.966115</ele>
        <time>2020-02-25T02:27:09.900Z</time>
      </trkpt>
      <trkpt lat="43.469205" lon="12.948316">
        <ele>460.407350</ele>
        <time>2020-02-25T02:27:15.578Z</time>
      </trkpt>
      <trkpt lat="43.469309" lon="12.947999">
        <ele>458.275814</ele>
        <time>2020-02-25T02:27:19.044Z</time>
      </trkpt>
      <trkpt lat="43.470074" lon="12.947547">
        <ele>451.248538</ele>
        <time>2020-02-25T02:27:30.593Z</time>
      </trkpt>
      <trkpt lat="43.470786" lon="12.946767">
        <ele>444.839234</ele>
        <time>2020-02-25T02:27:43.619Z</time>
      </trkpt>
      <trkpt lat="43.471415" lon="12.946312">
        <ele>440.885924</ele>
        <time>2020-02-25T02:27:54.261Z</time>
      </trkpt>
      <trkpt lat="43.471671" lon="12.946303">
        <ele>439.460855</ele>
        <time>2020-02-25T02:27:58.183Z</time>
      </trkpt>
      <trkpt lat="43.472163" lon="12.946501">
        <ele>436.490654</ele>
        <time>2020-02-25T02:28:06.044Z</time>
      </trkpt>
      <trkpt lat="43.472860" lon="12.946363">
        <ele>431.890154</ele>
        <time>2020-02-25T02:28:16.657Z</time>
      </trkpt>
      <trkpt lat="43.472972" lon="12.946406">
        <ele>431.130550</ele>
        <time>2020-02-25T02:28:18.384Z</time>
      </trkpt>
      <trkpt lat="43.473290" lon="12.946750">
        <ele>428.489239</ele>
        <time>2020-02-25T02:28:24.338Z</time>
      </trkpt>
      <trkpt lat="43.473876" lon="12.946792">
        <ele>423.951278</ele>
        <time>2020-02-25T02:28:32.398Z</time>
      </trkpt>
      <trkpt lat="43.473957" lon="12.946741">
        <ele>422.903513</ele>
        <time>2020-02-25T02:28:33.608Z</time>
      </trkpt>
      <trkpt lat="43.474274" lon="12.946278">
        <ele>417.468714</ele>
        <time>2020-02-25T02:28:39.781Z</time>
      </trkpt>
      <trkpt lat="43.474698" lon="12.945926">
        <ele>411.644835</ele>
        <time>2020-02-25T02:28:46.333Z</time>
      </trkpt>
      <trkpt lat="43.474835" lon="12.945720">
        <ele>409.259151</ele>
        <time>2020-02-25T02:28:49.032Z</time>
      </trkpt>
      <trkpt lat="43.474847" lon="12.945608">
        <ele>408.292542</ele>
        <time>2020-02-25T02:28:50.081Z</time>
      </trkpt>
      <trkpt lat="43.474748" lon="12.945316">
        <ele>405.540804</ele>
        <time>2020-02-25T02:28:53.221Z</time>
      </trkpt>
      <trkpt lat="43.474143" lon="12.944733">
        <ele>397.122360</ele>
        <time>2020-02-25T02:29:02.942Z</time>
      </trkpt>
      <trkpt lat="43.473913" lon="12.944157">
        <ele>391.708771</ele>
        <time>2020-02-25T02:29:09.195Z</time>
      </trkpt>
      <trkpt lat="43.473857" lon="12.943634">
        <ele>387.355573</ele>
        <time>2020-02-25T02:29:14.517Z</time>
      </trkpt>
      <trkpt lat="43.474056" lon="12.942904">
        <ele>382.279018</ele>
        <time>2020-02-25T02:29:22.467Z</time>
      </trkpt>
      <trkpt lat="43.474106" lon="12.942261">
        <ele>379.317417</ele>
        <time>2020-02-25T02:29:29.187Z</time>
      </trkpt>
      <trkpt lat="43.474187" lon="12.942029">
        <ele>378.138357</ele>
        <time>2020-02-25T02:29:31.909Z</time>
      </trkpt>
      <trkpt lat="43.474685" lon="12.941522">
        <ele>374.230878</ele>
        <time>2020-02-25T02:29:41.128Z</time>
      </trkpt>
      <trkpt lat="43.475352" lon="12.941128">
        <ele>370.602108</ele>
        <time>2020-02-25T02:29:52.320Z</time>
      </trkpt>
      <trkpt lat="43.476037" lon="12.940982">
        <ele>367.632252</ele>
        <time>2020-02-25T02:30:03.169Z</time>
      </trkpt>
      <trkpt lat="43.476579" lon="12.940776">
        <ele>365.223287</ele>
        <time>2020-02-25T02:30:11.831Z</time>
      </trkpt>
      <trkpt lat="43.477133" lon="12.940733">
        <ele>362.666500</ele>
        <time>2020-02-25T02:30:20.589Z</time>
      </trkpt>
      <trkpt lat="43.477364" lon="12.940613">
        <ele>361.516711</ele>
        <time>2020-02-25T02:30:24.406Z</time>
      </trkpt>
      <trkpt lat="43.477569" lon="12.940458">
        <ele>360.427653</ele>
        <time>2020-02-25T02:30:28.014Z</time>
      </trkpt>
      <trkpt lat="43.477930" lon="12.940304">
        <ele>358.667576</ele>
        <time>2020-02-25T02:30:33.798Z</time>
      </trkpt>
      <trkpt lat="43.478067" lon="12.940321">
        <ele>358.026915</ele>
        <time>2020-02-25T02:30:35.894Z</time>
      </trkpt>
      <trkpt lat="43.478279" lon="12.940450">
        <ele>356.947554</ele>
        <time>2020-02-25T02:30:39.351Z</time>
      </trkpt>
      <trkpt lat="43.478671" lon="12.940870">
        <ele>353.468596</ele>
        <time>2020-02-25T02:30:46.674Z</time>
      </trkpt>
      <trkpt lat="43.478945" lon="12.941660">
        <ele>348.687465</ele>
        <time>2020-02-25T02:30:55.991Z</time>
      </trkpt>
      <trkpt lat="43.479163" lon="12.941823">
        <ele>346.821117</ele>
        <time>2020-02-25T02:30:59.526Z</time>
      </trkpt>
      <trkpt lat="43.479338" lon="12.941746">
        <ele>345.438748</ele>
        <time>2020-02-25T02:31:01.981Z</time>
      </trkpt>
      <trkpt lat="43.479905" lon="12.941282">
        <ele>339.732959</ele>
        <time>2020-02-25T02:31:10.840Z</time>
      </trkpt>
      <trkpt lat="43.480303" lon="12.941110">
        <ele>335.667324</ele>
        <time>2020-02-25T02:31:16.511Z</time>
      </trkpt>
      <trkpt lat="43.480446" lon="12.940990">
        <ele>334.035417</ele>
        <time>2020-02-25T02:31:18.811Z</time>
      </trkpt>
      <trkpt lat="43.480470" lon="12.940818">
        <ele>332.796636</ele>
        <time>2020-02-25T02:31:20.510Z</time>
      </trkpt>
      <trkpt lat="43.480462" lon="12.940766">
        <ele>332.420684</ele>
        <time>2020-02-25T02:31:21.048Z</time>
      </trkpt>
      <trkpt lat="43.480431" lon="12.940661">
        <ele>331.618939</ele>
        <time>2020-02-25T02:31:22.260Z</time>
      </trkpt>
      <trkpt lat="43.480422" lon="12.940599">
        <ele>331.171747</ele>
        <time>2020-02-25T02:31:22.898Z</time>
      </trkpt>
      <trkpt lat="43.480412" lon="12.940532">
        <ele>330.687959</ele>
        <time>2020-02-25T02:31:23.549Z</time>
      </trkpt>
      <trkpt lat="43.480459" lon="12.940339">
        <ele>329.248117</ele>
        <time>2020-02-25T02:31:25.546Z</time>
      </trkpt>
      <trkpt lat="43.480864" lon="12.939849">
        <ele>324.748990</ele>
        <time>2020-02-25T02:31:33.008Z</time>
      </trkpt>
      <trkpt lat="43.481161" lon="12.939720">
        <ele>323.272689</ele>
        <time>2020-02-25T02:31:37.369Z</time>
      </trkpt>
      <trkpt lat="43.481659" lon="12.939864">
        <ele>320.860346</ele>
        <time>2020-02-25T02:31:44.649Z</time>
      </trkpt>
      <trkpt lat="43.481817" lon="12.940046">
        <ele>319.884109</ele>
        <time>2020-02-25T02:31:48.279Z</time>
      </trkpt>
      <trkpt lat="43.481878" lon="12.940200">
        <ele>319.280567</ele>
        <time>2020-02-25T02:31:50.445Z</time>
      </trkpt>
      <trkpt lat="43.481963" lon="12.940237">
        <ele>318.857974</ele>
        <time>2020-02-25T02:31:51.934Z</time>
      </trkpt>
      <trkpt lat="43.482054" lon="12.940180">
        <ele>318.384090</ele>
        <time>2020-02-25T02:31:53.968Z</time>
      </trkpt>
      <trkpt lat="43.482230" lon="12.939890">
        <ele>317.083571</ele>
        <time>2020-02-25T02:31:59.127Z</time>
      </trkpt>
      <trkpt lat="43.482249" lon="12.939719">
        <ele>317.265370</ele>
        <time>2020-02-25T02:32:02.246Z</time>
      </trkpt>
      <trkpt lat="43.482119" lon="12.939356">
        <ele>318.291413</ele>
        <time>2020-02-25T02:32:08.963Z</time>
      </trkpt>
      <trkpt lat="43.482132" lon="12.938945">
        <ele>319.334142</ele>
        <time>2020-02-25T02:32:17.451Z</time>
      </trkpt>
      <trkpt lat="43.482296" lon="12.938398">
        <ele>320.834290</ele>
        <time>2020-02-25T02:32:33.169Z</time>
      </trkpt>
      <trkpt lat="43.482359" lon="12.937540">
        <ele>323.020116</ele>
        <time>2020-02-25T02:33:02.636Z</time>
      </trkpt>
      <trkpt lat="43.482954" lon="12.936480">
        <ele>331.444550</ele>
        <time>2020-02-25T02:33:55.172Z</time>
      </trkpt>
      <trkpt lat="43.483912" lon="12.935891">
        <ele>341.056025</ele>
        <time>2020-02-25T02:35:03.371Z</time>
      </trkpt>
      <trkpt lat="43.484174" lon="12.935346">
        <ele>345.851054</ele>
        <time>2020-02-25T02:35:31.733Z</time>
      </trkpt>
      <trkpt lat="43.484239" lon="12.935293">
        <ele>346.614486</ele>
        <time>2020-02-25T02:35:37.731Z</time>
      </trkpt>
      <trkpt lat="43.484305" lon="12.935346">
        <ele>347.386634</ele>
        <time>2020-02-25T02:35:43.058Z</time>
      </trkpt>
      <trkpt lat="43.484313" lon="12.935455">
        <ele>348.190162</ele>
        <time>2020-02-25T02:35:47.101Z</time>
      </trkpt>
      <trkpt lat="43.484167" lon="12.935932">
        <ele>351.987223</ele>
        <time>2020-02-25T02:36:10.185Z</time>
      </trkpt>
      <trkpt lat="43.483685" lon="12.936616">
        <ele>359.025003</ele>
        <time>2020-02-25T02:36:53.562Z</time>
      </trkpt>
      <trkpt lat="43.483691" lon="12.936742">
        <ele>359.980103</ele>
        <time>2020-02-25T02:36:58.666Z</time>
      </trkpt>
      <trkpt lat="43.483798" lon="12.936771">
        <ele>361.116913</ele>
        <time>2020-02-25T02:37:06.486Z</time>
      </trkpt>
      <trkpt lat="43.483946" lon="12.936480">
        <ele>363.804884</ele>
        <time>2020-02-25T02:37:22.735Z</time>
      </trkpt>
      <trkpt lat="43.484719" lon="12.935686">
        <ele>373.854983</ele>
        <time>2020-02-25T02:38:22.952Z</time>
      </trkpt>
      <trkpt lat="43.485229" lon="12.935411">
        <ele>380.215934</ele>
        <time>2020-02-25T02:39:00.652Z</time>
      </trkpt>
      <trkpt lat="43.485678" lon="12.934991">
        <ele>387.006683</ele>
        <time>2020-02-25T02:39:39.165Z</time>
      </trkpt>
      <trkpt lat="43.486276" lon="12.934673">
        <ele>395.027857</ele>
        <time>2020-02-25T02:40:26.352Z</time>
      </trkpt>
      <trkpt lat="43.486917" lon="12.934115">
        <ele>403.905494</ele>
        <time>2020-02-25T02:41:26.463Z</time>
      </trkpt>
      <trkpt lat="43.487490" lon="12.933875">
        <ele>410.597318</ele>
        <time>2020-02-25T02:42:08.140Z</time>
      </trkpt>
      <trkpt lat="43.488025" lon="12.933798">
        <ele>416.607925</ele>
        <time>2020-02-25T02:42:42.319Z</time>
      </trkpt>
      <trkpt lat="43.488144" lon="12.933762">
        <ele>417.969286</ele>
        <time>2020-02-25T02:42:48.475Z</time>
      </trkpt>
      <trkpt lat="43.488746" lon="12.933177">
        <ele>422.511227</ele>
        <time>2020-02-25T02:43:26.334Z</time>
      </trkpt>
      <trkpt lat="43.489561" lon="12.932618">
        <ele>427.530627</ele>
        <time>2020-02-25T02:44:02.966Z</time>
      </trkpt>
      <trkpt lat="43.489950" lon="12.931768">
        <ele>431.028129</ele>
        <time>2020-02-25T02:44:28.280Z</time>
      </trkpt>
      <trkpt lat="43.490073" lon="12.931087">
        <ele>433.295049</ele>
        <time>2020-02-25T02:44:48.627Z</time>
      </trkpt>
      <trkpt lat="43.490125" lon="12.931065">
        <ele>433.537236</ele>
        <time>2020-02-25T02:44:50.940Z</time>
      </trkpt>
      <trkpt lat="43.490204" lon="12.931149">
        <ele>433.981472</ele>
        <time>2020-02-25T02:44:54.839Z</time>
      </trkpt>
      <trkpt lat="43.490047" lon="12.932172">
        <ele>437.541641</ele>
        <time>2020-02-25T02:45:27.621Z</time>
      </trkpt>
      <trkpt lat="43.490081" lon="12.932311">
        <ele>438.183324</ele>
        <time>2020-02-25T02:45:32.408Z</time>
      </trkpt>
      <trkpt lat="43.490170" lon="12.932287">
        <ele>438.730137</ele>
        <time>2020-02-25T02:45:36.544Z</time>
      </trkpt>
      <trkpt lat="43.490244" lon="12.931726">
        <ele>441.224447</ele>
        <time>2020-02-25T02:45:54.486Z</time>
      </trkpt>
      <trkpt lat="43.490818" lon="12.929926">
        <ele>449.867236</ele>
        <time>2020-02-25T02:47:03.602Z</time>
      </trkpt>
      <trkpt lat="43.490892" lon="12.929528">
        <ele>451.699608</ele>
        <time>2020-02-25T02:47:17.498Z</time>
      </trkpt>
      <trkpt lat="43.490913" lon="12.929423">
        <ele>452.185357</ele>
        <time>2020-02-25T02:47:21.994Z</time>
      </trkpt>
      <trkpt lat="43.490942" lon="12.929527">
        <ele>452.682258</ele>
        <time>2020-02-25T02:47:26.595Z</time>
      </trkpt>
      <trkpt lat="43.490934" lon="12.929821">
        <ele>453.994364</ele>
        <time>2020-02-25T02:47:35.701Z</time>
      </trkpt>
      <trkpt lat="43.490398" lon="12.932874">
        <ele>467.380916</ele>
        <time>2020-02-25T02:49:19.179Z</time>
      </trkpt>
      <trkpt lat="43.490256" lon="12.933204">
        <ele>468.977040</ele>
        <time>2020-02-25T02:49:32.322Z</time>
      </trkpt>
      <trkpt lat="43.489987" lon="12.933528">
        <ele>470.869508</ele>
        <time>2020-02-25T02:49:48.064Z</time>
      </trkpt>
      <trkpt lat="43.489443" lon="12.933871">
        <ele>474.027652</ele>
        <time>2020-02-25T02:50:12.778Z</time>
      </trkpt>
      <trkpt lat="43.489375" lon="12.934084">
        <ele>474.918961</ele>
        <time>2020-02-25T02:50:20.162Z</time>
      </trkpt>
      <trkpt lat="43.489429" lon="12.934234">
        <ele>475.560323</ele>
        <time>2020-02-25T02:50:24.298Z</time>
      </trkpt>
      <trkpt lat="43.489474" lon="12.934249">
        <ele>475.804739</ele>
        <time>2020-02-25T02:50:25.953Z</time>
      </trkpt>
      <trkpt lat="43.489533" lon="12.934226">
        <ele>476.128434</ele>
        <time>2020-02-25T02:50:30.618Z</time>
      </trkpt>
      <trkpt lat="43.490414" lon="12.933385">
        <ele>482.373085</ele>
        <time>2020-02-25T02:51:16.989Z</time>
      </trkpt>
      <trkpt lat="43.490520" lon="12.933228">
        <ele>483.343779</ele>
        <time>2020-02-25T02:51:23.549Z</time>
      </trkpt>
      <trkpt lat="43.490786" lon="12.932578">
        <ele>486.721462</ele>
        <time>2020-02-25T02:51:49.816Z</time>
      </trkpt>
      <trkpt lat="43.491108" lon="12.931454">
        <ele>493.151090</ele>
        <time>2020-02-25T02:52:34.410Z</time>
      </trkpt>
      <trkpt lat="43.491438" lon="12.930845">
        <ele>497.959263</ele>
        <time>2020-02-25T02:53:06.391Z</time>
      </trkpt>
      <trkpt lat="43.491712" lon="12.930656">
        <ele>500.630724</ele>
        <time>2020-02-25T02:53:24.806Z</time>
      </trkpt>
      <trkpt lat="43.492285" lon="12.930613">
        <ele>505.675607</ele>
        <time>2020-02-25T02:53:59.332Z</time>
      </trkpt>
      <trkpt lat="43.492521" lon="12.930502">
        <ele>508.363296</ele>
        <time>2020-02-25T02:54:14.467Z</time>
      </trkpt>
      <trkpt lat="43.492770" lon="12.930321">
        <ele>511.397411</ele>
        <time>2020-02-25T02:54:30.631Z</time>
      </trkpt>
      <trkpt lat="43.493717" lon="12.929386">
        <ele>523.952672</ele>
        <time>2020-02-25T02:55:50.076Z</time>
      </trkpt>
      <trkpt lat="43.493897" lon="12.929317">
        <ele>525.975692</ele>
        <time>2020-02-25T02:56:03.376Z</time>
      </trkpt>
      <trkpt lat="43.494078" lon="12.929360">
        <ele>527.971748</ele>
        <time>2020-02-25T02:56:15.726Z</time>
      </trkpt>
      <trkpt lat="43.494158" lon="12.929437">
        <ele>529.032131</ele>
        <time>2020-02-25T02:56:22.766Z</time>
      </trkpt>
      <trkpt lat="43.494321" lon="12.929592">
        <ele>531.184175</ele>
        <time>2020-02-25T02:56:35.986Z</time>
      </trkpt>
      <trkpt lat="43.494576" lon="12.930133">
        <ele>536.270600</ele>
        <time>2020-02-25T02:57:08.251Z</time>
      </trkpt>
      <trkpt lat="43.495396" lon="12.932554">
        <ele>554.284941</ele>
        <time>2020-02-25T02:59:08.204Z</time>
      </trkpt>
      <trkpt lat="43.495410" lon="12.932900">
        <ele>556.373110</ele>
        <time>2020-02-25T02:59:19.953Z</time>
      </trkpt>
      <trkpt lat="43.495225" lon="12.934064">
        <ele>560.284640</ele>
        <time>2020-02-25T02:59:56.997Z</time>
      </trkpt>
      <trkpt lat="43.495062" lon="12.934544">
        <ele>561.004947</ele>
        <time>2020-02-25T03:00:11.216Z</time>
      </trkpt>
      <trkpt lat="43.495081" lon="12.934872">
        <ele>561.452151</ele>
        <time>2020-02-25T03:00:17.228Z</time>
      </trkpt>
      <trkpt lat="43.495282" lon="12.935506">
        <ele>562.392513</ele>
        <time>2020-02-25T03:00:27.183Z</time>
      </trkpt>
      <trkpt lat="43.495716" lon="12.936113">
        <ele>559.651284</ele>
        <time>2020-02-25T03:00:38.196Z</time>
      </trkpt>
      <trkpt lat="43.495913" lon="12.936273">
        <ele>558.110767</ele>
        <time>2020-02-25T03:00:41.772Z</time>
      </trkpt>
      <trkpt lat="43.495950" lon="12.936302">
        <ele>557.824004</ele>
        <time>2020-02-25T03:00:42.332Z</time>
      </trkpt>
      <trkpt lat="43.496073" lon="12.936392">
        <ele>556.885791</ele>
        <time>2020-02-25T03:00:44.599Z</time>
      </trkpt>
      <trkpt lat="43.496165" lon="12.936528">
        <ele>555.976928</ele>
        <time>2020-02-25T03:00:46.679Z</time>
      </trkpt>
      <trkpt lat="43.496212" lon="12.936609">
        <ele>555.469977</ele>
        <time>2020-02-25T03:00:47.665Z</time>
      </trkpt>
      <trkpt lat="43.496248" lon="12.936673">
        <ele>555.074158</ele>
        <time>2020-02-25T03:00:48.489Z</time>
      </trkpt>
      <trkpt lat="43.496288" lon="12.936765">
        <ele>554.549932</ele>
        <time>2020-02-25T03:00:49.696Z</time>
      </trkpt>
      <trkpt lat="43.496286" lon="12.936824">
        <ele>554.261257</ele>
        <time>2020-02-25T03:00:50.537Z</time>
      </trkpt>
      <trkpt lat="43.496244" lon="12.937148">
        <ele>552.652630</ele>
        <time>2020-02-25T03:00:53.754Z</time>
      </trkpt>
      <trkpt lat="43.496305" lon="12.937807">
        <ele>547.787817</ele>
        <time>2020-02-25T03:01:00.183Z</time>
      </trkpt>
      <trkpt lat="43.496316" lon="12.937879">
        <ele>546.934499</ele>
        <time>2020-02-25T03:01:00.923Z</time>
      </trkpt>
      <trkpt lat="43.496345" lon="12.938064">
        <ele>544.739490</ele>
        <time>2020-02-25T03:01:02.688Z</time>
      </trkpt>
      <trkpt lat="43.496412" lon="12.938300">
        <ele>541.800413</ele>
        <time>2020-02-25T03:01:05.093Z</time>
      </trkpt>
      <trkpt lat="43.496552" lon="12.938550">
        <ele>538.137714</ele>
        <time>2020-02-25T03:01:08.055Z</time>
      </trkpt>
      <trkpt lat="43.496773" lon="12.938801">
        <ele>533.559921</ele>
        <time>2020-02-25T03:01:11.717Z</time>
      </trkpt>
      <trkpt lat="43.496991" lon="12.938984">
        <ele>529.479435</ele>
        <time>2020-02-25T03:01:15.063Z</time>
      </trkpt>
      <trkpt lat="43.497238" lon="12.939067">
        <ele>525.415033</ele>
        <time>2020-02-25T03:01:18.330Z</time>
      </trkpt>
      <trkpt lat="43.497256" lon="12.939119">
        <ele>524.746846</ele>
        <time>2020-02-25T03:01:18.885Z</time>
      </trkpt>
      <trkpt lat="43.497252" lon="12.939153">
        <ele>524.347394</ele>
        <time>2020-02-25T03:01:19.241Z</time>
      </trkpt>
      <trkpt lat="43.497289" lon="12.939144">
        <ele>523.746739</ele>
        <time>2020-02-25T03:01:19.790Z</time>
      </trkpt>
      <trkpt lat="43.497295" lon="12.939139">
        <ele>523.634653</ele>
        <time>2020-02-25T03:01:19.882Z</time>
      </trkpt>
      <trkpt lat="43.497358" lon="12.939080">
        <ele>522.417044</ele>
        <time>2020-02-25T03:01:20.899Z</time>
      </trkpt>
      <trkpt lat="43.497393" lon="12.939046">
        <ele>521.742791</ele>
        <time>2020-02-25T03:01:21.470Z</time>
      </trkpt>
      <trkpt lat="43.497408" lon="12.939032">
        <ele>521.483902</ele>
        <time>2020-02-25T03:01:21.709Z</time>
      </trkpt>
      <trkpt lat="43.497503" lon="12.938943">
        <ele>519.842332</ele>
        <time>2020-02-25T03:01:23.262Z</time>
      </trkpt>
      <trkpt lat="43.497619" lon="12.938860">
        <ele>517.974478</ele>
        <time>2020-02-25T03:01:25.014Z</time>
      </trkpt>
      <trkpt lat="43.497613" lon="12.938869">
        <ele>517.847753</ele>
        <time>2020-02-25T03:01:25.192Z</time>
      </trkpt>
      <trkpt lat="43.497588" lon="12.939496">
        <ele>511.337655</ele>
        <time>2020-02-25T03:01:31.357Z</time>
      </trkpt>
      <trkpt lat="43.497632" lon="12.939556">
        <ele>510.453140</ele>
        <time>2020-02-25T03:01:32.201Z</time>
      </trkpt>
      <trkpt lat="43.497852" lon="12.939425">
        <ele>507.028178</ele>
        <time>2020-02-25T03:01:35.459Z</time>
      </trkpt>
      <trkpt lat="43.497918" lon="12.939530">
        <ele>505.587798</ele>
        <time>2020-02-25T03:01:36.823Z</time>
      </trkpt>
      <trkpt lat="43.497756" lon="12.939714">
        <ele>502.587918</ele>
        <time>2020-02-25T03:01:39.824Z</time>
      </trkpt>
      <trkpt lat="43.497734" lon="12.939826">
        <ele>501.384968</ele>
        <time>2020-02-25T03:01:40.949Z</time>
      </trkpt>
      <trkpt lat="43.497756" lon="12.939899">
        <ele>500.565444</ele>
        <time>2020-02-25T03:01:41.704Z</time>
      </trkpt>
      <trkpt lat="43.497858" lon="12.939877">
        <ele>499.089951</ele>
        <time>2020-02-25T03:01:44.115Z</time>
      </trkpt>
      <trkpt lat="43.497990" lon="12.939810">
        <ele>497.079627</ele>
        <time>2020-02-25T03:01:46.029Z</time>
      </trkpt>
      <trkpt lat="43.498094" lon="12.939822">
        <ele>495.969726</ele>
        <time>2020-02-25T03:01:47.393Z</time>
      </trkpt>
      <trkpt lat="43.498094" lon="12.939722">
        <ele>495.671917</ele>
        <time>2020-02-25T03:01:48.740Z</time>
      </trkpt>
      <trkpt lat="43.498017" lon="12.939458">
        <ele>494.824528</ele>
        <time>2020-02-25T03:01:52.058Z</time>
      </trkpt>
      <trkpt lat="43.498018" lon="12.939454">
        <ele>494.811928</ele>
        <time>2020-02-25T03:01:52.105Z</time>
      </trkpt>
      <trkpt lat="43.498047" lon="12.939335">
        <ele>494.438070</ele>
        <time>2020-02-25T03:01:53.283Z</time>
      </trkpt>
      <trkpt lat="43.498174" lon="12.939254">
        <ele>493.863578</ele>
        <time>2020-02-25T03:01:56.132Z</time>
      </trkpt>
      <trkpt lat="43.498296" lon="12.939312">
        <ele>493.333765</ele>
        <time>2020-02-25T03:01:58.290Z</time>
      </trkpt>
      <trkpt lat="43.498815" lon="12.939932">
        <ele>490.514328</ele>
        <time>2020-02-25T03:02:08.855Z</time>
      </trkpt>
      <trkpt lat="43.498998" lon="12.940138">
        <ele>489.544376</ele>
        <time>2020-02-25T03:02:13.651Z</time>
      </trkpt>
      <trkpt lat="43.499126" lon="12.940283">
        <ele>488.864218</ele>
        <time>2020-02-25T03:02:16.562Z</time>
      </trkpt>
      <trkpt lat="43.500189" lon="12.941611">
        <ele>493.381625</ele>
        <time>2020-02-25T03:02:58.312Z</time>
      </trkpt>
      <trkpt lat="43.500352" lon="12.941789">
        <ele>494.069133</ele>
        <time>2020-02-25T03:03:08.379Z</time>
      </trkpt>
      <trkpt lat="43.500544" lon="12.941904">
        <ele>494.887195</ele>
        <time>2020-02-25T03:03:22.804Z</time>
      </trkpt>
      <trkpt lat="43.500650" lon="12.941952">
        <ele>495.873693</ele>
        <time>2020-02-25T03:03:29.023Z</time>
      </trkpt>
      <trkpt lat="43.500735" lon="12.941991">
        <ele>496.665779</ele>
        <time>2020-02-25T03:03:34.090Z</time>
      </trkpt>
      <trkpt lat="43.500735" lon="12.941991">
        <ele>496.665779</ele>
        <time>2020-02-25T03:03:34.509Z</time>
      </trkpt>
      <trkpt lat="43.500823" lon="12.941965">
        <ele>497.461527</ele>
        <time>2020-02-25T03:03:40.896Z</time>
      </trkpt>
      <trkpt lat="43.500888" lon="12.941905">
        <ele>498.153179</ele>
        <time>2020-02-25T03:03:46.715Z</time>
      </trkpt>
      <trkpt lat="43.500968" lon="12.941805">
        <ele>499.107994</ele>
        <time>2020-02-25T03:03:51.809Z</time>
      </trkpt>
      <trkpt lat="43.500988" lon="12.941730">
        <ele>499.620485</ele>
        <time>2020-02-25T03:03:55.031Z</time>
      </trkpt>
      <trkpt lat="43.500888" lon="12.941524">
        <ele>501.210238</ele>
        <time>2020-02-25T03:04:08.137Z</time>
      </trkpt>
      <trkpt lat="43.500878" lon="12.941504">
        <ele>501.366030</ele>
        <time>2020-02-25T03:04:10.162Z</time>
      </trkpt>
      <trkpt lat="43.500542" lon="12.940945">
        <ele>506.022152</ele>
        <time>2020-02-25T03:04:39.317Z</time>
      </trkpt>
      <trkpt lat="43.500449" lon="12.940781">
        <ele>507.357255</ele>
        <time>2020-02-25T03:04:48.804Z</time>
      </trkpt>
      <trkpt lat="43.500427" lon="12.940743">
        <ele>507.669082</ele>
        <time>2020-02-25T03:04:51.791Z</time>
      </trkpt>
      <trkpt lat="43.500225" lon="12.940386">
        <ele>510.572956</ele>
        <time>2020-02-25T03:05:08.180Z</time>
      </trkpt>
      <trkpt lat="43.500137" lon="12.940232">
        <ele>510.788580</ele>
        <time>2020-02-25T03:05:16.340Z</time>
      </trkpt>
      <trkpt lat="43.500125" lon="12.940212">
        <ele>510.815309</ele>
        <time>2020-02-25T03:05:17.002Z</time>
      </trkpt>
      <trkpt lat="43.499989" lon="12.939988">
        <ele>511.116119</ele>
        <time>2020-02-25T03:05:27.679Z</time>
      </trkpt>
      <trkpt lat="43.499936" lon="12.939912">
        <ele>511.224686</ele>
        <time>2020-02-25T03:05:31.239Z</time>
      </trkpt>
      <trkpt lat="43.499911" lon="12.939876">
        <ele>511.276008</ele>
        <time>2020-02-25T03:05:31.835Z</time>
      </trkpt>
      <trkpt lat="43.499800" lon="12.939700">
        <ele>511.516177</ele>
        <time>2020-02-25T03:05:36.938Z</time>
      </trkpt>
      <trkpt lat="43.499742" lon="12.939608">
        <ele>511.641699</ele>
        <time>2020-02-25T03:05:40.061Z</time>
      </trkpt>
      <trkpt lat="43.499483" lon="12.939938">
        <ele>512.142382</ele>
        <time>2020-02-25T03:06:04.610Z</time>
      </trkpt>
      <trkpt lat="43.499412" lon="12.939856">
        <ele>512.273875</ele>
        <time>2020-02-25T03:06:06.231Z</time>
      </trkpt>
      <trkpt lat="43.499134" lon="12.939524">
        <ele>512.796036</ele>
        <time>2020-02-25T03:06:13.279Z</time>
      </trkpt>
      <trkpt lat="43.499076" lon="12.939451">
        <ele>512.907532</ele>
        <time>2020-02-25T03:06:14.593Z</time>
      </trkpt>
      <trkpt lat="43.499036" lon="12.939376">
        <ele>513.003396</ele>
        <time>2020-02-25T03:06:17.151Z</time>
      </trkpt>
      <trkpt lat="43.498752" lon="12.939004">
        <ele>511.343351</ele>
        <time>2020-02-25T03:06:23.553Z</time>
      </trkpt>
      <trkpt lat="43.498749" lon="12.939003">
        <ele>511.324433</ele>
        <time>2020-02-25T03:06:23.914Z</time>
      </trkpt>
      <trkpt lat="43.498192" lon="12.938639">
        <ele>507.546083</ele>
        <time>2020-02-25T03:06:33.520Z</time>
      </trkpt>
      <trkpt lat="43.497949" lon="12.938603">
        <ele>506.048025</ele>
        <time>2020-02-25T03:06:40.392Z</time>
      </trkpt>
      <trkpt lat="43.497675" lon="12.938783">
        <ele>504.187576</ele>
        <time>2020-02-25T03:06:44.884Z</time>
      </trkpt>
      <trkpt lat="43.497619" lon="12.938860">
        <ele>503.702764</ele>
        <time>2020-02-25T03:06:47.076Z</time>
      </trkpt>
      <trkpt lat="43.497613" lon="12.938869">
        <ele>503.648413</ele>
        <time>2020-02-25T03:06:47.250Z</time>
      </trkpt>
      <trkpt lat="43.497588" lon="12.939496">
        <ele>498.629553</ele>
        <time>2020-02-25T03:06:53.591Z</time>
      </trkpt>
      <trkpt lat="43.497632" lon="12.939556">
        <ele>497.580617</ele>
        <time>2020-02-25T03:06:54.410Z</time>
      </trkpt>
      <trkpt lat="43.497852" lon="12.939425">
        <ele>493.518992</ele>
        <time>2020-02-25T03:06:57.742Z</time>
      </trkpt>
      <trkpt lat="43.497918" lon="12.939530">
        <ele>491.810861</ele>
        <time>2020-02-25T03:06:59.077Z</time>
      </trkpt>
      <trkpt lat="43.497756" lon="12.939714">
        <ele>488.253337</ele>
        <time>2020-02-25T03:07:02.026Z</time>
      </trkpt>
      <trkpt lat="43.497734" lon="12.939826">
        <ele>486.826772</ele>
        <time>2020-02-25T03:07:03.135Z</time>
      </trkpt>
      <trkpt lat="43.497756" lon="12.939899">
        <ele>485.854907</ele>
        <time>2020-02-25T03:07:03.903Z</time>
      </trkpt>
      <trkpt lat="43.497858" lon="12.939877">
        <ele>484.105135</ele>
        <time>2020-02-25T03:07:05.207Z</time>
      </trkpt>
      <trkpt lat="43.497990" lon="12.939810">
        <ele>481.721115</ele>
        <time>2020-02-25T03:07:07.033Z</time>
      </trkpt>
      <trkpt lat="43.498094" lon="12.939822">
        <ele>479.952315</ele>
        <time>2020-02-25T03:07:08.363Z</time>
      </trkpt>
      <trkpt lat="43.498092" lon="12.939954">
        <ele>478.329107</ele>
        <time>2020-02-25T03:07:09.581Z</time>
      </trkpt>
      <trkpt lat="43.498074" lon="12.940163">
        <ele>475.741541</ele>
        <time>2020-02-25T03:07:11.648Z</time>
      </trkpt>
      <trkpt lat="43.498605" lon="12.941084">
        <ele>461.086549</ele>
        <time>2020-02-25T03:07:22.459Z</time>
      </trkpt>
      <trkpt lat="43.499066" lon="12.942075">
        <ele>446.345875</ele>
        <time>2020-02-25T03:07:33.478Z</time>
      </trkpt>
      <trkpt lat="43.499086" lon="12.942137">
        <ele>445.496273</ele>
        <time>2020-02-25T03:07:34.114Z</time>
      </trkpt>
      <trkpt lat="43.499094" lon="12.942160">
        <ele>445.176895</ele>
        <time>2020-02-25T03:07:34.360Z</time>
      </trkpt>
      <trkpt lat="43.499106" lon="12.942195">
        <ele>444.692174</ele>
        <time>2020-02-25T03:07:34.764Z</time>
      </trkpt>
      <trkpt lat="43.499152" lon="12.942230">
        <ele>443.785252</ele>
        <time>2020-02-25T03:07:35.534Z</time>
      </trkpt>
      <trkpt lat="43.499256" lon="12.942305">
        <ele>441.759306</ele>
        <time>2020-02-25T03:07:37.081Z</time>
      </trkpt>
      <trkpt lat="43.499516" lon="12.942416">
        <ele>438.448906</ele>
        <time>2020-02-25T03:07:40.647Z</time>
      </trkpt>
      <trkpt lat="43.500018" lon="12.943181">
        <ele>430.616363</ele>
        <time>2020-02-25T03:07:50.607Z</time>
      </trkpt>
      <trkpt lat="43.500106" lon="12.943290">
        <ele>429.378060</ele>
        <time>2020-02-25T03:07:52.198Z</time>
      </trkpt>
      <trkpt lat="43.500114" lon="12.943420">
        <ele>428.387463</ele>
        <time>2020-02-25T03:07:53.420Z</time>
      </trkpt>
      <trkpt lat="43.500307" lon="12.943757">
        <ele>425.127357</ele>
        <time>2020-02-25T03:07:57.893Z</time>
      </trkpt>
      <trkpt lat="43.500698" lon="12.944218">
        <ele>420.977967</ele>
        <time>2020-02-25T03:08:05.677Z</time>
      </trkpt>
      <trkpt lat="43.500792" lon="12.944298">
        <ele>420.529817</ele>
        <time>2020-02-25T03:08:07.262Z</time>
      </trkpt>
      <trkpt lat="43.500968" lon="12.944448">
        <ele>419.690399</ele>
        <time>2020-02-25T03:08:10.387Z</time>
      </trkpt>
      <trkpt lat="43.501289" lon="12.944588">
        <ele>418.324556</ele>
        <time>2020-02-25T03:08:15.419Z</time>
      </trkpt>
      <trkpt lat="43.501899" lon="12.944689">
        <ele>415.832126</ele>
        <time>2020-02-25T03:08:25.693Z</time>
      </trkpt>
      <trkpt lat="43.502260" lon="12.944649">
        <ele>414.382480</ele>
        <time>2020-02-25T03:08:31.727Z</time>
      </trkpt>
      <trkpt lat="43.502470" lon="12.944588">
        <ele>413.681503</ele>
        <time>2020-02-25T03:08:35.438Z</time>
      </trkpt>
      <trkpt lat="43.502740" lon="12.944458">
        <ele>412.747373</ele>
        <time>2020-02-25T03:08:40.416Z</time>
      </trkpt>
      <trkpt lat="43.502971" lon="12.944308">
        <ele>411.913361</ele>
        <time>2020-02-25T03:08:44.737Z</time>
      </trkpt>
      <trkpt lat="43.503181" lon="12.944258">
        <ele>411.217289</ele>
        <time>2020-02-25T03:08:48.230Z</time>
      </trkpt>
      <trkpt lat="43.503361" lon="12.944308">
        <ele>410.617544</ele>
        <time>2020-02-25T03:08:51.230Z</time>
      </trkpt>
      <trkpt lat="43.504152" lon="12.944969">
        <ele>406.950764</ele>
        <time>2020-02-25T03:09:05.613Z</time>
      </trkpt>
      <trkpt lat="43.504323" lon="12.945219">
        <ele>405.606914</ele>
        <time>2020-02-25T03:09:09.391Z</time>
      </trkpt>
      <trkpt lat="43.504313" lon="12.945379">
        <ele>404.978876</ele>
        <time>2020-02-25T03:09:11.151Z</time>
      </trkpt>
      <trkpt lat="43.504212" lon="12.945460">
        <ele>404.348880</ele>
        <time>2020-02-25T03:09:12.906Z</time>
      </trkpt>
      <trkpt lat="43.503522" lon="12.945379">
        <ele>400.615121</ele>
        <time>2020-02-25T03:09:23.244Z</time>
      </trkpt>
      <trkpt lat="43.503311" lon="12.945419">
        <ele>399.466761</ele>
        <time>2020-02-25T03:09:26.294Z</time>
      </trkpt>
      <trkpt lat="43.502871" lon="12.945630">
        <ele>396.238984</ele>
        <time>2020-02-25T03:09:32.955Z</time>
      </trkpt>
      <trkpt lat="43.502690" lon="12.945780">
        <ele>394.679167</ele>
        <time>2020-02-25T03:09:35.936Z</time>
      </trkpt>
      <trkpt lat="43.502640" lon="12.945890">
        <ele>393.983697</ele>
        <time>2020-02-25T03:09:37.385Z</time>
      </trkpt>
      <trkpt lat="43.502868" lon="12.946267">
        <ele>391.354002</ele>
        <time>2020-02-25T03:09:42.445Z</time>
      </trkpt>
      <trkpt lat="43.502916" lon="12.946368">
        <ele>390.707103</ele>
        <time>2020-02-25T03:09:43.650Z</time>
      </trkpt>
      <trkpt lat="43.502961" lon="12.946461">
        <ele>390.108177</ele>
        <time>2020-02-25T03:09:44.719Z</time>
      </trkpt>
      <trkpt lat="43.503001" lon="12.946641">
        <ele>389.099604</ele>
        <time>2020-02-25T03:09:46.800Z</time>
      </trkpt>
      <trkpt lat="43.502941" lon="12.946761">
        <ele>388.318772</ele>
        <time>2020-02-25T03:09:48.318Z</time>
      </trkpt>
      <trkpt lat="43.502821" lon="12.946811">
        <ele>387.392851</ele>
        <time>2020-02-25T03:09:50.003Z</time>
      </trkpt>
      <trkpt lat="43.502560" lon="12.946841">
        <ele>385.462912</ele>
        <time>2020-02-25T03:09:53.800Z</time>
      </trkpt>
      <trkpt lat="43.502240" lon="12.946631">
        <ele>382.925332</ele>
        <time>2020-02-25T03:09:58.782Z</time>
      </trkpt>
      <trkpt lat="43.501999" lon="12.946451">
        <ele>380.962782</ele>
        <time>2020-02-25T03:10:02.613Z</time>
      </trkpt>
      <trkpt lat="43.501849" lon="12.946321">
        <ele>379.694171</ele>
        <time>2020-02-25T03:10:04.993Z</time>
      </trkpt>
      <trkpt lat="43.501719" lon="12.946181">
        <ele>378.513025</ele>
        <time>2020-02-25T03:10:07.425Z</time>
      </trkpt>
      <trkpt lat="43.501529" lon="12.946181">
        <ele>377.152600</ele>
        <time>2020-02-25T03:10:10.193Z</time>
      </trkpt>
      <trkpt lat="43.501449" lon="12.946371">
        <ele>376.011604</ele>
        <time>2020-02-25T03:10:12.563Z</time>
      </trkpt>
      <trkpt lat="43.501589" lon="12.946571">
        <ele>374.568066</ele>
        <time>2020-02-25T03:10:15.448Z</time>
      </trkpt>
      <trkpt lat="43.502150" lon="12.947102">
        <ele>370.961120</ele>
        <time>2020-02-25T03:10:25.402Z</time>
      </trkpt>
      <trkpt lat="43.502529" lon="12.947861">
        <ele>368.173068</ele>
        <time>2020-02-25T03:10:36.212Z</time>
      </trkpt>
      <trkpt lat="43.502530" lon="12.947863">
        <ele>368.165719</ele>
        <time>2020-02-25T03:10:36.242Z</time>
      </trkpt>
      <trkpt lat="43.502670" lon="12.948033">
        <ele>367.387508</ele>
        <time>2020-02-25T03:10:39.596Z</time>
      </trkpt>
      <trkpt lat="43.502841" lon="12.948133">
        <ele>366.612689</ele>
        <time>2020-02-25T03:10:42.595Z</time>
      </trkpt>
      <trkpt lat="43.503141" lon="12.948173">
        <ele>365.355444</ele>
        <time>2020-02-25T03:10:47.514Z</time>
      </trkpt>
      <trkpt lat="43.503401" lon="12.948093">
        <ele>364.474750</ele>
        <time>2020-02-25T03:10:51.609Z</time>
      </trkpt>
      <trkpt lat="43.503994" lon="12.947678">
        <ele>362.353068</ele>
        <time>2020-02-25T03:11:02.116Z</time>
      </trkpt>
      <trkpt lat="43.504074" lon="12.947630">
        <ele>362.074715</ele>
        <time>2020-02-25T03:11:03.496Z</time>
      </trkpt>
      <trkpt lat="43.504146" lon="12.947608">
        <ele>361.839433</ele>
        <time>2020-02-25T03:11:04.851Z</time>
      </trkpt>
      <trkpt lat="43.504212" lon="12.947611">
        <ele>361.628754</ele>
        <time>2020-02-25T03:11:06.038Z</time>
      </trkpt>
      <trkpt lat="43.504298" lon="12.947653">
        <ele>361.337675</ele>
        <time>2020-02-25T03:11:07.850Z</time>
      </trkpt>
      <trkpt lat="43.504364" lon="12.947747">
        <ele>361.034932</ele>
        <time>2020-02-25T03:11:09.389Z</time>
      </trkpt>
      <trkpt lat="43.504404" lon="12.947849">
        <ele>360.766609</ele>
        <time>2020-02-25T03:11:10.810Z</time>
      </trkpt>
      <trkpt lat="43.504429" lon="12.947992">
        <ele>360.426223</ele>
        <time>2020-02-25T03:11:12.645Z</time>
      </trkpt>
      <trkpt lat="43.504437" lon="12.948125">
        <ele>360.117397</ele>
        <time>2020-02-25T03:11:14.636Z</time>
      </trkpt>
      <trkpt lat="43.504427" lon="12.948243">
        <ele>359.842482</ele>
        <time>2020-02-25T03:11:15.953Z</time>
      </trkpt>
      <trkpt lat="43.504411" lon="12.948279">
        <ele>359.744780</ele>
        <time>2020-02-25T03:11:16.481Z</time>
      </trkpt>
      <trkpt lat="43.504398" lon="12.948342">
        <ele>359.593210</ele>
        <time>2020-02-25T03:11:17.274Z</time>
      </trkpt>
      <trkpt lat="43.504402" lon="12.948410">
        <ele>359.429541</ele>
        <time>2020-02-25T03:11:18.202Z</time>
      </trkpt>
      <trkpt lat="43.504422" lon="12.948467">
        <ele>359.266310</ele>
        <time>2020-02-25T03:11:18.926Z</time>
      </trkpt>
      <trkpt lat="43.504465" lon="12.948521">
        <ele>359.059584</ele>
        <time>2020-02-25T03:11:19.992Z</time>
      </trkpt>
      <trkpt lat="43.504511" lon="12.948543">
        <ele>358.886535</ele>
        <time>2020-02-25T03:11:20.963Z</time>
      </trkpt>
      <trkpt lat="43.504616" lon="12.948505">
        <ele>358.500705</ele>
        <time>2020-02-25T03:11:22.600Z</time>
      </trkpt>
      <trkpt lat="43.504650" lon="12.948450">
        <ele>358.314410</ele>
        <time>2020-02-25T03:11:23.444Z</time>
      </trkpt>
      <trkpt lat="43.504665" lon="12.948391">
        <ele>358.153241</ele>
        <time>2020-02-25T03:11:24.223Z</time>
      </trkpt>
      <trkpt lat="43.504730" lon="12.948237">
        <ele>357.693919</ele>
        <time>2020-02-25T03:11:26.342Z</time>
      </trkpt>
      <trkpt lat="43.504806" lon="12.948115">
        <ele>357.279340</ele>
        <time>2020-02-25T03:11:28.072Z</time>
      </trkpt>
      <trkpt lat="43.504986" lon="12.947896">
        <ele>356.426107</ele>
        <time>2020-02-25T03:11:31.809Z</time>
      </trkpt>
      <trkpt lat="43.505315" lon="12.947470">
        <ele>354.821954</ele>
        <time>2020-02-25T03:11:38.878Z</time>
      </trkpt>
      <trkpt lat="43.506647" lon="12.946424">
        <ele>349.095068</ele>
        <time>2020-02-25T03:12:03.823Z</time>
      </trkpt>
      <trkpt lat="43.506764" lon="12.946373">
        <ele>348.626268</ele>
        <time>2020-02-25T03:12:05.753Z</time>
      </trkpt>
      <trkpt lat="43.506965" lon="12.946398">
        <ele>347.855240</ele>
        <time>2020-02-25T03:12:08.954Z</time>
      </trkpt>
      <trkpt lat="43.507133" lon="12.946543">
        <ele>347.098019</ele>
        <time>2020-02-25T03:12:12.101Z</time>
      </trkpt>
      <trkpt lat="43.508649" lon="12.948442">
        <ele>335.358524</ele>
        <time>2020-02-25T03:12:42.576Z</time>
      </trkpt>
      <trkpt lat="43.508654" lon="12.948448">
        <ele>335.295777</ele>
        <time>2020-02-25T03:12:42.684Z</time>
      </trkpt>
      <trkpt lat="43.509032" lon="12.949221">
        <ele>328.895033</ele>
        <time>2020-02-25T03:12:52.081Z</time>
      </trkpt>
      <trkpt lat="43.509200" lon="12.949307">
        <ele>327.198624</ele>
        <time>2020-02-25T03:12:54.458Z</time>
      </trkpt>
      <trkpt lat="43.509299" lon="12.949127">
        <ele>325.647661</ele>
        <time>2020-02-25T03:12:56.682Z</time>
      </trkpt>
      <trkpt lat="43.509218" lon="12.948689">
        <ele>322.544324</ele>
        <time>2020-02-25T03:13:01.097Z</time>
      </trkpt>
      <trkpt lat="43.509231" lon="12.948543">
        <ele>321.534425</ele>
        <time>2020-02-25T03:13:02.459Z</time>
      </trkpt>
      <trkpt lat="43.509316" lon="12.948328">
        <ele>319.853264</ele>
        <time>2020-02-25T03:13:05.054Z</time>
      </trkpt>
      <trkpt lat="43.509603" lon="12.947958">
        <ele>317.309090</ele>
        <time>2020-02-25T03:13:10.545Z</time>
      </trkpt>
      <trkpt lat="43.509698" lon="12.947822">
        <ele>316.650232</ele>
        <time>2020-02-25T03:13:12.365Z</time>
      </trkpt>
      <trkpt lat="43.509930" lon="12.947409">
        <ele>314.827441</ele>
        <time>2020-02-25T03:13:17.887Z</time>
      </trkpt>
      <trkpt lat="43.509983" lon="12.947306">
        <ele>314.386776</ele>
        <time>2020-02-25T03:13:19.495Z</time>
      </trkpt>
      <trkpt lat="43.509202" lon="12.946194">
        <ele>310.311921</ele>
        <time>2020-02-25T03:13:38.926Z</time>
      </trkpt>
      <trkpt lat="43.508953" lon="12.945927">
        <ele>311.069606</ele>
        <time>2020-02-25T03:13:49.200Z</time>
      </trkpt>
      <trkpt lat="43.508399" lon="12.945516">
        <ele>312.580728</ele>
        <time>2020-02-25T03:14:11.760Z</time>
      </trkpt>
      <trkpt lat="43.508275" lon="12.945350">
        <ele>312.995876</ele>
        <time>2020-02-25T03:14:18.276Z</time>
      </trkpt>
      <trkpt lat="43.508110" lon="12.944601">
        <ele>314.556316</ele>
        <time>2020-02-25T03:14:41.382Z</time>
      </trkpt>
      <trkpt lat="43.507984" lon="12.944414">
        <ele>315.518595</ele>
        <time>2020-02-25T03:14:49.159Z</time>
      </trkpt>
      <trkpt lat="43.507444" lon="12.943910">
        <ele>318.908185</ele>
        <time>2020-02-25T03:15:17.497Z</time>
      </trkpt>
      <trkpt lat="43.506620" lon="12.942689">
        <ele>325.217425</ele>
        <time>2020-02-25T03:16:13.089Z</time>
      </trkpt>
      <trkpt lat="43.505823" lon="12.940928">
        <ele>333.132498</ele>
        <time>2020-02-25T03:17:19.470Z</time>
      </trkpt>
      <trkpt lat="43.505256" lon="12.939989">
        <ele>337.373462</ele>
        <time>2020-02-25T03:17:56.274Z</time>
      </trkpt>
      <trkpt lat="43.503989" lon="12.938133">
        <ele>346.350802</ele>
        <time>2020-02-25T03:19:15.119Z</time>
      </trkpt>
      <trkpt lat="43.502990" lon="12.937065">
        <ele>352.001012</ele>
        <time>2020-02-25T03:20:09.862Z</time>
      </trkpt>
      <trkpt lat="43.502621" lon="12.936236">
        <ele>354.529888</ele>
        <time>2020-02-25T03:20:37.450Z</time>
      </trkpt>
      <trkpt lat="43.502541" lon="12.935169">
        <ele>357.032633</ele>
        <time>2020-02-25T03:21:03.575Z</time>
      </trkpt>
      <trkpt lat="43.501737" lon="12.933901">
        <ele>358.291674</ele>
        <time>2020-02-25T03:21:36.742Z</time>
      </trkpt>
      <trkpt lat="43.501033" lon="12.933509">
        <ele>358.889098</ele>
        <time>2020-02-25T03:21:55.109Z</time>
      </trkpt>
      <trkpt lat="43.500266" lon="12.933257">
        <ele>359.205853</ele>
        <time>2020-02-25T03:22:14.048Z</time>
      </trkpt>
      <trkpt lat="43.499784" lon="12.932731">
        <ele>359.452810</ele>
        <time>2020-02-25T03:22:29.026Z</time>
      </trkpt>
      <trkpt lat="43.498852" lon="12.931376">
        <ele>361.016467</ele>
        <time>2020-02-25T03:23:07.298Z</time>
      </trkpt>
      <trkpt lat="43.498515" lon="12.930629">
        <ele>361.736176</ele>
        <time>2020-02-25T03:23:26.059Z</time>
      </trkpt>
      <trkpt lat="43.498434" lon="12.930393">
        <ele>361.852745</ele>
        <time>2020-02-25T03:23:31.344Z</time>
      </trkpt>
      <trkpt lat="43.498348" lon="12.930165">
        <ele>361.967483</ele>
        <time>2020-02-25T03:23:36.656Z</time>
      </trkpt>
      <trkpt lat="43.497973" lon="12.929120">
        <ele>362.488029</ele>
        <time>2020-02-25T03:23:58.317Z</time>
      </trkpt>
      <trkpt lat="43.497483" lon="12.927610">
        <ele>363.122909</ele>
        <time>2020-02-25T03:24:25.294Z</time>
      </trkpt>
      <trkpt lat="43.497166" lon="12.926894">
        <ele>363.409268</ele>
        <time>2020-02-25T03:24:39.896Z</time>
      </trkpt>
      <trkpt lat="43.497016" lon="12.926716">
        <ele>363.502412</ele>
        <time>2020-02-25T03:24:45.601Z</time>
      </trkpt>
      <trkpt lat="43.496703" lon="12.926449">
        <ele>363.803745</ele>
        <time>2020-02-25T03:24:55.603Z</time>
      </trkpt>
      <trkpt lat="43.496029" lon="12.925573">
        <ele>365.535980</ele>
        <time>2020-02-25T03:25:23.548Z</time>
      </trkpt>
      <trkpt lat="43.495598" lon="12.925344">
        <ele>366.399741</ele>
        <time>2020-02-25T03:25:39.136Z</time>
      </trkpt>
      <trkpt lat="43.495347" lon="12.925143">
        <ele>366.942560</ele>
        <time>2020-02-25T03:25:48.070Z</time>
      </trkpt>
      <trkpt lat="43.494611" lon="12.924281">
        <ele>367.365901</ele>
        <time>2020-02-25T03:26:12.445Z</time>
      </trkpt>
      <trkpt lat="43.494334" lon="12.924253">
        <ele>367.475523</ele>
        <time>2020-02-25T03:26:17.927Z</time>
      </trkpt>
      <trkpt lat="43.494111" lon="12.924436">
        <ele>367.577955</ele>
        <time>2020-02-25T03:26:23.490Z</time>
      </trkpt>
      <trkpt lat="43.493904" lon="12.924756">
        <ele>367.700715</ele>
        <time>2020-02-25T03:26:30.422Z</time>
      </trkpt>
      <trkpt lat="43.493832" lon="12.924650">
        <ele>367.769566</ele>
        <time>2020-02-25T03:26:32.163Z</time>
      </trkpt>
      <trkpt lat="43.493774" lon="12.924504">
        <ele>367.852948</ele>
        <time>2020-02-25T03:26:35.162Z</time>
      </trkpt>
      <trkpt lat="43.493646" lon="12.923999">
        <ele>368.120908</ele>
        <time>2020-02-25T03:26:43.502Z</time>
      </trkpt>
      <trkpt lat="43.493401" lon="12.923544">
        <ele>368.404750</ele>
        <time>2020-02-25T03:26:53.256Z</time>
      </trkpt>
      <trkpt lat="43.493258" lon="12.923295">
        <ele>368.563832</ele>
        <time>2020-02-25T03:26:58.412Z</time>
      </trkpt>
      <trkpt lat="43.493061" lon="12.922404">
        <ele>369.488239</ele>
        <time>2020-02-25T03:27:17.422Z</time>
      </trkpt>
      <trkpt lat="43.492585" lon="12.921193">
        <ele>374.003729</ele>
        <time>2020-02-25T03:27:56.677Z</time>
      </trkpt>
      <trkpt lat="43.492579" lon="12.920935">
        <ele>374.850004</ele>
        <time>2020-02-25T03:28:04.801Z</time>
      </trkpt>
      <trkpt lat="43.492791" lon="12.920120">
        <ele>378.126242</ele>
        <time>2020-02-25T03:28:34.054Z</time>
      </trkpt>
      <trkpt lat="43.492797" lon="12.919339">
        <ele>382.517214</ele>
        <time>2020-02-25T03:29:02.773Z</time>
      </trkpt>
      <trkpt lat="43.492735" lon="12.918729">
        <ele>385.980085</ele>
        <time>2020-02-25T03:29:26.971Z</time>
      </trkpt>
      <trkpt lat="43.492772" lon="12.918498">
        <ele>387.310028</ele>
        <time>2020-02-25T03:29:36.715Z</time>
      </trkpt>
      <trkpt lat="43.493034" lon="12.918094">
        <ele>390.356493</ele>
        <time>2020-02-25T03:29:59.387Z</time>
      </trkpt>
      <trkpt lat="43.493108" lon="12.917382">
        <ele>394.782135</ele>
        <time>2020-02-25T03:30:30.186Z</time>
      </trkpt>
      <trkpt lat="43.493314" lon="12.917090">
        <ele>397.330310</ele>
        <time>2020-02-25T03:30:47.514Z</time>
      </trkpt>
      <trkpt lat="43.493737" lon="12.916695">
        <ele>401.736408</ele>
        <time>2020-02-25T03:31:17.028Z</time>
      </trkpt>
      <trkpt lat="43.493893" lon="12.916403">
        <ele>404.005114</ele>
        <time>2020-02-25T03:31:31.752Z</time>
      </trkpt>
      <trkpt lat="43.494111" lon="12.916163">
        <ele>406.411099</ele>
        <time>2020-02-25T03:31:47.013Z</time>
      </trkpt>
      <trkpt lat="43.494266" lon="12.915914">
        <ele>408.065767</ele>
        <time>2020-02-25T03:31:59.710Z</time>
      </trkpt>
      <trkpt lat="43.494273" lon="12.915717">
        <ele>409.046291</ele>
        <time>2020-02-25T03:32:07.083Z</time>
      </trkpt>
      <trkpt lat="43.494254" lon="12.915562">
        <ele>409.827769</ele>
        <time>2020-02-25T03:32:12.885Z</time>
      </trkpt>
      <trkpt lat="43.494141" lon="12.915446">
        <ele>410.793272</ele>
        <time>2020-02-25T03:32:19.985Z</time>
      </trkpt>
      <trkpt lat="43.493488" lon="12.915145">
        <ele>415.511716</ele>
        <time>2020-02-25T03:32:53.112Z</time>
      </trkpt>
      <trkpt lat="43.493121" lon="12.915167">
        <ele>418.029073</ele>
        <time>2020-02-25T03:33:10.139Z</time>
      </trkpt>
      <trkpt lat="43.492940" lon="12.915081">
        <ele>419.335571</ele>
        <time>2020-02-25T03:33:18.895Z</time>
      </trkpt>
      <trkpt lat="43.492330" lon="12.913416">
        <ele>428.504937</ele>
        <time>2020-02-25T03:34:26.801Z</time>
      </trkpt>
      <trkpt lat="43.492181" lon="12.912893">
        <ele>431.184639</ele>
        <time>2020-02-25T03:34:47.617Z</time>
      </trkpt>
      <trkpt lat="43.492193" lon="12.912618">
        <ele>432.048614</ele>
        <time>2020-02-25T03:34:56.838Z</time>
      </trkpt>
      <trkpt lat="43.492291" lon="12.912492">
        <ele>432.627929</ele>
        <time>2020-02-25T03:35:04.040Z</time>
      </trkpt>
      <trkpt lat="43.492423" lon="12.912507">
        <ele>433.200475</ele>
        <time>2020-02-25T03:35:10.181Z</time>
      </trkpt>
      <trkpt lat="43.492634" lon="12.912607">
        <ele>434.164994</ele>
        <time>2020-02-25T03:35:20.199Z</time>
      </trkpt>
      <trkpt lat="43.492860" lon="12.912859">
        <ele>435.421569</ele>
        <time>2020-02-25T03:35:32.017Z</time>
      </trkpt>
      <trkpt lat="43.493099" lon="12.913086">
        <ele>436.676228</ele>
        <time>2020-02-25T03:35:43.250Z</time>
      </trkpt>
      <trkpt lat="43.493362" lon="12.913336">
        <ele>438.057240</ele>
        <time>2020-02-25T03:35:54.539Z</time>
      </trkpt>
      <trkpt lat="43.493569" lon="12.913425">
        <ele>438.729643</ele>
        <time>2020-02-25T03:36:01.394Z</time>
      </trkpt>
      <trkpt lat="43.494466" lon="12.913425">
        <ele>436.900096</ele>
        <time>2020-02-25T03:36:18.114Z</time>
      </trkpt>
      <trkpt lat="43.494783" lon="12.913391">
        <ele>436.251579</ele>
        <time>2020-02-25T03:36:23.227Z</time>
      </trkpt>
      <trkpt lat="43.494926" lon="12.913210">
        <ele>435.855609</ele>
        <time>2020-02-25T03:36:26.223Z</time>
      </trkpt>
      <trkpt lat="43.494970" lon="12.912909">
        <ele>435.401292</ele>
        <time>2020-02-25T03:36:29.634Z</time>
      </trkpt>
      <trkpt lat="43.494503" lon="12.911520">
        <ele>431.966107</ele>
        <time>2020-02-25T03:36:46.950Z</time>
      </trkpt>
      <trkpt lat="43.494486" lon="12.911176">
        <ele>431.158959</ele>
        <time>2020-02-25T03:36:51.037Z</time>
      </trkpt>
      <trkpt lat="43.494497" lon="12.910876">
        <ele>430.455781</ele>
        <time>2020-02-25T03:36:54.721Z</time>
      </trkpt>
      <trkpt lat="43.494733" lon="12.910086">
        <ele>429.160162</ele>
        <time>2020-02-25T03:37:06.082Z</time>
      </trkpt>
      <trkpt lat="43.494833" lon="12.909837">
        <ele>429.023496</ele>
        <time>2020-02-25T03:37:10.422Z</time>
      </trkpt>
      <trkpt lat="43.494933" lon="12.909726">
        <ele>428.938512</ele>
        <time>2020-02-25T03:37:13.347Z</time>
      </trkpt>
      <trkpt lat="43.495132" lon="12.909734">
        <ele>428.806733</ele>
        <time>2020-02-25T03:37:18.262Z</time>
      </trkpt>
      <trkpt lat="43.495879" lon="12.910129">
        <ele>428.277144</ele>
        <time>2020-02-25T03:37:36.057Z</time>
      </trkpt>
      <trkpt lat="43.496520" lon="12.909846">
        <ele>426.466983</ele>
        <time>2020-02-25T03:37:48.335Z</time>
      </trkpt>
      <trkpt lat="43.496738" lon="12.909811">
        <ele>425.701695</ele>
        <time>2020-02-25T03:37:52.006Z</time>
      </trkpt>
      <trkpt lat="43.496863" lon="12.909854">
        <ele>425.252463</ele>
        <time>2020-02-25T03:37:54.192Z</time>
      </trkpt>
      <trkpt lat="43.497000" lon="12.909957">
        <ele>424.708327</ele>
        <time>2020-02-25T03:37:56.628Z</time>
      </trkpt>
      <trkpt lat="43.497174" lon="12.910163">
        <ele>423.908561</ele>
        <time>2020-02-25T03:38:00.311Z</time>
      </trkpt>
      <trkpt lat="43.497529" lon="12.910447">
        <ele>422.477361</ele>
        <time>2020-02-25T03:38:06.524Z</time>
      </trkpt>
      <trkpt lat="43.497647" lon="12.910472">
        <ele>422.061072</ele>
        <time>2020-02-25T03:38:08.291Z</time>
      </trkpt>
      <trkpt lat="43.497990" lon="12.910326">
        <ele>419.871966</ele>
        <time>2020-02-25T03:38:13.489Z</time>
      </trkpt>
      <trkpt lat="43.498382" lon="12.909932">
        <ele>416.698833</ele>
        <time>2020-02-25T03:38:20.394Z</time>
      </trkpt>
      <trkpt lat="43.499204" lon="12.909760">
        <ele>411.260700</ele>
        <time>2020-02-25T03:38:32.402Z</time>
      </trkpt>
      <trkpt lat="43.499428" lon="12.909631">
        <ele>409.739947</ele>
        <time>2020-02-25T03:38:35.895Z</time>
      </trkpt>
      <trkpt lat="43.499677" lon="12.909125">
        <ele>407.279060</ele>
        <time>2020-02-25T03:38:42.275Z</time>
      </trkpt>
      <trkpt lat="43.501099" lon="12.907684">
        <ele>398.449285</ele>
        <time>2020-02-25T03:39:08.857Z</time>
      </trkpt>
      <trkpt lat="43.502061" lon="12.907237">
        <ele>394.863138</ele>
        <time>2020-02-25T03:39:25.587Z</time>
      </trkpt>
      <trkpt lat="43.502385" lon="12.907134">
        <ele>393.701475</ele>
        <time>2020-02-25T03:39:31.196Z</time>
      </trkpt>
      <trkpt lat="43.502647" lon="12.907237">
        <ele>392.872585</ele>
        <time>2020-02-25T03:39:35.841Z</time>
      </trkpt>
      <trkpt lat="43.503083" lon="12.907640">
        <ele>391.275550</ele>
        <time>2020-02-25T03:39:44.665Z</time>
      </trkpt>
      <trkpt lat="43.503307" lon="12.907674">
        <ele>390.589929</ele>
        <time>2020-02-25T03:39:48.343Z</time>
      </trkpt>
      <trkpt lat="43.503450" lon="12.907494">
        <ele>390.000805</ele>
        <time>2020-02-25T03:39:51.467Z</time>
      </trkpt>
      <trkpt lat="43.503462" lon="12.907254">
        <ele>389.469923</ele>
        <time>2020-02-25T03:39:54.263Z</time>
      </trkpt>
      <trkpt lat="43.503294" lon="12.906790">
        <ele>388.325496</ele>
        <time>2020-02-25T03:40:00.297Z</time>
      </trkpt>
      <trkpt lat="43.503263" lon="12.906533">
        <ele>387.857596</ele>
        <time>2020-02-25T03:40:03.360Z</time>
      </trkpt>
      <trkpt lat="43.503506" lon="12.906147">
        <ele>386.945702</ele>
        <time>2020-02-25T03:40:09.407Z</time>
      </trkpt>
      <trkpt lat="43.503605" lon="12.905820">
        <ele>386.313506</ele>
        <time>2020-02-25T03:40:13.644Z</time>
      </trkpt>
      <trkpt lat="43.503624" lon="12.905503">
        <ele>385.746007</ele>
        <time>2020-02-25T03:40:17.521Z</time>
      </trkpt>
      <trkpt lat="43.503717" lon="12.905305">
        <ele>385.325148</ele>
        <time>2020-02-25T03:40:20.423Z</time>
      </trkpt>
      <trkpt lat="43.505025" lon="12.903932">
        <ele>382.525766</ele>
        <time>2020-02-25T03:40:51.141Z</time>
      </trkpt>
      <trkpt lat="43.505498" lon="12.903520">
        <ele>381.807254</ele>
        <time>2020-02-25T03:41:02.321Z</time>
      </trkpt>
      <trkpt lat="43.506052" lon="12.903348">
        <ele>379.853569</ele>
        <time>2020-02-25T03:41:13.081Z</time>
      </trkpt>
      <trkpt lat="43.506731" lon="12.903700">
        <ele>376.628546</ele>
        <time>2020-02-25T03:41:24.287Z</time>
      </trkpt>
      <trkpt lat="43.507316" lon="12.903674">
        <ele>374.026410</ele>
        <time>2020-02-25T03:41:32.816Z</time>
      </trkpt>
      <trkpt lat="43.507580" lon="12.903621">
        <ele>372.282912</ele>
        <time>2020-02-25T03:41:36.707Z</time>
      </trkpt>
      <trkpt lat="43.507671" lon="12.903511">
        <ele>371.338819</ele>
        <time>2020-02-25T03:41:38.338Z</time>
      </trkpt>
      <trkpt lat="43.507521" lon="12.903065">
        <ele>368.557244</ele>
        <time>2020-02-25T03:41:43.356Z</time>
      </trkpt>
      <trkpt lat="43.507129" lon="12.902447">
        <ele>363.912018</ele>
        <time>2020-02-25T03:41:51.718Z</time>
      </trkpt>
      <trkpt lat="43.506762" lon="12.901494">
        <ele>358.259037</ele>
        <time>2020-02-25T03:42:02.590Z</time>
      </trkpt>
      <trkpt lat="43.506800" lon="12.901059">
        <ele>356.423855</ele>
        <time>2020-02-25T03:42:07.196Z</time>
      </trkpt>
      <trkpt lat="43.509183" lon="12.897606">
        <ele>339.601599</ele>
        <time>2020-02-25T03:42:59.892Z</time>
      </trkpt>
      <trkpt lat="43.509352" lon="12.897160">
        <ele>338.630874</ele>
        <time>2020-02-25T03:43:05.925Z</time>
      </trkpt>
      <trkpt lat="43.509352" lon="12.896619">
        <ele>337.587238</ele>
        <time>2020-02-25T03:43:12.604Z</time>
      </trkpt>
      <trkpt lat="43.509451" lon="12.896285">
        <ele>336.891191</ele>
        <time>2020-02-25T03:43:17.281Z</time>
      </trkpt>
      <trkpt lat="43.509688" lon="12.896027">
        <ele>336.088015</ele>
        <time>2020-02-25T03:43:22.895Z</time>
      </trkpt>
      <trkpt lat="43.510540" lon="12.896293">
        <ele>335.250859</ele>
        <time>2020-02-25T03:43:41.002Z</time>
      </trkpt>
      <trkpt lat="43.511518" lon="12.896911">
        <ele>334.245660</ele>
        <time>2020-02-25T03:44:02.710Z</time>
      </trkpt>
      <trkpt lat="43.511817" lon="12.897169">
        <ele>333.240798</ele>
        <time>2020-02-25T03:44:09.142Z</time>
      </trkpt>
      <trkpt lat="43.512059" lon="12.897254">
        <ele>332.529349</ele>
        <time>2020-02-25T03:44:13.551Z</time>
      </trkpt>
      <trkpt lat="43.512383" lon="12.897254">
        <ele>331.606307</ele>
        <time>2020-02-25T03:44:18.992Z</time>
      </trkpt>
      <trkpt lat="43.512738" lon="12.897349">
        <ele>330.576079</ele>
        <time>2020-02-25T03:44:24.802Z</time>
      </trkpt>
      <trkpt lat="43.513534" lon="12.898010">
        <ele>327.123959</ele>
        <time>2020-02-25T03:44:39.015Z</time>
      </trkpt>
      <trkpt lat="43.514039" lon="12.898156">
        <ele>324.810305</ele>
        <time>2020-02-25T03:44:46.781Z</time>
      </trkpt>
      <trkpt lat="43.514387" lon="12.898138">
        <ele>323.248777</ele>
        <time>2020-02-25T03:44:52.125Z</time>
      </trkpt>
      <trkpt lat="43.515209" lon="12.897864">
        <ele>319.654338</ele>
        <time>2020-02-25T03:45:05.398Z</time>
      </trkpt>
      <trkpt lat="43.515682" lon="12.897872">
        <ele>317.764840</ele>
        <time>2020-02-25T03:45:13.128Z</time>
      </trkpt>
      <trkpt lat="43.516261" lon="12.898035">
        <ele>315.404372</ele>
        <time>2020-02-25T03:45:22.421Z</time>
      </trkpt>
      <trkpt lat="43.516542" lon="12.898201">
        <ele>314.183283</ele>
        <time>2020-02-25T03:45:27.030Z</time>
      </trkpt>
      <trkpt lat="43.516659" lon="12.898284">
        <ele>313.603659</ele>
        <time>2020-02-25T03:45:29.063Z</time>
      </trkpt>
      <trkpt lat="43.516843" lon="12.898681">
        <ele>312.064869</ele>
        <time>2020-02-25T03:45:34.278Z</time>
      </trkpt>
      <trkpt lat="43.516915" lon="12.898749">
        <ele>311.671840</ele>
        <time>2020-02-25T03:45:35.568Z</time>
      </trkpt>
      <trkpt lat="43.517131" lon="12.898540">
        <ele>310.483449</ele>
        <time>2020-02-25T03:45:39.625Z</time>
      </trkpt>
      <trkpt lat="43.517388" lon="12.898306">
        <ele>309.096453</ele>
        <time>2020-02-25T03:45:44.292Z</time>
      </trkpt>
      <trkpt lat="43.517488" lon="12.898112">
        <ele>308.319101</ele>
        <time>2020-02-25T03:45:46.889Z</time>
      </trkpt>
      <trkpt lat="43.517730" lon="12.897168">
        <ele>306.010259</ele>
        <time>2020-02-25T03:45:58.234Z</time>
      </trkpt>
      <trkpt lat="43.517825" lon="12.897029">
        <ele>306.029756</ele>
        <time>2020-02-25T03:46:00.481Z</time>
      </trkpt>
      <trkpt lat="43.517925" lon="12.896995">
        <ele>306.044254</ele>
        <time>2020-02-25T03:46:02.221Z</time>
      </trkpt>
      <trkpt lat="43.517978" lon="12.897202">
        <ele>306.066662</ele>
        <time>2020-02-25T03:46:04.783Z</time>
      </trkpt>
      <trkpt lat="43.517815" lon="12.897706">
        <ele>306.122993</ele>
        <time>2020-02-25T03:46:12.814Z</time>
      </trkpt>
      <trkpt lat="43.517784" lon="12.898069">
        <ele>306.160303</ele>
        <time>2020-02-25T03:46:20.845Z</time>
      </trkpt>
      <trkpt lat="43.517854" lon="12.898161">
        <ele>306.173914</ele>
        <time>2020-02-25T03:46:23.893Z</time>
      </trkpt>
      <trkpt lat="43.518364" lon="12.898447">
        <ele>307.118548</ele>
        <time>2020-02-25T03:46:44.688Z</time>
      </trkpt>
      <trkpt lat="43.518576" lon="12.898645">
        <ele>308.982096</ele>
        <time>2020-02-25T03:46:55.714Z</time>
      </trkpt>
      <trkpt lat="43.519012" lon="12.899283">
        <ele>313.608967</ele>
        <time>2020-02-25T03:47:27.526Z</time>
      </trkpt>
      <trkpt lat="43.519108" lon="12.899336">
        <ele>314.361585</ele>
        <time>2020-02-25T03:47:33.184Z</time>
      </trkpt>
      <trkpt lat="43.519208" lon="12.899271">
        <ele>315.166201</ele>
        <time>2020-02-25T03:47:39.530Z</time>
      </trkpt>
      <trkpt lat="43.519590" lon="12.898679">
        <ele>319.356292</ele>
        <time>2020-02-25T03:48:14.006Z</time>
      </trkpt>
      <trkpt lat="43.519796" lon="12.898456">
        <ele>321.896641</ele>
        <time>2020-02-25T03:48:30.488Z</time>
      </trkpt>
      <trkpt lat="43.520936" lon="12.897849">
        <ele>333.750464</ele>
        <time>2020-02-25T03:49:46.440Z</time>
      </trkpt>
      <trkpt lat="43.522447" lon="12.897194">
        <ele>348.147302</ele>
        <time>2020-02-25T03:51:19.861Z</time>
      </trkpt>
      <trkpt lat="43.523132" lon="12.896679">
        <ele>354.854387</ele>
        <time>2020-02-25T03:52:03.186Z</time>
      </trkpt>
      <trkpt lat="43.523418" lon="12.896379">
        <ele>357.687875</ele>
        <time>2020-02-25T03:52:23.267Z</time>
      </trkpt>
      <trkpt lat="43.523910" lon="12.895684">
        <ele>363.241570</ele>
        <time>2020-02-25T03:53:01.852Z</time>
      </trkpt>
      <trkpt lat="43.524103" lon="12.895641">
        <ele>364.783219</ele>
        <time>2020-02-25T03:53:12.019Z</time>
      </trkpt>
      <trkpt lat="43.524171" lon="12.895735">
        <ele>365.542429</ele>
        <time>2020-02-25T03:53:16.846Z</time>
      </trkpt>
      <trkpt lat="43.524271" lon="12.896285">
        <ele>368.242774</ele>
        <time>2020-02-25T03:53:37.190Z</time>
      </trkpt>
      <trkpt lat="43.524489" lon="12.896370">
        <ele>369.475819</ele>
        <time>2020-02-25T03:53:48.302Z</time>
      </trkpt>
      <trkpt lat="43.524809" lon="12.896395">
        <ele>371.220318</ele>
        <time>2020-02-25T03:54:03.378Z</time>
      </trkpt>
      <trkpt lat="43.525167" lon="12.896242">
        <ele>373.260262</ele>
        <time>2020-02-25T03:54:20.237Z</time>
      </trkpt>
      <trkpt lat="43.525304" lon="12.896242">
        <ele>374.005930</ele>
        <time>2020-02-25T03:54:26.012Z</time>
      </trkpt>
      <trkpt lat="43.525397" lon="12.896439">
        <ele>374.933640</ele>
        <time>2020-02-25T03:54:33.186Z</time>
      </trkpt>
      <trkpt lat="43.525180" lon="12.896757">
        <ele>376.656988</ele>
        <time>2020-02-25T03:54:45.451Z</time>
      </trkpt>
      <trkpt lat="43.524999" lon="12.896911">
        <ele>377.224485</ele>
        <time>2020-02-25T03:54:53.071Z</time>
      </trkpt>
      <trkpt lat="43.524346" lon="12.897314">
        <ele>378.795573</ele>
        <time>2020-02-25T03:55:15.533Z</time>
      </trkpt>
      <trkpt lat="43.523680" lon="12.898181">
        <ele>380.812429</ele>
        <time>2020-02-25T03:55:41.349Z</time>
      </trkpt>
      <trkpt lat="43.523264" lon="12.898596">
        <ele>382.140099</ele>
        <time>2020-02-25T03:55:55.154Z</time>
      </trkpt>
      <trkpt lat="43.522678" lon="12.899658">
        <ele>384.642399</ele>
        <time>2020-02-25T03:56:25.985Z</time>
      </trkpt>
      <trkpt lat="43.522696" lon="12.899786">
        <ele>384.886877</ele>
        <time>2020-02-25T03:56:29.314Z</time>
      </trkpt>
      <trkpt lat="43.522746" lon="12.899795">
        <ele>385.017270</ele>
        <time>2020-02-25T03:56:31.192Z</time>
      </trkpt>
      <trkpt lat="43.523070" lon="12.899383">
        <ele>387.097257</ele>
        <time>2020-02-25T03:56:48.685Z</time>
      </trkpt>
      <trkpt lat="43.524707" lon="12.897726">
        <ele>399.125088</ele>
        <time>2020-02-25T03:58:26.770Z</time>
      </trkpt>
      <trkpt lat="43.525099" lon="12.897435">
        <ele>401.772589</ele>
        <time>2020-02-25T03:58:48.733Z</time>
      </trkpt>
      <trkpt lat="43.525497" lon="12.897246">
        <ele>404.275894</ele>
        <time>2020-02-25T03:59:08.570Z</time>
      </trkpt>
      <trkpt lat="43.526046" lon="12.896751">
        <ele>407.224783</ele>
        <time>2020-02-25T03:59:35.952Z</time>
      </trkpt>
      <trkpt lat="43.526163" lon="12.896723">
        <ele>407.455612</ele>
        <time>2020-02-25T03:59:40.591Z</time>
      </trkpt>
      <trkpt lat="43.526455" lon="12.896654">
        <ele>408.031487</ele>
        <time>2020-02-25T03:59:50.712Z</time>
      </trkpt>
      <trkpt lat="43.526567" lon="12.896568">
        <ele>408.280665</ele>
        <time>2020-02-25T03:59:54.756Z</time>
      </trkpt>
      <trkpt lat="43.526798" lon="12.896130">
        <ele>409.044017</ele>
        <time>2020-02-25T04:00:05.477Z</time>
      </trkpt>
      <trkpt lat="43.527491" lon="12.895800">
        <ele>410.242114</ele>
        <time>2020-02-25T04:00:22.227Z</time>
      </trkpt>
      <trkpt lat="43.527700" lon="12.895667">
        <ele>410.206408</ele>
        <time>2020-02-25T04:00:26.714Z</time>
      </trkpt>
      <trkpt lat="43.527812" lon="12.895504">
        <ele>410.181150</ele>
        <time>2020-02-25T04:00:29.921Z</time>
      </trkpt>
      <trkpt lat="43.527831" lon="12.895358">
        <ele>410.164466</ele>
        <time>2020-02-25T04:00:31.905Z</time>
      </trkpt>
      <trkpt lat="43.527787" lon="12.895186">
        <ele>410.143951</ele>
        <time>2020-02-25T04:00:34.445Z</time>
      </trkpt>
      <trkpt lat="43.527432" lon="12.894808">
        <ele>410.074379</ele>
        <time>2020-02-25T04:00:43.128Z</time>
      </trkpt>
      <trkpt lat="43.527073" lon="12.894773">
        <ele>410.018549</ele>
        <time>2020-02-25T04:00:50.577Z</time>
      </trkpt>
      <trkpt lat="43.526891" lon="12.894680">
        <ele>409.988440</ele>
        <time>2020-02-25T04:00:54.823Z</time>
      </trkpt>
      <trkpt lat="43.526511" lon="12.894367">
        <ele>411.164677</ele>
        <time>2020-02-25T04:01:08.681Z</time>
      </trkpt>
      <trkpt lat="43.526482" lon="12.894283">
        <ele>411.370995</ele>
        <time>2020-02-25T04:01:10.628Z</time>
      </trkpt>
      <trkpt lat="43.526910" lon="12.892963">
        <ele>414.577601</ele>
        <time>2020-02-25T04:01:51.678Z</time>
      </trkpt>
      <trkpt lat="43.527030" lon="12.892762">
        <ele>415.154998</ele>
        <time>2020-02-25T04:01:57.962Z</time>
      </trkpt>
      <trkpt lat="43.527131" lon="12.892698">
        <ele>415.481014</ele>
        <time>2020-02-25T04:02:03.460Z</time>
      </trkpt>
      <trkpt lat="43.527209" lon="12.892707">
        <ele>415.479792</ele>
        <time>2020-02-25T04:02:05.519Z</time>
      </trkpt>
      <trkpt lat="43.527274" lon="12.892741">
        <ele>415.478706</ele>
        <time>2020-02-25T04:02:07.420Z</time>
      </trkpt>
      <trkpt lat="43.527369" lon="12.892802">
        <ele>415.477070</ele>
        <time>2020-02-25T04:02:10.950Z</time>
      </trkpt>
      <trkpt lat="43.527667" lon="12.892932">
        <ele>415.472189</ele>
        <time>2020-02-25T04:02:20.846Z</time>
      </trkpt>
      <trkpt lat="43.528272" lon="12.892868">
        <ele>415.462715</ele>
        <time>2020-02-25T04:02:36.910Z</time>
      </trkpt>
      <trkpt lat="43.528646" lon="12.892748">
        <ele>415.456719</ele>
        <time>2020-02-25T04:02:44.323Z</time>
      </trkpt>
      <trkpt lat="43.529847" lon="12.891701">
        <ele>408.843030</ele>
        <time>2020-02-25T04:03:05.215Z</time>
      </trkpt>
      <trkpt lat="43.530052" lon="12.891478">
        <ele>407.383705</ele>
        <time>2020-02-25T04:03:08.956Z</time>
      </trkpt>
      <trkpt lat="43.530306" lon="12.891007">
        <ele>405.125404</ele>
        <time>2020-02-25T04:03:15.169Z</time>
      </trkpt>
      <trkpt lat="43.530786" lon="12.890714">
        <ele>403.087475</ele>
        <time>2020-02-25T04:03:23.150Z</time>
      </trkpt>
      <trkpt lat="43.531042" lon="12.890337">
        <ele>401.633526</ele>
        <time>2020-02-25T04:03:29.076Z</time>
      </trkpt>
      <trkpt lat="43.531179" lon="12.890234">
        <ele>401.027744</ele>
        <time>2020-02-25T04:03:31.556Z</time>
      </trkpt>
      <trkpt lat="43.531595" lon="12.890191">
        <ele>399.408107</ele>
        <time>2020-02-25T04:03:38.515Z</time>
      </trkpt>
      <trkpt lat="43.531913" lon="12.890285">
        <ele>398.212681</ele>
        <time>2020-02-25T04:03:44.051Z</time>
      </trkpt>
      <trkpt lat="43.532006" lon="12.890379">
        <ele>397.876152</ele>
        <time>2020-02-25T04:03:46.095Z</time>
      </trkpt>
      <trkpt lat="43.532056" lon="12.890963">
        <ele>396.631754</ele>
        <time>2020-02-25T04:03:53.527Z</time>
      </trkpt>
      <trkpt lat="43.531869" lon="12.891598">
        <ele>395.181397</ele>
        <time>2020-02-25T04:04:02.193Z</time>
      </trkpt>
      <trkpt lat="43.531869" lon="12.891718">
        <ele>394.927463</ele>
        <time>2020-02-25T04:04:03.707Z</time>
      </trkpt>
      <trkpt lat="43.531981" lon="12.891847">
        <ele>394.501568</ele>
        <time>2020-02-25T04:04:06.200Z</time>
      </trkpt>
      <trkpt lat="43.532360" lon="12.891768">
        <ele>393.382776</ele>
        <time>2020-02-25T04:04:12.336Z</time>
      </trkpt>
      <trkpt lat="43.532442" lon="12.891684">
        <ele>392.979125</ele>
        <time>2020-02-25T04:04:13.901Z</time>
      </trkpt>
      <trkpt lat="43.532616" lon="12.891066">
        <ele>389.765761</ele>
        <time>2020-02-25T04:04:21.067Z</time>
      </trkpt>
      <trkpt lat="43.532958" lon="12.890414">
        <ele>385.865155</ele>
        <time>2020-02-25T04:04:29.468Z</time>
      </trkpt>
      <trkpt lat="43.533599" lon="12.890191">
        <ele>381.445496</ele>
        <time>2020-02-25T04:04:38.758Z</time>
      </trkpt>
      <trkpt lat="43.533742" lon="12.890225">
        <ele>380.260605</ele>
        <time>2020-02-25T04:04:40.787Z</time>
      </trkpt>
      <trkpt lat="43.534078" lon="12.890637">
        <ele>376.285942</ele>
        <time>2020-02-25T04:04:47.014Z</time>
      </trkpt>
      <trkpt lat="43.534165" lon="12.890628">
        <ele>375.514605</ele>
        <time>2020-02-25T04:04:48.220Z</time>
      </trkpt>
      <trkpt lat="43.534234" lon="12.890551">
        <ele>374.729928</ele>
        <time>2020-02-25T04:04:49.439Z</time>
      </trkpt>
      <trkpt lat="43.534246" lon="12.890422">
        <ele>373.896327</ele>
        <time>2020-02-25T04:04:50.735Z</time>
      </trkpt>
      <trkpt lat="43.534103" lon="12.889950">
        <ele>370.617500</ele>
        <time>2020-02-25T04:04:55.833Z</time>
      </trkpt>
      <trkpt lat="43.534103" lon="12.889667">
        <ele>368.803614</ele>
        <time>2020-02-25T04:04:58.663Z</time>
      </trkpt>
      <trkpt lat="43.534377" lon="12.889195">
        <ele>364.937931</ele>
        <time>2020-02-25T04:05:04.731Z</time>
      </trkpt>
      <trkpt lat="43.535074" lon="12.888259">
        <ele>356.612757</ele>
        <time>2020-02-25T04:05:18.265Z</time>
      </trkpt>
      <trkpt lat="43.535204" lon="12.888148">
        <ele>355.304271</ele>
        <time>2020-02-25T04:05:20.398Z</time>
      </trkpt>
      <trkpt lat="43.535348" lon="12.888165">
        <ele>354.067364</ele>
        <time>2020-02-25T04:05:22.403Z</time>
      </trkpt>
      <trkpt lat="43.535721" lon="12.888422">
        <ele>350.499027</ele>
        <time>2020-02-25T04:05:28.215Z</time>
      </trkpt>
      <trkpt lat="43.535935" lon="12.888497">
        <ele>348.530633</ele>
        <time>2020-02-25T04:05:31.296Z</time>
      </trkpt>
      <trkpt lat="43.536275" lon="12.888517">
        <ele>345.432758</ele>
        <time>2020-02-25T04:05:36.004Z</time>
      </trkpt>
      <trkpt lat="43.536343" lon="12.888431">
        <ele>344.592955</ele>
        <time>2020-02-25T04:05:37.287Z</time>
      </trkpt>
      <trkpt lat="43.536362" lon="12.888302">
        <ele>343.724266</ele>
        <time>2020-02-25T04:05:38.602Z</time>
      </trkpt>
      <trkpt lat="43.536306" lon="12.888113">
        <ele>342.376862</ele>
        <time>2020-02-25T04:05:40.644Z</time>
      </trkpt>
      <trkpt lat="43.536144" lon="12.887882">
        <ele>340.255869</ele>
        <time>2020-02-25T04:05:43.857Z</time>
      </trkpt>
      <trkpt lat="43.536032" lon="12.887607">
        <ele>338.174299</ele>
        <time>2020-02-25T04:05:46.993Z</time>
      </trkpt>
      <trkpt lat="43.535957" lon="12.887264">
        <ele>335.810038</ele>
        <time>2020-02-25T04:05:50.546Z</time>
      </trkpt>
      <trkpt lat="43.535926" lon="12.886551">
        <ele>331.158597</ele>
        <time>2020-02-25T04:05:57.644Z</time>
      </trkpt>
      <trkpt lat="43.536007" lon="12.886311">
        <ele>329.457332</ele>
        <time>2020-02-25T04:06:00.283Z</time>
      </trkpt>
      <trkpt lat="43.536131" lon="12.886320">
        <ele>328.356604</ele>
        <time>2020-02-25T04:06:02.007Z</time>
      </trkpt>
      <trkpt lat="43.536555" lon="12.886783">
        <ele>323.562886</ele>
        <time>2020-02-25T04:06:09.480Z</time>
      </trkpt>
      <trkpt lat="43.536660" lon="12.886792">
        <ele>322.630309</ele>
        <time>2020-02-25T04:06:10.948Z</time>
      </trkpt>
      <trkpt lat="43.536723" lon="12.886646">
        <ele>321.538447</ele>
        <time>2020-02-25T04:06:12.650Z</time>
      </trkpt>
      <trkpt lat="43.536696" lon="12.886234">
        <ele>318.880044</ele>
        <time>2020-02-25T04:06:16.821Z</time>
      </trkpt>
      <trkpt lat="43.536356" lon="12.885358">
        <ele>313.424554</ele>
        <time>2020-02-25T04:06:26.928Z</time>
      </trkpt>
      <trkpt lat="43.536405" lon="12.885127">
        <ele>312.163581</ele>
        <time>2020-02-25T04:06:29.421Z</time>
      </trkpt>
      <trkpt lat="43.537152" lon="12.883839">
        <ele>303.619258</ele>
        <time>2020-02-25T04:06:46.706Z</time>
      </trkpt>
      <trkpt lat="43.537276" lon="12.883779">
        <ele>302.761296</ele>
        <time>2020-02-25T04:06:48.610Z</time>
      </trkpt>
      <trkpt lat="43.537619" lon="12.884157">
        <ele>299.894932</ele>
        <time>2020-02-25T04:06:54.968Z</time>
      </trkpt>
      <trkpt lat="43.537762" lon="12.884114">
        <ele>298.939355</ele>
        <time>2020-02-25T04:06:57.084Z</time>
      </trkpt>
      <trkpt lat="43.537849" lon="12.883779">
        <ele>297.255114</ele>
        <time>2020-02-25T04:07:00.811Z</time>
      </trkpt>
      <trkpt lat="43.537799" lon="12.883286">
        <ele>294.899006</ele>
        <time>2020-02-25T04:07:06.023Z</time>
      </trkpt>
      <trkpt lat="43.538017" lon="12.882809">
        <ele>292.277729</ele>
        <time>2020-02-25T04:07:11.964Z</time>
      </trkpt>
      <trkpt lat="43.538260" lon="12.882612">
        <ele>290.594914</ele>
        <time>2020-02-25T04:07:16.072Z</time>
      </trkpt>
      <trkpt lat="43.538602" lon="12.882526">
        <ele>288.519368</ele>
        <time>2020-02-25T04:07:21.142Z</time>
      </trkpt>
      <trkpt lat="43.538720" lon="12.882423">
        <ele>287.685660</ele>
        <time>2020-02-25T04:07:23.187Z</time>
      </trkpt>
      <trkpt lat="43.538745" lon="12.882303">
        <ele>287.145272</ele>
        <time>2020-02-25T04:07:24.506Z</time>
      </trkpt>
      <trkpt lat="43.538708" lon="12.882174">
        <ele>286.544840</ele>
        <time>2020-02-25T04:07:25.967Z</time>
      </trkpt>
      <trkpt lat="43.538558" lon="12.882157">
        <ele>285.646253</ele>
        <time>2020-02-25T04:07:28.174Z</time>
      </trkpt>
      <trkpt lat="43.537718" lon="12.882423">
        <ele>280.818670</ele>
        <time>2020-02-25T04:07:40.937Z</time>
      </trkpt>
      <trkpt lat="43.537507" lon="12.882431">
        <ele>279.817512</ele>
        <time>2020-02-25T04:07:44.151Z</time>
      </trkpt>
      <trkpt lat="43.537444" lon="12.882371">
        <ele>279.454403</ele>
        <time>2020-02-25T04:07:45.317Z</time>
      </trkpt>
      <trkpt lat="43.537432" lon="12.882234">
        <ele>278.979924</ele>
        <time>2020-02-25T04:07:46.852Z</time>
      </trkpt>
      <trkpt lat="43.537476" lon="12.882114">
        <ele>278.517547</ele>
        <time>2020-02-25T04:07:48.369Z</time>
      </trkpt>
      <trkpt lat="43.538307" lon="12.881481">
        <ele>274.015094</ele>
        <time>2020-02-25T04:08:03.252Z</time>
      </trkpt>
      <trkpt lat="43.538511" lon="12.881520">
        <ele>272.915349</ele>
        <time>2020-02-25T04:08:06.356Z</time>
      </trkpt>
      <trkpt lat="43.538957" lon="12.881729">
        <ele>270.107196</ele>
        <time>2020-02-25T04:08:13.251Z</time>
      </trkpt>
      <trkpt lat="43.539342" lon="12.881800">
        <ele>267.791515</ele>
        <time>2020-02-25T04:08:18.933Z</time>
      </trkpt>
      <trkpt lat="43.539473" lon="12.881820">
        <ele>267.005762</ele>
        <time>2020-02-25T04:08:20.825Z</time>
      </trkpt>
      <trkpt lat="43.539850" lon="12.881876">
        <ele>264.745202</ele>
        <time>2020-02-25T04:08:26.303Z</time>
      </trkpt>
      <trkpt lat="43.540111" lon="12.881892">
        <ele>263.187658</ele>
        <time>2020-02-25T04:08:30.155Z</time>
      </trkpt>
      <trkpt lat="43.540220" lon="12.881882">
        <ele>262.606109</ele>
        <time>2020-02-25T04:08:31.687Z</time>
      </trkpt>
      <trkpt lat="43.539979" lon="12.881442">
        <ele>260.868671</ele>
        <time>2020-02-25T04:08:37.564Z</time>
      </trkpt>
      <trkpt lat="43.539784" lon="12.881073">
        <ele>259.430009</ele>
        <time>2020-02-25T04:08:42.436Z</time>
      </trkpt>
      <trkpt lat="43.539541" lon="12.880593">
        <ele>257.585485</ele>
        <time>2020-02-25T04:08:48.845Z</time>
      </trkpt>
      <trkpt lat="43.538710" lon="12.878797">
        <ele>254.192976</ele>
        <time>2020-02-25T04:09:16.824Z</time>
      </trkpt>
      <trkpt lat="43.537830" lon="12.877253">
        <ele>253.856869</ele>
        <time>2020-02-25T04:09:49.445Z</time>
      </trkpt>
      <trkpt lat="43.537590" lon="12.876949">
        <ele>254.070249</ele>
        <time>2020-02-25T04:09:57.241Z</time>
      </trkpt>
      <trkpt lat="43.537412" lon="12.876762">
        <ele>254.216774</ele>
        <time>2020-02-25T04:10:02.708Z</time>
      </trkpt>
      <trkpt lat="43.537101" lon="12.876580">
        <ele>254.438011</ele>
        <time>2020-02-25T04:10:11.402Z</time>
      </trkpt>
      <trkpt lat="43.536622" lon="12.876349">
        <ele>254.953432</ele>
        <time>2020-02-25T04:10:25.380Z</time>
      </trkpt>
      <trkpt lat="43.536382" lon="12.876294">
        <ele>255.381852</ele>
        <time>2020-02-25T04:10:32.370Z</time>
      </trkpt>
      <trkpt lat="43.535913" lon="12.876177">
        <ele>256.221135</ele>
        <time>2020-02-25T04:10:46.016Z</time>
      </trkpt>
      <trkpt lat="43.535695" lon="12.876122">
        <ele>256.611390</ele>
        <time>2020-02-25T04:10:52.530Z</time>
      </trkpt>
      <trkpt lat="43.535590" lon="12.876094">
        <ele>256.799713</ele>
        <time>2020-02-25T04:10:55.697Z</time>
      </trkpt>
      <trkpt lat="43.535309" lon="12.876021">
        <ele>257.303239</ele>
        <time>2020-02-25T04:11:04.405Z</time>
      </trkpt>
      <trkpt lat="43.533810" lon="12.875538">
        <ele>260.407118</ele>
        <time>2020-02-25T04:11:52.263Z</time>
      </trkpt>
      <trkpt lat="43.530429" lon="12.874976">
        <ele>266.475258</ele>
        <time>2020-02-25T04:13:32.005Z</time>
      </trkpt>
      <trkpt lat="43.529665" lon="12.874740">
        <ele>267.755762</ele>
        <time>2020-02-25T04:13:54.158Z</time>
      </trkpt>
      <trkpt lat="43.528085" lon="12.873805">
        <ele>270.279389</ele>
        <time>2020-02-25T04:14:41.895Z</time>
      </trkpt>
      <trkpt lat="43.526297" lon="12.872384">
        <ele>274.568961</ele>
        <time>2020-02-25T04:15:44.700Z</time>
      </trkpt>
      <trkpt lat="43.525717" lon="12.871924">
        <ele>276.182163</ele>
        <time>2020-02-25T04:16:07.353Z</time>
      </trkpt>
      <trkpt lat="43.525041" lon="12.871500">
        <ele>277.972737</ele>
        <time>2020-02-25T04:16:31.811Z</time>
      </trkpt>
      <trkpt lat="43.524211" lon="12.871012">
        <ele>278.845808</ele>
        <time>2020-02-25T04:16:57.703Z</time>
      </trkpt>
      <trkpt lat="43.522541" lon="12.870089">
        <ele>279.739488</ele>
        <time>2020-02-25T04:17:36.547Z</time>
      </trkpt>
      <trkpt lat="43.521822" lon="12.869865">
        <ele>279.956007</ele>
        <time>2020-02-25T04:17:52.752Z</time>
      </trkpt>
      <trkpt lat="43.519325" lon="12.870046">
        <ele>283.898594</ele>
        <time>2020-02-25T04:19:04.156Z</time>
      </trkpt>
      <trkpt lat="43.519077" lon="12.869955">
        <ele>284.625511</ele>
        <time>2020-02-25T04:19:12.734Z</time>
      </trkpt>
      <trkpt lat="43.517958" lon="12.869234">
        <ele>288.151004</ele>
        <time>2020-02-25T04:19:56.172Z</time>
      </trkpt>
      <trkpt lat="43.517592" lon="12.869111">
        <ele>289.367568</ele>
        <time>2020-02-25T04:20:09.969Z</time>
      </trkpt>
      <trkpt lat="43.517268" lon="12.869148">
        <ele>290.417485</ele>
        <time>2020-02-25T04:20:21.808Z</time>
      </trkpt>
      <trkpt lat="43.515651" lon="12.869730">
        <ele>295.711394</ele>
        <time>2020-02-25T04:21:19.337Z</time>
      </trkpt>
      <trkpt lat="43.514089" lon="12.869845">
        <ele>300.548164</ele>
        <time>2020-02-25T04:22:13.497Z</time>
      </trkpt>
      <trkpt lat="43.513840" lon="12.869875">
        <ele>301.337413</ele>
        <time>2020-02-25T04:22:22.409Z</time>
      </trkpt>
      <trkpt lat="43.513184" lon="12.870119">
        <ele>303.482863</ele>
        <time>2020-02-25T04:22:46.556Z</time>
      </trkpt>
      <trkpt lat="43.510995" lon="12.871244">
        <ele>310.139176</ele>
        <time>2020-02-25T04:24:05.982Z</time>
      </trkpt>
      <trkpt lat="43.510053" lon="12.871586">
        <ele>311.558655</ele>
        <time>2020-02-25T04:24:34.163Z</time>
      </trkpt>
      <trkpt lat="43.509662" lon="12.871904">
        <ele>312.220158</ele>
        <time>2020-02-25T04:24:46.188Z</time>
      </trkpt>
      <trkpt lat="43.508550" lon="12.872534">
        <ele>312.802132</ele>
        <time>2020-02-25T04:25:15.043Z</time>
      </trkpt>
      <trkpt lat="43.508298" lon="12.872610">
        <ele>312.845545</ele>
        <time>2020-02-25T04:25:20.804Z</time>
      </trkpt>
      <trkpt lat="43.507657" lon="12.872601">
        <ele>312.947638</ele>
        <time>2020-02-25T04:25:34.677Z</time>
      </trkpt>
      <trkpt lat="43.507052" lon="12.872573">
        <ele>312.612091</ele>
        <time>2020-02-25T04:25:47.324Z</time>
      </trkpt>
      <trkpt lat="43.505878" lon="12.872193">
        <ele>311.938093</ele>
        <time>2020-02-25T04:26:11.619Z</time>
      </trkpt>
      <trkpt lat="43.504461" lon="12.871536">
        <ele>310.707615</ele>
        <time>2020-02-25T04:26:40.660Z</time>
      </trkpt>
      <trkpt lat="43.504164" lon="12.871278">
        <ele>310.504934</ele>
        <time>2020-02-25T04:26:47.593Z</time>
      </trkpt>
      <trkpt lat="43.503710" lon="12.870636">
        <ele>310.794461</ele>
        <time>2020-02-25T04:27:01.231Z</time>
      </trkpt>
      <trkpt lat="43.503505" lon="12.870388">
        <ele>310.915878</ele>
        <time>2020-02-25T04:27:07.390Z</time>
      </trkpt>
      <trkpt lat="43.503277" lon="12.870266">
        <ele>311.024757</ele>
        <time>2020-02-25T04:27:13.329Z</time>
      </trkpt>
      <trkpt lat="43.502571" lon="12.870007">
        <ele>311.872721</ele>
        <time>2020-02-25T04:27:33.616Z</time>
      </trkpt>
      <trkpt lat="43.502181" lon="12.869642">
        <ele>313.552893</ele>
        <time>2020-02-25T04:27:48.619Z</time>
      </trkpt>
      <trkpt lat="43.500797" lon="12.867494">
        <ele>321.042886</ele>
        <time>2020-02-25T04:29:13.175Z</time>
      </trkpt>
      <trkpt lat="43.500593" lon="12.867170">
        <ele>322.172958</ele>
        <time>2020-02-25T04:29:24.334Z</time>
      </trkpt>
      <trkpt lat="43.500539" lon="12.867085">
        <ele>322.470576</ele>
        <time>2020-02-25T04:29:28.129Z</time>
      </trkpt>
      <trkpt lat="43.500316" lon="12.866622">
        <ele>323.934479</ele>
        <time>2020-02-25T04:29:41.391Z</time>
      </trkpt>
      <trkpt lat="43.500058" lon="12.865607">
        <ele>324.140509</ele>
        <time>2020-02-25T04:30:02.063Z</time>
      </trkpt>
      <trkpt lat="43.500054" lon="12.864155">
        <ele>324.024517</ele>
        <time>2020-02-25T04:30:21.735Z</time>
      </trkpt>
      <trkpt lat="43.499997" lon="12.863755">
        <ele>324.252004</ele>
        <time>2020-02-25T04:30:27.382Z</time>
      </trkpt>
      <trkpt lat="43.499911" lon="12.863441">
        <ele>324.476016</ele>
        <time>2020-02-25T04:30:31.801Z</time>
      </trkpt>
      <trkpt lat="43.499806" lon="12.863289">
        <ele>324.616107</ele>
        <time>2020-02-25T04:30:36.141Z</time>
      </trkpt>
      <trkpt lat="43.498769" lon="12.862880">
        <ele>325.608539</ele>
        <time>2020-02-25T04:31:06.214Z</time>
      </trkpt>
      <trkpt lat="43.498569" lon="12.862746">
        <ele>326.361732</ele>
        <time>2020-02-25T04:31:12.955Z</time>
      </trkpt>
      <trkpt lat="43.498331" lon="12.862318">
        <ele>328.147921</ele>
        <time>2020-02-25T04:31:28.927Z</time>
      </trkpt>
      <trkpt lat="43.498132" lon="12.861695">
        <ele>330.402575</ele>
        <time>2020-02-25T04:31:50.747Z</time>
      </trkpt>
      <trkpt lat="43.497970" lon="12.861558">
        <ele>331.270353</ele>
        <time>2020-02-25T04:31:59.184Z</time>
      </trkpt>
      <trkpt lat="43.497392" lon="12.861528">
        <ele>333.907869</ele>
        <time>2020-02-25T04:32:24.589Z</time>
      </trkpt>
      <trkpt lat="43.497167" lon="12.861443">
        <ele>334.819206</ele>
        <time>2020-02-25T04:32:33.817Z</time>
      </trkpt>
      <trkpt lat="43.497021" lon="12.861263">
        <ele>335.584349</ele>
        <time>2020-02-25T04:32:42.355Z</time>
      </trkpt>
      <trkpt lat="43.496771" lon="12.861048">
        <ele>336.735398</ele>
        <time>2020-02-25T04:32:53.965Z</time>
      </trkpt>
      <trkpt lat="43.495925" lon="12.860259">
        <ele>340.725448</ele>
        <time>2020-02-25T04:33:31.359Z</time>
      </trkpt>
      <trkpt lat="43.494760" lon="12.857752">
        <ele>346.173381</ele>
        <time>2020-02-25T04:34:38.312Z</time>
      </trkpt>
      <trkpt lat="43.494156" lon="12.856697">
        <ele>349.189837</ele>
        <time>2020-02-25T04:35:11.867Z</time>
      </trkpt>
      <trkpt lat="43.493347" lon="12.856121">
        <ele>352.407593</ele>
        <time>2020-02-25T04:35:45.817Z</time>
      </trkpt>
      <trkpt lat="43.491230" lon="12.855023">
        <ele>361.567821</ele>
        <time>2020-02-25T04:37:14.453Z</time>
      </trkpt>
      <trkpt lat="43.490692" lon="12.854764">
        <ele>363.833276</ele>
        <time>2020-02-25T04:37:36.105Z</time>
      </trkpt>
      <trkpt lat="43.490358" lon="12.854551">
        <ele>365.293663</ele>
        <time>2020-02-25T04:37:49.673Z</time>
      </trkpt>
      <trkpt lat="43.489984" lon="12.854147">
        <ele>366.665982</ele>
        <time>2020-02-25T04:38:06.691Z</time>
      </trkpt>
      <trkpt lat="43.489779" lon="12.853993">
        <ele>367.340259</ele>
        <time>2020-02-25T04:38:15.105Z</time>
      </trkpt>
      <trkpt lat="43.489611" lon="12.853950">
        <ele>367.833752</ele>
        <time>2020-02-25T04:38:21.109Z</time>
      </trkpt>
      <trkpt lat="43.489468" lon="12.853976">
        <ele>368.250325</ele>
        <time>2020-02-25T04:38:26.131Z</time>
      </trkpt>
      <trkpt lat="43.489000" lon="12.854439">
        <ele>369.914066</ele>
        <time>2020-02-25T04:38:44.623Z</time>
      </trkpt>
      <trkpt lat="43.488627" lon="12.854697">
        <ele>370.816416</ele>
        <time>2020-02-25T04:38:57.235Z</time>
      </trkpt>
      <trkpt lat="43.488284" lon="12.854954">
        <ele>371.408577</ele>
        <time>2020-02-25T04:39:08.702Z</time>
      </trkpt>
      <trkpt lat="43.487929" lon="12.855109">
        <ele>371.973409</ele>
        <time>2020-02-25T04:39:19.269Z</time>
      </trkpt>
      <trkpt lat="43.487581" lon="12.855315">
        <ele>372.547874</ele>
        <time>2020-02-25T04:39:29.712Z</time>
      </trkpt>
      <trkpt lat="43.487195" lon="12.855401">
        <ele>373.140955</ele>
        <time>2020-02-25T04:39:40.158Z</time>
      </trkpt>
      <trkpt lat="43.485825" lon="12.855443">
        <ele>374.656923</ele>
        <time>2020-02-25T04:40:15.680Z</time>
      </trkpt>
      <trkpt lat="43.485277" lon="12.855332">
        <ele>375.315923</ele>
        <time>2020-02-25T04:40:30.867Z</time>
      </trkpt>
      <trkpt lat="43.485127" lon="12.855160">
        <ele>375.660135</ele>
        <time>2020-02-25T04:40:36.343Z</time>
      </trkpt>
      <trkpt lat="43.485003" lon="12.854757">
        <ele>376.220407</ele>
        <time>2020-02-25T04:40:45.461Z</time>
      </trkpt>
      <trkpt lat="43.484953" lon="12.854371">
        <ele>376.722268</ele>
        <time>2020-02-25T04:40:53.805Z</time>
      </trkpt>
      <trkpt lat="43.484816" lon="12.854027">
        <ele>377.224528</ele>
        <time>2020-02-25T04:41:02.272Z</time>
      </trkpt>
      <trkpt lat="43.484579" lon="12.853727">
        <ele>377.792182</ele>
        <time>2020-02-25T04:41:11.945Z</time>
      </trkpt>
      <trkpt lat="43.483632" lon="12.853126">
        <ele>380.064593</ele>
        <time>2020-02-25T04:41:43.647Z</time>
      </trkpt>
      <trkpt lat="43.482555" lon="12.852070">
        <ele>383.448588</ele>
        <time>2020-02-25T04:42:26.339Z</time>
      </trkpt>
      <trkpt lat="43.481777" lon="12.851409">
        <ele>386.572058</ele>
        <time>2020-02-25T04:42:59.282Z</time>
      </trkpt>
      <trkpt lat="43.481478" lon="12.851298">
        <ele>387.630324</ele>
        <time>2020-02-25T04:43:09.057Z</time>
      </trkpt>
      <trkpt lat="43.481470" lon="12.851298">
        <ele>387.657664</ele>
        <time>2020-02-25T04:43:09.992Z</time>
      </trkpt>
      <trkpt lat="43.480020" lon="12.851324">
        <ele>393.455561</ele>
        <time>2020-02-25T04:44:06.183Z</time>
      </trkpt>
      <trkpt lat="43.479024" lon="12.851461">
        <ele>397.658066</ele>
        <time>2020-02-25T04:44:45.233Z</time>
      </trkpt>
      <trkpt lat="43.478631" lon="12.851564">
        <ele>399.368139</ele>
        <time>2020-02-25T04:45:01.612Z</time>
      </trkpt>
      <trkpt lat="43.478339" lon="12.851736">
        <ele>400.725596</ele>
        <time>2020-02-25T04:45:14.976Z</time>
      </trkpt>
      <trkpt lat="43.478071" lon="12.851993">
        <ele>402.121288</ele>
        <time>2020-02-25T04:45:28.338Z</time>
      </trkpt>
      <trkpt lat="43.477965" lon="12.852182">
        <ele>402.862245</ele>
        <time>2020-02-25T04:45:34.767Z</time>
      </trkpt>
      <trkpt lat="43.477884" lon="12.852439">
        <ele>403.731382</ele>
        <time>2020-02-25T04:45:42.730Z</time>
      </trkpt>
      <trkpt lat="43.477645" lon="12.851431">
        <ele>405.817556</ele>
        <time>2020-02-25T04:46:09.217Z</time>
      </trkpt>
      <trkpt lat="43.477640" lon="12.851183">
        <ele>406.289644</ele>
        <time>2020-02-25T04:46:15.417Z</time>
      </trkpt>
      <trkpt lat="43.477697" lon="12.850976">
        <ele>406.710940</ele>
        <time>2020-02-25T04:46:20.397Z</time>
      </trkpt>
      <trkpt lat="43.478143" lon="12.850057">
        <ele>408.765016</ele>
        <time>2020-02-25T04:46:44.603Z</time>
      </trkpt>
      <trkpt lat="43.479491" lon="12.848289">
        <ele>412.532033</ele>
        <time>2020-02-25T04:47:39.588Z</time>
      </trkpt>
      <trkpt lat="43.479609" lon="12.848049">
        <ele>413.194019</ele>
        <time>2020-02-25T04:47:46.769Z</time>
      </trkpt>
      <trkpt lat="43.479616" lon="12.846980">
        <ele>415.635129</ele>
        <time>2020-02-25T04:48:12.417Z</time>
      </trkpt>
      <trkpt lat="43.479702" lon="12.846278">
        <ele>417.260797</ele>
        <time>2020-02-25T04:48:30.517Z</time>
      </trkpt>
      <trkpt lat="43.479792" lon="12.846136">
        <ele>417.691322</ele>
        <time>2020-02-25T04:48:36.028Z</time>
      </trkpt>
      <trkpt lat="43.480062" lon="12.845948">
        <ele>419.604386</ele>
        <time>2020-02-25T04:48:49.294Z</time>
      </trkpt>
      <trkpt lat="43.480328" lon="12.845739">
        <ele>421.626248</ele>
        <time>2020-02-25T04:49:02.866Z</time>
      </trkpt>
      <trkpt lat="43.480784" lon="12.845203">
        <ele>425.583767</ele>
        <time>2020-02-25T04:49:33.520Z</time>
      </trkpt>
      <trkpt lat="43.481081" lon="12.844716">
        <ele>428.631838</ele>
        <time>2020-02-25T04:49:58.046Z</time>
      </trkpt>
      <trkpt lat="43.481138" lon="12.844610">
        <ele>429.263981</ele>
        <time>2020-02-25T04:50:04.487Z</time>
      </trkpt>
      <trkpt lat="43.481194" lon="12.844375">
        <ele>430.445854</ele>
        <time>2020-02-25T04:50:13.246Z</time>
      </trkpt>
      <trkpt lat="43.481324" lon="12.843310">
        <ele>435.599383</ele>
        <time>2020-02-25T04:50:53.975Z</time>
      </trkpt>
      <trkpt lat="43.481355" lon="12.842953">
        <ele>437.315120</ele>
        <time>2020-02-25T04:51:07.712Z</time>
      </trkpt>
      <trkpt lat="43.481315" lon="12.842696">
        <ele>438.569403</ele>
        <time>2020-02-25T04:51:17.559Z</time>
      </trkpt>
      <trkpt lat="43.481229" lon="12.842552">
        <ele>439.459388</ele>
        <time>2020-02-25T04:51:23.473Z</time>
      </trkpt>
      <trkpt lat="43.479933" lon="12.841305">
        <ele>445.891417</ele>
        <time>2020-02-25T04:52:22.803Z</time>
      </trkpt>
      <trkpt lat="43.479767" lon="12.841190">
        <ele>446.535496</ele>
        <time>2020-02-25T04:52:29.222Z</time>
      </trkpt>
      <trkpt lat="43.479684" lon="12.841139">
        <ele>446.850531</ele>
        <time>2020-02-25T04:52:32.411Z</time>
      </trkpt>
      <trkpt lat="43.479387" lon="12.840959">
        <ele>447.722500</ele>
        <time>2020-02-25T04:52:42.662Z</time>
      </trkpt>
      <trkpt lat="43.478932" lon="12.840676">
        <ele>447.809393</ele>
        <time>2020-02-25T04:52:56.373Z</time>
      </trkpt>
      <trkpt lat="43.478601" lon="12.840549">
        <ele>447.869201</ele>
        <time>2020-02-25T04:53:04.639Z</time>
      </trkpt>
      <trkpt lat="43.478221" lon="12.840540">
        <ele>447.935357</ele>
        <time>2020-02-25T04:53:13.030Z</time>
      </trkpt>
      <trkpt lat="43.477505" lon="12.840524">
        <ele>447.653596</ele>
        <time>2020-02-25T04:53:26.039Z</time>
      </trkpt>
      <trkpt lat="43.477104" lon="12.840384">
        <ele>446.951090</ele>
        <time>2020-02-25T04:53:33.056Z</time>
      </trkpt>
      <trkpt lat="43.476578" lon="12.840008">
        <ele>445.944794</ele>
        <time>2020-02-25T04:53:43.093Z</time>
      </trkpt>
      <trkpt lat="43.476176" lon="12.839655">
        <ele>445.135285</ele>
        <time>2020-02-25T04:53:51.938Z</time>
      </trkpt>
      <trkpt lat="43.475867" lon="12.839394">
        <ele>445.088247</ele>
        <time>2020-02-25T04:53:59.889Z</time>
      </trkpt>
      <trkpt lat="43.475568" lon="12.838946">
        <ele>445.290117</ele>
        <time>2020-02-25T04:54:10.125Z</time>
      </trkpt>
      <trkpt lat="43.475363" lon="12.838513">
        <ele>445.461587</ele>
        <time>2020-02-25T04:54:19.516Z</time>
      </trkpt>
      <trkpt lat="43.475279" lon="12.838338">
        <ele>445.531176</ele>
        <time>2020-02-25T04:54:23.868Z</time>
      </trkpt>
      <trkpt lat="43.475254" lon="12.838095">
        <ele>445.612576</ele>
        <time>2020-02-25T04:54:28.234Z</time>
      </trkpt>
      <trkpt lat="43.475318" lon="12.837958">
        <ele>445.666615</ele>
        <time>2020-02-25T04:54:31.651Z</time>
      </trkpt>
      <trkpt lat="43.475438" lon="12.837863">
        <ele>445.729866</ele>
        <time>2020-02-25T04:54:35.459Z</time>
      </trkpt>
      <trkpt lat="43.476300" lon="12.837462">
        <ele>446.100968</ele>
        <time>2020-02-25T04:54:59.107Z</time>
      </trkpt>
      <trkpt lat="43.477090" lon="12.837310">
        <ele>446.419736</ele>
        <time>2020-02-25T04:55:17.040Z</time>
      </trkpt>
      <trkpt lat="43.477178" lon="12.837144">
        <ele>446.479352</ele>
        <time>2020-02-25T04:55:20.109Z</time>
      </trkpt>
      <trkpt lat="43.477264" lon="12.836383">
        <ele>446.599912</ele>
        <time>2020-02-25T04:55:32.146Z</time>
      </trkpt>
      <trkpt lat="43.477696" lon="12.835155">
        <ele>446.786151</ele>
        <time>2020-02-25T04:55:52.980Z</time>
      </trkpt>
      <trkpt lat="43.477699" lon="12.835041">
        <ele>446.801718</ele>
        <time>2020-02-25T04:55:55.259Z</time>
      </trkpt>
      <trkpt lat="43.477692" lon="12.835008">
        <ele>446.806410</ele>
        <time>2020-02-25T04:55:57.166Z</time>
      </trkpt>
      <trkpt lat="43.477674" lon="12.834939">
        <ele>446.816416</ele>
        <time>2020-02-25T04:55:58.787Z</time>
      </trkpt>
      <trkpt lat="43.477608" lon="12.834906">
        <ele>446.829620</ele>
        <time>2020-02-25T04:55:59.885Z</time>
      </trkpt>
      <trkpt lat="43.477529" lon="12.834915">
        <ele>446.844528</ele>
        <time>2020-02-25T04:56:01.547Z</time>
      </trkpt>
      <trkpt lat="43.477320" lon="12.835193">
        <ele>447.907251</ele>
        <time>2020-02-25T04:56:10.314Z</time>
      </trkpt>
      <trkpt lat="43.477173" lon="12.835218">
        <ele>448.471529</ele>
        <time>2020-02-25T04:56:14.678Z</time>
      </trkpt>
      <trkpt lat="43.477067" lon="12.835099">
        <ele>448.992399</ele>
        <time>2020-02-25T04:56:20.698Z</time>
      </trkpt>
      <trkpt lat="43.477007" lon="12.834936">
        <ele>449.497678</ele>
        <time>2020-02-25T04:56:23.405Z</time>
      </trkpt>
      <trkpt lat="43.476908" lon="12.834672">
        <ele>450.319208</ele>
        <time>2020-02-25T04:56:33.021Z</time>
      </trkpt>
      <trkpt lat="43.476597" lon="12.834352">
        <ele>451.797862</ele>
        <time>2020-02-25T04:56:47.943Z</time>
      </trkpt>
      <trkpt lat="43.476559" lon="12.834149">
        <ele>452.377437</ele>
        <time>2020-02-25T04:56:54.087Z</time>
      </trkpt>
      <trkpt lat="43.476866" lon="12.832784">
        <ele>455.949372</ele>
        <time>2020-02-25T04:57:43.819Z</time>
      </trkpt>
      <trkpt lat="43.476866" lon="12.832781">
        <ele>455.956471</ele>
        <time>2020-02-25T04:57:44.097Z</time>
      </trkpt>
      <trkpt lat="43.476889" lon="12.832495">
        <ele>456.637361</ele>
        <time>2020-02-25T04:57:51.319Z</time>
      </trkpt>
      <trkpt lat="43.476811" lon="12.831833">
        <ele>458.224332</ele>
        <time>2020-02-25T04:58:07.745Z</time>
      </trkpt>
      <trkpt lat="43.476687" lon="12.831832">
        <ele>458.628685</ele>
        <time>2020-02-25T04:58:10.570Z</time>
      </trkpt>
      <trkpt lat="43.476231" lon="12.832025">
        <ele>458.784956</ele>
        <time>2020-02-25T04:58:21.041Z</time>
      </trkpt>
      <trkpt lat="43.475719" lon="12.832243">
        <ele>456.588286</ele>
        <time>2020-02-25T04:58:30.309Z</time>
      </trkpt>
      <trkpt lat="43.475259" lon="12.832831">
        <ele>454.016350</ele>
        <time>2020-02-25T04:58:39.518Z</time>
      </trkpt>
      <trkpt lat="43.475056" lon="12.832961">
        <ele>453.098754</ele>
        <time>2020-02-25T04:58:42.705Z</time>
      </trkpt>
      <trkpt lat="43.474848" lon="12.832951">
        <ele>452.245608</ele>
        <time>2020-02-25T04:58:45.662Z</time>
      </trkpt>
      <trkpt lat="43.474339" lon="12.832717">
        <ele>450.065446</ele>
        <time>2020-02-25T04:58:53.525Z</time>
      </trkpt>
      <trkpt lat="43.473866" lon="12.832784">
        <ele>448.133914</ele>
        <time>2020-02-25T04:59:00.910Z</time>
      </trkpt>
      <trkpt lat="43.473723" lon="12.832719">
        <ele>447.522236</ele>
        <time>2020-02-25T04:59:03.349Z</time>
      </trkpt>
      <trkpt lat="43.473107" lon="12.832183">
        <ele>444.761110</ele>
        <time>2020-02-25T04:59:15.751Z</time>
      </trkpt>
      <trkpt lat="43.473063" lon="12.832157">
        <ele>444.686355</ele>
        <time>2020-02-25T04:59:16.504Z</time>
      </trkpt>
      <trkpt lat="43.471997" lon="12.831094">
        <ele>442.631704</ele>
        <time>2020-02-25T04:59:41.322Z</time>
      </trkpt>
      <trkpt lat="43.471763" lon="12.830866">
        <ele>442.184203</ele>
        <time>2020-02-25T04:59:46.430Z</time>
      </trkpt>
      <trkpt lat="43.471155" lon="12.830229">
        <ele>440.802458</ele>
        <time>2020-02-25T05:00:00.428Z</time>
      </trkpt>
      <trkpt lat="43.470955" lon="12.830021">
        <ele>440.342990</ele>
        <time>2020-02-25T05:00:04.794Z</time>
      </trkpt>
      <trkpt lat="43.470752" lon="12.829813">
        <ele>439.879119</ele>
        <time>2020-02-25T05:00:09.228Z</time>
      </trkpt>
      <trkpt lat="43.470408" lon="12.829485">
        <ele>439.112039</ele>
        <time>2020-02-25T05:00:16.644Z</time>
      </trkpt>
      <trkpt lat="43.469207" lon="12.828511">
        <ele>435.672486</ele>
        <time>2020-02-25T05:00:41.374Z</time>
      </trkpt>
      <trkpt lat="43.469024" lon="12.828389">
        <ele>435.151348</ele>
        <time>2020-02-25T05:00:44.856Z</time>
      </trkpt>
      <trkpt lat="43.468844" lon="12.828299">
        <ele>434.660484</ele>
        <time>2020-02-25T05:00:47.979Z</time>
      </trkpt>
      <trkpt lat="43.468707" lon="12.828249">
        <ele>434.297178</ele>
        <time>2020-02-25T05:00:50.294Z</time>
      </trkpt>
      <trkpt lat="43.467125" lon="12.828074">
        <ele>425.613908</ele>
        <time>2020-02-25T05:01:13.898Z</time>
      </trkpt>
      <trkpt lat="43.466843" lon="12.828207">
        <ele>423.896607</ele>
        <time>2020-02-25T05:01:18.129Z</time>
      </trkpt>
      <trkpt lat="43.466597" lon="12.828546">
        <ele>421.397931</ele>
        <time>2020-02-25T05:01:23.072Z</time>
      </trkpt>
      <trkpt lat="43.466504" lon="12.828599">
        <ele>420.675157</ele>
        <time>2020-02-25T05:01:24.489Z</time>
      </trkpt>
      <trkpt lat="43.464198" lon="12.828754">
        <ele>403.991675</ele>
        <time>2020-02-25T05:01:57.328Z</time>
      </trkpt>
      <trkpt lat="43.463435" lon="12.829032">
        <ele>398.242099</ele>
        <time>2020-02-25T05:02:08.514Z</time>
      </trkpt>
      <trkpt lat="43.463162" lon="12.829060">
        <ele>396.373364</ele>
        <time>2020-02-25T05:02:12.442Z</time>
      </trkpt>
      <trkpt lat="43.463038" lon="12.829022">
        <ele>395.509554</ele>
        <time>2020-02-25T05:02:14.204Z</time>
      </trkpt>
      <trkpt lat="43.462796" lon="12.828709">
        <ele>393.252444</ele>
        <time>2020-02-25T05:02:18.982Z</time>
      </trkpt>
      <trkpt lat="43.462614" lon="12.828143">
        <ele>390.197021</ele>
        <time>2020-02-25T05:02:25.433Z</time>
      </trkpt>
      <trkpt lat="43.462464" lon="12.827431">
        <ele>386.537821</ele>
        <time>2020-02-25T05:02:33.167Z</time>
      </trkpt>
      <trkpt lat="43.462418" lon="12.825288">
        <ele>379.094974</ele>
        <time>2020-02-25T05:02:56.554Z</time>
      </trkpt>
      <trkpt lat="43.462332" lon="12.824723">
        <ele>377.495877</ele>
        <time>2020-02-25T05:03:03.754Z</time>
      </trkpt>
      <trkpt lat="43.462185" lon="12.824236">
        <ele>377.330075</ele>
        <time>2020-02-25T05:03:10.751Z</time>
      </trkpt>
      <trkpt lat="43.462127" lon="12.824077">
        <ele>377.274135</ele>
        <time>2020-02-25T05:03:13.233Z</time>
      </trkpt>
      <trkpt lat="43.462064" lon="12.823936">
        <ele>377.222086</ele>
        <time>2020-02-25T05:03:15.551Z</time>
      </trkpt>
      <trkpt lat="43.461833" lon="12.823499">
        <ele>377.052142</ele>
        <time>2020-02-25T05:03:24.177Z</time>
      </trkpt>
      <trkpt lat="43.461469" lon="12.821629">
        <ele>377.665599</ele>
        <time>2020-02-25T05:04:01.707Z</time>
      </trkpt>
      <trkpt lat="43.461405" lon="12.821332">
        <ele>377.952905</ele>
        <time>2020-02-25T05:04:07.569Z</time>
      </trkpt>
      <trkpt lat="43.461149" lon="12.819930">
        <ele>379.380664</ele>
        <time>2020-02-25T05:04:37.146Z</time>
      </trkpt>
      <trkpt lat="43.461099" lon="12.819539">
        <ele>379.880996</ele>
        <time>2020-02-25T05:04:45.336Z</time>
      </trkpt>
      <trkpt lat="43.461092" lon="12.819349">
        <ele>380.120745</ele>
        <time>2020-02-25T05:04:49.419Z</time>
      </trkpt>
      <trkpt lat="43.461108" lon="12.819266">
        <ele>380.228969</ele>
        <time>2020-02-25T05:04:51.264Z</time>
      </trkpt>
      <trkpt lat="43.461156" lon="12.819111">
        <ele>380.441337</ele>
        <time>2020-02-25T05:04:54.746Z</time>
      </trkpt>
      <trkpt lat="43.461242" lon="12.818973">
        <ele>380.670551</ele>
        <time>2020-02-25T05:04:58.846Z</time>
      </trkpt>
      <trkpt lat="43.461504" lon="12.818617">
        <ele>381.309453</ele>
        <time>2020-02-25T05:05:09.863Z</time>
      </trkpt>
      <trkpt lat="43.462350" lon="12.817491">
        <ele>383.091296</ele>
        <time>2020-02-25T05:05:44.594Z</time>
      </trkpt>
      <trkpt lat="43.463900" lon="12.815466">
        <ele>386.101357</ele>
        <time>2020-02-25T05:06:41.365Z</time>
      </trkpt>
      <trkpt lat="43.464213" lon="12.815234">
        <ele>386.624471</ele>
        <time>2020-02-25T05:06:51.663Z</time>
      </trkpt>
      <trkpt lat="43.465111" lon="12.814803">
        <ele>388.788317</ele>
        <time>2020-02-25T05:07:20.696Z</time>
      </trkpt>
      <trkpt lat="43.465278" lon="12.814741">
        <ele>389.295321</ele>
        <time>2020-02-25T05:07:26.322Z</time>
      </trkpt>
      <trkpt lat="43.465429" lon="12.814736">
        <ele>389.738089</ele>
        <time>2020-02-25T05:07:31.720Z</time>
      </trkpt>
      <trkpt lat="43.466187" lon="12.814898">
        <ele>391.986658</ele>
        <time>2020-02-25T05:07:58.930Z</time>
      </trkpt>
      <trkpt lat="43.466579" lon="12.814920">
        <ele>393.267282</ele>
        <time>2020-02-25T05:08:13.326Z</time>
      </trkpt>
      <trkpt lat="43.466998" lon="12.814839">
        <ele>394.772695</ele>
        <time>2020-02-25T05:08:29.092Z</time>
      </trkpt>
      <trkpt lat="43.468331" lon="12.814581">
        <ele>399.462706</ele>
        <time>2020-02-25T05:09:18.650Z</time>
      </trkpt>
      <trkpt lat="43.468997" lon="12.814358">
        <ele>401.520534</ele>
        <time>2020-02-25T05:09:41.481Z</time>
      </trkpt>
      <trkpt lat="43.469027" lon="12.814335">
        <ele>401.623611</ele>
        <time>2020-02-25T05:09:43.359Z</time>
      </trkpt>
      <trkpt lat="43.469371" lon="12.814066">
        <ele>402.811190</ele>
        <time>2020-02-25T05:09:56.618Z</time>
      </trkpt>
      <trkpt lat="43.469795" lon="12.813697">
        <ele>404.316888</ele>
        <time>2020-02-25T05:10:12.943Z</time>
      </trkpt>
      <trkpt lat="43.469997" lon="12.813538">
        <ele>404.895971</ele>
        <time>2020-02-25T05:10:21.017Z</time>
      </trkpt>
      <trkpt lat="43.470230" lon="12.813354">
        <ele>405.562662</ele>
        <time>2020-02-25T05:10:29.304Z</time>
      </trkpt>
      <trkpt lat="43.470485" lon="12.813230">
        <ele>406.233972</ele>
        <time>2020-02-25T05:10:38.485Z</time>
      </trkpt>
      <trkpt lat="43.470530" lon="12.813208">
        <ele>406.352509</ele>
        <time>2020-02-25T05:10:40.072Z</time>
      </trkpt>
      <trkpt lat="43.470840" lon="12.813161">
        <ele>407.126738</ele>
        <time>2020-02-25T05:10:49.874Z</time>
      </trkpt>
      <trkpt lat="43.471153" lon="12.813097">
        <ele>407.912280</ele>
        <time>2020-02-25T05:10:59.914Z</time>
      </trkpt>
      <trkpt lat="43.471551" lon="12.813071">
        <ele>408.894315</ele>
        <time>2020-02-25T05:11:12.581Z</time>
      </trkpt>
      <trkpt lat="43.471754" lon="12.813046">
        <ele>409.367624</ele>
        <time>2020-02-25T05:11:19.051Z</time>
      </trkpt>
      <trkpt lat="43.472255" lon="12.812985">
        <ele>410.535639</ele>
        <time>2020-02-25T05:11:34.572Z</time>
      </trkpt>
      <trkpt lat="43.473314" lon="12.812779">
        <ele>413.014898</ele>
        <time>2020-02-25T05:12:08.476Z</time>
      </trkpt>
      <trkpt lat="43.473703" lon="12.812641">
        <ele>413.866601</ele>
        <time>2020-02-25T05:12:20.926Z</time>
      </trkpt>
      <trkpt lat="43.473982" lon="12.812474">
        <ele>414.511572</ele>
        <time>2020-02-25T05:12:30.224Z</time>
      </trkpt>
      <trkpt lat="43.474123" lon="12.812363">
        <ele>414.855886</ele>
        <time>2020-02-25T05:12:35.382Z</time>
      </trkpt>
      <trkpt lat="43.474165" lon="12.812330">
        <ele>414.958399</ele>
        <time>2020-02-25T05:12:36.862Z</time>
      </trkpt>
      <trkpt lat="43.474714" lon="12.811897">
        <ele>416.299641</ele>
        <time>2020-02-25T05:12:56.034Z</time>
      </trkpt>
      <trkpt lat="43.474887" lon="12.811758">
        <ele>416.724256</ele>
        <time>2020-02-25T05:13:02.027Z</time>
      </trkpt>
      <trkpt lat="43.474905" lon="12.811627">
        <ele>416.945310</ele>
        <time>2020-02-25T05:13:04.954Z</time>
      </trkpt>
      <trkpt lat="43.474953" lon="12.811495">
        <ele>417.196972</ele>
        <time>2020-02-25T05:13:08.314Z</time>
      </trkpt>
      <trkpt lat="43.475039" lon="12.811365">
        <ele>417.496812</ele>
        <time>2020-02-25T05:13:12.207Z</time>
      </trkpt>
      <trkpt lat="43.476023" lon="12.810479">
        <ele>420.257712</ele>
        <time>2020-02-25T05:13:48.664Z</time>
      </trkpt>
      <trkpt lat="43.476662" lon="12.809968">
        <ele>422.348339</ele>
        <time>2020-02-25T05:14:13.771Z</time>
      </trkpt>
      <trkpt lat="43.476712" lon="12.809929">
        <ele>422.531894</ele>
        <time>2020-02-25T05:14:15.784Z</time>
      </trkpt>
      <trkpt lat="43.476883" lon="12.809792">
        <ele>423.163828</ele>
        <time>2020-02-25T05:14:22.824Z</time>
      </trkpt>
      <trkpt lat="43.477179" lon="12.809519">
        <ele>424.301749</ele>
        <time>2020-02-25T05:14:35.453Z</time>
      </trkpt>
      <trkpt lat="43.477227" lon="12.809475">
        <ele>424.485928</ele>
        <time>2020-02-25T05:14:37.458Z</time>
      </trkpt>
      <trkpt lat="43.477580" lon="12.809148">
        <ele>425.844819</ele>
        <time>2020-02-25T05:14:52.472Z</time>
      </trkpt>
      <trkpt lat="43.478011" lon="12.808609">
        <ele>428.018377</ele>
        <time>2020-02-25T05:15:13.118Z</time>
      </trkpt>
      <trkpt lat="43.478608" lon="12.807861">
        <ele>431.447327</ele>
        <time>2020-02-25T05:15:44.038Z</time>
      </trkpt>
      <trkpt lat="43.478758" lon="12.807591">
        <ele>432.495952</ele>
        <time>2020-02-25T05:15:53.622Z</time>
      </trkpt>
      <trkpt lat="43.479418" lon="12.806405">
        <ele>438.645295</ele>
        <time>2020-02-25T05:16:40.802Z</time>
      </trkpt>
      <trkpt lat="43.479654" lon="12.805835">
        <ele>441.820024</ele>
        <time>2020-02-25T05:17:04.803Z</time>
      </trkpt>
      <trkpt lat="43.480586" lon="12.802755">
        <ele>459.313598</ele>
        <time>2020-02-25T05:19:14.667Z</time>
      </trkpt>
      <trkpt lat="43.480597" lon="12.802295">
        <ele>460.977010</ele>
        <time>2020-02-25T05:19:30.345Z</time>
      </trkpt>
      <trkpt lat="43.480405" lon="12.799914">
        <ele>468.334063</ele>
        <time>2020-02-25T05:20:36.070Z</time>
      </trkpt>
      <trkpt lat="43.480323" lon="12.799175">
        <ele>469.913903</ele>
        <time>2020-02-25T05:20:53.494Z</time>
      </trkpt>
      <trkpt lat="43.480146" lon="12.797348">
        <ele>473.830758</ele>
        <time>2020-02-25T05:21:37.737Z</time>
      </trkpt>
      <trkpt lat="43.480124" lon="12.796773">
        <ele>475.078549</ele>
        <time>2020-02-25T05:21:52.303Z</time>
      </trkpt>
      <trkpt lat="43.480199" lon="12.796364">
        <ele>475.992742</ele>
        <time>2020-02-25T05:22:03.085Z</time>
      </trkpt>
      <trkpt lat="43.481403" lon="12.791946">
        <ele>485.749965</ele>
        <time>2020-02-25T05:24:00.412Z</time>
      </trkpt>
      <trkpt lat="43.481604" lon="12.791168">
        <ele>487.215453</ele>
        <time>2020-02-25T05:24:19.636Z</time>
      </trkpt>
      <trkpt lat="43.481660" lon="12.790948">
        <ele>487.629174</ele>
        <time>2020-02-25T05:24:25.276Z</time>
      </trkpt>
      <trkpt lat="43.481899" lon="12.789988">
        <ele>487.307879</ele>
        <time>2020-02-25T05:24:44.897Z</time>
      </trkpt>
      <trkpt lat="43.482090" lon="12.788968">
        <ele>486.226074</ele>
        <time>2020-02-25T05:24:58.879Z</time>
      </trkpt>
      <trkpt lat="43.482101" lon="12.788901">
        <ele>486.155529</ele>
        <time>2020-02-25T05:24:59.900Z</time>
      </trkpt>
      <trkpt lat="43.482152" lon="12.788579">
        <ele>485.817066</ele>
        <time>2020-02-25T05:25:03.681Z</time>
      </trkpt>
      <trkpt lat="43.482209" lon="12.788312">
        <ele>485.499282</ele>
        <time>2020-02-25T05:25:06.935Z</time>
      </trkpt>
      <trkpt lat="43.482299" lon="12.788050">
        <ele>484.138684</ele>
        <time>2020-02-25T05:25:10.046Z</time>
      </trkpt>
      <trkpt lat="43.482444" lon="12.787821">
        <ele>482.712110</ele>
        <time>2020-02-25T05:25:13.405Z</time>
      </trkpt>
      <trkpt lat="43.482792" lon="12.787444">
        <ele>479.848748</ele>
        <time>2020-02-25T05:25:19.809Z</time>
      </trkpt>
      <trkpt lat="43.484497" lon="12.786083">
        <ele>466.425640</ele>
        <time>2020-02-25T05:25:47.657Z</time>
      </trkpt>
      <trkpt lat="43.484551" lon="12.785962">
        <ele>465.692492</ele>
        <time>2020-02-25T05:25:49.129Z</time>
      </trkpt>
      <trkpt lat="43.484615" lon="12.785818">
        <ele>464.820970</ele>
        <time>2020-02-25T05:25:50.903Z</time>
      </trkpt>
      <trkpt lat="43.484587" lon="12.785202">
        <ele>461.635594</ele>
        <time>2020-02-25T05:25:57.413Z</time>
      </trkpt>
      <trkpt lat="43.484650" lon="12.784804">
        <ele>459.780292</ele>
        <time>2020-02-25T05:26:01.742Z</time>
      </trkpt>
      <trkpt lat="43.484744" lon="12.784469">
        <ele>458.216821</ele>
        <time>2020-02-25T05:26:05.545Z</time>
      </trkpt>
      <trkpt lat="43.484811" lon="12.784250">
        <ele>457.182257</ele>
        <time>2020-02-25T05:26:08.079Z</time>
      </trkpt>
      <trkpt lat="43.485023" lon="12.783587">
        <ele>454.028460</ele>
        <time>2020-02-25T05:26:15.815Z</time>
      </trkpt>
      <trkpt lat="43.485307" lon="12.782739">
        <ele>449.982053</ele>
        <time>2020-02-25T05:26:25.837Z</time>
      </trkpt>
      <trkpt lat="43.485448" lon="12.782333">
        <ele>448.127353</ele>
        <time>2020-02-25T05:26:30.716Z</time>
      </trkpt>
      <trkpt lat="43.485957" lon="12.780204">
        <ele>439.133023</ele>
        <time>2020-02-25T05:26:54.817Z</time>
      </trkpt>
      <trkpt lat="43.486521" lon="12.778697">
        <ele>433.538932</ele>
        <time>2020-02-25T05:27:12.981Z</time>
      </trkpt>
      <trkpt lat="43.486613" lon="12.778514">
        <ele>432.804445</ele>
        <time>2020-02-25T05:27:15.582Z</time>
      </trkpt>
      <trkpt lat="43.486959" lon="12.777871">
        <ele>433.528771</ele>
        <time>2020-02-25T05:27:28.110Z</time>
      </trkpt>
      <trkpt lat="43.487101" lon="12.777625">
        <ele>434.470372</ele>
        <time>2020-02-25T05:27:35.282Z</time>
      </trkpt>
      <trkpt lat="43.487240" lon="12.777424">
        <ele>435.302102</ele>
        <time>2020-02-25T05:27:42.052Z</time>
      </trkpt>
      <trkpt lat="43.487679" lon="12.776917">
        <ele>437.666607</ele>
        <time>2020-02-25T05:28:05.558Z</time>
      </trkpt>
      <trkpt lat="43.487819" lon="12.776756">
        <ele>438.419345</ele>
        <time>2020-02-25T05:28:16.396Z</time>
      </trkpt>
      <trkpt lat="43.488086" lon="12.776459">
        <ele>440.594299</ele>
        <time>2020-02-25T05:28:37.475Z</time>
      </trkpt>
      <trkpt lat="43.488149" lon="12.776267">
        <ele>442.216693</ele>
        <time>2020-02-25T05:28:47.787Z</time>
      </trkpt>
      <trkpt lat="43.487564" lon="12.775690">
        <ele>449.850480</ele>
        <time>2020-02-25T05:29:37.847Z</time>
      </trkpt>
      <trkpt lat="43.487535" lon="12.775546">
        <ele>451.001091</ele>
        <time>2020-02-25T05:29:45.723Z</time>
      </trkpt>
      <trkpt lat="43.487567" lon="12.775395">
        <ele>452.212257</ele>
        <time>2020-02-25T05:29:54.288Z</time>
      </trkpt>
      <trkpt lat="43.488060" lon="12.774829">
        <ele>458.835283</ele>
        <time>2020-02-25T05:30:34.268Z</time>
      </trkpt>
      <trkpt lat="43.488679" lon="12.774349">
        <ele>463.961763</ele>
        <time>2020-02-25T05:31:15.199Z</time>
      </trkpt>
      <trkpt lat="43.489564" lon="12.773463">
        <ele>471.661957</ele>
        <time>2020-02-25T05:32:06.293Z</time>
      </trkpt>
      <trkpt lat="43.489737" lon="12.773472">
        <ele>472.350727</ele>
        <time>2020-02-25T05:32:12.982Z</time>
      </trkpt>
      <trkpt lat="43.489834" lon="12.773572">
        <ele>472.832642</ele>
        <time>2020-02-25T05:32:17.595Z</time>
      </trkpt>
      <trkpt lat="43.489944" lon="12.774120">
        <ele>474.473805</ele>
        <time>2020-02-25T05:32:31.917Z</time>
      </trkpt>
      <trkpt lat="43.489710" lon="12.775664">
        <ele>479.006322</ele>
        <time>2020-02-25T05:33:14.320Z</time>
      </trkpt>
      <trkpt lat="43.489725" lon="12.775793">
        <ele>479.366366</ele>
        <time>2020-02-25T05:33:18.153Z</time>
      </trkpt>
      <trkpt lat="43.489810" lon="12.775858">
        <ele>479.735608</ele>
        <time>2020-02-25T05:33:21.419Z</time>
      </trkpt>
      <trkpt lat="43.490140" lon="12.775750">
        <ele>481.023992</ele>
        <time>2020-02-25T05:33:35.067Z</time>
      </trkpt>
      <trkpt lat="43.490533" lon="12.775648">
        <ele>482.543071</ele>
        <time>2020-02-25T05:33:50.084Z</time>
      </trkpt>
      <trkpt lat="43.490639" lon="12.775630">
        <ele>482.948766</ele>
        <time>2020-02-25T05:33:54.868Z</time>
      </trkpt>
      <trkpt lat="43.490957" lon="12.775510">
        <ele>484.201167</ele>
        <time>2020-02-25T05:34:05.897Z</time>
      </trkpt>
      <trkpt lat="43.491101" lon="12.775470">
        <ele>484.759160</ele>
        <time>2020-02-25T05:34:11.114Z</time>
      </trkpt>
      <trkpt lat="43.491360" lon="12.775537">
        <ele>485.862493</ele>
        <time>2020-02-25T05:34:20.198Z</time>
      </trkpt>
      <trkpt lat="43.492325" lon="12.775824">
        <ele>490.710809</ele>
        <time>2020-02-25T05:34:58.896Z</time>
      </trkpt>
      <trkpt lat="43.492520" lon="12.775928">
        <ele>491.737667</ele>
        <time>2020-02-25T05:35:08.285Z</time>
      </trkpt>
      <trkpt lat="43.492651" lon="12.776036">
        <ele>492.487317</ele>
        <time>2020-02-25T05:35:14.110Z</time>
      </trkpt>
      <trkpt lat="43.492651" lon="12.776036">
        <ele>492.487317</ele>
        <time>2020-02-25T05:35:14.116Z</time>
      </trkpt>
      <trkpt lat="43.492651" lon="12.776036">
        <ele>492.487317</ele>
        <time>2020-02-25T05:35:14.174Z</time>
      </trkpt>
      <trkpt lat="43.492724" lon="12.776000">
        <ele>492.868084</ele>
        <time>2020-02-25T05:35:17.692Z</time>
      </trkpt>
      <trkpt lat="43.492806" lon="12.775929">
        <ele>493.343656</ele>
        <time>2020-02-25T05:35:21.792Z</time>
      </trkpt>
      <trkpt lat="43.492756" lon="12.775782">
        <ele>493.922102</ele>
        <time>2020-02-25T05:35:26.993Z</time>
      </trkpt>
      <trkpt lat="43.492291" lon="12.774406">
        <ele>502.787912</ele>
        <time>2020-02-25T05:36:29.063Z</time>
      </trkpt>
      <trkpt lat="43.492132" lon="12.773936">
        <ele>505.891603</ele>
        <time>2020-02-25T05:36:54.214Z</time>
      </trkpt>
      <trkpt lat="43.492043" lon="12.773671">
        <ele>507.639303</ele>
        <time>2020-02-25T05:37:07.898Z</time>
      </trkpt>
      <trkpt lat="43.491960" lon="12.773426">
        <ele>509.155392</ele>
        <time>2020-02-25T05:37:18.267Z</time>
      </trkpt>
      <trkpt lat="43.491757" lon="12.772834">
        <ele>510.787753</ele>
        <time>2020-02-25T05:37:42.311Z</time>
      </trkpt>
      <trkpt lat="43.491731" lon="12.772773">
        <ele>510.964125</ele>
        <time>2020-02-25T05:37:44.660Z</time>
      </trkpt>
      <trkpt lat="43.491687" lon="12.772668">
        <ele>511.266411</ele>
        <time>2020-02-25T05:37:49.134Z</time>
      </trkpt>
      <trkpt lat="43.491665" lon="12.772616">
        <ele>511.416477</ele>
        <time>2020-02-25T05:37:50.028Z</time>
      </trkpt>
      <trkpt lat="43.491641" lon="12.772560">
        <ele>511.578620</ele>
        <time>2020-02-25T05:37:52.178Z</time>
      </trkpt>
      <trkpt lat="43.491635" lon="12.772546">
        <ele>511.619156</ele>
        <time>2020-02-25T05:37:52.723Z</time>
      </trkpt>
      <trkpt lat="43.491345" lon="12.771858">
        <ele>513.602777</ele>
        <time>2020-02-25T05:38:12.449Z</time>
      </trkpt>
      <trkpt lat="43.491318" lon="12.771798">
        <ele>513.778791</ele>
        <time>2020-02-25T05:38:13.788Z</time>
      </trkpt>
      <trkpt lat="43.491318" lon="12.771798">
        <ele>513.778791</ele>
        <time>2020-02-25T05:38:13.824Z</time>
      </trkpt>
      <trkpt lat="43.491093" lon="12.772003">
        <ele>514.705589</ele>
        <time>2020-02-25T05:38:21.169Z</time>
      </trkpt>
      <trkpt lat="43.491196" lon="12.772244">
        <ele>515.288221</ele>
        <time>2020-02-25T05:38:24.863Z</time>
      </trkpt>
      <trkpt lat="43.491396" lon="12.772709">
        <ele>515.530768</ele>
        <time>2020-02-25T05:38:32.615Z</time>
      </trkpt>
      <trkpt lat="43.491434" lon="12.772797">
        <ele>515.576716</ele>
        <time>2020-02-25T05:38:34.522Z</time>
      </trkpt>
      <trkpt lat="43.491454" lon="12.772888">
        <ele>515.619378</ele>
        <time>2020-02-25T05:38:35.936Z</time>
      </trkpt>
      <trkpt lat="43.491311" lon="12.772852">
        <ele>515.709281</ele>
        <time>2020-02-25T05:38:38.262Z</time>
      </trkpt>
      <trkpt lat="43.491162" lon="12.772762">
        <ele>515.809891</ele>
        <time>2020-02-25T05:38:42.246Z</time>
      </trkpt>
      <trkpt lat="43.490979" lon="12.772598">
        <ele>515.944887</ele>
        <time>2020-02-25T05:38:46.315Z</time>
      </trkpt>
      <trkpt lat="43.490905" lon="12.772479">
        <ele>516.015210</ele>
        <time>2020-02-25T05:38:50.248Z</time>
      </trkpt>
      <trkpt lat="43.490360" lon="12.771024">
        <ele>517.603152</ele>
        <time>2020-02-25T05:39:33.822Z</time>
      </trkpt>
      <trkpt lat="43.490267" lon="12.770748">
        <ele>518.050796</ele>
        <time>2020-02-25T05:39:43.887Z</time>
      </trkpt>
      <trkpt lat="43.490180" lon="12.770591">
        <ele>518.341402</ele>
        <time>2020-02-25T05:39:47.686Z</time>
      </trkpt>
      <trkpt lat="43.490124" lon="12.770522">
        <ele>518.493699</ele>
        <time>2020-02-25T05:39:52.535Z</time>
      </trkpt>
      <trkpt lat="43.490117" lon="12.770313">
        <ele>518.801463</ele>
        <time>2020-02-25T05:39:57.210Z</time>
      </trkpt>
      <trkpt lat="43.490129" lon="12.770108">
        <ele>519.103995</ele>
        <time>2020-02-25T05:40:00.735Z</time>
      </trkpt>
      <trkpt lat="43.490182" lon="12.769677">
        <ele>519.747034</ele>
        <time>2020-02-25T05:40:09.164Z</time>
      </trkpt>
      <trkpt lat="43.490381" lon="12.768370">
        <ele>514.049873</ele>
        <time>2020-02-25T05:40:25.228Z</time>
      </trkpt>
      <trkpt lat="43.490563" lon="12.767980">
        <ele>511.638097</ele>
        <time>2020-02-25T05:40:29.777Z</time>
      </trkpt>
      <trkpt lat="43.490716" lon="12.767887">
        <ele>510.439339</ele>
        <time>2020-02-25T05:40:31.997Z</time>
      </trkpt>
      <trkpt lat="43.490907" lon="12.767869">
        <ele>509.066880</ele>
        <time>2020-02-25T05:40:34.550Z</time>
      </trkpt>
      <trkpt lat="43.491810" lon="12.768067">
        <ele>500.254805</ele>
        <time>2020-02-25T05:40:46.702Z</time>
      </trkpt>
      <trkpt lat="43.492496" lon="12.768217">
        <ele>492.840629</ele>
        <time>2020-02-25T05:40:55.981Z</time>
      </trkpt>
      <trkpt lat="43.492904" lon="12.768222">
        <ele>488.485315</ele>
        <time>2020-02-25T05:41:01.542Z</time>
      </trkpt>
      <trkpt lat="43.493613" lon="12.768095">
        <ele>484.780361</ele>
        <time>2020-02-25T05:41:11.881Z</time>
      </trkpt>
      <trkpt lat="43.493772" lon="12.768121">
        <ele>484.019835</ele>
        <time>2020-02-25T05:41:14.224Z</time>
      </trkpt>
      <trkpt lat="43.494215" lon="12.768262">
        <ele>481.860275</ele>
        <time>2020-02-25T05:41:21.590Z</time>
      </trkpt>
      <trkpt lat="43.494486" lon="12.768298">
        <ele>480.567095</ele>
        <time>2020-02-25T05:41:26.069Z</time>
      </trkpt>
      <trkpt lat="43.494826" lon="12.768193">
        <ele>479.268713</ele>
        <time>2020-02-25T05:41:32.298Z</time>
      </trkpt>
      <trkpt lat="43.495060" lon="12.767897">
        <ele>478.897074</ele>
        <time>2020-02-25T05:41:38.133Z</time>
      </trkpt>
      <trkpt lat="43.495152" lon="12.767636">
        <ele>478.650744</ele>
        <time>2020-02-25T05:41:42.160Z</time>
      </trkpt>
      <trkpt lat="43.495396" lon="12.766735">
        <ele>477.834342</ele>
        <time>2020-02-25T05:41:56.673Z</time>
      </trkpt>
      <trkpt lat="43.495488" lon="12.766395">
        <ele>477.526298</ele>
        <time>2020-02-25T05:42:01.977Z</time>
      </trkpt>
      <trkpt lat="43.495649" lon="12.765843">
        <ele>476.734592</ele>
        <time>2020-02-25T05:42:09.996Z</time>
      </trkpt>
      <trkpt lat="43.495855" lon="12.765363">
        <ele>475.737752</ele>
        <time>2020-02-25T05:42:17.236Z</time>
      </trkpt>
      <trkpt lat="43.496927" lon="12.763446">
        <ele>470.964462</ele>
        <time>2020-02-25T05:42:46.110Z</time>
      </trkpt>
      <trkpt lat="43.497315" lon="12.762749">
        <ele>468.905778</ele>
        <time>2020-02-25T05:42:56.437Z</time>
      </trkpt>
      <trkpt lat="43.497654" lon="12.762369">
        <ele>467.494420</ele>
        <time>2020-02-25T05:43:03.529Z</time>
      </trkpt>
      <trkpt lat="43.498162" lon="12.761999">
        <ele>465.834391</ele>
        <time>2020-02-25T05:43:12.873Z</time>
      </trkpt>
      <trkpt lat="43.498622" lon="12.761659">
        <ele>464.384208</ele>
        <time>2020-02-25T05:43:21.458Z</time>
      </trkpt>
      <trkpt lat="43.498762" lon="12.761544">
        <ele>463.931414</ele>
        <time>2020-02-25T05:43:24.204Z</time>
      </trkpt>
      <trkpt lat="43.498959" lon="12.761352">
        <ele>463.261094</ele>
        <time>2020-02-25T05:43:28.216Z</time>
      </trkpt>
      <trkpt lat="43.499341" lon="12.760954">
        <ele>462.011770</ele>
        <time>2020-02-25T05:43:36.388Z</time>
      </trkpt>
      <trkpt lat="43.499517" lon="12.760742">
        <ele>461.837352</ele>
        <time>2020-02-25T05:43:40.467Z</time>
      </trkpt>
      <trkpt lat="43.500040" lon="12.760005">
        <ele>461.279229</ele>
        <time>2020-02-25T05:43:54.412Z</time>
      </trkpt>
      <trkpt lat="43.500166" lon="12.759796">
        <ele>461.132118</ele>
        <time>2020-02-25T05:43:58.367Z</time>
      </trkpt>
      <trkpt lat="43.500336" lon="12.759438">
        <ele>460.900491</ele>
        <time>2020-02-25T05:44:05.556Z</time>
      </trkpt>
      <trkpt lat="43.500669" lon="12.758626">
        <ele>462.105147</ele>
        <time>2020-02-25T05:44:23.502Z</time>
      </trkpt>
      <trkpt lat="43.500807" lon="12.758362">
        <ele>462.920563</ele>
        <time>2020-02-25T05:44:30.788Z</time>
      </trkpt>
      <trkpt lat="43.500945" lon="12.758181">
        <ele>463.578577</ele>
        <time>2020-02-25T05:44:37.567Z</time>
      </trkpt>
      <trkpt lat="43.501051" lon="12.758075">
        <ele>464.030951</ele>
        <time>2020-02-25T05:44:43.021Z</time>
      </trkpt>
      <trkpt lat="43.502028" lon="12.757328">
        <ele>468.424453</ele>
        <time>2020-02-25T05:45:29.885Z</time>
      </trkpt>
      <trkpt lat="43.502178" lon="12.757152">
        <ele>469.476653</ele>
        <time>2020-02-25T05:45:38.516Z</time>
      </trkpt>
      <trkpt lat="43.502354" lon="12.756878">
        <ele>470.894784</ele>
        <time>2020-02-25T05:45:51.439Z</time>
      </trkpt>
      <trkpt lat="43.503114" lon="12.755532">
        <ele>476.524071</ele>
        <time>2020-02-25T05:46:47.458Z</time>
      </trkpt>
      <trkpt lat="43.503197" lon="12.755337">
        <ele>476.526821</ele>
        <time>2020-02-25T05:46:53.768Z</time>
      </trkpt>
      <trkpt lat="43.503324" lon="12.754956">
        <ele>476.531921</ele>
        <time>2020-02-25T05:47:01.620Z</time>
      </trkpt>
      <trkpt lat="43.503519" lon="12.754300">
        <ele>476.540544</ele>
        <time>2020-02-25T05:47:11.395Z</time>
      </trkpt>
      <trkpt lat="43.503757" lon="12.753588">
        <ele>476.550080</ele>
        <time>2020-02-25T05:47:21.426Z</time>
      </trkpt>
      <trkpt lat="43.503917" lon="12.753308">
        <ele>475.487679</ele>
        <time>2020-02-25T05:47:25.604Z</time>
      </trkpt>
      <trkpt lat="43.504106" lon="12.753093">
        <ele>474.150878</ele>
        <time>2020-02-25T05:47:29.298Z</time>
      </trkpt>
      <trkpt lat="43.504461" lon="12.752879">
        <ele>472.037081</ele>
        <time>2020-02-25T05:47:35.035Z</time>
      </trkpt>
      <trkpt lat="43.505057" lon="12.752783">
        <ele>468.763395</ele>
        <time>2020-02-25T05:47:43.688Z</time>
      </trkpt>
      <trkpt lat="43.505376" lon="12.752585">
        <ele>466.854810</ele>
        <time>2020-02-25T05:47:48.760Z</time>
      </trkpt>
      <trkpt lat="43.505581" lon="12.752201">
        <ele>464.752972</ele>
        <time>2020-02-25T05:47:53.862Z</time>
      </trkpt>
      <trkpt lat="43.505869" lon="12.751261">
        <ele>460.224475</ele>
        <time>2020-02-25T05:48:04.742Z</time>
      </trkpt>
      <trkpt lat="43.506105" lon="12.750698">
        <ele>457.338716</ele>
        <time>2020-02-25T05:48:11.596Z</time>
      </trkpt>
      <trkpt lat="43.506477" lon="12.749943">
        <ele>454.142502</ele>
        <time>2020-02-25T05:48:21.244Z</time>
      </trkpt>
      <trkpt lat="43.506798" lon="12.749294">
        <ele>451.874517</ele>
        <time>2020-02-25T05:48:29.930Z</time>
      </trkpt>
      <trkpt lat="43.507051" lon="12.748561">
        <ele>449.530825</ele>
        <time>2020-02-25T05:48:39.423Z</time>
      </trkpt>
      <trkpt lat="43.507134" lon="12.748109">
        <ele>448.433492</ele>
        <time>2020-02-25T05:48:45.830Z</time>
      </trkpt>
      <trkpt lat="43.507157" lon="12.747886">
        <ele>448.199449</ele>
        <time>2020-02-25T05:48:49.809Z</time>
      </trkpt>
      <trkpt lat="43.507171" lon="12.747073">
        <ele>447.354448</ele>
        <time>2020-02-25T05:49:03.867Z</time>
      </trkpt>
      <trkpt lat="43.507157" lon="12.746432">
        <ele>446.688104</ele>
        <time>2020-02-25T05:49:12.632Z</time>
      </trkpt>
      <trkpt lat="43.507143" lon="12.746268">
        <ele>446.516520</ele>
        <time>2020-02-25T05:49:14.561Z</time>
      </trkpt>
      <trkpt lat="43.506934" lon="12.745208">
        <ele>444.364229</ele>
        <time>2020-02-25T05:49:27.661Z</time>
      </trkpt>
      <trkpt lat="43.506944" lon="12.745084">
        <ele>444.023716</ele>
        <time>2020-02-25T05:49:29.246Z</time>
      </trkpt>
      <trkpt lat="43.506980" lon="12.744969">
        <ele>443.681867</ele>
        <time>2020-02-25T05:49:30.673Z</time>
      </trkpt>
      <trkpt lat="43.507058" lon="12.744823">
        <ele>443.186966</ele>
        <time>2020-02-25T05:49:32.687Z</time>
      </trkpt>
      <trkpt lat="43.507190" lon="12.744666">
        <ele>442.530973</ele>
        <time>2020-02-25T05:49:35.434Z</time>
      </trkpt>
      <trkpt lat="43.507304" lon="12.744562">
        <ele>442.016593</ele>
        <time>2020-02-25T05:49:37.482Z</time>
      </trkpt>
      <trkpt lat="43.507407" lon="12.744523">
        <ele>441.614657</ele>
        <time>2020-02-25T05:49:39.026Z</time>
      </trkpt>
      <trkpt lat="43.507633" lon="12.744607">
        <ele>440.733868</ele>
        <time>2020-02-25T05:49:42.509Z</time>
      </trkpt>
      <trkpt lat="43.509534" lon="12.746132">
        <ele>435.130092</ele>
        <time>2020-02-25T05:50:18.903Z</time>
      </trkpt>
      <trkpt lat="43.509802" lon="12.746349">
        <ele>436.561365</ele>
        <time>2020-02-25T05:50:27.932Z</time>
      </trkpt>
      <trkpt lat="43.509983" lon="12.746458">
        <ele>437.470944</ele>
        <time>2020-02-25T05:50:34.890Z</time>
      </trkpt>
      <trkpt lat="43.511533" lon="12.747015">
        <ele>444.658964</ele>
        <time>2020-02-25T05:51:52.377Z</time>
      </trkpt>
      <trkpt lat="43.511717" lon="12.747061">
        <ele>445.407176</ele>
        <time>2020-02-25T05:52:01.535Z</time>
      </trkpt>
      <trkpt lat="43.511848" lon="12.747072">
        <ele>445.932296</ele>
        <time>2020-02-25T05:52:09.031Z</time>
      </trkpt>
      <trkpt lat="43.512107" lon="12.746975">
        <ele>447.006136</ele>
        <time>2020-02-25T05:52:20.246Z</time>
      </trkpt>
      <trkpt lat="43.512439" lon="12.746747">
        <ele>448.490148</ele>
        <time>2020-02-25T05:52:34.215Z</time>
      </trkpt>
      <trkpt lat="43.512572" lon="12.746621">
        <ele>449.135796</ele>
        <time>2020-02-25T05:52:39.865Z</time>
      </trkpt>
      <trkpt lat="43.512736" lon="12.746273">
        <ele>450.340067</ele>
        <time>2020-02-25T05:52:48.467Z</time>
      </trkpt>
      <trkpt lat="43.512885" lon="12.745653">
        <ele>448.700712</ele>
        <time>2020-02-25T05:52:58.449Z</time>
      </trkpt>
      <trkpt lat="43.512958" lon="12.745401">
        <ele>447.778900</ele>
        <time>2020-02-25T05:53:01.386Z</time>
      </trkpt>
      <trkpt lat="43.513777" lon="12.743139">
        <ele>438.753035</ele>
        <time>2020-02-25T05:53:27.798Z</time>
      </trkpt>
      <trkpt lat="43.514091" lon="12.742315">
        <ele>435.128638</ele>
        <time>2020-02-25T05:53:37.916Z</time>
      </trkpt>
      <trkpt lat="43.514186" lon="12.741777">
        <ele>432.972621</ele>
        <time>2020-02-25T05:53:44.250Z</time>
      </trkpt>
      <trkpt lat="43.513971" lon="12.739134">
        <ele>426.686163</ele>
        <time>2020-02-25T05:54:15.649Z</time>
      </trkpt>
      <trkpt lat="43.513907" lon="12.738404">
        <ele>426.236177</ele>
        <time>2020-02-25T05:54:24.907Z</time>
      </trkpt>
      <trkpt lat="43.513907" lon="12.738404">
        <ele>426.236177</ele>
        <time>2020-02-25T05:54:24.916Z</time>
      </trkpt>
      <trkpt lat="43.513927" lon="12.738314">
        <ele>426.178572</ele>
        <time>2020-02-25T05:54:26.673Z</time>
      </trkpt>
      <trkpt lat="43.513950" lon="12.738254">
        <ele>426.137040</ele>
        <time>2020-02-25T05:54:28.188Z</time>
      </trkpt>
      <trkpt lat="43.513991" lon="12.738183">
        <ele>426.081499</ele>
        <time>2020-02-25T05:54:29.650Z</time>
      </trkpt>
      <trkpt lat="43.514018" lon="12.738176">
        <ele>426.058315</ele>
        <time>2020-02-25T05:54:30.174Z</time>
      </trkpt>
      <trkpt lat="43.514056" lon="12.738139">
        <ele>426.019061</ele>
        <time>2020-02-25T05:54:31.021Z</time>
      </trkpt>
      <trkpt lat="43.514078" lon="12.738076">
        <ele>425.976270</ele>
        <time>2020-02-25T05:54:31.940Z</time>
      </trkpt>
      <trkpt lat="43.514079" lon="12.738028">
        <ele>425.946884</ele>
        <time>2020-02-25T05:54:32.653Z</time>
      </trkpt>
      <trkpt lat="43.514067" lon="12.737982">
        <ele>425.916968</ele>
        <time>2020-02-25T05:54:33.322Z</time>
      </trkpt>
      <trkpt lat="43.514049" lon="12.737949">
        <ele>425.891698</ele>
        <time>2020-02-25T05:54:34.111Z</time>
      </trkpt>
      <trkpt lat="43.513756" lon="12.737127">
        <ele>425.331184</ele>
        <time>2020-02-25T05:54:48.552Z</time>
      </trkpt>
      <trkpt lat="43.513577" lon="12.736394">
        <ele>425.377005</ele>
        <time>2020-02-25T05:55:02.631Z</time>
      </trkpt>
      <trkpt lat="43.513460" lon="12.735948">
        <ele>425.517368</ele>
        <time>2020-02-25T05:55:12.917Z</time>
      </trkpt>
      <trkpt lat="43.513356" lon="12.735678">
        <ele>425.607846</ele>
        <time>2020-02-25T05:55:19.481Z</time>
      </trkpt>
      <trkpt lat="43.512512" lon="12.734202">
        <ele>425.205915</ele>
        <time>2020-02-25T05:55:47.859Z</time>
      </trkpt>
      <trkpt lat="43.512490" lon="12.734089">
        <ele>425.091311</ele>
        <time>2020-02-25T05:55:49.329Z</time>
      </trkpt>
      <trkpt lat="43.512450" lon="12.733884">
        <ele>424.883370</ele>
        <time>2020-02-25T05:55:52.333Z</time>
      </trkpt>
      <trkpt lat="43.512490" lon="12.733702">
        <ele>424.697093</ele>
        <time>2020-02-25T05:55:54.577Z</time>
      </trkpt>
      <trkpt lat="43.512519" lon="12.733579">
        <ele>424.570406</ele>
        <time>2020-02-25T05:55:56.290Z</time>
      </trkpt>
      <trkpt lat="43.512596" lon="12.733212">
        <ele>424.196185</ele>
        <time>2020-02-25T05:56:01.204Z</time>
      </trkpt>
      <trkpt lat="43.512617" lon="12.733014">
        <ele>424.000179</ele>
        <time>2020-02-25T05:56:04.035Z</time>
      </trkpt>
      <trkpt lat="43.512632" lon="12.732574">
        <ele>423.568720</ele>
        <time>2020-02-25T05:56:09.782Z</time>
      </trkpt>
      <trkpt lat="43.512634" lon="12.732144">
        <ele>422.998567</ele>
        <time>2020-02-25T05:56:15.412Z</time>
      </trkpt>
      <trkpt lat="43.512668" lon="12.731823">
        <ele>422.551119</ele>
        <time>2020-02-25T05:56:19.797Z</time>
      </trkpt>
      <trkpt lat="43.512724" lon="12.731467">
        <ele>422.048674</ele>
        <time>2020-02-25T05:56:24.226Z</time>
      </trkpt>
      <trkpt lat="43.512820" lon="12.731114">
        <ele>421.528679</ele>
        <time>2020-02-25T05:56:29.373Z</time>
      </trkpt>
      <trkpt lat="43.513070" lon="12.730472">
        <ele>420.523602</ele>
        <time>2020-02-25T05:56:38.720Z</time>
      </trkpt>
      <trkpt lat="43.513118" lon="12.730382">
        <ele>420.369512</ele>
        <time>2020-02-25T05:56:40.190Z</time>
      </trkpt>
      <trkpt lat="43.513249" lon="12.730299">
        <ele>420.095323</ele>
        <time>2020-02-25T05:56:42.690Z</time>
      </trkpt>
      <trkpt lat="43.513332" lon="12.730302">
        <ele>419.992906</ele>
        <time>2020-02-25T05:56:44.116Z</time>
      </trkpt>
      <trkpt lat="43.513553" lon="12.730335">
        <ele>419.722221</ele>
        <time>2020-02-25T05:56:47.999Z</time>
      </trkpt>
      <trkpt lat="43.513599" lon="12.730441">
        <ele>419.613135</ele>
        <time>2020-02-25T05:56:49.359Z</time>
      </trkpt>
      <trkpt lat="43.514150" lon="12.731229">
        <ele>418.646485</ele>
        <time>2020-02-25T05:57:03.349Z</time>
      </trkpt>
      <trkpt lat="43.514156" lon="12.731238">
        <ele>418.635689</ele>
        <time>2020-02-25T05:57:03.468Z</time>
      </trkpt>
      <trkpt lat="43.514831" lon="12.732130">
        <ele>419.729230</ele>
        <time>2020-02-25T05:57:24.456Z</time>
      </trkpt>
      <trkpt lat="43.514939" lon="12.732293">
        <ele>420.610815</ele>
        <time>2020-02-25T05:57:29.831Z</time>
      </trkpt>
      <trkpt lat="43.515119" lon="12.732921">
        <ele>423.307093</ele>
        <time>2020-02-25T05:57:52.404Z</time>
      </trkpt>
      <trkpt lat="43.515235" lon="12.733097">
        <ele>424.256711</ele>
        <time>2020-02-25T05:58:01.408Z</time>
      </trkpt>
      <trkpt lat="43.515493" lon="12.733169">
        <ele>425.706044</ele>
        <time>2020-02-25T05:58:16.055Z</time>
      </trkpt>
      <trkpt lat="43.516102" lon="12.733106">
        <ele>430.182601</ele>
        <time>2020-02-25T05:58:49.450Z</time>
      </trkpt>
      <trkpt lat="43.516156" lon="12.733120">
        <ele>430.751787</ele>
        <time>2020-02-25T05:58:55.270Z</time>
      </trkpt>
      <trkpt lat="43.516196" lon="12.733174">
        <ele>431.331658</ele>
        <time>2020-02-25T05:58:59.162Z</time>
      </trkpt>
      <trkpt lat="43.516201" lon="12.733363">
        <ele>432.752395</ele>
        <time>2020-02-25T05:59:05.539Z</time>
      </trkpt>
      <trkpt lat="43.516105" lon="12.733662">
        <ele>435.208825</ele>
        <time>2020-02-25T05:59:22.253Z</time>
      </trkpt>
      <trkpt lat="43.516125" lon="12.733750">
        <ele>435.901598</ele>
        <time>2020-02-25T05:59:26.480Z</time>
      </trkpt>
      <trkpt lat="43.516247" lon="12.733791">
        <ele>437.202384</ele>
        <time>2020-02-25T05:59:31.960Z</time>
      </trkpt>
      <trkpt lat="43.516781" lon="12.733407">
        <ele>443.441043</ele>
        <time>2020-02-25T06:00:15.057Z</time>
      </trkpt>
      <trkpt lat="43.517119" lon="12.733164">
        <ele>447.409190</ele>
        <time>2020-02-25T06:00:41.525Z</time>
      </trkpt>
      <trkpt lat="43.517184" lon="12.733076">
        <ele>448.372132</ele>
        <time>2020-02-25T06:00:46.043Z</time>
      </trkpt>
      <trkpt lat="43.517235" lon="12.732954">
        <ele>449.451655</ele>
        <time>2020-02-25T06:00:51.636Z</time>
      </trkpt>
      <trkpt lat="43.517263" lon="12.732801">
        <ele>450.661326</ele>
        <time>2020-02-25T06:01:00.738Z</time>
      </trkpt>
      <trkpt lat="43.517295" lon="12.732477">
        <ele>453.168041</ele>
        <time>2020-02-25T06:01:14.083Z</time>
      </trkpt>
      <trkpt lat="43.517442" lon="12.732075">
        <ele>456.619407</ele>
        <time>2020-02-25T06:01:35.808Z</time>
      </trkpt>
      <trkpt lat="43.518342" lon="12.731061">
        <ele>468.115250</ele>
        <time>2020-02-25T06:02:51.459Z</time>
      </trkpt>
      <trkpt lat="43.518484" lon="12.730583">
        <ele>471.169410</ele>
        <time>2020-02-25T06:03:13.343Z</time>
      </trkpt>
      <trkpt lat="43.518590" lon="12.729826">
        <ele>475.727881</ele>
        <time>2020-02-25T06:03:42.635Z</time>
      </trkpt>
      <trkpt lat="43.518801" lon="12.729163">
        <ele>480.008787</ele>
        <time>2020-02-25T06:04:05.556Z</time>
      </trkpt>
      <trkpt lat="43.518986" lon="12.728732">
        <ele>483.307816</ele>
        <time>2020-02-25T06:04:25.132Z</time>
      </trkpt>
      <trkpt lat="43.519340" lon="12.728258">
        <ele>487.807040</ele>
        <time>2020-02-25T06:04:52.424Z</time>
      </trkpt>
      <trkpt lat="43.519691" lon="12.727951">
        <ele>491.597105</ele>
        <time>2020-02-25T06:05:16.603Z</time>
      </trkpt>
      <trkpt lat="43.519586" lon="12.727945">
        <ele>492.555374</ele>
        <time>2020-02-25T06:05:23.406Z</time>
      </trkpt>
      <trkpt lat="43.519483" lon="12.727974">
        <ele>493.513958</ele>
        <time>2020-02-25T06:05:29.054Z</time>
      </trkpt>
      <trkpt lat="43.519274" lon="12.728108">
        <ele>495.615635</ele>
        <time>2020-02-25T06:05:45.546Z</time>
      </trkpt>
      <trkpt lat="43.519103" lon="12.728180">
        <ele>497.648684</ele>
        <time>2020-02-25T06:05:56.964Z</time>
      </trkpt>
      <trkpt lat="43.518901" lon="12.728160">
        <ele>500.515859</ele>
        <time>2020-02-25T06:06:12.493Z</time>
      </trkpt>
      <trkpt lat="43.518697" lon="12.727216">
        <ele>510.628425</ele>
        <time>2020-02-25T06:07:11.813Z</time>
      </trkpt>
      <trkpt lat="43.518606" lon="12.726968">
        <ele>513.481869</ele>
        <time>2020-02-25T06:07:29.983Z</time>
      </trkpt>
      <trkpt lat="43.518097" lon="12.726008">
        <ele>524.528346</ele>
        <time>2020-02-25T06:08:41.600Z</time>
      </trkpt>
      <trkpt lat="43.517991" lon="12.725967">
        <ele>525.598438</ele>
        <time>2020-02-25T06:08:50.211Z</time>
      </trkpt>
      <trkpt lat="43.517974" lon="12.726109">
        <ele>526.612889</ele>
        <time>2020-02-25T06:08:57.826Z</time>
      </trkpt>
      <trkpt lat="43.518097" lon="12.726932">
        <ele>532.535809</ele>
        <time>2020-02-25T06:09:39.642Z</time>
      </trkpt>
      <trkpt lat="43.518042" lon="12.727428">
        <ele>536.072552</ele>
        <time>2020-02-25T06:10:00.804Z</time>
      </trkpt>
      <trkpt lat="43.517888" lon="12.727862">
        <ele>539.463978</ele>
        <time>2020-02-25T06:10:17.484Z</time>
      </trkpt>
      <trkpt lat="43.517297" lon="12.729124">
        <ele>539.089748</ele>
        <time>2020-02-25T06:10:40.715Z</time>
      </trkpt>
      <trkpt lat="43.516982" lon="12.729585">
        <ele>538.931960</ele>
        <time>2020-02-25T06:10:48.669Z</time>
      </trkpt>
      <trkpt lat="43.516832" lon="12.729715">
        <ele>538.871101</ele>
        <time>2020-02-25T06:10:51.361Z</time>
      </trkpt>
      <trkpt lat="43.516655" lon="12.729834">
        <ele>538.898949</ele>
        <time>2020-02-25T06:10:58.062Z</time>
      </trkpt>
      <trkpt lat="43.516560" lon="12.729835">
        <ele>538.938553</ele>
        <time>2020-02-25T06:10:59.628Z</time>
      </trkpt>
      <trkpt lat="43.516476" lon="12.729705">
        <ele>538.991191</ele>
        <time>2020-02-25T06:11:01.848Z</time>
      </trkpt>
      <trkpt lat="43.516332" lon="12.729303">
        <ele>539.126736</ele>
        <time>2020-02-25T06:11:09.276Z</time>
      </trkpt>
      <trkpt lat="43.516332" lon="12.729300">
        <ele>539.127643</ele>
        <time>2020-02-25T06:11:09.406Z</time>
      </trkpt>
      <trkpt lat="43.516332" lon="12.729303">
        <ele>539.128550</ele>
        <time>2020-02-25T06:11:09.435Z</time>
      </trkpt>
      <trkpt lat="43.516476" lon="12.729705">
        <ele>539.264095</ele>
        <time>2020-02-25T06:11:17.091Z</time>
      </trkpt>
      <trkpt lat="43.516560" lon="12.729835">
        <ele>539.316732</ele>
        <time>2020-02-25T06:11:21.440Z</time>
      </trkpt>
      <trkpt lat="43.516655" lon="12.729834">
        <ele>539.356337</ele>
        <time>2020-02-25T06:11:25.140Z</time>
      </trkpt>
      <trkpt lat="43.516832" lon="12.729715">
        <ele>539.438426</ele>
        <time>2020-02-25T06:11:28.593Z</time>
      </trkpt>
      <trkpt lat="43.516982" lon="12.729585">
        <ele>539.512281</ele>
        <time>2020-02-25T06:11:37.406Z</time>
      </trkpt>
      <trkpt lat="43.517297" lon="12.729124">
        <ele>539.233687</ele>
        <time>2020-02-25T06:11:53.530Z</time>
      </trkpt>
      <trkpt lat="43.517888" lon="12.727862">
        <ele>537.699360</ele>
        <time>2020-02-25T06:12:21.260Z</time>
      </trkpt>
      <trkpt lat="43.518042" lon="12.727428">
        <ele>537.205883</ele>
        <time>2020-02-25T06:12:26.649Z</time>
      </trkpt>
      <trkpt lat="43.518097" lon="12.726932">
        <ele>533.905860</ele>
        <time>2020-02-25T06:12:31.954Z</time>
      </trkpt>
      <trkpt lat="43.517974" lon="12.726109">
        <ele>526.577479</ele>
        <time>2020-02-25T06:12:40.522Z</time>
      </trkpt>
      <trkpt lat="43.517991" lon="12.725967">
        <ele>525.322308</ele>
        <time>2020-02-25T06:12:41.964Z</time>
      </trkpt>
      <trkpt lat="43.518097" lon="12.726008">
        <ele>523.998292</ele>
        <time>2020-02-25T06:12:43.469Z</time>
      </trkpt>
      <trkpt lat="43.518606" lon="12.726968">
        <ele>513.412282</ele>
        <time>2020-02-25T06:12:55.225Z</time>
      </trkpt>
      <trkpt lat="43.518697" lon="12.727216">
        <ele>510.700249</ele>
        <time>2020-02-25T06:12:57.944Z</time>
      </trkpt>
      <trkpt lat="43.518901" lon="12.728160">
        <ele>501.088845</ele>
        <time>2020-02-25T06:13:07.666Z</time>
      </trkpt>
      <trkpt lat="43.519103" lon="12.728180">
        <ele>498.363762</ele>
        <time>2020-02-25T06:13:10.434Z</time>
      </trkpt>
      <trkpt lat="43.519274" lon="12.728108">
        <ele>495.957947</ele>
        <time>2020-02-25T06:13:12.958Z</time>
      </trkpt>
      <trkpt lat="43.519483" lon="12.727974">
        <ele>492.856586</ele>
        <time>2020-02-25T06:13:16.158Z</time>
      </trkpt>
      <trkpt lat="43.519586" lon="12.727945">
        <ele>491.442040</ele>
        <time>2020-02-25T06:13:17.724Z</time>
      </trkpt>
      <trkpt lat="43.519691" lon="12.727951">
        <ele>490.749030</ele>
        <time>2020-02-25T06:13:19.202Z</time>
      </trkpt>
      <trkpt lat="43.519854" lon="12.727746">
        <ele>489.562309</ele>
        <time>2020-02-25T06:13:22.278Z</time>
      </trkpt>
      <trkpt lat="43.520294" lon="12.727046">
        <ele>485.948695</ele>
        <time>2020-02-25T06:13:31.883Z</time>
      </trkpt>
      <trkpt lat="43.520439" lon="12.726665">
        <ele>484.270253</ele>
        <time>2020-02-25T06:13:36.648Z</time>
      </trkpt>
      <trkpt lat="43.520723" lon="12.725292">
        <ele>481.076375</ele>
        <time>2020-02-25T06:13:58.685Z</time>
      </trkpt>
      <trkpt lat="43.520749" lon="12.725100">
        <ele>480.948896</ele>
        <time>2020-02-25T06:14:01.707Z</time>
      </trkpt>
      <trkpt lat="43.520745" lon="12.724914">
        <ele>480.827447</ele>
        <time>2020-02-25T06:14:04.478Z</time>
      </trkpt>
      <trkpt lat="43.520573" lon="12.724396">
        <ele>480.455604</ele>
        <time>2020-02-25T06:14:12.595Z</time>
      </trkpt>
      <trkpt lat="43.520303" lon="12.723837">
        <ele>480.017231</ele>
        <time>2020-02-25T06:14:21.921Z</time>
      </trkpt>
      <trkpt lat="43.519824" lon="12.722916">
        <ele>478.208322</ele>
        <time>2020-02-25T06:14:36.701Z</time>
      </trkpt>
      <trkpt lat="43.519207" lon="12.721932">
        <ele>475.978205</ele>
        <time>2020-02-25T06:14:52.388Z</time>
      </trkpt>
      <trkpt lat="43.518988" lon="12.721375">
        <ele>474.521435</ele>
        <time>2020-02-25T06:14:59.928Z</time>
      </trkpt>
      <trkpt lat="43.518264" lon="12.720637">
        <ele>471.395280</ele>
        <time>2020-02-25T06:15:14.694Z</time>
      </trkpt>
      <trkpt lat="43.518055" lon="12.720507">
        <ele>470.599167</ele>
        <time>2020-02-25T06:15:18.303Z</time>
      </trkpt>
      <trkpt lat="43.517446" lon="12.719635">
        <ele>467.406723</ele>
        <time>2020-02-25T06:15:31.821Z</time>
      </trkpt>
      <trkpt lat="43.517166" lon="12.719173">
        <ele>465.774835</ele>
        <time>2020-02-25T06:15:38.530Z</time>
      </trkpt>
      <trkpt lat="43.517166" lon="12.719173">
        <ele>465.774835</ele>
        <time>2020-02-25T06:15:38.600Z</time>
      </trkpt>
      <trkpt lat="43.517166" lon="12.719173">
        <ele>465.774835</ele>
        <time>2020-02-25T06:15:39.004Z</time>
      </trkpt>
      <trkpt lat="43.516931" lon="12.718714">
        <ele>464.251992</ele>
        <time>2020-02-25T06:15:45.448Z</time>
      </trkpt>
      <trkpt lat="43.516717" lon="12.718437">
        <ele>463.155016</ele>
        <time>2020-02-25T06:15:50.441Z</time>
      </trkpt>
      <trkpt lat="43.516503" lon="12.718206">
        <ele>462.497357</ele>
        <time>2020-02-25T06:15:55.089Z</time>
      </trkpt>
      <trkpt lat="43.516315" lon="12.717838">
        <ele>462.036491</ele>
        <time>2020-02-25T06:16:00.902Z</time>
      </trkpt>
      <trkpt lat="43.516188" lon="12.717717">
        <ele>461.818557</ele>
        <time>2020-02-25T06:16:04.062Z</time>
      </trkpt>
      <trkpt lat="43.516115" lon="12.717693">
        <ele>461.712607</ele>
        <time>2020-02-25T06:16:05.397Z</time>
      </trkpt>
      <trkpt lat="43.516004" lon="12.717692">
        <ele>461.555893</ele>
        <time>2020-02-25T06:16:07.539Z</time>
      </trkpt>
      <trkpt lat="43.515985" lon="12.717539">
        <ele>461.396968</ele>
        <time>2020-02-25T06:16:09.897Z</time>
      </trkpt>
      <trkpt lat="43.515969" lon="12.717317">
        <ele>461.168561</ele>
        <time>2020-02-25T06:16:12.943Z</time>
      </trkpt>
      <trkpt lat="43.515962" lon="12.717032">
        <ele>460.876605</ele>
        <time>2020-02-25T06:16:17.128Z</time>
      </trkpt>
      <trkpt lat="43.515975" lon="12.715954">
        <ele>458.946060</ele>
        <time>2020-02-25T06:16:32.403Z</time>
      </trkpt>
      <trkpt lat="43.515957" lon="12.715704">
        <ele>458.160684</ele>
        <time>2020-02-25T06:16:35.612Z</time>
      </trkpt>
      <trkpt lat="43.515918" lon="12.715432">
        <ele>457.293913</ele>
        <time>2020-02-25T06:16:39.099Z</time>
      </trkpt>
      <trkpt lat="43.515662" lon="12.714342">
        <ele>453.712167</ele>
        <time>2020-02-25T06:16:51.758Z</time>
      </trkpt>
      <trkpt lat="43.515497" lon="12.712318">
        <ele>443.055978</ele>
        <time>2020-02-25T06:17:12.464Z</time>
      </trkpt>
      <trkpt lat="43.515374" lon="12.711437">
        <ele>437.908004</ele>
        <time>2020-02-25T06:17:21.537Z</time>
      </trkpt>
      <trkpt lat="43.514795" lon="12.709790">
        <ele>428.527246</ele>
        <time>2020-02-25T06:17:40.518Z</time>
      </trkpt>
      <trkpt lat="43.514596" lon="12.709053">
        <ele>424.669845</ele>
        <time>2020-02-25T06:17:48.817Z</time>
      </trkpt>
      <trkpt lat="43.514365" lon="12.707833">
        <ele>419.438523</ele>
        <time>2020-02-25T06:18:02.389Z</time>
      </trkpt>
      <trkpt lat="43.514336" lon="12.707426">
        <ele>417.741791</ele>
        <time>2020-02-25T06:18:06.820Z</time>
      </trkpt>
      <trkpt lat="43.514589" lon="12.706259">
        <ele>412.930803</ele>
        <time>2020-02-25T06:18:20.020Z</time>
      </trkpt>
      <trkpt lat="43.514762" lon="12.705886">
        <ele>411.277333</ele>
        <time>2020-02-25T06:18:24.821Z</time>
      </trkpt>
      <trkpt lat="43.515492" lon="12.705125">
        <ele>406.564821</ele>
        <time>2020-02-25T06:18:38.673Z</time>
      </trkpt>
      <trkpt lat="43.515748" lon="12.704945">
        <ele>405.228346</ele>
        <time>2020-02-25T06:18:43.033Z</time>
      </trkpt>
      <trkpt lat="43.516436" lon="12.704653">
        <ele>402.212537</ele>
        <time>2020-02-25T06:18:53.945Z</time>
      </trkpt>
      <trkpt lat="43.516622" lon="12.704512">
        <ele>401.323306</ele>
        <time>2020-02-25T06:18:57.202Z</time>
      </trkpt>
      <trkpt lat="43.516878" lon="12.704117">
        <ele>399.713830</ele>
        <time>2020-02-25T06:19:03.244Z</time>
      </trkpt>
      <trkpt lat="43.517208" lon="12.703177">
        <ele>398.048690</ele>
        <time>2020-02-25T06:19:15.851Z</time>
      </trkpt>
      <trkpt lat="43.517411" lon="12.702588">
        <ele>397.748199</ele>
        <time>2020-02-25T06:19:24.415Z</time>
      </trkpt>
      <trkpt lat="43.517983" lon="12.700533">
        <ele>398.692936</ele>
        <time>2020-02-25T06:20:06.886Z</time>
      </trkpt>
      <trkpt lat="43.518003" lon="12.700458">
        <ele>398.819522</ele>
        <time>2020-02-25T06:20:08.842Z</time>
      </trkpt>
      <trkpt lat="43.518195" lon="12.699769">
        <ele>399.988776</ele>
        <time>2020-02-25T06:20:26.893Z</time>
      </trkpt>
      <trkpt lat="43.518307" lon="12.699420">
        <ele>400.593341</ele>
        <time>2020-02-25T06:20:36.288Z</time>
      </trkpt>
      <trkpt lat="43.518451" lon="12.699185">
        <ele>401.080710</ele>
        <time>2020-02-25T06:20:43.973Z</time>
      </trkpt>
      <trkpt lat="43.519188" lon="12.697687">
        <ele>404.120035</ele>
        <time>2020-02-25T06:21:28.751Z</time>
      </trkpt>
      <trkpt lat="43.519318" lon="12.697283">
        <ele>404.862466</ele>
        <time>2020-02-25T06:21:37.874Z</time>
      </trkpt>
      <trkpt lat="43.519344" lon="12.697065">
        <ele>405.233570</ele>
        <time>2020-02-25T06:21:42.584Z</time>
      </trkpt>
      <trkpt lat="43.519388" lon="12.696707">
        <ele>405.176157</ele>
        <time>2020-02-25T06:21:49.319Z</time>
      </trkpt>
      <trkpt lat="43.519650" lon="12.693827">
        <ele>403.080840</ele>
        <time>2020-02-25T06:22:30.925Z</time>
      </trkpt>
      <trkpt lat="43.519733" lon="12.693443">
        <ele>402.292846</ele>
        <time>2020-02-25T06:22:35.741Z</time>
      </trkpt>
      <trkpt lat="43.519859" lon="12.693240">
        <ele>401.767360</ele>
        <time>2020-02-25T06:22:38.901Z</time>
      </trkpt>
      <trkpt lat="43.520553" lon="12.692934">
        <ele>399.791384</ele>
        <time>2020-02-25T06:22:50.447Z</time>
      </trkpt>
      <trkpt lat="43.521101" lon="12.692330">
        <ele>396.807491</ele>
        <time>2020-02-25T06:23:01.281Z</time>
      </trkpt>
      <trkpt lat="43.521524" lon="12.692122">
        <ele>394.863797</ele>
        <time>2020-02-25T06:23:08.160Z</time>
      </trkpt>
      <trkpt lat="43.522819" lon="12.691838">
        <ele>389.617393</ele>
        <time>2020-02-25T06:23:28.455Z</time>
      </trkpt>
      <trkpt lat="43.524633" lon="12.691817">
        <ele>383.886120</ele>
        <time>2020-02-25T06:23:57.825Z</time>
      </trkpt>
      <trkpt lat="43.525038" lon="12.691756">
        <ele>382.958836</ele>
        <time>2020-02-25T06:24:04.895Z</time>
      </trkpt>
      <trkpt lat="43.525087" lon="12.691733">
        <ele>382.841027</ele>
        <time>2020-02-25T06:24:05.716Z</time>
      </trkpt>
      <trkpt lat="43.525321" lon="12.691624">
        <ele>382.278872</ele>
        <time>2020-02-25T06:24:10.236Z</time>
      </trkpt>
      <trkpt lat="43.525718" lon="12.691236">
        <ele>381.245249</ele>
        <time>2020-02-25T06:24:19.029Z</time>
      </trkpt>
      <trkpt lat="43.527259" lon="12.688958">
        <ele>380.464571</ele>
        <time>2020-02-25T06:25:07.070Z</time>
      </trkpt>
      <trkpt lat="43.527429" lon="12.688684">
        <ele>380.465820</ele>
        <time>2020-02-25T06:25:13.360Z</time>
      </trkpt>
      <trkpt lat="43.527525" lon="12.688437">
        <ele>380.466791</ele>
        <time>2020-02-25T06:25:18.124Z</time>
      </trkpt>
      <trkpt lat="43.527537" lon="12.688280">
        <ele>380.467338</ele>
        <time>2020-02-25T06:25:20.846Z</time>
      </trkpt>
      <trkpt lat="43.527471" lon="12.688018">
        <ele>380.468299</ele>
        <time>2020-02-25T06:25:25.511Z</time>
      </trkpt>
      <trkpt lat="43.526704" lon="12.686961">
        <ele>378.410917</ele>
        <time>2020-02-25T06:25:49.969Z</time>
      </trkpt>
      <trkpt lat="43.526526" lon="12.686595">
        <ele>377.248955</ele>
        <time>2020-02-25T06:25:55.365Z</time>
      </trkpt>
      <trkpt lat="43.526379" lon="12.685918">
        <ele>375.385672</ele>
        <time>2020-02-25T06:26:02.929Z</time>
      </trkpt>
      <trkpt lat="43.526315" lon="12.685390">
        <ele>373.974240</ele>
        <time>2020-02-25T06:26:08.519Z</time>
      </trkpt>
      <trkpt lat="43.526391" lon="12.685053">
        <ele>372.280803</ele>
        <time>2020-02-25T06:26:12.196Z</time>
      </trkpt>
      <trkpt lat="43.526481" lon="12.684934">
        <ele>371.437261</ele>
        <time>2020-02-25T06:26:13.975Z</time>
      </trkpt>
      <trkpt lat="43.526975" lon="12.684584">
        <ele>367.679760</ele>
        <time>2020-02-25T06:26:21.879Z</time>
      </trkpt>
      <trkpt lat="43.527152" lon="12.684575">
        <ele>366.481404</ele>
        <time>2020-02-25T06:26:24.415Z</time>
      </trkpt>
      <trkpt lat="43.527461" lon="12.684719">
        <ele>364.274663</ele>
        <time>2020-02-25T06:26:29.077Z</time>
      </trkpt>
      <trkpt lat="43.527678" lon="12.685007">
        <ele>362.237146</ele>
        <time>2020-02-25T06:26:33.390Z</time>
      </trkpt>
      <trkpt lat="43.527860" lon="12.685755">
        <ele>360.770411</ele>
        <time>2020-02-25T06:26:41.804Z</time>
      </trkpt>
      <trkpt lat="43.528008" lon="12.686128">
        <ele>360.161672</ele>
        <time>2020-02-25T06:26:47.301Z</time>
      </trkpt>
      <trkpt lat="43.528811" lon="12.686699">
        <ele>358.377762</ele>
        <time>2020-02-25T06:27:06.540Z</time>
      </trkpt>
      <trkpt lat="43.529027" lon="12.686917">
        <ele>358.844544</ele>
        <time>2020-02-25T06:27:14.082Z</time>
      </trkpt>
      <trkpt lat="43.529097" lon="12.687008">
        <ele>359.179439</ele>
        <time>2020-02-25T06:27:17.020Z</time>
      </trkpt>
      <trkpt lat="43.529283" lon="12.687226">
        <ele>360.029223</ele>
        <time>2020-02-25T06:27:25.179Z</time>
      </trkpt>
      <trkpt lat="43.529361" lon="12.687305">
        <ele>360.366132</ele>
        <time>2020-02-25T06:27:28.414Z</time>
      </trkpt>
      <trkpt lat="43.529422" lon="12.687364">
        <ele>360.625518</ele>
        <time>2020-02-25T06:27:31.332Z</time>
      </trkpt>
      <trkpt lat="43.529602" lon="12.687527">
        <ele>361.375184</ele>
        <time>2020-02-25T06:27:39.438Z</time>
      </trkpt>
      <trkpt lat="43.529943" lon="12.687805">
        <ele>362.754254</ele>
        <time>2020-02-25T06:27:55.284Z</time>
      </trkpt>
      <trkpt lat="43.530661" lon="12.688392">
        <ele>365.807669</ele>
        <time>2020-02-25T06:28:30.720Z</time>
      </trkpt>
      <trkpt lat="43.530885" lon="12.688574">
        <ele>366.825141</ele>
        <time>2020-02-25T06:28:41.115Z</time>
      </trkpt>
      <trkpt lat="43.531197" lon="12.688646">
        <ele>368.063196</ele>
        <time>2020-02-25T06:28:54.206Z</time>
      </trkpt>
      <trkpt lat="43.531299" lon="12.688619">
        <ele>368.469682</ele>
        <time>2020-02-25T06:28:59.224Z</time>
      </trkpt>
      <trkpt lat="43.531383" lon="12.688575">
        <ele>368.821343</ele>
        <time>2020-02-25T06:29:02.416Z</time>
      </trkpt>
      <trkpt lat="43.532099" lon="12.687992">
        <ele>371.497355</ele>
        <time>2020-02-25T06:29:31.249Z</time>
      </trkpt>
      <trkpt lat="43.533143" lon="12.687143">
        <ele>371.383940</ele>
        <time>2020-02-25T06:29:59.122Z</time>
      </trkpt>
      <trkpt lat="43.535177" lon="12.685146">
        <ele>365.235893</ele>
        <time>2020-02-25T06:30:41.053Z</time>
      </trkpt>
      <trkpt lat="43.535219" lon="12.685077">
        <ele>364.938152</ele>
        <time>2020-02-25T06:30:41.983Z</time>
      </trkpt>
      <trkpt lat="43.535373" lon="12.684825">
        <ele>363.848963</ele>
        <time>2020-02-25T06:30:45.725Z</time>
      </trkpt>
      <trkpt lat="43.535528" lon="12.684497">
        <ele>362.555079</ele>
        <time>2020-02-25T06:30:49.968Z</time>
      </trkpt>
      <trkpt lat="43.536881" lon="12.681487">
        <ele>350.631013</ele>
        <time>2020-02-25T06:31:28.816Z</time>
      </trkpt>
      <trkpt lat="43.537043" lon="12.680892">
        <ele>348.944972</ele>
        <time>2020-02-25T06:31:36.253Z</time>
      </trkpt>
      <trkpt lat="43.537335" lon="12.679096">
        <ele>344.999312</ele>
        <time>2020-02-25T06:31:58.700Z</time>
      </trkpt>
      <trkpt lat="43.537579" lon="12.678489">
        <ele>343.215443</ele>
        <time>2020-02-25T06:32:07.294Z</time>
      </trkpt>
      <trkpt lat="43.537882" lon="12.678132">
        <ele>341.660743</ele>
        <time>2020-02-25T06:32:13.924Z</time>
      </trkpt>
      <trkpt lat="43.538941" lon="12.677190">
        <ele>336.376712</ele>
        <time>2020-02-25T06:32:33.308Z</time>
      </trkpt>
      <trkpt lat="43.539740" lon="12.676483">
        <ele>330.659054</ele>
        <time>2020-02-25T06:32:47.101Z</time>
      </trkpt>
      <trkpt lat="43.540186" lon="12.676087">
        <ele>327.464283</ele>
        <time>2020-02-25T06:32:54.828Z</time>
      </trkpt>
      <trkpt lat="43.540357" lon="12.676009">
        <ele>326.381448</ele>
        <time>2020-02-25T06:32:57.425Z</time>
      </trkpt>
      <trkpt lat="43.540444" lon="12.675995">
        <ele>325.858975</ele>
        <time>2020-02-25T06:32:58.715Z</time>
      </trkpt>
      <trkpt lat="43.540536" lon="12.676012">
        <ele>325.305294</ele>
        <time>2020-02-25T06:33:00.035Z</time>
      </trkpt>
      <trkpt lat="43.540580" lon="12.676055">
        <ele>324.983649</ele>
        <time>2020-02-25T06:33:00.825Z</time>
      </trkpt>
      <trkpt lat="43.540644" lon="12.676084">
        <ele>324.581823</ele>
        <time>2020-02-25T06:33:01.786Z</time>
      </trkpt>
      <trkpt lat="43.540711" lon="12.676085">
        <ele>324.182145</ele>
        <time>2020-02-25T06:33:02.769Z</time>
      </trkpt>
      <trkpt lat="43.540776" lon="12.676058">
        <ele>323.777225</ele>
        <time>2020-02-25T06:33:03.756Z</time>
      </trkpt>
      <trkpt lat="43.540824" lon="12.676012">
        <ele>323.428598</ele>
        <time>2020-02-25T06:33:04.598Z</time>
      </trkpt>
      <trkpt lat="43.540887" lon="12.675877">
        <ele>322.734362</ele>
        <time>2020-02-25T06:33:06.298Z</time>
      </trkpt>
      <trkpt lat="43.540896" lon="12.675797">
        <ele>322.384307</ele>
        <time>2020-02-25T06:33:07.139Z</time>
      </trkpt>
      <trkpt lat="43.540889" lon="12.675714">
        <ele>322.023001</ele>
        <time>2020-02-25T06:33:08.031Z</time>
      </trkpt>
      <trkpt lat="43.540865" lon="12.675637">
        <ele>321.660585</ele>
        <time>2020-02-25T06:33:08.923Z</time>
      </trkpt>
      <trkpt lat="43.540827" lon="12.675572">
        <ele>321.299515</ele>
        <time>2020-02-25T06:33:09.792Z</time>
      </trkpt>
      <trkpt lat="43.540775" lon="12.675522">
        <ele>320.921424</ele>
        <time>2020-02-25T06:33:10.726Z</time>
      </trkpt>
      <trkpt lat="43.540742" lon="12.675370">
        <ele>320.235341</ele>
        <time>2020-02-25T06:33:12.394Z</time>
      </trkpt>
      <trkpt lat="43.540737" lon="12.675076">
        <ele>318.963754</ele>
        <time>2020-02-25T06:33:15.553Z</time>
      </trkpt>
      <trkpt lat="43.540868" lon="12.673363">
        <ele>312.215136</ele>
        <time>2020-02-25T06:33:34.392Z</time>
      </trkpt>
      <trkpt lat="43.540960" lon="12.672620">
        <ele>309.480894</ele>
        <time>2020-02-25T06:33:42.556Z</time>
      </trkpt>
      <trkpt lat="43.541102" lon="12.672092">
        <ele>307.438027</ele>
        <time>2020-02-25T06:33:48.686Z</time>
      </trkpt>
      <trkpt lat="43.541480" lon="12.671189">
        <ele>305.555637</ele>
        <time>2020-02-25T06:34:00.761Z</time>
      </trkpt>
      <trkpt lat="43.541592" lon="12.670920">
        <ele>305.098221</ele>
        <time>2020-02-25T06:34:04.672Z</time>
      </trkpt>
      <trkpt lat="43.541901" lon="12.670183">
        <ele>303.842828</ele>
        <time>2020-02-25T06:34:16.257Z</time>
      </trkpt>
      <trkpt lat="43.541943" lon="12.670083">
        <ele>303.672415</ele>
        <time>2020-02-25T06:34:18.047Z</time>
      </trkpt>
      <trkpt lat="43.542141" lon="12.669595">
        <ele>303.327121</ele>
        <time>2020-02-25T06:34:27.086Z</time>
      </trkpt>
      <trkpt lat="43.542622" lon="12.668126">
        <ele>304.200649</ele>
        <time>2020-02-25T06:34:58.540Z</time>
      </trkpt>
      <trkpt lat="43.542792" lon="12.666880">
        <ele>304.323711</ele>
        <time>2020-02-25T06:35:21.800Z</time>
      </trkpt>
      <trkpt lat="43.542882" lon="12.666591">
        <ele>304.215289</ele>
        <time>2020-02-25T06:35:26.935Z</time>
      </trkpt>
      <trkpt lat="43.543011" lon="12.666286">
        <ele>304.093568</ele>
        <time>2020-02-25T06:35:32.226Z</time>
      </trkpt>
      <trkpt lat="43.543174" lon="12.665899">
        <ele>303.939286</ele>
        <time>2020-02-25T06:35:38.637Z</time>
      </trkpt>
      <trkpt lat="43.543268" lon="12.665658">
        <ele>303.844952</ele>
        <time>2020-02-25T06:35:42.477Z</time>
      </trkpt>
      <trkpt lat="43.543335" lon="12.665450">
        <ele>303.766495</ele>
        <time>2020-02-25T06:35:45.494Z</time>
      </trkpt>
      <trkpt lat="43.543432" lon="12.665085">
        <ele>303.380976</ele>
        <time>2020-02-25T06:35:50.637Z</time>
      </trkpt>
      <trkpt lat="43.543539" lon="12.664729">
        <ele>302.642621</ele>
        <time>2020-02-25T06:35:55.559Z</time>
      </trkpt>
      <trkpt lat="43.543632" lon="12.664452">
        <ele>302.057766</ele>
        <time>2020-02-25T06:35:59.364Z</time>
      </trkpt>
      <trkpt lat="43.544310" lon="12.662675">
        <ele>297.801776</ele>
        <time>2020-02-25T06:36:23.399Z</time>
      </trkpt>
      <trkpt lat="43.544442" lon="12.662332">
        <ele>296.637312</ele>
        <time>2020-02-25T06:36:27.906Z</time>
      </trkpt>
      <trkpt lat="43.544770" lon="12.661461">
        <ele>293.694168</ele>
        <time>2020-02-25T06:36:38.815Z</time>
      </trkpt>
      <trkpt lat="43.545027" lon="12.660885">
        <ele>291.666041</ele>
        <time>2020-02-25T06:36:46.292Z</time>
      </trkpt>
      <trkpt lat="43.545271" lon="12.660570">
        <ele>290.491649</ele>
        <time>2020-02-25T06:36:51.444Z</time>
      </trkpt>
      <trkpt lat="43.545437" lon="12.660408">
        <ele>289.795161</ele>
        <time>2020-02-25T06:36:54.591Z</time>
      </trkpt>
      <trkpt lat="43.545530" lon="12.660340">
        <ele>289.434628</ele>
        <time>2020-02-25T06:36:56.281Z</time>
      </trkpt>
      <trkpt lat="43.545597" lon="12.660283">
        <ele>289.165003</ele>
        <time>2020-02-25T06:36:57.545Z</time>
      </trkpt>
      <trkpt lat="43.545662" lon="12.660208">
        <ele>288.874750</ele>
        <time>2020-02-25T06:36:58.936Z</time>
      </trkpt>
      <trkpt lat="43.545698" lon="12.660159">
        <ele>288.701526</ele>
        <time>2020-02-25T06:36:59.701Z</time>
      </trkpt>
      <trkpt lat="43.545738" lon="12.660158">
        <ele>288.564489</ele>
        <time>2020-02-25T06:37:00.329Z</time>
      </trkpt>
      <trkpt lat="43.545776" lon="12.660138">
        <ele>288.425175</ele>
        <time>2020-02-25T06:37:00.974Z</time>
      </trkpt>
      <trkpt lat="43.545805" lon="12.660106">
        <ele>288.297975</ele>
        <time>2020-02-25T06:37:01.595Z</time>
      </trkpt>
      <trkpt lat="43.545825" lon="12.660064">
        <ele>288.173208</ele>
        <time>2020-02-25T06:37:02.220Z</time>
      </trkpt>
      <trkpt lat="43.545830" lon="12.660042">
        <ele>288.115964</ele>
        <time>2020-02-25T06:37:02.504Z</time>
      </trkpt>
      <trkpt lat="43.545875" lon="12.659989">
        <ele>287.913295</ele>
        <time>2020-02-25T06:37:03.457Z</time>
      </trkpt>
      <trkpt lat="43.545933" lon="12.659907">
        <ele>287.628833</ele>
        <time>2020-02-25T06:37:04.866Z</time>
      </trkpt>
      <trkpt lat="43.546008" lon="12.659784">
        <ele>287.229762</ele>
        <time>2020-02-25T06:37:06.697Z</time>
      </trkpt>
      <trkpt lat="43.546076" lon="12.659628">
        <ele>286.777805</ele>
        <time>2020-02-25T06:37:08.956Z</time>
      </trkpt>
      <trkpt lat="43.546548" lon="12.658306">
        <ele>284.222254</ele>
        <time>2020-02-25T06:37:27.272Z</time>
      </trkpt>
      <trkpt lat="43.546849" lon="12.657463">
        <ele>283.052253</ele>
        <time>2020-02-25T06:37:40.477Z</time>
      </trkpt>
      <trkpt lat="43.546922" lon="12.657216">
        <ele>282.720150</ele>
        <time>2020-02-25T06:37:43.893Z</time>
      </trkpt>
      <trkpt lat="43.546979" lon="12.656951">
        <ele>282.375997</ele>
        <time>2020-02-25T06:37:47.711Z</time>
      </trkpt>
      <trkpt lat="43.547009" lon="12.656726">
        <ele>282.048987</ele>
        <time>2020-02-25T06:37:50.620Z</time>
      </trkpt>
      <trkpt lat="43.547021" lon="12.656526">
        <ele>281.729471</ele>
        <time>2020-02-25T06:37:53.412Z</time>
      </trkpt>
      <trkpt lat="43.547019" lon="12.656316">
        <ele>281.395094</ele>
        <time>2020-02-25T06:37:56.049Z</time>
      </trkpt>
      <trkpt lat="43.547010" lon="12.656135">
        <ele>281.106241</ele>
        <time>2020-02-25T06:37:58.427Z</time>
      </trkpt>
      <trkpt lat="43.546972" lon="12.655780">
        <ele>280.534903</ele>
        <time>2020-02-25T06:38:02.973Z</time>
      </trkpt>
      <trkpt lat="43.546923" lon="12.655515">
        <ele>280.099474</ele>
        <time>2020-02-25T06:38:06.573Z</time>
      </trkpt>
      <trkpt lat="43.546854" lon="12.655286">
        <ele>279.704625</ele>
        <time>2020-02-25T06:38:09.589Z</time>
      </trkpt>
      <trkpt lat="43.546566" lon="12.654737">
        <ele>278.625624</ele>
        <time>2020-02-25T06:38:18.197Z</time>
      </trkpt>
      <trkpt lat="43.545439" lon="12.653169">
        <ele>272.474288</ele>
        <time>2020-02-25T06:38:44.081Z</time>
      </trkpt>
      <trkpt lat="43.545343" lon="12.652979">
        <ele>271.800077</ele>
        <time>2020-02-25T06:38:46.526Z</time>
      </trkpt>
      <trkpt lat="43.545286" lon="12.652727">
        <ele>271.011786</ele>
        <time>2020-02-25T06:38:49.374Z</time>
      </trkpt>
      <trkpt lat="43.545283" lon="12.652553">
        <ele>270.228407</ele>
        <time>2020-02-25T06:38:51.159Z</time>
      </trkpt>
      <trkpt lat="43.545306" lon="12.652387">
        <ele>269.467728</ele>
        <time>2020-02-25T06:38:52.931Z</time>
      </trkpt>
      <trkpt lat="43.545340" lon="12.652254">
        <ele>268.832967</ele>
        <time>2020-02-25T06:38:54.406Z</time>
      </trkpt>
      <trkpt lat="43.545965" lon="12.650354">
        <ele>259.897621</ele>
        <time>2020-02-25T06:39:16.122Z</time>
      </trkpt>
      <trkpt lat="43.545708" lon="12.650214">
        <ele>259.892259</ele>
        <time>2020-02-25T06:39:20.508Z</time>
      </trkpt>
      <trkpt lat="43.545442" lon="12.650073">
        <ele>259.886728</ele>
        <time>2020-02-25T06:39:26.015Z</time>
      </trkpt>
      <trkpt lat="43.545198" lon="12.649937">
        <ele>259.881621</ele>
        <time>2020-02-25T06:39:32.942Z</time>
      </trkpt>
      <trkpt lat="43.544979" lon="12.649815">
        <ele>259.877038</ele>
        <time>2020-02-25T06:39:38.204Z</time>
      </trkpt>
      <trkpt lat="43.544883" lon="12.649734">
        <ele>259.874854</ele>
        <time>2020-02-25T06:39:42.115Z</time>
      </trkpt>
      <trkpt lat="43.544740" lon="12.649572">
        <ele>259.871263</ele>
        <time>2020-02-25T06:39:46.358Z</time>
      </trkpt>
      <trkpt lat="43.544783" lon="12.649427">
        <ele>259.869059</ele>
        <time>2020-02-25T06:39:50.571Z</time>
      </trkpt>
      <trkpt lat="43.544810" lon="12.649312">
        <ele>259.867358</ele>
        <time>2020-02-25T06:39:53.925Z</time>
      </trkpt>
      <trkpt lat="43.544175" lon="12.648901">
        <ele>263.014458</ele>
        <time>2020-02-25T06:40:23.392Z</time>
      </trkpt>
      <trkpt lat="43.543373" lon="12.648416">
        <ele>268.163624</ele>
        <time>2020-02-25T06:41:09.710Z</time>
      </trkpt>
      <trkpt lat="43.543429" lon="12.648250">
        <ele>268.944046</ele>
        <time>2020-02-25T06:41:18.241Z</time>
      </trkpt>
      <trkpt lat="43.543487" lon="12.648076">
        <ele>269.760354</ele>
        <time>2020-02-25T06:41:24.062Z</time>
      </trkpt>
      <trkpt lat="43.543609" lon="12.647716">
        <ele>270.787539</ele>
        <time>2020-02-25T06:41:37.053Z</time>
      </trkpt>
      <trkpt lat="43.543726" lon="12.647376">
        <ele>271.336555</ele>
        <time>2020-02-25T06:41:46.984Z</time>
      </trkpt>
      <trkpt lat="43.543902" lon="12.647135">
        <ele>271.835592</ele>
        <time>2020-02-25T06:41:53.968Z</time>
      </trkpt>
      <trkpt lat="43.543996" lon="12.647092">
        <ele>272.034889</ele>
        <time>2020-02-25T06:41:58.246Z</time>
      </trkpt>
      <trkpt lat="43.544402" lon="12.646915">
        <ele>272.891764</ele>
        <time>2020-02-25T06:42:11.784Z</time>
      </trkpt>
      <trkpt lat="43.544402" lon="12.646915">
        <ele>272.891764</ele>
        <time>2020-02-25T06:42:11.795Z</time>
      </trkpt>
      <trkpt lat="43.544584" lon="12.647039">
        <ele>273.300257</ele>
        <time>2020-02-25T06:42:18.150Z</time>
      </trkpt>
      <trkpt lat="43.544450" lon="12.647404">
        <ele>273.897078</ele>
        <time>2020-02-25T06:42:24.403Z</time>
      </trkpt>
      <trkpt lat="43.544349" lon="12.647845">
        <ele>272.995314</ele>
        <time>2020-02-25T06:42:30.255Z</time>
      </trkpt>
      <trkpt lat="43.544352" lon="12.647970">
        <ele>272.615365</ele>
        <time>2020-02-25T06:42:31.783Z</time>
      </trkpt>
      <trkpt lat="43.544313" lon="12.648176">
        <ele>271.968557</ele>
        <time>2020-02-25T06:42:34.319Z</time>
      </trkpt>
      <trkpt lat="43.544914" lon="12.648570">
        <ele>269.179746</ele>
        <time>2020-02-25T06:42:44.623Z</time>
      </trkpt>
      <trkpt lat="43.544872" lon="12.648949">
        <ele>268.015003</ele>
        <time>2020-02-25T06:42:49.037Z</time>
      </trkpt>
      <trkpt lat="43.545403" lon="12.649329">
        <ele>265.694405</ele>
        <time>2020-02-25T06:42:58.860Z</time>
      </trkpt>
      <trkpt lat="43.545459" lon="12.649449">
        <ele>265.340581</ele>
        <time>2020-02-25T06:43:00.535Z</time>
      </trkpt>
      <trkpt lat="43.545713" lon="12.649538">
        <ele>264.444236</ele>
        <time>2020-02-25T06:43:04.603Z</time>
      </trkpt>
      <trkpt lat="43.545795" lon="12.649511">
        <ele>264.155892</ele>
        <time>2020-02-25T06:43:06.010Z</time>
      </trkpt>
      <trkpt lat="43.545928" lon="12.649494">
        <ele>263.699040</ele>
        <time>2020-02-25T06:43:08.356Z</time>
      </trkpt>
      <trkpt lat="43.546012" lon="12.649498">
        <ele>263.411562</ele>
        <time>2020-02-25T06:43:09.555Z</time>
      </trkpt>
      <trkpt lat="43.546197" lon="12.649558">
        <ele>262.761553</ele>
        <time>2020-02-25T06:43:12.785Z</time>
      </trkpt>
      <trkpt lat="43.546442" lon="12.649717">
        <ele>261.835492</ele>
        <time>2020-02-25T06:43:17.355Z</time>
      </trkpt>
      <trkpt lat="43.546196" lon="12.650469">
        <ele>260.108387</ele>
        <time>2020-02-25T06:43:29.872Z</time>
      </trkpt>
      <trkpt lat="43.546196" lon="12.650469">
        <ele>260.108387</ele>
        <time>2020-02-25T06:43:29.936Z</time>
      </trkpt>
      <trkpt lat="43.546458" lon="12.650622">
        <ele>259.669401</ele>
        <time>2020-02-25T06:43:38.785Z</time>
      </trkpt>
      <trkpt lat="43.546693" lon="12.650759">
        <ele>259.275755</ele>
        <time>2020-02-25T06:43:43.316Z</time>
      </trkpt>
      <trkpt lat="43.547018" lon="12.650948">
        <ele>258.731555</ele>
        <time>2020-02-25T06:43:49.580Z</time>
      </trkpt>
      <trkpt lat="43.547264" lon="12.651079">
        <ele>258.324687</ele>
        <time>2020-02-25T06:43:54.122Z</time>
      </trkpt>
      <trkpt lat="43.547459" lon="12.651129">
        <ele>258.018651</ele>
        <time>2020-02-25T06:43:58.441Z</time>
      </trkpt>
      <trkpt lat="43.547747" lon="12.651113">
        <ele>257.549088</ele>
        <time>2020-02-25T06:44:03.157Z</time>
      </trkpt>
      <trkpt lat="43.547841" lon="12.651082">
        <ele>257.221753</ele>
        <time>2020-02-25T06:44:05.738Z</time>
      </trkpt>
      <trkpt lat="43.548401" lon="12.650902">
        <ele>255.274309</ele>
        <time>2020-02-25T06:44:15.445Z</time>
      </trkpt>
      <trkpt lat="43.548684" lon="12.650819">
        <ele>254.294405</ele>
        <time>2020-02-25T06:44:20.295Z</time>
      </trkpt>
      <trkpt lat="43.548772" lon="12.650794">
        <ele>253.990107</ele>
        <time>2020-02-25T06:44:21.667Z</time>
      </trkpt>
      <trkpt lat="43.549199" lon="12.650689">
        <ele>252.521120</ele>
        <time>2020-02-25T06:44:28.491Z</time>
      </trkpt>
      <trkpt lat="43.549502" lon="12.650621">
        <ele>251.478327</ele>
        <time>2020-02-25T06:44:33.091Z</time>
      </trkpt>
      <trkpt lat="43.549673" lon="12.650604">
        <ele>250.814400</ele>
        <time>2020-02-25T06:44:35.683Z</time>
      </trkpt>
      <trkpt lat="43.549693" lon="12.650617">
        <ele>250.728784</ele>
        <time>2020-02-25T06:44:36.006Z</time>
      </trkpt>
      <trkpt lat="43.549715" lon="12.650618">
        <ele>250.643541</ele>
        <time>2020-02-25T06:44:36.344Z</time>
      </trkpt>
      <trkpt lat="43.549736" lon="12.650608">
        <ele>250.557509</ele>
        <time>2020-02-25T06:44:36.672Z</time>
      </trkpt>
      <trkpt lat="43.549849" lon="12.650658">
        <ele>250.097956</ele>
        <time>2020-02-25T06:44:38.394Z</time>
      </trkpt>
      <trkpt lat="43.550250" lon="12.650892">
        <ele>248.411877</ele>
        <time>2020-02-25T06:44:44.916Z</time>
      </trkpt>
      <trkpt lat="43.550570" lon="12.651056">
        <ele>247.089926</ele>
        <time>2020-02-25T06:44:50.176Z</time>
      </trkpt>
      <trkpt lat="43.551472" lon="12.651480">
        <ele>244.300218</ele>
        <time>2020-02-25T06:45:06.509Z</time>
      </trkpt>
      <trkpt lat="43.551675" lon="12.651570">
        <ele>244.128014</ele>
        <time>2020-02-25T06:45:10.767Z</time>
      </trkpt>
      <trkpt lat="43.552404" lon="12.651987">
        <ele>243.490661</ele>
        <time>2020-02-25T06:45:26.925Z</time>
      </trkpt>
      <trkpt lat="43.552865" lon="12.652228">
        <ele>243.092517</ele>
        <time>2020-02-25T06:45:37.846Z</time>
      </trkpt>
      <trkpt lat="43.553437" lon="12.652382">
        <ele>242.936287</ele>
        <time>2020-02-25T06:45:51.054Z</time>
      </trkpt>
      <trkpt lat="43.554233" lon="12.652425">
        <ele>242.729838</ele>
        <time>2020-02-25T06:46:07.904Z</time>
      </trkpt>
      <trkpt lat="43.555552" lon="12.652305">
        <ele>241.964734</ele>
        <time>2020-02-25T06:46:34.803Z</time>
      </trkpt>
      <trkpt lat="43.556000" lon="12.652416">
        <ele>241.631444</ele>
        <time>2020-02-25T06:46:43.759Z</time>
      </trkpt>
      <trkpt lat="43.556342" lon="12.652708">
        <ele>241.336956</ele>
        <time>2020-02-25T06:46:51.576Z</time>
      </trkpt>
      <trkpt lat="43.556684" lon="12.653137">
        <ele>240.848638</ele>
        <time>2020-02-25T06:47:00.482Z</time>
      </trkpt>
      <trkpt lat="43.556964" lon="12.653361">
        <ele>240.494480</ele>
        <time>2020-02-25T06:47:06.637Z</time>
      </trkpt>
      <trkpt lat="43.557797" lon="12.653884">
        <ele>239.493052</ele>
        <time>2020-02-25T06:47:23.807Z</time>
      </trkpt>
      <trkpt lat="43.558248" lon="12.653997">
        <ele>239.137122</ele>
        <time>2020-02-25T06:47:32.767Z</time>
      </trkpt>
      <trkpt lat="43.558748" lon="12.654102">
        <ele>238.819351</ele>
        <time>2020-02-25T06:47:42.889Z</time>
      </trkpt>
      <trkpt lat="43.559110" lon="12.654176">
        <ele>238.589421</ele>
        <time>2020-02-25T06:47:50.432Z</time>
      </trkpt>
      <trkpt lat="43.559492" lon="12.654230">
        <ele>238.348151</ele>
        <time>2020-02-25T06:47:58.270Z</time>
      </trkpt>
      <trkpt lat="43.560271" lon="12.654219">
        <ele>238.359224</ele>
        <time>2020-02-25T06:48:14.677Z</time>
      </trkpt>
      <trkpt lat="43.560439" lon="12.654278">
        <ele>238.408449</ele>
        <time>2020-02-25T06:48:18.511Z</time>
      </trkpt>
      <trkpt lat="43.560442" lon="12.654279">
        <ele>238.409325</ele>
        <time>2020-02-25T06:48:18.602Z</time>
      </trkpt>
      <trkpt lat="43.560631" lon="12.654407">
        <ele>238.469108</ele>
        <time>2020-02-25T06:48:23.290Z</time>
      </trkpt>
      <trkpt lat="43.560768" lon="12.654555">
        <ele>238.518512</ele>
        <time>2020-02-25T06:48:27.183Z</time>
      </trkpt>
      <trkpt lat="43.561387" lon="12.655584">
        <ele>239.473229</ele>
        <time>2020-02-25T06:48:51.464Z</time>
      </trkpt>
      <trkpt lat="43.561544" lon="12.655810">
        <ele>240.088018</ele>
        <time>2020-02-25T06:48:58.644Z</time>
      </trkpt>
      <trkpt lat="43.562410" lon="12.656605">
        <ele>242.906609</ele>
        <time>2020-02-25T06:49:35.734Z</time>
      </trkpt>
      <trkpt lat="43.562564" lon="12.656667">
        <ele>243.341330</ele>
        <time>2020-02-25T06:49:40.996Z</time>
      </trkpt>
      <trkpt lat="43.562757" lon="12.656655">
        <ele>243.888408</ele>
        <time>2020-02-25T06:49:48.534Z</time>
      </trkpt>
      <trkpt lat="43.562851" lon="12.656719">
        <ele>244.196626</ele>
        <time>2020-02-25T06:49:52.273Z</time>
      </trkpt>
      <trkpt lat="43.562888" lon="12.656805">
        <ele>244.409736</ele>
        <time>2020-02-25T06:49:54.475Z</time>
      </trkpt>
      <trkpt lat="43.562904" lon="12.656917">
        <ele>244.652973</ele>
        <time>2020-02-25T06:49:58.240Z</time>
      </trkpt>
      <trkpt lat="43.562890" lon="12.656962">
        <ele>244.757321</ele>
        <time>2020-02-25T06:49:59.511Z</time>
      </trkpt>
      <trkpt lat="43.562881" lon="12.657071">
        <ele>244.991076</ele>
        <time>2020-02-25T06:50:02.339Z</time>
      </trkpt>
      <trkpt lat="43.562893" lon="12.657151">
        <ele>245.165150</ele>
        <time>2020-02-25T06:50:04.550Z</time>
      </trkpt>
      <trkpt lat="43.562933" lon="12.657243">
        <ele>245.393759</ele>
        <time>2020-02-25T06:50:07.011Z</time>
      </trkpt>
      <trkpt lat="43.562982" lon="12.657300">
        <ele>245.582204</ele>
        <time>2020-02-25T06:50:09.569Z</time>
      </trkpt>
      <trkpt lat="43.563041" lon="12.657333">
        <ele>245.769402</ele>
        <time>2020-02-25T06:50:12.205Z</time>
      </trkpt>
      <trkpt lat="43.563100" lon="12.657341">
        <ele>245.943728</ele>
        <time>2020-02-25T06:50:14.211Z</time>
      </trkpt>
      <trkpt lat="43.563161" lon="12.657325">
        <ele>246.126310</ele>
        <time>2020-02-25T06:50:16.412Z</time>
      </trkpt>
      <trkpt lat="43.563227" lon="12.657273">
        <ele>246.349785</ele>
        <time>2020-02-25T06:50:18.932Z</time>
      </trkpt>
      <trkpt lat="43.563274" lon="12.657196">
        <ele>246.564304</ele>
        <time>2020-02-25T06:50:21.226Z</time>
      </trkpt>
      <trkpt lat="43.563301" lon="12.657078">
        <ele>246.827969</ele>
        <time>2020-02-25T06:50:24.923Z</time>
      </trkpt>
      <trkpt lat="43.563360" lon="12.656991">
        <ele>247.081864</ele>
        <time>2020-02-25T06:50:27.745Z</time>
      </trkpt>
      <trkpt lat="43.563495" lon="12.656866">
        <ele>247.559904</ele>
        <time>2020-02-25T06:50:32.679Z</time>
      </trkpt>
      <trkpt lat="43.563583" lon="12.656853">
        <ele>247.820148</ele>
        <time>2020-02-25T06:50:36.342Z</time>
      </trkpt>
      <trkpt lat="43.563797" lon="12.657020">
        <ele>248.543057</ele>
        <time>2020-02-25T06:50:44.015Z</time>
      </trkpt>
      <trkpt lat="43.563881" lon="12.657197">
        <ele>248.931178</ele>
        <time>2020-02-25T06:50:48.743Z</time>
      </trkpt>
      <trkpt lat="43.563991" lon="12.657539">
        <ele>249.299835</ele>
        <time>2020-02-25T06:50:55.751Z</time>
      </trkpt>
      <trkpt lat="43.564070" lon="12.657766">
        <ele>249.547943</ele>
        <time>2020-02-25T06:51:00.369Z</time>
      </trkpt>
      <trkpt lat="43.564275" lon="12.658119">
        <ele>249.993647</ele>
        <time>2020-02-25T06:51:08.806Z</time>
      </trkpt>
      <trkpt lat="43.564541" lon="12.658259">
        <ele>250.380736</ele>
        <time>2020-02-25T06:51:16.536Z</time>
      </trkpt>
      <trkpt lat="43.564655" lon="12.658271">
        <ele>250.536191</ele>
        <time>2020-02-25T06:51:19.757Z</time>
      </trkpt>
      <trkpt lat="43.564767" lon="12.658317">
        <ele>250.695078</ele>
        <time>2020-02-25T06:51:22.904Z</time>
      </trkpt>
      <trkpt lat="43.564826" lon="12.658389">
        <ele>250.802165</ele>
        <time>2020-02-25T06:51:25.149Z</time>
      </trkpt>
      <trkpt lat="43.564859" lon="12.658476">
        <ele>250.898914</ele>
        <time>2020-02-25T06:51:27.124Z</time>
      </trkpt>
      <trkpt lat="43.564895" lon="12.658581">
        <ele>251.013359</ele>
        <time>2020-02-25T06:51:29.538Z</time>
      </trkpt>
      <trkpt lat="43.564932" lon="12.658628">
        <ele>251.081734</ele>
        <time>2020-02-25T06:51:30.939Z</time>
      </trkpt>
      <trkpt lat="43.564998" lon="12.658665">
        <ele>251.178596</ele>
        <time>2020-02-25T06:51:32.886Z</time>
      </trkpt>
      <trkpt lat="43.565432" lon="12.658872">
        <ele>251.622252</ele>
        <time>2020-02-25T06:51:45.725Z</time>
      </trkpt>
      <trkpt lat="43.565883" lon="12.658909">
        <ele>252.005344</ele>
        <time>2020-02-25T06:51:58.544Z</time>
      </trkpt>
      <trkpt lat="43.566635" lon="12.658531">
        <ele>252.683965</ele>
        <time>2020-02-25T06:52:18.604Z</time>
      </trkpt>
      <trkpt lat="43.566919" lon="12.658556">
        <ele>252.738759</ele>
        <time>2020-02-25T06:52:24.458Z</time>
      </trkpt>
      <trkpt lat="43.567014" lon="12.658610">
        <ele>252.615642</ele>
        <time>2020-02-25T06:52:27.360Z</time>
      </trkpt>
      <trkpt lat="43.567122" lon="12.658681">
        <ele>252.472291</ele>
        <time>2020-02-25T06:52:29.670Z</time>
      </trkpt>
      <trkpt lat="43.567362" lon="12.658853">
        <ele>252.148231</ele>
        <time>2020-02-25T06:52:35.213Z</time>
      </trkpt>
      <trkpt lat="43.567434" lon="12.658973">
        <ele>252.012954</ele>
        <time>2020-02-25T06:52:37.278Z</time>
      </trkpt>
      <trkpt lat="43.567464" lon="12.659121">
        <ele>251.879518</ele>
        <time>2020-02-25T06:52:39.210Z</time>
      </trkpt>
      <trkpt lat="43.567499" lon="12.659481">
        <ele>251.564144</ele>
        <time>2020-02-25T06:52:44.335Z</time>
      </trkpt>
      <trkpt lat="43.567616" lon="12.659881">
        <ele>251.189609</ele>
        <time>2020-02-25T06:52:50.015Z</time>
      </trkpt>
      <trkpt lat="43.567882" lon="12.660283">
        <ele>250.716924</ele>
        <time>2020-02-25T06:52:56.900Z</time>
      </trkpt>
      <trkpt lat="43.568128" lon="12.660487">
        <ele>250.158174</ele>
        <time>2020-02-25T06:53:01.763Z</time>
      </trkpt>
      <trkpt lat="43.568946" lon="12.661043">
        <ele>248.331050</ele>
        <time>2020-02-25T06:53:17.627Z</time>
      </trkpt>
      <trkpt lat="43.571045" lon="12.662131">
        <ele>244.286019</ele>
        <time>2020-02-25T06:53:58.139Z</time>
      </trkpt>
      <trkpt lat="43.571519" lon="12.662456">
        <ele>243.281037</ele>
        <time>2020-02-25T06:54:07.453Z</time>
      </trkpt>
      <trkpt lat="43.571812" lon="12.662736">
        <ele>242.573810</ele>
        <time>2020-02-25T06:54:13.718Z</time>
      </trkpt>
      <trkpt lat="43.572201" lon="12.663108">
        <ele>241.634652</ele>
        <time>2020-02-25T06:54:22.120Z</time>
      </trkpt>
      <trkpt lat="43.572246" lon="12.663143">
        <ele>241.532147</ele>
        <time>2020-02-25T06:54:22.991Z</time>
      </trkpt>
      <trkpt lat="43.572369" lon="12.663239">
        <ele>241.251730</ele>
        <time>2020-02-25T06:54:25.442Z</time>
      </trkpt>
      <trkpt lat="43.573792" lon="12.663823">
        <ele>238.694629</ele>
        <time>2020-02-25T06:54:51.417Z</time>
      </trkpt>
      <trkpt lat="43.573897" lon="12.663915">
        <ele>238.493413</ele>
        <time>2020-02-25T06:54:53.612Z</time>
      </trkpt>
      <trkpt lat="43.573995" lon="12.664036">
        <ele>238.280682</ele>
        <time>2020-02-25T06:54:56.217Z</time>
      </trkpt>
      <trkpt lat="43.574143" lon="12.664408">
        <ele>237.783227</ele>
        <time>2020-02-25T06:55:02.130Z</time>
      </trkpt>
      <trkpt lat="43.574267" lon="12.664970">
        <ele>237.408018</ele>
        <time>2020-02-25T06:55:10.598Z</time>
      </trkpt>
      <trkpt lat="43.574420" lon="12.665351">
        <ele>237.290746</ele>
        <time>2020-02-25T06:55:16.942Z</time>
      </trkpt>
      <trkpt lat="43.574721" lon="12.665719">
        <ele>237.141331</ele>
        <time>2020-02-25T06:55:25.311Z</time>
      </trkpt>
      <trkpt lat="43.574978" lon="12.665921">
        <ele>237.031435</ele>
        <time>2020-02-25T06:55:32.138Z</time>
      </trkpt>
      <trkpt lat="43.576527" lon="12.666882">
        <ele>236.443422</ele>
        <time>2020-02-25T06:56:08.956Z</time>
      </trkpt>
      <trkpt lat="43.577801" lon="12.667654">
        <ele>235.675573</ele>
        <time>2020-02-25T06:56:36.685Z</time>
      </trkpt>
      <trkpt lat="43.577895" lon="12.667733">
        <ele>235.594817</ele>
        <time>2020-02-25T06:56:38.912Z</time>
      </trkpt>
      <trkpt lat="43.577981" lon="12.667860">
        <ele>235.502404</ele>
        <time>2020-02-25T06:56:41.267Z</time>
      </trkpt>
      <trkpt lat="43.578086" lon="12.668081">
        <ele>235.361910</ele>
        <time>2020-02-25T06:56:45.197Z</time>
      </trkpt>
      <trkpt lat="43.578356" lon="12.668374">
        <ele>235.109891</ele>
        <time>2020-02-25T06:56:52.026Z</time>
      </trkpt>
      <trkpt lat="43.578861" lon="12.668738">
        <ele>234.717680</ele>
        <time>2020-02-25T06:57:03.445Z</time>
      </trkpt>
      <trkpt lat="43.580166" lon="12.669452">
        <ele>233.808813</ele>
        <time>2020-02-25T06:57:31.963Z</time>
      </trkpt>
      <trkpt lat="43.580966" lon="12.669897">
        <ele>233.158416</ele>
        <time>2020-02-25T06:57:48.766Z</time>
      </trkpt>
      <trkpt lat="43.581254" lon="12.670060">
        <ele>232.919556</ele>
        <time>2020-02-25T06:57:54.894Z</time>
      </trkpt>
      <trkpt lat="43.581801" lon="12.670436">
        <ele>232.450638</ele>
        <time>2020-02-25T06:58:07.089Z</time>
      </trkpt>
      <trkpt lat="43.581997" lon="12.670597">
        <ele>232.279621</ele>
        <time>2020-02-25T06:58:11.630Z</time>
      </trkpt>
      <trkpt lat="43.582185" lon="12.670754">
        <ele>232.118429</ele>
        <time>2020-02-25T06:58:16.237Z</time>
      </trkpt>
      <trkpt lat="43.582984" lon="12.671237">
        <ele>231.478534</ele>
        <time>2020-02-25T06:58:34.168Z</time>
      </trkpt>
      <trkpt lat="43.583630" lon="12.671705">
        <ele>230.777499</ele>
        <time>2020-02-25T06:58:48.452Z</time>
      </trkpt>
      <trkpt lat="43.583865" lon="12.671897">
        <ele>230.257034</ele>
        <time>2020-02-25T06:58:53.359Z</time>
      </trkpt>
      <trkpt lat="43.584275" lon="12.672381">
        <ele>229.228843</ele>
        <time>2020-02-25T06:59:02.935Z</time>
      </trkpt>
      <trkpt lat="43.584404" lon="12.672480">
        <ele>228.947536</ele>
        <time>2020-02-25T06:59:05.361Z</time>
      </trkpt>
      <trkpt lat="43.584499" lon="12.672552">
        <ele>228.740978</ele>
        <time>2020-02-25T06:59:07.297Z</time>
      </trkpt>
      <trkpt lat="43.584737" lon="12.672768">
        <ele>228.198114</ele>
        <time>2020-02-25T06:59:12.098Z</time>
      </trkpt>
      <trkpt lat="43.584908" lon="12.672871">
        <ele>227.842522</ele>
        <time>2020-02-25T06:59:15.432Z</time>
      </trkpt>
      <trkpt lat="43.585344" lon="12.673010">
        <ele>227.305315</ele>
        <time>2020-02-25T06:59:23.154Z</time>
      </trkpt>
      <trkpt lat="43.585788" lon="12.673139">
        <ele>226.874329</ele>
        <time>2020-02-25T06:59:31.201Z</time>
      </trkpt>
      <trkpt lat="43.587058" lon="12.673520">
        <ele>226.110575</ele>
        <time>2020-02-25T06:59:59.029Z</time>
      </trkpt>
      <trkpt lat="43.587827" lon="12.673732">
        <ele>226.661489</ele>
        <time>2020-02-25T07:00:20.016Z</time>
      </trkpt>
      <trkpt lat="43.590044" lon="12.674445">
        <ele>228.070701</ele>
        <time>2020-02-25T07:01:17.842Z</time>
      </trkpt>
      <trkpt lat="43.592045" lon="12.674836">
        <ele>227.781500</ele>
        <time>2020-02-25T07:02:00.864Z</time>
      </trkpt>
      <trkpt lat="43.593526" lon="12.674965">
        <ele>226.712754</ele>
        <time>2020-02-25T07:02:30.250Z</time>
      </trkpt>
      <trkpt lat="43.594109" lon="12.675022">
        <ele>226.176146</ele>
        <time>2020-02-25T07:02:41.809Z</time>
      </trkpt>
      <trkpt lat="43.594543" lon="12.675086">
        <ele>225.657628</ele>
        <time>2020-02-25T07:02:50.206Z</time>
      </trkpt>
      <trkpt lat="43.594907" lon="12.675165">
        <ele>225.219893</ele>
        <time>2020-02-25T07:02:57.217Z</time>
      </trkpt>
      <trkpt lat="43.594937" lon="12.675172">
        <ele>225.183748</ele>
        <time>2020-02-25T07:02:57.813Z</time>
      </trkpt>
      <trkpt lat="43.595454" lon="12.675316">
        <ele>224.557188</ele>
        <time>2020-02-25T07:03:07.674Z</time>
      </trkpt>
      <trkpt lat="43.595892" lon="12.675438">
        <ele>223.795615</ele>
        <time>2020-02-25T07:03:15.750Z</time>
      </trkpt>
      <trkpt lat="43.596392" lon="12.675484">
        <ele>222.739890</ele>
        <time>2020-02-25T07:03:24.653Z</time>
      </trkpt>
      <trkpt lat="43.598595" lon="12.675438">
        <ele>218.094878</ele>
        <time>2020-02-25T07:04:02.156Z</time>
      </trkpt>
      <trkpt lat="43.599142" lon="12.675500">
        <ele>216.937053</ele>
        <time>2020-02-25T07:04:11.928Z</time>
      </trkpt>
      <trkpt lat="43.599793" lon="12.675553">
        <ele>216.451321</ele>
        <time>2020-02-25T07:04:24.335Z</time>
      </trkpt>
      <trkpt lat="43.600675" lon="12.675513">
        <ele>215.994182</ele>
        <time>2020-02-25T07:04:43.412Z</time>
      </trkpt>
      <trkpt lat="43.601594" lon="12.675116">
        <ele>215.549739</ele>
        <time>2020-02-25T07:05:05.046Z</time>
      </trkpt>
      <trkpt lat="43.601885" lon="12.675001">
        <ele>215.420101</ele>
        <time>2020-02-25T07:05:11.537Z</time>
      </trkpt>
      <trkpt lat="43.602004" lon="12.674967">
        <ele>215.368054</ele>
        <time>2020-02-25T07:05:14.186Z</time>
      </trkpt>
      <trkpt lat="43.602111" lon="12.674937">
        <ele>215.321291</ele>
        <time>2020-02-25T07:05:16.169Z</time>
      </trkpt>
      <trkpt lat="43.602430" lon="12.674933">
        <ele>215.184659</ele>
        <time>2020-02-25T07:05:22.763Z</time>
      </trkpt>
      <trkpt lat="43.602968" lon="12.675073">
        <ele>214.673555</ele>
        <time>2020-02-25T07:05:33.539Z</time>
      </trkpt>
      <trkpt lat="43.603448" lon="12.675123">
        <ele>213.824639</ele>
        <time>2020-02-25T07:05:42.372Z</time>
      </trkpt>
      <trkpt lat="43.603690" lon="12.675097">
        <ele>213.396567</ele>
        <time>2020-02-25T07:05:46.390Z</time>
      </trkpt>
      <trkpt lat="43.603753" lon="12.675090">
        <ele>213.285103</ele>
        <time>2020-02-25T07:05:47.554Z</time>
      </trkpt>
      <trkpt lat="43.604047" lon="12.675058">
        <ele>212.765007</ele>
        <time>2020-02-25T07:05:52.663Z</time>
      </trkpt>
      <trkpt lat="43.604552" lon="12.675003">
        <ele>211.871641</ele>
        <time>2020-02-25T07:06:01.592Z</time>
      </trkpt>
      <trkpt lat="43.604683" lon="12.674988">
        <ele>211.670706</ele>
        <time>2020-02-25T07:06:03.897Z</time>
      </trkpt>
      <trkpt lat="43.604701" lon="12.675239">
        <ele>211.392417</ele>
        <time>2020-02-25T07:06:07.192Z</time>
      </trkpt>
      <trkpt lat="43.604726" lon="12.675308">
        <ele>211.307289</ele>
        <time>2020-02-25T07:06:08.165Z</time>
      </trkpt>
      <trkpt lat="43.604758" lon="12.675362">
        <ele>211.230302</ele>
        <time>2020-02-25T07:06:09.112Z</time>
      </trkpt>
      <trkpt lat="43.604802" lon="12.675414">
        <ele>211.142062</ele>
        <time>2020-02-25T07:06:10.098Z</time>
      </trkpt>
      <trkpt lat="43.604952" lon="12.675365">
        <ele>210.907202</ele>
        <time>2020-02-25T07:06:12.876Z</time>
      </trkpt>
      <trkpt lat="43.605622" lon="12.675133">
        <ele>209.854730</ele>
        <time>2020-02-25T07:06:25.425Z</time>
      </trkpt>
      <trkpt lat="43.605848" lon="12.675055">
        <ele>209.499786</ele>
        <time>2020-02-25T07:06:29.709Z</time>
      </trkpt>
      <trkpt lat="43.606887" lon="12.674709">
        <ele>208.665483</ele>
        <time>2020-02-25T07:06:50.894Z</time>
      </trkpt>
      <trkpt lat="43.608137" lon="12.674304">
        <ele>208.097892</ele>
        <time>2020-02-25T07:07:18.146Z</time>
      </trkpt>
      <trkpt lat="43.608537" lon="12.674155">
        <ele>208.068249</ele>
        <time>2020-02-25T07:07:27.039Z</time>
      </trkpt>
      <trkpt lat="43.608652" lon="12.674105">
        <ele>208.059622</ele>
        <time>2020-02-25T07:07:29.588Z</time>
      </trkpt>
      <trkpt lat="43.608935" lon="12.673980">
        <ele>208.038363</ele>
        <time>2020-02-25T07:07:36.084Z</time>
      </trkpt>
      <trkpt lat="43.609024" lon="12.673941">
        <ele>208.031682</ele>
        <time>2020-02-25T07:07:38.070Z</time>
      </trkpt>
      <trkpt lat="43.609428" lon="12.673763">
        <ele>208.001340</ele>
        <time>2020-02-25T07:07:47.475Z</time>
      </trkpt>
      <trkpt lat="43.610682" lon="12.673211">
        <ele>208.310005</ele>
        <time>2020-02-25T07:08:18.354Z</time>
      </trkpt>
      <trkpt lat="43.610912" lon="12.673102">
        <ele>208.375910</ele>
        <time>2020-02-25T07:08:24.220Z</time>
      </trkpt>
      <trkpt lat="43.611504" lon="12.672820">
        <ele>208.444559</ele>
        <time>2020-02-25T07:08:39.032Z</time>
      </trkpt>
      <trkpt lat="43.612596" lon="12.672304">
        <ele>208.284356</ele>
        <time>2020-02-25T07:09:04.712Z</time>
      </trkpt>
      <trkpt lat="43.612733" lon="12.672239">
        <ele>208.264249</ele>
        <time>2020-02-25T07:09:07.686Z</time>
      </trkpt>
      <trkpt lat="43.613139" lon="12.672073">
        <ele>207.913813</ele>
        <time>2020-02-25T07:09:16.186Z</time>
      </trkpt>
      <trkpt lat="43.613341" lon="12.672053">
        <ele>207.539056</ele>
        <time>2020-02-25T07:09:20.065Z</time>
      </trkpt>
      <trkpt lat="43.613532" lon="12.672091">
        <ele>207.181966</ele>
        <time>2020-02-25T07:09:23.622Z</time>
      </trkpt>
      <trkpt lat="43.613692" lon="12.672142">
        <ele>206.878106</ele>
        <time>2020-02-25T07:09:26.638Z</time>
      </trkpt>
      <trkpt lat="43.613952" lon="12.672241">
        <ele>206.379033</ele>
        <time>2020-02-25T07:09:31.401Z</time>
      </trkpt>
      <trkpt lat="43.614149" lon="12.672321">
        <ele>205.999058</ele>
        <time>2020-02-25T07:09:34.943Z</time>
      </trkpt>
      <trkpt lat="43.614623" lon="12.672515">
        <ele>205.084230</ele>
        <time>2020-02-25T07:09:43.176Z</time>
      </trkpt>
      <trkpt lat="43.614802" lon="12.672566">
        <ele>204.739218</ele>
        <time>2020-02-25T07:09:46.161Z</time>
      </trkpt>
      <trkpt lat="43.614904" lon="12.672581">
        <ele>204.541060</ele>
        <time>2020-02-25T07:09:47.792Z</time>
      </trkpt>
      <trkpt lat="43.615134" lon="12.672593">
        <ele>204.096427</ele>
        <time>2020-02-25T07:09:51.764Z</time>
      </trkpt>
      <trkpt lat="43.615292" lon="12.672597">
        <ele>203.791150</ele>
        <time>2020-02-25T07:09:54.516Z</time>
      </trkpt>
      <trkpt lat="43.615777" lon="12.672634">
        <ele>202.852794</ele>
        <time>2020-02-25T07:10:03.150Z</time>
      </trkpt>
      <trkpt lat="43.615836" lon="12.672643">
        <ele>202.738125</ele>
        <time>2020-02-25T07:10:04.230Z</time>
      </trkpt>
      <trkpt lat="43.615898" lon="12.672573">
        <ele>202.583431</ele>
        <time>2020-02-25T07:10:05.571Z</time>
      </trkpt>
      <trkpt lat="43.616269" lon="12.672353">
        <ele>201.803474</ele>
        <time>2020-02-25T07:10:12.960Z</time>
      </trkpt>
      <trkpt lat="43.616337" lon="12.672314">
        <ele>201.661237</ele>
        <time>2020-02-25T07:10:14.482Z</time>
      </trkpt>
      <trkpt lat="43.616450" lon="12.672247">
        <ele>201.425116</ele>
        <time>2020-02-25T07:10:16.798Z</time>
      </trkpt>
      <trkpt lat="43.616571" lon="12.672168">
        <ele>201.317945</ele>
        <time>2020-02-25T07:10:19.178Z</time>
      </trkpt>
      <trkpt lat="43.616641" lon="12.672136">
        <ele>201.258902</ele>
        <time>2020-02-25T07:10:20.923Z</time>
      </trkpt>
      <trkpt lat="43.617003" lon="12.672174">
        <ele>200.968192</ele>
        <time>2020-02-25T07:10:27.965Z</time>
      </trkpt>
      <trkpt lat="43.617352" lon="12.672309">
        <ele>200.677976</ele>
        <time>2020-02-25T07:10:35.183Z</time>
      </trkpt>
      <trkpt lat="43.617508" lon="12.672369">
        <ele>200.548305</ele>
        <time>2020-02-25T07:10:38.460Z</time>
      </trkpt>
      <trkpt lat="43.617769" lon="12.672467">
        <ele>200.331723</ele>
        <time>2020-02-25T07:10:44.403Z</time>
      </trkpt>
      <trkpt lat="43.617956" lon="12.672541">
        <ele>200.175958</ele>
        <time>2020-02-25T07:10:48.530Z</time>
      </trkpt>
      <trkpt lat="43.618230" lon="12.672669">
        <ele>199.919076</ele>
        <time>2020-02-25T07:10:54.331Z</time>
      </trkpt>
      <trkpt lat="43.618280" lon="12.672741">
        <ele>199.826036</ele>
        <time>2020-02-25T07:10:55.793Z</time>
      </trkpt>
      <trkpt lat="43.618314" lon="12.672848">
        <ele>199.717066</ele>
        <time>2020-02-25T07:10:57.371Z</time>
      </trkpt>
      <trkpt lat="43.618516" lon="12.672911">
        <ele>199.450313</ele>
        <time>2020-02-25T07:11:01.246Z</time>
      </trkpt>
      <trkpt lat="43.619419" lon="12.673292">
        <ele>198.234076</ele>
        <time>2020-02-25T07:11:18.363Z</time>
      </trkpt>
      <trkpt lat="43.620919" lon="12.674034">
        <ele>196.438499</ele>
        <time>2020-02-25T07:11:48.348Z</time>
      </trkpt>
      <trkpt lat="43.621071" lon="12.674161">
        <ele>196.249180</ele>
        <time>2020-02-25T07:11:51.848Z</time>
      </trkpt>
      <trkpt lat="43.621451" lon="12.674661">
        <ele>195.708099</ele>
        <time>2020-02-25T07:12:02.242Z</time>
      </trkpt>
      <trkpt lat="43.621642" lon="12.674938">
        <ele>195.499382</ele>
        <time>2020-02-25T07:12:07.808Z</time>
      </trkpt>
      <trkpt lat="43.622870" lon="12.676630">
        <ele>194.185172</ele>
        <time>2020-02-25T07:12:42.400Z</time>
      </trkpt>
      <trkpt lat="43.622942" lon="12.676750">
        <ele>194.097219</ele>
        <time>2020-02-25T07:12:44.609Z</time>
      </trkpt>
      <trkpt lat="43.622992" lon="12.676860">
        <ele>194.023924</ele>
        <time>2020-02-25T07:12:46.450Z</time>
      </trkpt>
      <trkpt lat="43.622999" lon="12.676893">
        <ele>194.004519</ele>
        <time>2020-02-25T07:12:46.938Z</time>
      </trkpt>
      <trkpt lat="43.623039" lon="12.676948">
        <ele>193.960524</ele>
        <time>2020-02-25T07:12:48.073Z</time>
      </trkpt>
      <trkpt lat="43.623072" lon="12.676960">
        <ele>193.933923</ele>
        <time>2020-02-25T07:12:48.738Z</time>
      </trkpt>
      <trkpt lat="43.623141" lon="12.677024">
        <ele>193.869136</ele>
        <time>2020-02-25T07:12:50.359Z</time>
      </trkpt>
      <trkpt lat="43.623215" lon="12.677111">
        <ele>193.793388</ele>
        <time>2020-02-25T07:12:52.250Z</time>
      </trkpt>
      <trkpt lat="43.624662" lon="12.679089">
        <ele>192.539942</ele>
        <time>2020-02-25T07:13:32.586Z</time>
      </trkpt>
      <trkpt lat="43.625131" lon="12.679655">
        <ele>192.259930</ele>
        <time>2020-02-25T07:13:45.971Z</time>
      </trkpt>
      <trkpt lat="43.625399" lon="12.679922">
        <ele>192.248673</ele>
        <time>2020-02-25T07:13:53.527Z</time>
      </trkpt>
      <trkpt lat="43.625606" lon="12.680117">
        <ele>192.344222</ele>
        <time>2020-02-25T07:13:59.436Z</time>
      </trkpt>
      <trkpt lat="43.625852" lon="12.680313">
        <ele>192.452522</ele>
        <time>2020-02-25T07:14:06.335Z</time>
      </trkpt>
      <trkpt lat="43.626589" lon="12.680863">
        <ele>192.771974</ele>
        <time>2020-02-25T07:14:26.890Z</time>
      </trkpt>
      <trkpt lat="43.627162" lon="12.681294">
        <ele>192.765807</ele>
        <time>2020-02-25T07:14:42.476Z</time>
      </trkpt>
      <trkpt lat="43.627610" lon="12.681629">
        <ele>192.628053</ele>
        <time>2020-02-25T07:14:54.043Z</time>
      </trkpt>
      <trkpt lat="43.628020" lon="12.681926">
        <ele>192.502867</ele>
        <time>2020-02-25T07:15:03.579Z</time>
      </trkpt>
      <trkpt lat="43.629014" lon="12.682645">
        <ele>191.620221</ele>
        <time>2020-02-25T07:15:24.933Z</time>
      </trkpt>
      <trkpt lat="43.629054" lon="12.682740">
        <ele>191.531629</ele>
        <time>2020-02-25T07:15:26.358Z</time>
      </trkpt>
      <trkpt lat="43.629091" lon="12.682855">
        <ele>191.430183</ele>
        <time>2020-02-25T07:15:28.142Z</time>
      </trkpt>
      <trkpt lat="43.629101" lon="12.682961">
        <ele>191.344015</ele>
        <time>2020-02-25T07:15:29.577Z</time>
      </trkpt>
      <trkpt lat="43.629080" lon="12.683132">
        <ele>191.204204</ele>
        <time>2020-02-25T07:15:31.985Z</time>
      </trkpt>
      <trkpt lat="43.629057" lon="12.683258">
        <ele>191.099457</ele>
        <time>2020-02-25T07:15:33.703Z</time>
      </trkpt>
      <trkpt lat="43.629125" lon="12.683515">
        <ele>190.878885</ele>
        <time>2020-02-25T07:15:37.486Z</time>
      </trkpt>
      <trkpt lat="43.629597" lon="12.683764">
        <ele>190.400540</ele>
        <time>2020-02-25T07:15:47.057Z</time>
      </trkpt>
      <trkpt lat="43.629769" lon="12.683943">
        <ele>190.467457</ele>
        <time>2020-02-25T07:15:51.372Z</time>
      </trkpt>
      <trkpt lat="43.629762" lon="12.684281">
        <ele>190.543514</ele>
        <time>2020-02-25T07:15:56.229Z</time>
      </trkpt>
      <trkpt lat="43.629704" lon="12.684442">
        <ele>190.583964</ele>
        <time>2020-02-25T07:15:58.887Z</time>
      </trkpt>
      <trkpt lat="43.629522" lon="12.684559">
        <ele>190.646344</ele>
        <time>2020-02-25T07:16:03.091Z</time>
      </trkpt>
      <trkpt lat="43.629414" lon="12.684542">
        <ele>190.680123</ele>
        <time>2020-02-25T07:16:05.554Z</time>
      </trkpt>
      <trkpt lat="43.629301" lon="12.684483">
        <ele>190.717662</ele>
        <time>2020-02-25T07:16:08.227Z</time>
      </trkpt>
      <trkpt lat="43.629077" lon="12.684258">
        <ele>190.803724</ele>
        <time>2020-02-25T07:16:14.861Z</time>
      </trkpt>
      <trkpt lat="43.628620" lon="12.683907">
        <ele>191.358661</ele>
        <time>2020-02-25T07:16:29.131Z</time>
      </trkpt>
      <trkpt lat="43.628540" lon="12.683892">
        <ele>191.775559</ele>
        <time>2020-02-25T07:16:31.786Z</time>
      </trkpt>
      <trkpt lat="43.628464" lon="12.683903">
        <ele>192.170162</ele>
        <time>2020-02-25T07:16:34.327Z</time>
      </trkpt>
      <trkpt lat="43.628388" lon="12.683948">
        <ele>192.597143</ele>
        <time>2020-02-25T07:16:37.124Z</time>
      </trkpt>
      <trkpt lat="43.628327" lon="12.684020">
        <ele>193.011449</ele>
        <time>2020-02-25T07:16:40.106Z</time>
      </trkpt>
      <trkpt lat="43.628275" lon="12.684137">
        <ele>193.524628</ele>
        <time>2020-02-25T07:16:44.640Z</time>
      </trkpt>
      <trkpt lat="43.628251" lon="12.684237">
        <ele>193.918418</ele>
        <time>2020-02-25T07:16:47.503Z</time>
      </trkpt>
      <trkpt lat="43.628115" lon="12.684802">
        <ele>196.143980</ele>
        <time>2020-02-25T07:17:04.779Z</time>
      </trkpt>
      <trkpt lat="43.627950" lon="12.685486">
        <ele>198.838875</ele>
        <time>2020-02-25T07:17:29.624Z</time>
      </trkpt>
      <trkpt lat="43.627844" lon="12.685857">
        <ele>200.385588</ele>
        <time>2020-02-25T07:17:45.584Z</time>
      </trkpt>
      <trkpt lat="43.627838" lon="12.686046">
        <ele>201.485189</ele>
        <time>2020-02-25T07:17:54.096Z</time>
      </trkpt>
      <trkpt lat="43.627911" lon="12.686409">
        <ele>203.675009</ele>
        <time>2020-02-25T07:18:09.860Z</time>
      </trkpt>
      <trkpt lat="43.628015" lon="12.686592">
        <ele>205.027347</ele>
        <time>2020-02-25T07:18:19.597Z</time>
      </trkpt>
      <trkpt lat="43.628300" lon="12.686972">
        <ele>208.207888</ele>
        <time>2020-02-25T07:18:42.968Z</time>
      </trkpt>
      <trkpt lat="43.628468" lon="12.687201">
        <ele>210.103026</ele>
        <time>2020-02-25T07:18:57.061Z</time>
      </trkpt>
      <trkpt lat="43.628494" lon="12.687237">
        <ele>210.398614</ele>
        <time>2020-02-25T07:18:59.062Z</time>
      </trkpt>
      <trkpt lat="43.628660" lon="12.687460">
        <ele>212.257874</ele>
        <time>2020-02-25T07:19:11.938Z</time>
      </trkpt>
      <trkpt lat="43.628841" lon="12.687725">
        <ele>214.375626</ele>
        <time>2020-02-25T07:19:25.227Z</time>
      </trkpt>
      <trkpt lat="43.628983" lon="12.687993">
        <ele>215.142715</ele>
        <time>2020-02-25T07:19:35.701Z</time>
      </trkpt>
      <trkpt lat="43.629368" lon="12.689016">
        <ele>217.072684</ele>
        <time>2020-02-25T07:20:08.209Z</time>
      </trkpt>
      <trkpt lat="43.629598" lon="12.690273">
        <ele>218.188470</ele>
        <time>2020-02-25T07:20:26.700Z</time>
      </trkpt>
      <trkpt lat="43.629885" lon="12.691115">
        <ele>215.752823</ele>
        <time>2020-02-25T07:20:37.491Z</time>
      </trkpt>
      <trkpt lat="43.629992" lon="12.691381">
        <ele>214.956416</ele>
        <time>2020-02-25T07:20:40.840Z</time>
      </trkpt>
      <trkpt lat="43.630567" lon="12.692295">
        <ele>211.917707</ele>
        <time>2020-02-25T07:20:54.203Z</time>
      </trkpt>
      <trkpt lat="43.630715" lon="12.692686">
        <ele>211.041367</ele>
        <time>2020-02-25T07:20:59.304Z</time>
      </trkpt>
      <trkpt lat="43.630780" lon="12.693120">
        <ele>210.161145</ele>
        <time>2020-02-25T07:21:04.533Z</time>
      </trkpt>
      <trkpt lat="43.630825" lon="12.693284">
        <ele>209.812808</ele>
        <time>2020-02-25T07:21:06.530Z</time>
      </trkpt>
      <trkpt lat="43.630936" lon="12.693519">
        <ele>209.255487</ele>
        <time>2020-02-25T07:21:10.083Z</time>
      </trkpt>
      <trkpt lat="43.631161" lon="12.693755">
        <ele>208.480331</ele>
        <time>2020-02-25T07:21:14.916Z</time>
      </trkpt>
      <trkpt lat="43.631610" lon="12.694030">
        <ele>207.426931</ele>
        <time>2020-02-25T07:21:24.043Z</time>
      </trkpt>
      <trkpt lat="43.631983" lon="12.694769">
        <ele>207.660578</ele>
        <time>2020-02-25T07:21:38.924Z</time>
      </trkpt>
      <trkpt lat="43.632230" lon="12.695109">
        <ele>207.785507</ele>
        <time>2020-02-25T07:21:48.135Z</time>
      </trkpt>
      <trkpt lat="43.632926" lon="12.695339">
        <ele>208.045997</ele>
        <time>2020-02-25T07:22:06.519Z</time>
      </trkpt>
      <trkpt lat="43.633086" lon="12.695598">
        <ele>208.214023</ele>
        <time>2020-02-25T07:22:13.028Z</time>
      </trkpt>
      <trkpt lat="43.633195" lon="12.696178">
        <ele>208.509712</ele>
        <time>2020-02-25T07:22:24.534Z</time>
      </trkpt>
      <trkpt lat="43.633134" lon="12.696801">
        <ele>208.819930</ele>
        <time>2020-02-25T07:22:36.599Z</time>
      </trkpt>
      <trkpt lat="43.633207" lon="12.697307">
        <ele>209.074525</ele>
        <time>2020-02-25T07:22:45.932Z</time>
      </trkpt>
      <trkpt lat="43.633287" lon="12.697535">
        <ele>209.199554</ele>
        <time>2020-02-25T07:22:50.272Z</time>
      </trkpt>
      <trkpt lat="43.633635" lon="12.697995">
        <ele>208.675993</ele>
        <time>2020-02-25T07:23:00.431Z</time>
      </trkpt>
      <trkpt lat="43.633835" lon="12.698385">
        <ele>208.151454</ele>
        <time>2020-02-25T07:23:07.099Z</time>
      </trkpt>
      <trkpt lat="43.633989" lon="12.699042">
        <ele>207.393580</ele>
        <time>2020-02-25T07:23:16.165Z</time>
      </trkpt>
      <trkpt lat="43.633959" lon="12.699611">
        <ele>206.767495</ele>
        <time>2020-02-25T07:23:23.139Z</time>
      </trkpt>
      <trkpt lat="43.633613" lon="12.701347">
        <ele>203.625877</ele>
        <time>2020-02-25T07:23:44.621Z</time>
      </trkpt>
      <trkpt lat="43.633645" lon="12.701587">
        <ele>203.179175</ele>
        <time>2020-02-25T07:23:47.479Z</time>
      </trkpt>
      <trkpt lat="43.633804" lon="12.702434">
        <ele>202.151768</ele>
        <time>2020-02-25T07:23:58.670Z</time>
      </trkpt>
      <trkpt lat="43.633812" lon="12.702447">
        <ele>202.164277</ele>
        <time>2020-02-25T07:23:58.843Z</time>
      </trkpt>
      <trkpt lat="43.634089" lon="12.703978">
        <ele>203.321162</ele>
        <time>2020-02-25T07:24:26.318Z</time>
      </trkpt>
      <trkpt lat="43.634092" lon="12.704658">
        <ele>203.861231</ele>
        <time>2020-02-25T07:24:43.369Z</time>
      </trkpt>
      <trkpt lat="43.633816" lon="12.706281">
        <ele>210.004270</ele>
        <time>2020-02-25T07:25:36.303Z</time>
      </trkpt>
      <trkpt lat="43.633641" lon="12.707311">
        <ele>213.316545</ele>
        <time>2020-02-25T07:26:11.776Z</time>
      </trkpt>
      <trkpt lat="43.633677" lon="12.707614">
        <ele>213.739857</ele>
        <time>2020-02-25T07:26:20.974Z</time>
      </trkpt>
      <trkpt lat="43.633799" lon="12.707963">
        <ele>214.274173</ele>
        <time>2020-02-25T07:26:31.717Z</time>
      </trkpt>
      <trkpt lat="43.634150" lon="12.708726">
        <ele>215.520546</ele>
        <time>2020-02-25T07:26:51.159Z</time>
      </trkpt>
      <trkpt lat="43.634246" lon="12.709260">
        <ele>216.279091</ele>
        <time>2020-02-25T07:26:58.986Z</time>
      </trkpt>
      <trkpt lat="43.634244" lon="12.710007">
        <ele>213.713602</ele>
        <time>2020-02-25T07:27:07.788Z</time>
      </trkpt>
      <trkpt lat="43.634367" lon="12.711685">
        <ele>206.919864</ele>
        <time>2020-02-25T07:27:25.426Z</time>
      </trkpt>
      <trkpt lat="43.634193" lon="12.712644">
        <ele>201.722409</ele>
        <time>2020-02-25T07:27:35.481Z</time>
      </trkpt>
      <trkpt lat="43.634031" lon="12.713070">
        <ele>199.100228</ele>
        <time>2020-02-25T07:27:40.435Z</time>
      </trkpt>
      <trkpt lat="43.633945" lon="12.713210">
        <ele>198.099644</ele>
        <time>2020-02-25T07:27:42.254Z</time>
      </trkpt>
      <trkpt lat="43.634018" lon="12.713208">
        <ele>197.549940</ele>
        <time>2020-02-25T07:27:43.386Z</time>
      </trkpt>
      <trkpt lat="43.634381" lon="12.712626">
        <ele>193.363530</ele>
        <time>2020-02-25T07:27:51.700Z</time>
      </trkpt>
      <trkpt lat="43.634817" lon="12.712163">
        <ele>190.605931</ele>
        <time>2020-02-25T07:27:59.862Z</time>
      </trkpt>
      <trkpt lat="43.635007" lon="12.711695">
        <ele>188.799610</ele>
        <time>2020-02-25T07:28:05.901Z</time>
      </trkpt>
      <trkpt lat="43.635202" lon="12.711573">
        <ele>187.804003</ele>
        <time>2020-02-25T07:28:09.972Z</time>
      </trkpt>
      <trkpt lat="43.635347" lon="12.711543">
        <ele>187.122078</ele>
        <time>2020-02-25T07:28:12.266Z</time>
      </trkpt>
      <trkpt lat="43.635867" lon="12.711414">
        <ele>184.664844</ele>
        <time>2020-02-25T07:28:21.527Z</time>
      </trkpt>
      <trkpt lat="43.636150" lon="12.711381">
        <ele>184.259217</ele>
        <time>2020-02-25T07:28:26.569Z</time>
      </trkpt>
      <trkpt lat="43.636196" lon="12.711394">
        <ele>184.217605</ele>
        <time>2020-02-25T07:28:27.445Z</time>
      </trkpt>
      <trkpt lat="43.636245" lon="12.711429">
        <ele>184.168718</ele>
        <time>2020-02-25T07:28:28.812Z</time>
      </trkpt>
      <trkpt lat="43.636280" lon="12.711479">
        <ele>184.124101</ele>
        <time>2020-02-25T07:28:30.227Z</time>
      </trkpt>
      <trkpt lat="43.636424" lon="12.711802">
        <ele>183.880769</ele>
        <time>2020-02-25T07:28:35.001Z</time>
      </trkpt>
      <trkpt lat="43.636467" lon="12.711840">
        <ele>183.835532</ele>
        <time>2020-02-25T07:28:36.949Z</time>
      </trkpt>
      <trkpt lat="43.636604" lon="12.712226">
        <ele>183.559775</ele>
        <time>2020-02-25T07:28:42.335Z</time>
      </trkpt>
      <trkpt lat="43.636799" lon="12.712559">
        <ele>183.285023</ele>
        <time>2020-02-25T07:28:50.008Z</time>
      </trkpt>
      <trkpt lat="43.637029" lon="12.712762">
        <ele>183.043146</ele>
        <time>2020-02-25T07:28:57.394Z</time>
      </trkpt>
      <trkpt lat="43.638266" lon="12.713379">
        <ele>182.880614</ele>
        <time>2020-02-25T07:29:29.574Z</time>
      </trkpt>
    </trkseg>
  </trk>
</gpx>